<?xml version="1.0" encoding="UTF-8" standalone="no" ?>
<gpx xmlns="http://www.topografix.com/GPX/1/1" xmlns:xsi="http://www.w3.org/2001/XMLSchema-instance" xsi:schemaLocation="http://www.topografix.com/GPX/1/1 http://www.topografix.com/GPX/1/1/gpx.xsd" version="1.1" creator="VisuGPX - https://www.visugpx.com">
  <metadata>
    <name>2018-02-20 Bike ride-Ambérieux Saône O</name>
    <desc><![CDATA[2018-02-20 Bike ride-Ambérieux Saône O]]></desc>
  </metadata>
  <wpt lat="45.92451" lon="4.73703">
    <ele>174</ele>
    <name><![CDATA[2018-02-20 11:03 (Start)]]></name>
  </wpt>
  <wpt lat="45.9246" lon="4.73711">
    <ele>174</ele>
    <name><![CDATA[2018-02-20 11:03 (End)]]></name>
  </wpt>
  <trk>
    <name><![CDATA[2018-02-20 11:03]]></name>
    <trkseg>
      <trkpt lat="45.92451" lon="4.73703">
        <ele>174</ele>
        <time>2018-02-20T10:03:15.423Z</time>
      </trkpt>
      <trkpt lat="45.92446" lon="4.73726">
        <ele>174</ele>
        <time>2018-02-20T10:03:13.354Z</time>
      </trkpt>
      <trkpt lat="45.92449" lon="4.73714">
        <ele>174</ele>
        <time>2018-02-20T10:03:14.354Z</time>
      </trkpt>
      <trkpt lat="45.92447" lon="4.73725">
        <ele>174</ele>
        <time>2018-02-20T10:03:15.354Z</time>
      </trkpt>
      <trkpt lat="45.92446" lon="4.73721">
        <ele>174</ele>
        <time>2018-02-20T10:03:16.354Z</time>
      </trkpt>
      <trkpt lat="45.92455" lon="4.7372">
        <ele>174</ele>
        <time>2018-02-20T10:03:17.354Z</time>
      </trkpt>
      <trkpt lat="45.92449" lon="4.7372">
        <ele>174</ele>
        <time>2018-02-20T10:03:18.354Z</time>
      </trkpt>
      <trkpt lat="45.92445" lon="4.73726">
        <ele>174</ele>
        <time>2018-02-20T10:03:19.354Z</time>
      </trkpt>
      <trkpt lat="45.92446" lon="4.7374">
        <ele>174</ele>
        <time>2018-02-20T10:03:20.358Z</time>
      </trkpt>
      <trkpt lat="45.9245" lon="4.73703">
        <ele>174</ele>
        <time>2018-02-20T10:03:22Z</time>
      </trkpt>
      <trkpt lat="45.92456" lon="4.73703">
        <ele>174</ele>
        <time>2018-02-20T10:03:40Z</time>
      </trkpt>
      <trkpt lat="45.9246" lon="4.73702">
        <ele>174</ele>
        <time>2018-02-20T10:03:41Z</time>
      </trkpt>
      <trkpt lat="45.92463" lon="4.73693">
        <ele>174</ele>
        <time>2018-02-20T10:03:45Z</time>
      </trkpt>
      <trkpt lat="45.92464" lon="4.73691">
        <ele>174</ele>
        <time>2018-02-20T10:03:46Z</time>
      </trkpt>
      <trkpt lat="45.92464" lon="4.73678">
        <ele>174</ele>
        <time>2018-02-20T10:03:50Z</time>
      </trkpt>
      <trkpt lat="45.92464" lon="4.73674">
        <ele>174</ele>
        <time>2018-02-20T10:03:51Z</time>
      </trkpt>
      <trkpt lat="45.92465" lon="4.73662">
        <ele>174</ele>
        <time>2018-02-20T10:03:54Z</time>
      </trkpt>
      <trkpt lat="45.92466" lon="4.73658">
        <ele>174</ele>
        <time>2018-02-20T10:03:55Z</time>
      </trkpt>
      <trkpt lat="45.92466" lon="4.73649">
        <ele>174</ele>
        <time>2018-02-20T10:03:57Z</time>
      </trkpt>
      <trkpt lat="45.92466" lon="4.73644">
        <ele>174</ele>
        <time>2018-02-20T10:03:58Z</time>
      </trkpt>
      <trkpt lat="45.92466" lon="4.73634">
        <ele>174</ele>
        <time>2018-02-20T10:04:00Z</time>
      </trkpt>
      <trkpt lat="45.92466" lon="4.73629">
        <ele>174</ele>
        <time>2018-02-20T10:04:01Z</time>
      </trkpt>
      <trkpt lat="45.92466" lon="4.73623">
        <ele>174</ele>
        <time>2018-02-20T10:04:02Z</time>
      </trkpt>
      <trkpt lat="45.92466" lon="4.73615">
        <ele>174</ele>
        <time>2018-02-20T10:04:03Z</time>
      </trkpt>
      <trkpt lat="45.92465" lon="4.73604">
        <ele>174</ele>
        <time>2018-02-20T10:04:05Z</time>
      </trkpt>
      <trkpt lat="45.92465" lon="4.73598">
        <ele>174</ele>
        <time>2018-02-20T10:04:06Z</time>
      </trkpt>
      <trkpt lat="45.92465" lon="4.73585">
        <ele>174</ele>
        <time>2018-02-20T10:04:08Z</time>
      </trkpt>
      <trkpt lat="45.92466" lon="4.73579">
        <ele>173</ele>
        <time>2018-02-20T10:04:09Z</time>
      </trkpt>
      <trkpt lat="45.92466" lon="4.73566">
        <ele>173</ele>
        <time>2018-02-20T10:04:11Z</time>
      </trkpt>
      <trkpt lat="45.92465" lon="4.73561">
        <ele>173</ele>
        <time>2018-02-20T10:04:12Z</time>
      </trkpt>
      <trkpt lat="45.92462" lon="4.73552">
        <ele>173</ele>
        <time>2018-02-20T10:04:14Z</time>
      </trkpt>
      <trkpt lat="45.92461" lon="4.73548">
        <ele>173</ele>
        <time>2018-02-20T10:04:15Z</time>
      </trkpt>
      <trkpt lat="45.92453" lon="4.73545">
        <ele>174</ele>
        <time>2018-02-20T10:04:17Z</time>
      </trkpt>
      <trkpt lat="45.92451" lon="4.73546">
        <ele>174</ele>
        <time>2018-02-20T10:04:18Z</time>
      </trkpt>
      <trkpt lat="45.92444" lon="4.73548">
        <ele>174</ele>
        <time>2018-02-20T10:04:20Z</time>
      </trkpt>
      <trkpt lat="45.92441" lon="4.7355">
        <ele>174</ele>
        <time>2018-02-20T10:04:21Z</time>
      </trkpt>
      <trkpt lat="45.92436" lon="4.73553">
        <ele>174</ele>
        <time>2018-02-20T10:04:22Z</time>
      </trkpt>
      <trkpt lat="45.92432" lon="4.73556">
        <ele>174</ele>
        <time>2018-02-20T10:04:23Z</time>
      </trkpt>
      <trkpt lat="45.92427" lon="4.73558">
        <ele>174</ele>
        <time>2018-02-20T10:04:24Z</time>
      </trkpt>
      <trkpt lat="45.92422" lon="4.73561">
        <ele>174</ele>
        <time>2018-02-20T10:04:25Z</time>
      </trkpt>
      <trkpt lat="45.92414" lon="4.73565">
        <ele>173</ele>
        <time>2018-02-20T10:04:27Z</time>
      </trkpt>
      <trkpt lat="45.9241" lon="4.73567">
        <ele>173</ele>
        <time>2018-02-20T10:04:28Z</time>
      </trkpt>
      <trkpt lat="45.92405" lon="4.73569">
        <ele>173</ele>
        <time>2018-02-20T10:04:29Z</time>
      </trkpt>
      <trkpt lat="45.92401" lon="4.73571">
        <ele>173</ele>
        <time>2018-02-20T10:04:30Z</time>
      </trkpt>
      <trkpt lat="45.92397" lon="4.73573">
        <ele>173</ele>
        <time>2018-02-20T10:04:31Z</time>
      </trkpt>
      <trkpt lat="45.92391" lon="4.73576">
        <ele>173</ele>
        <time>2018-02-20T10:04:32Z</time>
      </trkpt>
      <trkpt lat="45.92387" lon="4.73579">
        <ele>173</ele>
        <time>2018-02-20T10:04:33Z</time>
      </trkpt>
      <trkpt lat="45.92382" lon="4.73582">
        <ele>173</ele>
        <time>2018-02-20T10:04:34Z</time>
      </trkpt>
      <trkpt lat="45.92376" lon="4.73585">
        <ele>173</ele>
        <time>2018-02-20T10:04:35Z</time>
      </trkpt>
      <trkpt lat="45.92371" lon="4.73588">
        <ele>173</ele>
        <time>2018-02-20T10:04:36Z</time>
      </trkpt>
      <trkpt lat="45.92366" lon="4.7359">
        <ele>173</ele>
        <time>2018-02-20T10:04:37Z</time>
      </trkpt>
      <trkpt lat="45.9236" lon="4.73593">
        <ele>173</ele>
        <time>2018-02-20T10:04:38Z</time>
      </trkpt>
      <trkpt lat="45.92354" lon="4.73596">
        <ele>173</ele>
        <time>2018-02-20T10:04:39Z</time>
      </trkpt>
      <trkpt lat="45.9235" lon="4.73599">
        <ele>173</ele>
        <time>2018-02-20T10:04:40Z</time>
      </trkpt>
      <trkpt lat="45.92345" lon="4.73603">
        <ele>173</ele>
        <time>2018-02-20T10:04:41Z</time>
      </trkpt>
      <trkpt lat="45.92339" lon="4.73606">
        <ele>173</ele>
        <time>2018-02-20T10:04:42Z</time>
      </trkpt>
      <trkpt lat="45.92333" lon="4.7361">
        <ele>172</ele>
        <time>2018-02-20T10:04:43Z</time>
      </trkpt>
      <trkpt lat="45.92328" lon="4.73612">
        <ele>172</ele>
        <time>2018-02-20T10:04:44Z</time>
      </trkpt>
      <trkpt lat="45.92322" lon="4.73615">
        <ele>172</ele>
        <time>2018-02-20T10:04:45Z</time>
      </trkpt>
      <trkpt lat="45.92316" lon="4.73618">
        <ele>172</ele>
        <time>2018-02-20T10:04:46Z</time>
      </trkpt>
      <trkpt lat="45.92311" lon="4.73621">
        <ele>172</ele>
        <time>2018-02-20T10:04:47Z</time>
      </trkpt>
      <trkpt lat="45.92306" lon="4.73625">
        <ele>172</ele>
        <time>2018-02-20T10:04:48Z</time>
      </trkpt>
      <trkpt lat="45.923" lon="4.73627">
        <ele>172</ele>
        <time>2018-02-20T10:04:49Z</time>
      </trkpt>
      <trkpt lat="45.92295" lon="4.73629">
        <ele>172</ele>
        <time>2018-02-20T10:04:50Z</time>
      </trkpt>
      <trkpt lat="45.92289" lon="4.73631">
        <ele>172</ele>
        <time>2018-02-20T10:04:51Z</time>
      </trkpt>
      <trkpt lat="45.92284" lon="4.73634">
        <ele>172</ele>
        <time>2018-02-20T10:04:52Z</time>
      </trkpt>
      <trkpt lat="45.9228" lon="4.73638">
        <ele>172</ele>
        <time>2018-02-20T10:04:53Z</time>
      </trkpt>
      <trkpt lat="45.92274" lon="4.73641">
        <ele>172</ele>
        <time>2018-02-20T10:04:54Z</time>
      </trkpt>
      <trkpt lat="45.92269" lon="4.73645">
        <ele>172</ele>
        <time>2018-02-20T10:04:55Z</time>
      </trkpt>
      <trkpt lat="45.92264" lon="4.73648">
        <ele>171</ele>
        <time>2018-02-20T10:04:56Z</time>
      </trkpt>
      <trkpt lat="45.92258" lon="4.7365">
        <ele>171</ele>
        <time>2018-02-20T10:04:57Z</time>
      </trkpt>
      <trkpt lat="45.92253" lon="4.73653">
        <ele>171</ele>
        <time>2018-02-20T10:04:58Z</time>
      </trkpt>
      <trkpt lat="45.92248" lon="4.73656">
        <ele>171</ele>
        <time>2018-02-20T10:04:59Z</time>
      </trkpt>
      <trkpt lat="45.92242" lon="4.7366">
        <ele>171</ele>
        <time>2018-02-20T10:05:00Z</time>
      </trkpt>
      <trkpt lat="45.92237" lon="4.73662">
        <ele>171</ele>
        <time>2018-02-20T10:05:01Z</time>
      </trkpt>
      <trkpt lat="45.92231" lon="4.73666">
        <ele>171</ele>
        <time>2018-02-20T10:05:02Z</time>
      </trkpt>
      <trkpt lat="45.92224" lon="4.73669">
        <ele>171</ele>
        <time>2018-02-20T10:05:03Z</time>
      </trkpt>
      <trkpt lat="45.92219" lon="4.7367">
        <ele>171</ele>
        <time>2018-02-20T10:05:04Z</time>
      </trkpt>
      <trkpt lat="45.92212" lon="4.73674">
        <ele>171</ele>
        <time>2018-02-20T10:05:05Z</time>
      </trkpt>
      <trkpt lat="45.92207" lon="4.73677">
        <ele>171</ele>
        <time>2018-02-20T10:05:06Z</time>
      </trkpt>
      <trkpt lat="45.922" lon="4.7368">
        <ele>171</ele>
        <time>2018-02-20T10:05:07Z</time>
      </trkpt>
      <trkpt lat="45.92194" lon="4.73684">
        <ele>171</ele>
        <time>2018-02-20T10:05:08Z</time>
      </trkpt>
      <trkpt lat="45.92188" lon="4.73687">
        <ele>171</ele>
        <time>2018-02-20T10:05:09Z</time>
      </trkpt>
      <trkpt lat="45.92182" lon="4.7369">
        <ele>171</ele>
        <time>2018-02-20T10:05:10Z</time>
      </trkpt>
      <trkpt lat="45.92177" lon="4.73692">
        <ele>171</ele>
        <time>2018-02-20T10:05:11Z</time>
      </trkpt>
      <trkpt lat="45.92172" lon="4.73695">
        <ele>171</ele>
        <time>2018-02-20T10:05:12Z</time>
      </trkpt>
      <trkpt lat="45.92166" lon="4.73697">
        <ele>171</ele>
        <time>2018-02-20T10:05:13Z</time>
      </trkpt>
      <trkpt lat="45.9216" lon="4.73701">
        <ele>171</ele>
        <time>2018-02-20T10:05:14Z</time>
      </trkpt>
      <trkpt lat="45.92154" lon="4.73703">
        <ele>171</ele>
        <time>2018-02-20T10:05:15Z</time>
      </trkpt>
      <trkpt lat="45.92148" lon="4.73705">
        <ele>171</ele>
        <time>2018-02-20T10:05:16Z</time>
      </trkpt>
      <trkpt lat="45.92143" lon="4.73707">
        <ele>171</ele>
        <time>2018-02-20T10:05:17Z</time>
      </trkpt>
      <trkpt lat="45.92136" lon="4.73709">
        <ele>171</ele>
        <time>2018-02-20T10:05:18Z</time>
      </trkpt>
      <trkpt lat="45.9213" lon="4.73711">
        <ele>171</ele>
        <time>2018-02-20T10:05:19Z</time>
      </trkpt>
      <trkpt lat="45.92124" lon="4.73713">
        <ele>171</ele>
        <time>2018-02-20T10:05:20Z</time>
      </trkpt>
      <trkpt lat="45.92118" lon="4.73715">
        <ele>171</ele>
        <time>2018-02-20T10:05:21Z</time>
      </trkpt>
      <trkpt lat="45.92111" lon="4.73717">
        <ele>171</ele>
        <time>2018-02-20T10:05:22Z</time>
      </trkpt>
      <trkpt lat="45.92106" lon="4.73719">
        <ele>171</ele>
        <time>2018-02-20T10:05:23Z</time>
      </trkpt>
      <trkpt lat="45.92099" lon="4.73719">
        <ele>171</ele>
        <time>2018-02-20T10:05:24Z</time>
      </trkpt>
      <trkpt lat="45.92092" lon="4.73721">
        <ele>171</ele>
        <time>2018-02-20T10:05:25Z</time>
      </trkpt>
      <trkpt lat="45.92086" lon="4.73721">
        <ele>171</ele>
        <time>2018-02-20T10:05:26Z</time>
      </trkpt>
      <trkpt lat="45.9208" lon="4.73722">
        <ele>171</ele>
        <time>2018-02-20T10:05:27Z</time>
      </trkpt>
      <trkpt lat="45.92074" lon="4.73723">
        <ele>171</ele>
        <time>2018-02-20T10:05:28Z</time>
      </trkpt>
      <trkpt lat="45.92067" lon="4.73724">
        <ele>171</ele>
        <time>2018-02-20T10:05:29Z</time>
      </trkpt>
      <trkpt lat="45.9206" lon="4.73725">
        <ele>171</ele>
        <time>2018-02-20T10:05:30Z</time>
      </trkpt>
      <trkpt lat="45.92054" lon="4.73725">
        <ele>171</ele>
        <time>2018-02-20T10:05:31Z</time>
      </trkpt>
      <trkpt lat="45.92048" lon="4.73726">
        <ele>171</ele>
        <time>2018-02-20T10:05:32Z</time>
      </trkpt>
      <trkpt lat="45.92042" lon="4.73725">
        <ele>171</ele>
        <time>2018-02-20T10:05:33Z</time>
      </trkpt>
      <trkpt lat="45.92037" lon="4.73726">
        <ele>171</ele>
        <time>2018-02-20T10:05:34Z</time>
      </trkpt>
      <trkpt lat="45.92031" lon="4.73726">
        <ele>171</ele>
        <time>2018-02-20T10:05:35Z</time>
      </trkpt>
      <trkpt lat="45.92024" lon="4.73725">
        <ele>171</ele>
        <time>2018-02-20T10:05:36Z</time>
      </trkpt>
      <trkpt lat="45.92018" lon="4.73726">
        <ele>171</ele>
        <time>2018-02-20T10:05:37Z</time>
      </trkpt>
      <trkpt lat="45.92013" lon="4.73726">
        <ele>171</ele>
        <time>2018-02-20T10:05:38Z</time>
      </trkpt>
      <trkpt lat="45.92007" lon="4.73726">
        <ele>171</ele>
        <time>2018-02-20T10:05:39Z</time>
      </trkpt>
      <trkpt lat="45.92001" lon="4.73726">
        <ele>171</ele>
        <time>2018-02-20T10:05:40Z</time>
      </trkpt>
      <trkpt lat="45.91994" lon="4.73726">
        <ele>171</ele>
        <time>2018-02-20T10:05:41Z</time>
      </trkpt>
      <trkpt lat="45.91988" lon="4.73726">
        <ele>171</ele>
        <time>2018-02-20T10:05:42Z</time>
      </trkpt>
      <trkpt lat="45.91981" lon="4.73727">
        <ele>171</ele>
        <time>2018-02-20T10:05:43Z</time>
      </trkpt>
      <trkpt lat="45.91976" lon="4.73727">
        <ele>171</ele>
        <time>2018-02-20T10:05:44Z</time>
      </trkpt>
      <trkpt lat="45.91969" lon="4.73727">
        <ele>171</ele>
        <time>2018-02-20T10:05:45Z</time>
      </trkpt>
      <trkpt lat="45.91963" lon="4.73727">
        <ele>171</ele>
        <time>2018-02-20T10:05:46Z</time>
      </trkpt>
      <trkpt lat="45.91955" lon="4.73728">
        <ele>170</ele>
        <time>2018-02-20T10:05:47Z</time>
      </trkpt>
      <trkpt lat="45.91948" lon="4.73728">
        <ele>170</ele>
        <time>2018-02-20T10:05:48Z</time>
      </trkpt>
      <trkpt lat="45.91942" lon="4.73728">
        <ele>170</ele>
        <time>2018-02-20T10:05:49Z</time>
      </trkpt>
      <trkpt lat="45.91935" lon="4.73728">
        <ele>170</ele>
        <time>2018-02-20T10:05:50Z</time>
      </trkpt>
      <trkpt lat="45.91928" lon="4.73728">
        <ele>170</ele>
        <time>2018-02-20T10:05:51Z</time>
      </trkpt>
      <trkpt lat="45.9192" lon="4.73728">
        <ele>170</ele>
        <time>2018-02-20T10:05:52Z</time>
      </trkpt>
      <trkpt lat="45.91916" lon="4.73728">
        <ele>171</ele>
        <time>2018-02-20T10:05:53Z</time>
      </trkpt>
      <trkpt lat="45.9191" lon="4.73727">
        <ele>171</ele>
        <time>2018-02-20T10:05:54Z</time>
      </trkpt>
      <trkpt lat="45.91904" lon="4.73726">
        <ele>171</ele>
        <time>2018-02-20T10:05:55Z</time>
      </trkpt>
      <trkpt lat="45.91899" lon="4.73725">
        <ele>171</ele>
        <time>2018-02-20T10:05:56Z</time>
      </trkpt>
      <trkpt lat="45.91893" lon="4.73725">
        <ele>171</ele>
        <time>2018-02-20T10:05:57Z</time>
      </trkpt>
      <trkpt lat="45.91887" lon="4.73726">
        <ele>171</ele>
        <time>2018-02-20T10:05:58Z</time>
      </trkpt>
      <trkpt lat="45.91881" lon="4.73726">
        <ele>171</ele>
        <time>2018-02-20T10:05:59Z</time>
      </trkpt>
      <trkpt lat="45.91874" lon="4.73727">
        <ele>171</ele>
        <time>2018-02-20T10:06:00Z</time>
      </trkpt>
      <trkpt lat="45.91869" lon="4.73727">
        <ele>171</ele>
        <time>2018-02-20T10:06:01Z</time>
      </trkpt>
      <trkpt lat="45.91863" lon="4.73727">
        <ele>171</ele>
        <time>2018-02-20T10:06:02Z</time>
      </trkpt>
      <trkpt lat="45.91859" lon="4.73727">
        <ele>171</ele>
        <time>2018-02-20T10:06:03Z</time>
      </trkpt>
      <trkpt lat="45.91852" lon="4.73728">
        <ele>171</ele>
        <time>2018-02-20T10:06:04Z</time>
      </trkpt>
      <trkpt lat="45.91845" lon="4.73728">
        <ele>172</ele>
        <time>2018-02-20T10:06:05Z</time>
      </trkpt>
      <trkpt lat="45.91839" lon="4.73728">
        <ele>172</ele>
        <time>2018-02-20T10:06:06Z</time>
      </trkpt>
      <trkpt lat="45.91832" lon="4.73728">
        <ele>172</ele>
        <time>2018-02-20T10:06:07Z</time>
      </trkpt>
      <trkpt lat="45.91825" lon="4.73728">
        <ele>172</ele>
        <time>2018-02-20T10:06:08Z</time>
      </trkpt>
      <trkpt lat="45.91819" lon="4.73728">
        <ele>172</ele>
        <time>2018-02-20T10:06:09Z</time>
      </trkpt>
      <trkpt lat="45.91812" lon="4.73729">
        <ele>172</ele>
        <time>2018-02-20T10:06:10Z</time>
      </trkpt>
      <trkpt lat="45.91806" lon="4.73729">
        <ele>172</ele>
        <time>2018-02-20T10:06:11Z</time>
      </trkpt>
      <trkpt lat="45.918" lon="4.7373">
        <ele>172</ele>
        <time>2018-02-20T10:06:12Z</time>
      </trkpt>
      <trkpt lat="45.91794" lon="4.7373">
        <ele>172</ele>
        <time>2018-02-20T10:06:13Z</time>
      </trkpt>
      <trkpt lat="45.91789" lon="4.7373">
        <ele>173</ele>
        <time>2018-02-20T10:06:14Z</time>
      </trkpt>
      <trkpt lat="45.91785" lon="4.7373">
        <ele>173</ele>
        <time>2018-02-20T10:06:15Z</time>
      </trkpt>
      <trkpt lat="45.91779" lon="4.73729">
        <ele>173</ele>
        <time>2018-02-20T10:06:16Z</time>
      </trkpt>
      <trkpt lat="45.91774" lon="4.7373">
        <ele>173</ele>
        <time>2018-02-20T10:06:17Z</time>
      </trkpt>
      <trkpt lat="45.91769" lon="4.73731">
        <ele>173</ele>
        <time>2018-02-20T10:06:18Z</time>
      </trkpt>
      <trkpt lat="45.91761" lon="4.73731">
        <ele>173</ele>
        <time>2018-02-20T10:06:19Z</time>
      </trkpt>
      <trkpt lat="45.91754" lon="4.73731">
        <ele>173</ele>
        <time>2018-02-20T10:06:20Z</time>
      </trkpt>
      <trkpt lat="45.91748" lon="4.73732">
        <ele>173</ele>
        <time>2018-02-20T10:06:21Z</time>
      </trkpt>
      <trkpt lat="45.91742" lon="4.73732">
        <ele>173</ele>
        <time>2018-02-20T10:06:22Z</time>
      </trkpt>
      <trkpt lat="45.91734" lon="4.73732">
        <ele>173</ele>
        <time>2018-02-20T10:06:23Z</time>
      </trkpt>
      <trkpt lat="45.91728" lon="4.73733">
        <ele>173</ele>
        <time>2018-02-20T10:06:24Z</time>
      </trkpt>
      <trkpt lat="45.91722" lon="4.73733">
        <ele>173</ele>
        <time>2018-02-20T10:06:25Z</time>
      </trkpt>
      <trkpt lat="45.91716" lon="4.73733">
        <ele>173</ele>
        <time>2018-02-20T10:06:26Z</time>
      </trkpt>
      <trkpt lat="45.91709" lon="4.73733">
        <ele>173</ele>
        <time>2018-02-20T10:06:27Z</time>
      </trkpt>
      <trkpt lat="45.91703" lon="4.73733">
        <ele>172</ele>
        <time>2018-02-20T10:06:28Z</time>
      </trkpt>
      <trkpt lat="45.91697" lon="4.73733">
        <ele>172</ele>
        <time>2018-02-20T10:06:29Z</time>
      </trkpt>
      <trkpt lat="45.91692" lon="4.73731">
        <ele>172</ele>
        <time>2018-02-20T10:06:30Z</time>
      </trkpt>
      <trkpt lat="45.91685" lon="4.73731">
        <ele>172</ele>
        <time>2018-02-20T10:06:31Z</time>
      </trkpt>
      <trkpt lat="45.91679" lon="4.73731">
        <ele>172</ele>
        <time>2018-02-20T10:06:32Z</time>
      </trkpt>
      <trkpt lat="45.91672" lon="4.73732">
        <ele>172</ele>
        <time>2018-02-20T10:06:33Z</time>
      </trkpt>
      <trkpt lat="45.91665" lon="4.73732">
        <ele>172</ele>
        <time>2018-02-20T10:06:34Z</time>
      </trkpt>
      <trkpt lat="45.9166" lon="4.73731">
        <ele>172</ele>
        <time>2018-02-20T10:06:35Z</time>
      </trkpt>
      <trkpt lat="45.91653" lon="4.73731">
        <ele>172</ele>
        <time>2018-02-20T10:06:36Z</time>
      </trkpt>
      <trkpt lat="45.91647" lon="4.73731">
        <ele>172</ele>
        <time>2018-02-20T10:06:37Z</time>
      </trkpt>
      <trkpt lat="45.9164" lon="4.73732">
        <ele>172</ele>
        <time>2018-02-20T10:06:38Z</time>
      </trkpt>
      <trkpt lat="45.91632" lon="4.73732">
        <ele>172</ele>
        <time>2018-02-20T10:06:39Z</time>
      </trkpt>
      <trkpt lat="45.91626" lon="4.73732">
        <ele>172</ele>
        <time>2018-02-20T10:06:40Z</time>
      </trkpt>
      <trkpt lat="45.91618" lon="4.73732">
        <ele>173</ele>
        <time>2018-02-20T10:06:41Z</time>
      </trkpt>
      <trkpt lat="45.91612" lon="4.73732">
        <ele>173</ele>
        <time>2018-02-20T10:06:42Z</time>
      </trkpt>
      <trkpt lat="45.91605" lon="4.73732">
        <ele>173</ele>
        <time>2018-02-20T10:06:43Z</time>
      </trkpt>
      <trkpt lat="45.91599" lon="4.73732">
        <ele>173</ele>
        <time>2018-02-20T10:06:44Z</time>
      </trkpt>
      <trkpt lat="45.91592" lon="4.73732">
        <ele>173</ele>
        <time>2018-02-20T10:06:45Z</time>
      </trkpt>
      <trkpt lat="45.91585" lon="4.73732">
        <ele>173</ele>
        <time>2018-02-20T10:06:46Z</time>
      </trkpt>
      <trkpt lat="45.91578" lon="4.73732">
        <ele>173</ele>
        <time>2018-02-20T10:06:47Z</time>
      </trkpt>
      <trkpt lat="45.9157" lon="4.73733">
        <ele>173</ele>
        <time>2018-02-20T10:06:48Z</time>
      </trkpt>
      <trkpt lat="45.91563" lon="4.73734">
        <ele>173</ele>
        <time>2018-02-20T10:06:49Z</time>
      </trkpt>
      <trkpt lat="45.91556" lon="4.73733">
        <ele>174</ele>
        <time>2018-02-20T10:06:50Z</time>
      </trkpt>
      <trkpt lat="45.91549" lon="4.73734">
        <ele>174</ele>
        <time>2018-02-20T10:06:51Z</time>
      </trkpt>
      <trkpt lat="45.91543" lon="4.73734">
        <ele>174</ele>
        <time>2018-02-20T10:06:52Z</time>
      </trkpt>
      <trkpt lat="45.91538" lon="4.73732">
        <ele>174</ele>
        <time>2018-02-20T10:06:53Z</time>
      </trkpt>
      <trkpt lat="45.91531" lon="4.73732">
        <ele>174</ele>
        <time>2018-02-20T10:06:54Z</time>
      </trkpt>
      <trkpt lat="45.91524" lon="4.73732">
        <ele>174</ele>
        <time>2018-02-20T10:06:55Z</time>
      </trkpt>
      <trkpt lat="45.91516" lon="4.73733">
        <ele>174</ele>
        <time>2018-02-20T10:06:56Z</time>
      </trkpt>
      <trkpt lat="45.91509" lon="4.73733">
        <ele>174</ele>
        <time>2018-02-20T10:06:57Z</time>
      </trkpt>
      <trkpt lat="45.91502" lon="4.73734">
        <ele>174</ele>
        <time>2018-02-20T10:06:58Z</time>
      </trkpt>
      <trkpt lat="45.91495" lon="4.73733">
        <ele>174</ele>
        <time>2018-02-20T10:06:59Z</time>
      </trkpt>
      <trkpt lat="45.9149" lon="4.73733">
        <ele>174</ele>
        <time>2018-02-20T10:07:00Z</time>
      </trkpt>
      <trkpt lat="45.91481" lon="4.73733">
        <ele>174</ele>
        <time>2018-02-20T10:07:01Z</time>
      </trkpt>
      <trkpt lat="45.91475" lon="4.73734">
        <ele>174</ele>
        <time>2018-02-20T10:07:02Z</time>
      </trkpt>
      <trkpt lat="45.91468" lon="4.73733">
        <ele>174</ele>
        <time>2018-02-20T10:07:03Z</time>
      </trkpt>
      <trkpt lat="45.91463" lon="4.73733">
        <ele>174</ele>
        <time>2018-02-20T10:07:04Z</time>
      </trkpt>
      <trkpt lat="45.91456" lon="4.73734">
        <ele>174</ele>
        <time>2018-02-20T10:07:05Z</time>
      </trkpt>
      <trkpt lat="45.91449" lon="4.73734">
        <ele>173</ele>
        <time>2018-02-20T10:07:06Z</time>
      </trkpt>
      <trkpt lat="45.91442" lon="4.73735">
        <ele>173</ele>
        <time>2018-02-20T10:07:07Z</time>
      </trkpt>
      <trkpt lat="45.91435" lon="4.73735">
        <ele>173</ele>
        <time>2018-02-20T10:07:08Z</time>
      </trkpt>
      <trkpt lat="45.91428" lon="4.73735">
        <ele>173</ele>
        <time>2018-02-20T10:07:09Z</time>
      </trkpt>
      <trkpt lat="45.91422" lon="4.73734">
        <ele>173</ele>
        <time>2018-02-20T10:07:10Z</time>
      </trkpt>
      <trkpt lat="45.91416" lon="4.73734">
        <ele>173</ele>
        <time>2018-02-20T10:07:11Z</time>
      </trkpt>
      <trkpt lat="45.91409" lon="4.73734">
        <ele>173</ele>
        <time>2018-02-20T10:07:12Z</time>
      </trkpt>
      <trkpt lat="45.91402" lon="4.73735">
        <ele>173</ele>
        <time>2018-02-20T10:07:13Z</time>
      </trkpt>
      <trkpt lat="45.91396" lon="4.73735">
        <ele>173</ele>
        <time>2018-02-20T10:07:14Z</time>
      </trkpt>
      <trkpt lat="45.91389" lon="4.73736">
        <ele>173</ele>
        <time>2018-02-20T10:07:15Z</time>
      </trkpt>
      <trkpt lat="45.91383" lon="4.73736">
        <ele>173</ele>
        <time>2018-02-20T10:07:16Z</time>
      </trkpt>
      <trkpt lat="45.91376" lon="4.73735">
        <ele>173</ele>
        <time>2018-02-20T10:07:17Z</time>
      </trkpt>
      <trkpt lat="45.9137" lon="4.73736">
        <ele>173</ele>
        <time>2018-02-20T10:07:18Z</time>
      </trkpt>
      <trkpt lat="45.91363" lon="4.73736">
        <ele>173</ele>
        <time>2018-02-20T10:07:19Z</time>
      </trkpt>
      <trkpt lat="45.91356" lon="4.73737">
        <ele>173</ele>
        <time>2018-02-20T10:07:20Z</time>
      </trkpt>
      <trkpt lat="45.9135" lon="4.73736">
        <ele>173</ele>
        <time>2018-02-20T10:07:21Z</time>
      </trkpt>
      <trkpt lat="45.91342" lon="4.73735">
        <ele>173</ele>
        <time>2018-02-20T10:07:22Z</time>
      </trkpt>
      <trkpt lat="45.91336" lon="4.73735">
        <ele>173</ele>
        <time>2018-02-20T10:07:23Z</time>
      </trkpt>
      <trkpt lat="45.91333" lon="4.73735">
        <ele>173</ele>
        <time>2018-02-20T10:07:24Z</time>
      </trkpt>
      <trkpt lat="45.91328" lon="4.73734">
        <ele>174</ele>
        <time>2018-02-20T10:07:25Z</time>
      </trkpt>
      <trkpt lat="45.91323" lon="4.73734">
        <ele>174</ele>
        <time>2018-02-20T10:07:26Z</time>
      </trkpt>
      <trkpt lat="45.91318" lon="4.73735">
        <ele>174</ele>
        <time>2018-02-20T10:07:27Z</time>
      </trkpt>
      <trkpt lat="45.91312" lon="4.73735">
        <ele>174</ele>
        <time>2018-02-20T10:07:28Z</time>
      </trkpt>
      <trkpt lat="45.91305" lon="4.73735">
        <ele>174</ele>
        <time>2018-02-20T10:07:29Z</time>
      </trkpt>
      <trkpt lat="45.91299" lon="4.73736">
        <ele>174</ele>
        <time>2018-02-20T10:07:30Z</time>
      </trkpt>
      <trkpt lat="45.91293" lon="4.73737">
        <ele>174</ele>
        <time>2018-02-20T10:07:31Z</time>
      </trkpt>
      <trkpt lat="45.91287" lon="4.73737">
        <ele>174</ele>
        <time>2018-02-20T10:07:32Z</time>
      </trkpt>
      <trkpt lat="45.91279" lon="4.73737">
        <ele>174</ele>
        <time>2018-02-20T10:07:33Z</time>
      </trkpt>
      <trkpt lat="45.91274" lon="4.73736">
        <ele>174</ele>
        <time>2018-02-20T10:07:34Z</time>
      </trkpt>
      <trkpt lat="45.91268" lon="4.73735">
        <ele>174</ele>
        <time>2018-02-20T10:07:35Z</time>
      </trkpt>
      <trkpt lat="45.91262" lon="4.73735">
        <ele>174</ele>
        <time>2018-02-20T10:07:36Z</time>
      </trkpt>
      <trkpt lat="45.91256" lon="4.73736">
        <ele>175</ele>
        <time>2018-02-20T10:07:37Z</time>
      </trkpt>
      <trkpt lat="45.9125" lon="4.73735">
        <ele>175</ele>
        <time>2018-02-20T10:07:38Z</time>
      </trkpt>
      <trkpt lat="45.91243" lon="4.73734">
        <ele>175</ele>
        <time>2018-02-20T10:07:39Z</time>
      </trkpt>
      <trkpt lat="45.91238" lon="4.73734">
        <ele>175</ele>
        <time>2018-02-20T10:07:40Z</time>
      </trkpt>
      <trkpt lat="45.91233" lon="4.73735">
        <ele>175</ele>
        <time>2018-02-20T10:07:41Z</time>
      </trkpt>
      <trkpt lat="45.91227" lon="4.73735">
        <ele>175</ele>
        <time>2018-02-20T10:07:42Z</time>
      </trkpt>
      <trkpt lat="45.91222" lon="4.73735">
        <ele>175</ele>
        <time>2018-02-20T10:07:43Z</time>
      </trkpt>
      <trkpt lat="45.91216" lon="4.73735">
        <ele>175</ele>
        <time>2018-02-20T10:07:44Z</time>
      </trkpt>
      <trkpt lat="45.9121" lon="4.73737">
        <ele>175</ele>
        <time>2018-02-20T10:07:45Z</time>
      </trkpt>
      <trkpt lat="45.91202" lon="4.73737">
        <ele>175</ele>
        <time>2018-02-20T10:07:46Z</time>
      </trkpt>
      <trkpt lat="45.91196" lon="4.73736">
        <ele>175</ele>
        <time>2018-02-20T10:07:47Z</time>
      </trkpt>
      <trkpt lat="45.91192" lon="4.73735">
        <ele>175</ele>
        <time>2018-02-20T10:07:48Z</time>
      </trkpt>
      <trkpt lat="45.91187" lon="4.73733">
        <ele>175</ele>
        <time>2018-02-20T10:07:49Z</time>
      </trkpt>
      <trkpt lat="45.91181" lon="4.73732">
        <ele>175</ele>
        <time>2018-02-20T10:07:50Z</time>
      </trkpt>
      <trkpt lat="45.91176" lon="4.7373">
        <ele>175</ele>
        <time>2018-02-20T10:07:51Z</time>
      </trkpt>
      <trkpt lat="45.9117" lon="4.73729">
        <ele>175</ele>
        <time>2018-02-20T10:07:52Z</time>
      </trkpt>
      <trkpt lat="45.91165" lon="4.73726">
        <ele>175</ele>
        <time>2018-02-20T10:07:53Z</time>
      </trkpt>
      <trkpt lat="45.91161" lon="4.73726">
        <ele>175</ele>
        <time>2018-02-20T10:07:54Z</time>
      </trkpt>
      <trkpt lat="45.91153" lon="4.73731">
        <ele>175</ele>
        <time>2018-02-20T10:07:57Z</time>
      </trkpt>
      <trkpt lat="45.91155" lon="4.73737">
        <ele>175</ele>
        <time>2018-02-20T10:07:58Z</time>
      </trkpt>
      <trkpt lat="45.91158" lon="4.73743">
        <ele>175</ele>
        <time>2018-02-20T10:07:59Z</time>
      </trkpt>
      <trkpt lat="45.9116" lon="4.7375">
        <ele>175</ele>
        <time>2018-02-20T10:08:00Z</time>
      </trkpt>
      <trkpt lat="45.91163" lon="4.73756">
        <ele>175</ele>
        <time>2018-02-20T10:08:01Z</time>
      </trkpt>
      <trkpt lat="45.91165" lon="4.73761">
        <ele>175</ele>
        <time>2018-02-20T10:08:02Z</time>
      </trkpt>
      <trkpt lat="45.9117" lon="4.73771">
        <ele>175</ele>
        <time>2018-02-20T10:08:04Z</time>
      </trkpt>
      <trkpt lat="45.91173" lon="4.73777">
        <ele>175</ele>
        <time>2018-02-20T10:08:05Z</time>
      </trkpt>
      <trkpt lat="45.91176" lon="4.73784">
        <ele>175</ele>
        <time>2018-02-20T10:08:06Z</time>
      </trkpt>
      <trkpt lat="45.91178" lon="4.7379">
        <ele>175</ele>
        <time>2018-02-20T10:08:07Z</time>
      </trkpt>
      <trkpt lat="45.91181" lon="4.73795">
        <ele>175</ele>
        <time>2018-02-20T10:08:08Z</time>
      </trkpt>
      <trkpt lat="45.91183" lon="4.73801">
        <ele>175</ele>
        <time>2018-02-20T10:08:09Z</time>
      </trkpt>
      <trkpt lat="45.91185" lon="4.73806">
        <ele>175</ele>
        <time>2018-02-20T10:08:10Z</time>
      </trkpt>
      <trkpt lat="45.91189" lon="4.73812">
        <ele>175</ele>
        <time>2018-02-20T10:08:11Z</time>
      </trkpt>
      <trkpt lat="45.91192" lon="4.73823">
        <ele>175</ele>
        <time>2018-02-20T10:08:13Z</time>
      </trkpt>
      <trkpt lat="45.91194" lon="4.73828">
        <ele>175</ele>
        <time>2018-02-20T10:08:14Z</time>
      </trkpt>
      <trkpt lat="45.91199" lon="4.73838">
        <ele>174</ele>
        <time>2018-02-20T10:08:16Z</time>
      </trkpt>
      <trkpt lat="45.91201" lon="4.73842">
        <ele>174</ele>
        <time>2018-02-20T10:08:17Z</time>
      </trkpt>
      <trkpt lat="45.91206" lon="4.73852">
        <ele>174</ele>
        <time>2018-02-20T10:08:19Z</time>
      </trkpt>
      <trkpt lat="45.91207" lon="4.73858">
        <ele>174</ele>
        <time>2018-02-20T10:08:20Z</time>
      </trkpt>
      <trkpt lat="45.91211" lon="4.73869">
        <ele>174</ele>
        <time>2018-02-20T10:08:22Z</time>
      </trkpt>
      <trkpt lat="45.91213" lon="4.73875">
        <ele>174</ele>
        <time>2018-02-20T10:08:23Z</time>
      </trkpt>
      <trkpt lat="45.91214" lon="4.73881">
        <ele>174</ele>
        <time>2018-02-20T10:08:24Z</time>
      </trkpt>
      <trkpt lat="45.91215" lon="4.73888">
        <ele>174</ele>
        <time>2018-02-20T10:08:25Z</time>
      </trkpt>
      <trkpt lat="45.91215" lon="4.73894">
        <ele>174</ele>
        <time>2018-02-20T10:08:26Z</time>
      </trkpt>
      <trkpt lat="45.91216" lon="4.73902">
        <ele>174</ele>
        <time>2018-02-20T10:08:27Z</time>
      </trkpt>
      <trkpt lat="45.91216" lon="4.73909">
        <ele>174</ele>
        <time>2018-02-20T10:08:28Z</time>
      </trkpt>
      <trkpt lat="45.91217" lon="4.73916">
        <ele>174</ele>
        <time>2018-02-20T10:08:29Z</time>
      </trkpt>
      <trkpt lat="45.91219" lon="4.73928">
        <ele>173</ele>
        <time>2018-02-20T10:08:31Z</time>
      </trkpt>
      <trkpt lat="45.91219" lon="4.73933">
        <ele>173</ele>
        <time>2018-02-20T10:08:32Z</time>
      </trkpt>
      <trkpt lat="45.9122" lon="4.73938">
        <ele>173</ele>
        <time>2018-02-20T10:08:33Z</time>
      </trkpt>
      <trkpt lat="45.9122" lon="4.73946">
        <ele>173</ele>
        <time>2018-02-20T10:08:34Z</time>
      </trkpt>
      <trkpt lat="45.91221" lon="4.73958">
        <ele>173</ele>
        <time>2018-02-20T10:08:36Z</time>
      </trkpt>
      <trkpt lat="45.91222" lon="4.73963">
        <ele>173</ele>
        <time>2018-02-20T10:08:37Z</time>
      </trkpt>
      <trkpt lat="45.91221" lon="4.73975">
        <ele>173</ele>
        <time>2018-02-20T10:08:39Z</time>
      </trkpt>
      <trkpt lat="45.9122" lon="4.73981">
        <ele>173</ele>
        <time>2018-02-20T10:08:40Z</time>
      </trkpt>
      <trkpt lat="45.91219" lon="4.73993">
        <ele>173</ele>
        <time>2018-02-20T10:08:42Z</time>
      </trkpt>
      <trkpt lat="45.91218" lon="4.73999">
        <ele>173</ele>
        <time>2018-02-20T10:08:43Z</time>
      </trkpt>
      <trkpt lat="45.91216" lon="4.74009">
        <ele>173</ele>
        <time>2018-02-20T10:08:45Z</time>
      </trkpt>
      <trkpt lat="45.91215" lon="4.74014">
        <ele>173</ele>
        <time>2018-02-20T10:08:46Z</time>
      </trkpt>
      <trkpt lat="45.91213" lon="4.74024">
        <ele>173</ele>
        <time>2018-02-20T10:08:48Z</time>
      </trkpt>
      <trkpt lat="45.91212" lon="4.7403">
        <ele>173</ele>
        <time>2018-02-20T10:08:49Z</time>
      </trkpt>
      <trkpt lat="45.9121" lon="4.74041">
        <ele>173</ele>
        <time>2018-02-20T10:08:51Z</time>
      </trkpt>
      <trkpt lat="45.9121" lon="4.74047">
        <ele>173</ele>
        <time>2018-02-20T10:08:52Z</time>
      </trkpt>
      <trkpt lat="45.9121" lon="4.74059">
        <ele>173</ele>
        <time>2018-02-20T10:08:54Z</time>
      </trkpt>
      <trkpt lat="45.91208" lon="4.74065">
        <ele>173</ele>
        <time>2018-02-20T10:08:55Z</time>
      </trkpt>
      <trkpt lat="45.91206" lon="4.74071">
        <ele>173</ele>
        <time>2018-02-20T10:08:56Z</time>
      </trkpt>
      <trkpt lat="45.91206" lon="4.74077">
        <ele>173</ele>
        <time>2018-02-20T10:08:57Z</time>
      </trkpt>
      <trkpt lat="45.91203" lon="4.74084">
        <ele>173</ele>
        <time>2018-02-20T10:08:58Z</time>
      </trkpt>
      <trkpt lat="45.91201" lon="4.74091">
        <ele>173</ele>
        <time>2018-02-20T10:08:59Z</time>
      </trkpt>
      <trkpt lat="45.912" lon="4.74099">
        <ele>173</ele>
        <time>2018-02-20T10:09:00Z</time>
      </trkpt>
      <trkpt lat="45.91199" lon="4.74105">
        <ele>173</ele>
        <time>2018-02-20T10:09:01Z</time>
      </trkpt>
      <trkpt lat="45.91198" lon="4.74113">
        <ele>174</ele>
        <time>2018-02-20T10:09:02Z</time>
      </trkpt>
      <trkpt lat="45.91196" lon="4.7412">
        <ele>174</ele>
        <time>2018-02-20T10:09:03Z</time>
      </trkpt>
      <trkpt lat="45.91195" lon="4.74127">
        <ele>174</ele>
        <time>2018-02-20T10:09:04Z</time>
      </trkpt>
      <trkpt lat="45.91194" lon="4.74134">
        <ele>174</ele>
        <time>2018-02-20T10:09:05Z</time>
      </trkpt>
      <trkpt lat="45.91193" lon="4.74141">
        <ele>174</ele>
        <time>2018-02-20T10:09:06Z</time>
      </trkpt>
      <trkpt lat="45.91191" lon="4.74149">
        <ele>174</ele>
        <time>2018-02-20T10:09:07Z</time>
      </trkpt>
      <trkpt lat="45.91189" lon="4.74156">
        <ele>174</ele>
        <time>2018-02-20T10:09:08Z</time>
      </trkpt>
      <trkpt lat="45.91188" lon="4.74165">
        <ele>174</ele>
        <time>2018-02-20T10:09:09Z</time>
      </trkpt>
      <trkpt lat="45.91187" lon="4.74174">
        <ele>174</ele>
        <time>2018-02-20T10:09:10Z</time>
      </trkpt>
      <trkpt lat="45.91186" lon="4.74183">
        <ele>174</ele>
        <time>2018-02-20T10:09:11Z</time>
      </trkpt>
      <trkpt lat="45.91186" lon="4.74193">
        <ele>175</ele>
        <time>2018-02-20T10:09:12Z</time>
      </trkpt>
      <trkpt lat="45.91187" lon="4.74202">
        <ele>175</ele>
        <time>2018-02-20T10:09:13Z</time>
      </trkpt>
      <trkpt lat="45.91186" lon="4.74213">
        <ele>175</ele>
        <time>2018-02-20T10:09:14Z</time>
      </trkpt>
      <trkpt lat="45.91187" lon="4.74222">
        <ele>175</ele>
        <time>2018-02-20T10:09:15Z</time>
      </trkpt>
      <trkpt lat="45.91186" lon="4.74233">
        <ele>175</ele>
        <time>2018-02-20T10:09:16Z</time>
      </trkpt>
      <trkpt lat="45.91187" lon="4.74243">
        <ele>175</ele>
        <time>2018-02-20T10:09:17Z</time>
      </trkpt>
      <trkpt lat="45.91188" lon="4.74254">
        <ele>175</ele>
        <time>2018-02-20T10:09:18Z</time>
      </trkpt>
      <trkpt lat="45.91191" lon="4.74265">
        <ele>175</ele>
        <time>2018-02-20T10:09:19Z</time>
      </trkpt>
      <trkpt lat="45.91193" lon="4.74276">
        <ele>175</ele>
        <time>2018-02-20T10:09:20Z</time>
      </trkpt>
      <trkpt lat="45.91195" lon="4.74286">
        <ele>175</ele>
        <time>2018-02-20T10:09:21Z</time>
      </trkpt>
      <trkpt lat="45.91198" lon="4.74296">
        <ele>175</ele>
        <time>2018-02-20T10:09:22Z</time>
      </trkpt>
      <trkpt lat="45.912" lon="4.74307">
        <ele>175</ele>
        <time>2018-02-20T10:09:23Z</time>
      </trkpt>
      <trkpt lat="45.91203" lon="4.74317">
        <ele>175</ele>
        <time>2018-02-20T10:09:24Z</time>
      </trkpt>
      <trkpt lat="45.91205" lon="4.74328">
        <ele>175</ele>
        <time>2018-02-20T10:09:25Z</time>
      </trkpt>
      <trkpt lat="45.91208" lon="4.74339">
        <ele>175</ele>
        <time>2018-02-20T10:09:26Z</time>
      </trkpt>
      <trkpt lat="45.91211" lon="4.7435">
        <ele>175</ele>
        <time>2018-02-20T10:09:27Z</time>
      </trkpt>
      <trkpt lat="45.91213" lon="4.7436">
        <ele>175</ele>
        <time>2018-02-20T10:09:28Z</time>
      </trkpt>
      <trkpt lat="45.91215" lon="4.7437">
        <ele>174</ele>
        <time>2018-02-20T10:09:29Z</time>
      </trkpt>
      <trkpt lat="45.91218" lon="4.7438">
        <ele>174</ele>
        <time>2018-02-20T10:09:30Z</time>
      </trkpt>
      <trkpt lat="45.9122" lon="4.7439">
        <ele>174</ele>
        <time>2018-02-20T10:09:31Z</time>
      </trkpt>
      <trkpt lat="45.91222" lon="4.744">
        <ele>174</ele>
        <time>2018-02-20T10:09:32Z</time>
      </trkpt>
      <trkpt lat="45.91225" lon="4.7441">
        <ele>174</ele>
        <time>2018-02-20T10:09:33Z</time>
      </trkpt>
      <trkpt lat="45.91228" lon="4.74419">
        <ele>174</ele>
        <time>2018-02-20T10:09:34Z</time>
      </trkpt>
      <trkpt lat="45.9123" lon="4.74427">
        <ele>174</ele>
        <time>2018-02-20T10:09:35Z</time>
      </trkpt>
      <trkpt lat="45.91232" lon="4.74436">
        <ele>174</ele>
        <time>2018-02-20T10:09:36Z</time>
      </trkpt>
      <trkpt lat="45.91234" lon="4.74444">
        <ele>174</ele>
        <time>2018-02-20T10:09:37Z</time>
      </trkpt>
      <trkpt lat="45.91236" lon="4.74451">
        <ele>174</ele>
        <time>2018-02-20T10:09:38Z</time>
      </trkpt>
      <trkpt lat="45.91238" lon="4.74459">
        <ele>174</ele>
        <time>2018-02-20T10:09:39Z</time>
      </trkpt>
      <trkpt lat="45.91241" lon="4.74466">
        <ele>174</ele>
        <time>2018-02-20T10:09:40Z</time>
      </trkpt>
      <trkpt lat="45.91243" lon="4.74473">
        <ele>174</ele>
        <time>2018-02-20T10:09:41Z</time>
      </trkpt>
      <trkpt lat="45.91245" lon="4.74481">
        <ele>174</ele>
        <time>2018-02-20T10:09:42Z</time>
      </trkpt>
      <trkpt lat="45.91247" lon="4.74489">
        <ele>174</ele>
        <time>2018-02-20T10:09:43Z</time>
      </trkpt>
      <trkpt lat="45.91249" lon="4.74497">
        <ele>174</ele>
        <time>2018-02-20T10:09:44Z</time>
      </trkpt>
      <trkpt lat="45.91251" lon="4.74505">
        <ele>174</ele>
        <time>2018-02-20T10:09:45Z</time>
      </trkpt>
      <trkpt lat="45.91253" lon="4.74512">
        <ele>174</ele>
        <time>2018-02-20T10:09:46Z</time>
      </trkpt>
      <trkpt lat="45.91256" lon="4.7452">
        <ele>174</ele>
        <time>2018-02-20T10:09:47Z</time>
      </trkpt>
      <trkpt lat="45.91258" lon="4.74526">
        <ele>173</ele>
        <time>2018-02-20T10:09:48Z</time>
      </trkpt>
      <trkpt lat="45.91261" lon="4.74533">
        <ele>173</ele>
        <time>2018-02-20T10:09:49Z</time>
      </trkpt>
      <trkpt lat="45.91264" lon="4.7454">
        <ele>173</ele>
        <time>2018-02-20T10:09:50Z</time>
      </trkpt>
      <trkpt lat="45.91266" lon="4.74547">
        <ele>173</ele>
        <time>2018-02-20T10:09:51Z</time>
      </trkpt>
      <trkpt lat="45.91269" lon="4.74554">
        <ele>173</ele>
        <time>2018-02-20T10:09:52Z</time>
      </trkpt>
      <trkpt lat="45.91272" lon="4.74561">
        <ele>173</ele>
        <time>2018-02-20T10:09:53Z</time>
      </trkpt>
      <trkpt lat="45.91276" lon="4.74568">
        <ele>173</ele>
        <time>2018-02-20T10:09:54Z</time>
      </trkpt>
      <trkpt lat="45.9128" lon="4.74575">
        <ele>173</ele>
        <time>2018-02-20T10:09:55Z</time>
      </trkpt>
      <trkpt lat="45.91283" lon="4.74582">
        <ele>173</ele>
        <time>2018-02-20T10:09:56Z</time>
      </trkpt>
      <trkpt lat="45.91286" lon="4.7459">
        <ele>173</ele>
        <time>2018-02-20T10:09:57Z</time>
      </trkpt>
      <trkpt lat="45.91289" lon="4.74599">
        <ele>173</ele>
        <time>2018-02-20T10:09:58Z</time>
      </trkpt>
      <trkpt lat="45.91292" lon="4.74605">
        <ele>173</ele>
        <time>2018-02-20T10:09:59Z</time>
      </trkpt>
      <trkpt lat="45.91296" lon="4.74614">
        <ele>173</ele>
        <time>2018-02-20T10:10:00Z</time>
      </trkpt>
      <trkpt lat="45.913" lon="4.74621">
        <ele>173</ele>
        <time>2018-02-20T10:10:01Z</time>
      </trkpt>
      <trkpt lat="45.91303" lon="4.74628">
        <ele>173</ele>
        <time>2018-02-20T10:10:02Z</time>
      </trkpt>
      <trkpt lat="45.91306" lon="4.74636">
        <ele>173</ele>
        <time>2018-02-20T10:10:03Z</time>
      </trkpt>
      <trkpt lat="45.91309" lon="4.74643">
        <ele>173</ele>
        <time>2018-02-20T10:10:04Z</time>
      </trkpt>
      <trkpt lat="45.91312" lon="4.74649">
        <ele>173</ele>
        <time>2018-02-20T10:10:05Z</time>
      </trkpt>
      <trkpt lat="45.91315" lon="4.74656">
        <ele>173</ele>
        <time>2018-02-20T10:10:06Z</time>
      </trkpt>
      <trkpt lat="45.91319" lon="4.74661">
        <ele>173</ele>
        <time>2018-02-20T10:10:07Z</time>
      </trkpt>
      <trkpt lat="45.91323" lon="4.7467">
        <ele>173</ele>
        <time>2018-02-20T10:10:08Z</time>
      </trkpt>
      <trkpt lat="45.91325" lon="4.74678">
        <ele>173</ele>
        <time>2018-02-20T10:10:09Z</time>
      </trkpt>
      <trkpt lat="45.91328" lon="4.74686">
        <ele>173</ele>
        <time>2018-02-20T10:10:10Z</time>
      </trkpt>
      <trkpt lat="45.9133" lon="4.74695">
        <ele>173</ele>
        <time>2018-02-20T10:10:11Z</time>
      </trkpt>
      <trkpt lat="45.9133" lon="4.74703">
        <ele>173</ele>
        <time>2018-02-20T10:10:12Z</time>
      </trkpt>
      <trkpt lat="45.91331" lon="4.7471">
        <ele>173</ele>
        <time>2018-02-20T10:10:13Z</time>
      </trkpt>
      <trkpt lat="45.9133" lon="4.74717">
        <ele>173</ele>
        <time>2018-02-20T10:10:14Z</time>
      </trkpt>
      <trkpt lat="45.91329" lon="4.74725">
        <ele>173</ele>
        <time>2018-02-20T10:10:15Z</time>
      </trkpt>
      <trkpt lat="45.91329" lon="4.74734">
        <ele>173</ele>
        <time>2018-02-20T10:10:16Z</time>
      </trkpt>
      <trkpt lat="45.91328" lon="4.74742">
        <ele>173</ele>
        <time>2018-02-20T10:10:17Z</time>
      </trkpt>
      <trkpt lat="45.91327" lon="4.74754">
        <ele>173</ele>
        <time>2018-02-20T10:10:19Z</time>
      </trkpt>
      <trkpt lat="45.91328" lon="4.74761">
        <ele>174</ele>
        <time>2018-02-20T10:10:20Z</time>
      </trkpt>
      <trkpt lat="45.91327" lon="4.74767">
        <ele>174</ele>
        <time>2018-02-20T10:10:21Z</time>
      </trkpt>
      <trkpt lat="45.91324" lon="4.74775">
        <ele>174</ele>
        <time>2018-02-20T10:10:22Z</time>
      </trkpt>
      <trkpt lat="45.91323" lon="4.74782">
        <ele>174</ele>
        <time>2018-02-20T10:10:23Z</time>
      </trkpt>
      <trkpt lat="45.9132" lon="4.74789">
        <ele>174</ele>
        <time>2018-02-20T10:10:24Z</time>
      </trkpt>
      <trkpt lat="45.91319" lon="4.74797">
        <ele>174</ele>
        <time>2018-02-20T10:10:25Z</time>
      </trkpt>
      <trkpt lat="45.91318" lon="4.74804">
        <ele>175</ele>
        <time>2018-02-20T10:10:26Z</time>
      </trkpt>
      <trkpt lat="45.91318" lon="4.74811">
        <ele>175</ele>
        <time>2018-02-20T10:10:27Z</time>
      </trkpt>
      <trkpt lat="45.91318" lon="4.7482">
        <ele>175</ele>
        <time>2018-02-20T10:10:28Z</time>
      </trkpt>
      <trkpt lat="45.91314" lon="4.7483">
        <ele>175</ele>
        <time>2018-02-20T10:10:29Z</time>
      </trkpt>
      <trkpt lat="45.91314" lon="4.74837">
        <ele>176</ele>
        <time>2018-02-20T10:10:30Z</time>
      </trkpt>
      <trkpt lat="45.91314" lon="4.74843">
        <ele>176</ele>
        <time>2018-02-20T10:10:31Z</time>
      </trkpt>
      <trkpt lat="45.91314" lon="4.74851">
        <ele>176</ele>
        <time>2018-02-20T10:10:32Z</time>
      </trkpt>
      <trkpt lat="45.91317" lon="4.74857">
        <ele>176</ele>
        <time>2018-02-20T10:10:33Z</time>
      </trkpt>
      <trkpt lat="45.91317" lon="4.74864">
        <ele>176</ele>
        <time>2018-02-20T10:10:34Z</time>
      </trkpt>
      <trkpt lat="45.91317" lon="4.74871">
        <ele>176</ele>
        <time>2018-02-20T10:10:35Z</time>
      </trkpt>
      <trkpt lat="45.91317" lon="4.74877">
        <ele>176</ele>
        <time>2018-02-20T10:10:36Z</time>
      </trkpt>
      <trkpt lat="45.91316" lon="4.74888">
        <ele>176</ele>
        <time>2018-02-20T10:10:38Z</time>
      </trkpt>
      <trkpt lat="45.91314" lon="4.74895">
        <ele>176</ele>
        <time>2018-02-20T10:10:39Z</time>
      </trkpt>
      <trkpt lat="45.91313" lon="4.74902">
        <ele>176</ele>
        <time>2018-02-20T10:10:40Z</time>
      </trkpt>
      <trkpt lat="45.91313" lon="4.7491">
        <ele>176</ele>
        <time>2018-02-20T10:10:41Z</time>
      </trkpt>
      <trkpt lat="45.91315" lon="4.74917">
        <ele>177</ele>
        <time>2018-02-20T10:10:42Z</time>
      </trkpt>
      <trkpt lat="45.91315" lon="4.74924">
        <ele>177</ele>
        <time>2018-02-20T10:10:43Z</time>
      </trkpt>
      <trkpt lat="45.91312" lon="4.7493">
        <ele>177</ele>
        <time>2018-02-20T10:10:44Z</time>
      </trkpt>
      <trkpt lat="45.9131" lon="4.74937">
        <ele>177</ele>
        <time>2018-02-20T10:10:45Z</time>
      </trkpt>
      <trkpt lat="45.91309" lon="4.74945">
        <ele>177</ele>
        <time>2018-02-20T10:10:46Z</time>
      </trkpt>
      <trkpt lat="45.91309" lon="4.74951">
        <ele>177</ele>
        <time>2018-02-20T10:10:47Z</time>
      </trkpt>
      <trkpt lat="45.91307" lon="4.74957">
        <ele>177</ele>
        <time>2018-02-20T10:10:48Z</time>
      </trkpt>
      <trkpt lat="45.91308" lon="4.74965">
        <ele>177</ele>
        <time>2018-02-20T10:10:49Z</time>
      </trkpt>
      <trkpt lat="45.91307" lon="4.74977">
        <ele>177</ele>
        <time>2018-02-20T10:10:51Z</time>
      </trkpt>
      <trkpt lat="45.91306" lon="4.74984">
        <ele>177</ele>
        <time>2018-02-20T10:10:52Z</time>
      </trkpt>
      <trkpt lat="45.91306" lon="4.74993">
        <ele>177</ele>
        <time>2018-02-20T10:10:53Z</time>
      </trkpt>
      <trkpt lat="45.91305" lon="4.75002">
        <ele>177</ele>
        <time>2018-02-20T10:10:54Z</time>
      </trkpt>
      <trkpt lat="45.91302" lon="4.75009">
        <ele>177</ele>
        <time>2018-02-20T10:10:55Z</time>
      </trkpt>
      <trkpt lat="45.91301" lon="4.75017">
        <ele>177</ele>
        <time>2018-02-20T10:10:56Z</time>
      </trkpt>
      <trkpt lat="45.91302" lon="4.75023">
        <ele>177</ele>
        <time>2018-02-20T10:10:57Z</time>
      </trkpt>
      <trkpt lat="45.91302" lon="4.7503">
        <ele>177</ele>
        <time>2018-02-20T10:10:58Z</time>
      </trkpt>
      <trkpt lat="45.91302" lon="4.75038">
        <ele>177</ele>
        <time>2018-02-20T10:10:59Z</time>
      </trkpt>
      <trkpt lat="45.91302" lon="4.75045">
        <ele>177</ele>
        <time>2018-02-20T10:11:00Z</time>
      </trkpt>
      <trkpt lat="45.91302" lon="4.75051">
        <ele>177</ele>
        <time>2018-02-20T10:11:01Z</time>
      </trkpt>
      <trkpt lat="45.91302" lon="4.75058">
        <ele>177</ele>
        <time>2018-02-20T10:11:02Z</time>
      </trkpt>
      <trkpt lat="45.91302" lon="4.75065">
        <ele>177</ele>
        <time>2018-02-20T10:11:03Z</time>
      </trkpt>
      <trkpt lat="45.91301" lon="4.75073">
        <ele>177</ele>
        <time>2018-02-20T10:11:04Z</time>
      </trkpt>
      <trkpt lat="45.91302" lon="4.7508">
        <ele>177</ele>
        <time>2018-02-20T10:11:05Z</time>
      </trkpt>
      <trkpt lat="45.91302" lon="4.75087">
        <ele>177</ele>
        <time>2018-02-20T10:11:06Z</time>
      </trkpt>
      <trkpt lat="45.91302" lon="4.75096">
        <ele>177</ele>
        <time>2018-02-20T10:11:07Z</time>
      </trkpt>
      <trkpt lat="45.91303" lon="4.75103">
        <ele>177</ele>
        <time>2018-02-20T10:11:08Z</time>
      </trkpt>
      <trkpt lat="45.91303" lon="4.75111">
        <ele>177</ele>
        <time>2018-02-20T10:11:09Z</time>
      </trkpt>
      <trkpt lat="45.91304" lon="4.75119">
        <ele>177</ele>
        <time>2018-02-20T10:11:10Z</time>
      </trkpt>
      <trkpt lat="45.91304" lon="4.75127">
        <ele>177</ele>
        <time>2018-02-20T10:11:11Z</time>
      </trkpt>
      <trkpt lat="45.91306" lon="4.75134">
        <ele>177</ele>
        <time>2018-02-20T10:11:12Z</time>
      </trkpt>
      <trkpt lat="45.91307" lon="4.75141">
        <ele>177</ele>
        <time>2018-02-20T10:11:13Z</time>
      </trkpt>
      <trkpt lat="45.91308" lon="4.75147">
        <ele>177</ele>
        <time>2018-02-20T10:11:14Z</time>
      </trkpt>
      <trkpt lat="45.91304" lon="4.75157">
        <ele>177</ele>
        <time>2018-02-20T10:11:16Z</time>
      </trkpt>
      <trkpt lat="45.91303" lon="4.7516">
        <ele>177</ele>
        <time>2018-02-20T10:11:17Z</time>
      </trkpt>
      <trkpt lat="45.91296" lon="4.75158">
        <ele>177</ele>
        <time>2018-02-20T10:11:19Z</time>
      </trkpt>
      <trkpt lat="45.91292" lon="4.75156">
        <ele>177</ele>
        <time>2018-02-20T10:11:20Z</time>
      </trkpt>
      <trkpt lat="45.91285" lon="4.7515">
        <ele>177</ele>
        <time>2018-02-20T10:11:22Z</time>
      </trkpt>
      <trkpt lat="45.91281" lon="4.75148">
        <ele>177</ele>
        <time>2018-02-20T10:11:23Z</time>
      </trkpt>
      <trkpt lat="45.91272" lon="4.75143">
        <ele>177</ele>
        <time>2018-02-20T10:11:25Z</time>
      </trkpt>
      <trkpt lat="45.91268" lon="4.75141">
        <ele>177</ele>
        <time>2018-02-20T10:11:26Z</time>
      </trkpt>
      <trkpt lat="45.9126" lon="4.75139">
        <ele>177</ele>
        <time>2018-02-20T10:11:27Z</time>
      </trkpt>
      <trkpt lat="45.91254" lon="4.75136">
        <ele>177</ele>
        <time>2018-02-20T10:11:28Z</time>
      </trkpt>
      <trkpt lat="45.91249" lon="4.75134">
        <ele>177</ele>
        <time>2018-02-20T10:11:29Z</time>
      </trkpt>
      <trkpt lat="45.91244" lon="4.75131">
        <ele>177</ele>
        <time>2018-02-20T10:11:30Z</time>
      </trkpt>
      <trkpt lat="45.91241" lon="4.75127">
        <ele>177</ele>
        <time>2018-02-20T10:11:31Z</time>
      </trkpt>
      <trkpt lat="45.91236" lon="4.75124">
        <ele>177</ele>
        <time>2018-02-20T10:11:32Z</time>
      </trkpt>
      <trkpt lat="45.9123" lon="4.75122">
        <ele>177</ele>
        <time>2018-02-20T10:11:33Z</time>
      </trkpt>
      <trkpt lat="45.91226" lon="4.7512">
        <ele>177</ele>
        <time>2018-02-20T10:11:34Z</time>
      </trkpt>
      <trkpt lat="45.9122" lon="4.75118">
        <ele>177</ele>
        <time>2018-02-20T10:11:35Z</time>
      </trkpt>
      <trkpt lat="45.91215" lon="4.75117">
        <ele>177</ele>
        <time>2018-02-20T10:11:36Z</time>
      </trkpt>
      <trkpt lat="45.91211" lon="4.75115">
        <ele>177</ele>
        <time>2018-02-20T10:11:37Z</time>
      </trkpt>
      <trkpt lat="45.91205" lon="4.75114">
        <ele>178</ele>
        <time>2018-02-20T10:11:38Z</time>
      </trkpt>
      <trkpt lat="45.91198" lon="4.75112">
        <ele>178</ele>
        <time>2018-02-20T10:11:39Z</time>
      </trkpt>
      <trkpt lat="45.91194" lon="4.7511">
        <ele>178</ele>
        <time>2018-02-20T10:11:40Z</time>
      </trkpt>
      <trkpt lat="45.91188" lon="4.75109">
        <ele>178</ele>
        <time>2018-02-20T10:11:41Z</time>
      </trkpt>
      <trkpt lat="45.91184" lon="4.75107">
        <ele>178</ele>
        <time>2018-02-20T10:11:42Z</time>
      </trkpt>
      <trkpt lat="45.91176" lon="4.75106">
        <ele>178</ele>
        <time>2018-02-20T10:11:44Z</time>
      </trkpt>
      <trkpt lat="45.91171" lon="4.75106">
        <ele>178</ele>
        <time>2018-02-20T10:11:45Z</time>
      </trkpt>
      <trkpt lat="45.91166" lon="4.75104">
        <ele>179</ele>
        <time>2018-02-20T10:11:46Z</time>
      </trkpt>
      <trkpt lat="45.91159" lon="4.75103">
        <ele>179</ele>
        <time>2018-02-20T10:11:47Z</time>
      </trkpt>
      <trkpt lat="45.91154" lon="4.75102">
        <ele>179</ele>
        <time>2018-02-20T10:11:48Z</time>
      </trkpt>
      <trkpt lat="45.91149" lon="4.75101">
        <ele>179</ele>
        <time>2018-02-20T10:11:49Z</time>
      </trkpt>
      <trkpt lat="45.91145" lon="4.751">
        <ele>179</ele>
        <time>2018-02-20T10:11:50Z</time>
      </trkpt>
      <trkpt lat="45.9114" lon="4.75097">
        <ele>179</ele>
        <time>2018-02-20T10:11:51Z</time>
      </trkpt>
      <trkpt lat="45.91131" lon="4.75094">
        <ele>179</ele>
        <time>2018-02-20T10:11:53Z</time>
      </trkpt>
      <trkpt lat="45.91125" lon="4.75091">
        <ele>179</ele>
        <time>2018-02-20T10:11:54Z</time>
      </trkpt>
      <trkpt lat="45.91118" lon="4.7509">
        <ele>179</ele>
        <time>2018-02-20T10:11:55Z</time>
      </trkpt>
      <trkpt lat="45.91112" lon="4.75088">
        <ele>179</ele>
        <time>2018-02-20T10:11:56Z</time>
      </trkpt>
      <trkpt lat="45.91106" lon="4.75087">
        <ele>180</ele>
        <time>2018-02-20T10:11:57Z</time>
      </trkpt>
      <trkpt lat="45.91101" lon="4.75085">
        <ele>180</ele>
        <time>2018-02-20T10:11:58Z</time>
      </trkpt>
      <trkpt lat="45.91095" lon="4.75082">
        <ele>179</ele>
        <time>2018-02-20T10:11:59Z</time>
      </trkpt>
      <trkpt lat="45.9109" lon="4.7508">
        <ele>180</ele>
        <time>2018-02-20T10:12:00Z</time>
      </trkpt>
      <trkpt lat="45.91086" lon="4.75076">
        <ele>180</ele>
        <time>2018-02-20T10:12:01Z</time>
      </trkpt>
      <trkpt lat="45.91082" lon="4.75074">
        <ele>180</ele>
        <time>2018-02-20T10:12:02Z</time>
      </trkpt>
      <trkpt lat="45.91077" lon="4.75072">
        <ele>179</ele>
        <time>2018-02-20T10:12:03Z</time>
      </trkpt>
      <trkpt lat="45.91071" lon="4.7507">
        <ele>179</ele>
        <time>2018-02-20T10:12:04Z</time>
      </trkpt>
      <trkpt lat="45.91067" lon="4.75067">
        <ele>179</ele>
        <time>2018-02-20T10:12:05Z</time>
      </trkpt>
      <trkpt lat="45.91062" lon="4.75065">
        <ele>179</ele>
        <time>2018-02-20T10:12:06Z</time>
      </trkpt>
      <trkpt lat="45.91057" lon="4.75064">
        <ele>179</ele>
        <time>2018-02-20T10:12:07Z</time>
      </trkpt>
      <trkpt lat="45.91052" lon="4.75063">
        <ele>179</ele>
        <time>2018-02-20T10:12:08Z</time>
      </trkpt>
      <trkpt lat="45.91047" lon="4.75061">
        <ele>179</ele>
        <time>2018-02-20T10:12:09Z</time>
      </trkpt>
      <trkpt lat="45.91042" lon="4.75059">
        <ele>179</ele>
        <time>2018-02-20T10:12:10Z</time>
      </trkpt>
      <trkpt lat="45.91038" lon="4.75058">
        <ele>179</ele>
        <time>2018-02-20T10:12:11Z</time>
      </trkpt>
      <trkpt lat="45.91033" lon="4.75057">
        <ele>179</ele>
        <time>2018-02-20T10:12:12Z</time>
      </trkpt>
      <trkpt lat="45.91028" lon="4.75055">
        <ele>179</ele>
        <time>2018-02-20T10:12:13Z</time>
      </trkpt>
      <trkpt lat="45.91023" lon="4.75054">
        <ele>179</ele>
        <time>2018-02-20T10:12:14Z</time>
      </trkpt>
      <trkpt lat="45.91014" lon="4.7505">
        <ele>178</ele>
        <time>2018-02-20T10:12:16Z</time>
      </trkpt>
      <trkpt lat="45.9101" lon="4.75048">
        <ele>178</ele>
        <time>2018-02-20T10:12:17Z</time>
      </trkpt>
      <trkpt lat="45.91005" lon="4.75046">
        <ele>178</ele>
        <time>2018-02-20T10:12:18Z</time>
      </trkpt>
      <trkpt lat="45.91001" lon="4.75045">
        <ele>178</ele>
        <time>2018-02-20T10:12:19Z</time>
      </trkpt>
      <trkpt lat="45.90995" lon="4.75042">
        <ele>178</ele>
        <time>2018-02-20T10:12:20Z</time>
      </trkpt>
      <trkpt lat="45.90991" lon="4.7504">
        <ele>178</ele>
        <time>2018-02-20T10:12:21Z</time>
      </trkpt>
      <trkpt lat="45.90986" lon="4.75037">
        <ele>178</ele>
        <time>2018-02-20T10:12:22Z</time>
      </trkpt>
      <trkpt lat="45.90981" lon="4.75035">
        <ele>178</ele>
        <time>2018-02-20T10:12:23Z</time>
      </trkpt>
      <trkpt lat="45.90977" lon="4.75033">
        <ele>178</ele>
        <time>2018-02-20T10:12:24Z</time>
      </trkpt>
      <trkpt lat="45.90971" lon="4.75031">
        <ele>178</ele>
        <time>2018-02-20T10:12:25Z</time>
      </trkpt>
      <trkpt lat="45.90965" lon="4.75029">
        <ele>179</ele>
        <time>2018-02-20T10:12:26Z</time>
      </trkpt>
      <trkpt lat="45.90961" lon="4.75028">
        <ele>179</ele>
        <time>2018-02-20T10:12:27Z</time>
      </trkpt>
      <trkpt lat="45.90954" lon="4.75025">
        <ele>179</ele>
        <time>2018-02-20T10:12:29Z</time>
      </trkpt>
      <trkpt lat="45.90949" lon="4.75023">
        <ele>179</ele>
        <time>2018-02-20T10:12:30Z</time>
      </trkpt>
      <trkpt lat="45.90945" lon="4.75021">
        <ele>179</ele>
        <time>2018-02-20T10:12:31Z</time>
      </trkpt>
      <trkpt lat="45.90939" lon="4.75018">
        <ele>179</ele>
        <time>2018-02-20T10:12:32Z</time>
      </trkpt>
      <trkpt lat="45.90934" lon="4.75015">
        <ele>178</ele>
        <time>2018-02-20T10:12:33Z</time>
      </trkpt>
      <trkpt lat="45.90928" lon="4.75011">
        <ele>178</ele>
        <time>2018-02-20T10:12:34Z</time>
      </trkpt>
      <trkpt lat="45.90924" lon="4.75007">
        <ele>178</ele>
        <time>2018-02-20T10:12:35Z</time>
      </trkpt>
      <trkpt lat="45.90918" lon="4.75005">
        <ele>178</ele>
        <time>2018-02-20T10:12:36Z</time>
      </trkpt>
      <trkpt lat="45.90911" lon="4.75003">
        <ele>178</ele>
        <time>2018-02-20T10:12:37Z</time>
      </trkpt>
      <trkpt lat="45.90904" lon="4.75001">
        <ele>179</ele>
        <time>2018-02-20T10:12:38Z</time>
      </trkpt>
      <trkpt lat="45.90898" lon="4.74999">
        <ele>178</ele>
        <time>2018-02-20T10:12:39Z</time>
      </trkpt>
      <trkpt lat="45.90891" lon="4.74997">
        <ele>178</ele>
        <time>2018-02-20T10:12:40Z</time>
      </trkpt>
      <trkpt lat="45.90885" lon="4.74994">
        <ele>178</ele>
        <time>2018-02-20T10:12:41Z</time>
      </trkpt>
      <trkpt lat="45.90879" lon="4.74992">
        <ele>178</ele>
        <time>2018-02-20T10:12:42Z</time>
      </trkpt>
      <trkpt lat="45.90874" lon="4.74991">
        <ele>179</ele>
        <time>2018-02-20T10:12:43Z</time>
      </trkpt>
      <trkpt lat="45.90869" lon="4.7499">
        <ele>179</ele>
        <time>2018-02-20T10:12:44Z</time>
      </trkpt>
      <trkpt lat="45.90865" lon="4.74988">
        <ele>179</ele>
        <time>2018-02-20T10:12:45Z</time>
      </trkpt>
      <trkpt lat="45.9086" lon="4.74986">
        <ele>179</ele>
        <time>2018-02-20T10:12:46Z</time>
      </trkpt>
      <trkpt lat="45.90856" lon="4.74983">
        <ele>179</ele>
        <time>2018-02-20T10:12:47Z</time>
      </trkpt>
      <trkpt lat="45.90852" lon="4.74982">
        <ele>179</ele>
        <time>2018-02-20T10:12:48Z</time>
      </trkpt>
      <trkpt lat="45.90846" lon="4.7498">
        <ele>179</ele>
        <time>2018-02-20T10:12:49Z</time>
      </trkpt>
      <trkpt lat="45.90841" lon="4.74979">
        <ele>179</ele>
        <time>2018-02-20T10:12:50Z</time>
      </trkpt>
      <trkpt lat="45.90835" lon="4.74977">
        <ele>179</ele>
        <time>2018-02-20T10:12:51Z</time>
      </trkpt>
      <trkpt lat="45.90828" lon="4.74975">
        <ele>179</ele>
        <time>2018-02-20T10:12:52Z</time>
      </trkpt>
      <trkpt lat="45.90824" lon="4.74973">
        <ele>179</ele>
        <time>2018-02-20T10:12:53Z</time>
      </trkpt>
      <trkpt lat="45.90816" lon="4.7497">
        <ele>179</ele>
        <time>2018-02-20T10:12:54Z</time>
      </trkpt>
      <trkpt lat="45.9081" lon="4.74968">
        <ele>179</ele>
        <time>2018-02-20T10:12:55Z</time>
      </trkpt>
      <trkpt lat="45.90805" lon="4.74965">
        <ele>179</ele>
        <time>2018-02-20T10:12:56Z</time>
      </trkpt>
      <trkpt lat="45.90799" lon="4.74963">
        <ele>179</ele>
        <time>2018-02-20T10:12:57Z</time>
      </trkpt>
      <trkpt lat="45.90793" lon="4.7496">
        <ele>179</ele>
        <time>2018-02-20T10:12:58Z</time>
      </trkpt>
      <trkpt lat="45.90789" lon="4.74957">
        <ele>180</ele>
        <time>2018-02-20T10:12:59Z</time>
      </trkpt>
      <trkpt lat="45.90782" lon="4.74956">
        <ele>180</ele>
        <time>2018-02-20T10:13:00Z</time>
      </trkpt>
      <trkpt lat="45.90777" lon="4.74954">
        <ele>180</ele>
        <time>2018-02-20T10:13:01Z</time>
      </trkpt>
      <trkpt lat="45.90772" lon="4.74952">
        <ele>180</ele>
        <time>2018-02-20T10:13:02Z</time>
      </trkpt>
      <trkpt lat="45.90767" lon="4.74949">
        <ele>180</ele>
        <time>2018-02-20T10:13:03Z</time>
      </trkpt>
      <trkpt lat="45.90763" lon="4.74947">
        <ele>180</ele>
        <time>2018-02-20T10:13:04Z</time>
      </trkpt>
      <trkpt lat="45.90759" lon="4.74947">
        <ele>180</ele>
        <time>2018-02-20T10:13:05Z</time>
      </trkpt>
      <trkpt lat="45.90753" lon="4.74945">
        <ele>180</ele>
        <time>2018-02-20T10:13:06Z</time>
      </trkpt>
      <trkpt lat="45.90746" lon="4.74943">
        <ele>181</ele>
        <time>2018-02-20T10:13:07Z</time>
      </trkpt>
      <trkpt lat="45.90741" lon="4.7494">
        <ele>181</ele>
        <time>2018-02-20T10:13:08Z</time>
      </trkpt>
      <trkpt lat="45.90736" lon="4.74938">
        <ele>181</ele>
        <time>2018-02-20T10:13:09Z</time>
      </trkpt>
      <trkpt lat="45.90731" lon="4.74936">
        <ele>181</ele>
        <time>2018-02-20T10:13:10Z</time>
      </trkpt>
      <trkpt lat="45.90725" lon="4.74936">
        <ele>181</ele>
        <time>2018-02-20T10:13:11Z</time>
      </trkpt>
      <trkpt lat="45.9072" lon="4.74936">
        <ele>181</ele>
        <time>2018-02-20T10:13:12Z</time>
      </trkpt>
      <trkpt lat="45.90714" lon="4.74938">
        <ele>181</ele>
        <time>2018-02-20T10:13:13Z</time>
      </trkpt>
      <trkpt lat="45.90709" lon="4.74939">
        <ele>181</ele>
        <time>2018-02-20T10:13:14Z</time>
      </trkpt>
      <trkpt lat="45.90703" lon="4.7494">
        <ele>181</ele>
        <time>2018-02-20T10:13:15Z</time>
      </trkpt>
      <trkpt lat="45.90698" lon="4.74943">
        <ele>181</ele>
        <time>2018-02-20T10:13:16Z</time>
      </trkpt>
      <trkpt lat="45.90692" lon="4.74944">
        <ele>181</ele>
        <time>2018-02-20T10:13:17Z</time>
      </trkpt>
      <trkpt lat="45.90686" lon="4.74946">
        <ele>181</ele>
        <time>2018-02-20T10:13:18Z</time>
      </trkpt>
      <trkpt lat="45.9068" lon="4.74949">
        <ele>181</ele>
        <time>2018-02-20T10:13:19Z</time>
      </trkpt>
      <trkpt lat="45.90676" lon="4.7495">
        <ele>181</ele>
        <time>2018-02-20T10:13:20Z</time>
      </trkpt>
      <trkpt lat="45.9067" lon="4.74952">
        <ele>182</ele>
        <time>2018-02-20T10:13:21Z</time>
      </trkpt>
      <trkpt lat="45.90665" lon="4.74955">
        <ele>183</ele>
        <time>2018-02-20T10:13:22Z</time>
      </trkpt>
      <trkpt lat="45.9066" lon="4.74957">
        <ele>183</ele>
        <time>2018-02-20T10:13:23Z</time>
      </trkpt>
      <trkpt lat="45.90656" lon="4.74958">
        <ele>183</ele>
        <time>2018-02-20T10:13:24Z</time>
      </trkpt>
      <trkpt lat="45.90649" lon="4.74959">
        <ele>183</ele>
        <time>2018-02-20T10:13:25Z</time>
      </trkpt>
      <trkpt lat="45.90644" lon="4.74961">
        <ele>183</ele>
        <time>2018-02-20T10:13:26Z</time>
      </trkpt>
      <trkpt lat="45.9064" lon="4.74962">
        <ele>183</ele>
        <time>2018-02-20T10:13:27Z</time>
      </trkpt>
      <trkpt lat="45.90633" lon="4.74964">
        <ele>183</ele>
        <time>2018-02-20T10:13:28Z</time>
      </trkpt>
      <trkpt lat="45.90625" lon="4.74965">
        <ele>183</ele>
        <time>2018-02-20T10:13:30Z</time>
      </trkpt>
      <trkpt lat="45.90618" lon="4.74966">
        <ele>183</ele>
        <time>2018-02-20T10:13:31Z</time>
      </trkpt>
      <trkpt lat="45.90612" lon="4.74968">
        <ele>184</ele>
        <time>2018-02-20T10:13:32Z</time>
      </trkpt>
      <trkpt lat="45.90606" lon="4.74969">
        <ele>184</ele>
        <time>2018-02-20T10:13:33Z</time>
      </trkpt>
      <trkpt lat="45.906" lon="4.74969">
        <ele>184</ele>
        <time>2018-02-20T10:13:34Z</time>
      </trkpt>
      <trkpt lat="45.90594" lon="4.7497">
        <ele>184</ele>
        <time>2018-02-20T10:13:35Z</time>
      </trkpt>
      <trkpt lat="45.90589" lon="4.74971">
        <ele>184</ele>
        <time>2018-02-20T10:13:36Z</time>
      </trkpt>
      <trkpt lat="45.90581" lon="4.74972">
        <ele>184</ele>
        <time>2018-02-20T10:13:37Z</time>
      </trkpt>
      <trkpt lat="45.90577" lon="4.74972">
        <ele>184</ele>
        <time>2018-02-20T10:13:38Z</time>
      </trkpt>
      <trkpt lat="45.90572" lon="4.74973">
        <ele>184</ele>
        <time>2018-02-20T10:13:39Z</time>
      </trkpt>
      <trkpt lat="45.90563" lon="4.74972">
        <ele>184</ele>
        <time>2018-02-20T10:13:42Z</time>
      </trkpt>
      <trkpt lat="45.90557" lon="4.74973">
        <ele>184</ele>
        <time>2018-02-20T10:13:43Z</time>
      </trkpt>
      <trkpt lat="45.90552" lon="4.74974">
        <ele>184</ele>
        <time>2018-02-20T10:13:44Z</time>
      </trkpt>
      <trkpt lat="45.90548" lon="4.74976">
        <ele>184</ele>
        <time>2018-02-20T10:13:45Z</time>
      </trkpt>
      <trkpt lat="45.90539" lon="4.74978">
        <ele>185</ele>
        <time>2018-02-20T10:13:48Z</time>
      </trkpt>
      <trkpt lat="45.90533" lon="4.74981">
        <ele>185</ele>
        <time>2018-02-20T10:13:49Z</time>
      </trkpt>
      <trkpt lat="45.90526" lon="4.74982">
        <ele>185</ele>
        <time>2018-02-20T10:13:50Z</time>
      </trkpt>
      <trkpt lat="45.90521" lon="4.74983">
        <ele>185</ele>
        <time>2018-02-20T10:13:51Z</time>
      </trkpt>
      <trkpt lat="45.90516" lon="4.74984">
        <ele>185</ele>
        <time>2018-02-20T10:13:52Z</time>
      </trkpt>
      <trkpt lat="45.9051" lon="4.74984">
        <ele>185</ele>
        <time>2018-02-20T10:13:53Z</time>
      </trkpt>
      <trkpt lat="45.90505" lon="4.74984">
        <ele>185</ele>
        <time>2018-02-20T10:13:54Z</time>
      </trkpt>
      <trkpt lat="45.905" lon="4.74984">
        <ele>186</ele>
        <time>2018-02-20T10:13:55Z</time>
      </trkpt>
      <trkpt lat="45.90493" lon="4.74987">
        <ele>186</ele>
        <time>2018-02-20T10:13:57Z</time>
      </trkpt>
      <trkpt lat="45.90487" lon="4.74988">
        <ele>186</ele>
        <time>2018-02-20T10:13:58Z</time>
      </trkpt>
      <trkpt lat="45.90482" lon="4.74988">
        <ele>186</ele>
        <time>2018-02-20T10:13:59Z</time>
      </trkpt>
      <trkpt lat="45.90477" lon="4.74988">
        <ele>186</ele>
        <time>2018-02-20T10:14:00Z</time>
      </trkpt>
      <trkpt lat="45.90471" lon="4.74989">
        <ele>186</ele>
        <time>2018-02-20T10:14:01Z</time>
      </trkpt>
      <trkpt lat="45.90466" lon="4.74988">
        <ele>186</ele>
        <time>2018-02-20T10:14:02Z</time>
      </trkpt>
      <trkpt lat="45.90462" lon="4.74988">
        <ele>186</ele>
        <time>2018-02-20T10:14:03Z</time>
      </trkpt>
      <trkpt lat="45.90456" lon="4.74989">
        <ele>186</ele>
        <time>2018-02-20T10:14:04Z</time>
      </trkpt>
      <trkpt lat="45.90451" lon="4.74989">
        <ele>186</ele>
        <time>2018-02-20T10:14:05Z</time>
      </trkpt>
      <trkpt lat="45.90446" lon="4.74991">
        <ele>186</ele>
        <time>2018-02-20T10:14:06Z</time>
      </trkpt>
      <trkpt lat="45.90437" lon="4.74991">
        <ele>187</ele>
        <time>2018-02-20T10:14:07Z</time>
      </trkpt>
      <trkpt lat="45.90432" lon="4.74991">
        <ele>187</ele>
        <time>2018-02-20T10:14:08Z</time>
      </trkpt>
      <trkpt lat="45.90427" lon="4.74992">
        <ele>187</ele>
        <time>2018-02-20T10:14:09Z</time>
      </trkpt>
      <trkpt lat="45.90422" lon="4.74994">
        <ele>187</ele>
        <time>2018-02-20T10:14:10Z</time>
      </trkpt>
      <trkpt lat="45.90417" lon="4.74995">
        <ele>188</ele>
        <time>2018-02-20T10:14:11Z</time>
      </trkpt>
      <trkpt lat="45.90413" lon="4.74997">
        <ele>188</ele>
        <time>2018-02-20T10:14:12Z</time>
      </trkpt>
      <trkpt lat="45.90407" lon="4.74998">
        <ele>187</ele>
        <time>2018-02-20T10:14:13Z</time>
      </trkpt>
      <trkpt lat="45.90401" lon="4.74998">
        <ele>187</ele>
        <time>2018-02-20T10:14:15Z</time>
      </trkpt>
      <trkpt lat="45.90396" lon="4.75002">
        <ele>188</ele>
        <time>2018-02-20T10:14:16Z</time>
      </trkpt>
      <trkpt lat="45.90391" lon="4.75004">
        <ele>188</ele>
        <time>2018-02-20T10:14:17Z</time>
      </trkpt>
      <trkpt lat="45.90386" lon="4.75005">
        <ele>188</ele>
        <time>2018-02-20T10:14:18Z</time>
      </trkpt>
      <trkpt lat="45.90382" lon="4.75007">
        <ele>188</ele>
        <time>2018-02-20T10:14:19Z</time>
      </trkpt>
      <trkpt lat="45.90377" lon="4.75009">
        <ele>188</ele>
        <time>2018-02-20T10:14:20Z</time>
      </trkpt>
      <trkpt lat="45.90369" lon="4.75012">
        <ele>188</ele>
        <time>2018-02-20T10:14:22Z</time>
      </trkpt>
      <trkpt lat="45.90364" lon="4.75014">
        <ele>188</ele>
        <time>2018-02-20T10:14:23Z</time>
      </trkpt>
      <trkpt lat="45.90358" lon="4.75017">
        <ele>188</ele>
        <time>2018-02-20T10:14:24Z</time>
      </trkpt>
      <trkpt lat="45.90353" lon="4.75018">
        <ele>188</ele>
        <time>2018-02-20T10:14:25Z</time>
      </trkpt>
      <trkpt lat="45.90346" lon="4.75021">
        <ele>188</ele>
        <time>2018-02-20T10:14:27Z</time>
      </trkpt>
      <trkpt lat="45.9034" lon="4.75022">
        <ele>188</ele>
        <time>2018-02-20T10:14:28Z</time>
      </trkpt>
      <trkpt lat="45.90332" lon="4.75025">
        <ele>189</ele>
        <time>2018-02-20T10:14:30Z</time>
      </trkpt>
      <trkpt lat="45.90327" lon="4.75026">
        <ele>189</ele>
        <time>2018-02-20T10:14:31Z</time>
      </trkpt>
      <trkpt lat="45.90325" lon="4.75029">
        <ele>189</ele>
        <time>2018-02-20T10:14:32Z</time>
      </trkpt>
      <trkpt lat="45.90318" lon="4.75029">
        <ele>189</ele>
        <time>2018-02-20T10:14:33Z</time>
      </trkpt>
      <trkpt lat="45.90313" lon="4.75031">
        <ele>189</ele>
        <time>2018-02-20T10:14:34Z</time>
      </trkpt>
      <trkpt lat="45.90308" lon="4.75032">
        <ele>189</ele>
        <time>2018-02-20T10:14:35Z</time>
      </trkpt>
      <trkpt lat="45.90301" lon="4.75034">
        <ele>189</ele>
        <time>2018-02-20T10:14:37Z</time>
      </trkpt>
      <trkpt lat="45.90295" lon="4.75036">
        <ele>189</ele>
        <time>2018-02-20T10:14:38Z</time>
      </trkpt>
      <trkpt lat="45.90288" lon="4.75039">
        <ele>190</ele>
        <time>2018-02-20T10:14:40Z</time>
      </trkpt>
      <trkpt lat="45.90283" lon="4.7504">
        <ele>190</ele>
        <time>2018-02-20T10:14:41Z</time>
      </trkpt>
      <trkpt lat="45.90279" lon="4.75042">
        <ele>190</ele>
        <time>2018-02-20T10:14:42Z</time>
      </trkpt>
      <trkpt lat="45.90274" lon="4.75044">
        <ele>190</ele>
        <time>2018-02-20T10:14:43Z</time>
      </trkpt>
      <trkpt lat="45.90269" lon="4.75043">
        <ele>190</ele>
        <time>2018-02-20T10:14:44Z</time>
      </trkpt>
      <trkpt lat="45.90264" lon="4.75044">
        <ele>190</ele>
        <time>2018-02-20T10:14:45Z</time>
      </trkpt>
      <trkpt lat="45.90259" lon="4.75044">
        <ele>190</ele>
        <time>2018-02-20T10:14:46Z</time>
      </trkpt>
      <trkpt lat="45.90255" lon="4.75046">
        <ele>190</ele>
        <time>2018-02-20T10:14:47Z</time>
      </trkpt>
      <trkpt lat="45.9025" lon="4.75047">
        <ele>191</ele>
        <time>2018-02-20T10:14:48Z</time>
      </trkpt>
      <trkpt lat="45.90245" lon="4.75048">
        <ele>191</ele>
        <time>2018-02-20T10:14:49Z</time>
      </trkpt>
      <trkpt lat="45.90236" lon="4.75049">
        <ele>191</ele>
        <time>2018-02-20T10:14:51Z</time>
      </trkpt>
      <trkpt lat="45.90232" lon="4.75049">
        <ele>191</ele>
        <time>2018-02-20T10:14:52Z</time>
      </trkpt>
      <trkpt lat="45.90223" lon="4.7505">
        <ele>191</ele>
        <time>2018-02-20T10:14:54Z</time>
      </trkpt>
      <trkpt lat="45.90219" lon="4.7505">
        <ele>191</ele>
        <time>2018-02-20T10:14:55Z</time>
      </trkpt>
      <trkpt lat="45.90214" lon="4.75051">
        <ele>191</ele>
        <time>2018-02-20T10:14:56Z</time>
      </trkpt>
      <trkpt lat="45.90208" lon="4.75052">
        <ele>191</ele>
        <time>2018-02-20T10:14:57Z</time>
      </trkpt>
      <trkpt lat="45.90199" lon="4.75055">
        <ele>191</ele>
        <time>2018-02-20T10:14:59Z</time>
      </trkpt>
      <trkpt lat="45.90194" lon="4.75057">
        <ele>191</ele>
        <time>2018-02-20T10:15:00Z</time>
      </trkpt>
      <trkpt lat="45.90187" lon="4.75063">
        <ele>191</ele>
        <time>2018-02-20T10:15:02Z</time>
      </trkpt>
      <trkpt lat="45.90185" lon="4.75067">
        <ele>191</ele>
        <time>2018-02-20T10:15:03Z</time>
      </trkpt>
      <trkpt lat="45.90181" lon="4.75071">
        <ele>191</ele>
        <time>2018-02-20T10:15:04Z</time>
      </trkpt>
      <trkpt lat="45.90177" lon="4.75074">
        <ele>191</ele>
        <time>2018-02-20T10:15:05Z</time>
      </trkpt>
      <trkpt lat="45.90172" lon="4.75075">
        <ele>191</ele>
        <time>2018-02-20T10:15:06Z</time>
      </trkpt>
      <trkpt lat="45.90167" lon="4.75075">
        <ele>191</ele>
        <time>2018-02-20T10:15:07Z</time>
      </trkpt>
      <trkpt lat="45.90163" lon="4.75073">
        <ele>191</ele>
        <time>2018-02-20T10:15:08Z</time>
      </trkpt>
      <trkpt lat="45.90158" lon="4.75071">
        <ele>191</ele>
        <time>2018-02-20T10:15:09Z</time>
      </trkpt>
      <trkpt lat="45.90153" lon="4.75069">
        <ele>191</ele>
        <time>2018-02-20T10:15:10Z</time>
      </trkpt>
      <trkpt lat="45.9015" lon="4.75066">
        <ele>191</ele>
        <time>2018-02-20T10:15:11Z</time>
      </trkpt>
      <trkpt lat="45.90145" lon="4.75062">
        <ele>192</ele>
        <time>2018-02-20T10:15:12Z</time>
      </trkpt>
      <trkpt lat="45.9014" lon="4.7506">
        <ele>192</ele>
        <time>2018-02-20T10:15:13Z</time>
      </trkpt>
      <trkpt lat="45.90136" lon="4.75057">
        <ele>192</ele>
        <time>2018-02-20T10:15:14Z</time>
      </trkpt>
      <trkpt lat="45.90131" lon="4.75055">
        <ele>192</ele>
        <time>2018-02-20T10:15:15Z</time>
      </trkpt>
      <trkpt lat="45.90128" lon="4.75052">
        <ele>192</ele>
        <time>2018-02-20T10:15:16Z</time>
      </trkpt>
      <trkpt lat="45.90123" lon="4.75048">
        <ele>192</ele>
        <time>2018-02-20T10:15:17Z</time>
      </trkpt>
      <trkpt lat="45.90115" lon="4.75044">
        <ele>192</ele>
        <time>2018-02-20T10:15:19Z</time>
      </trkpt>
      <trkpt lat="45.9011" lon="4.75042">
        <ele>192</ele>
        <time>2018-02-20T10:15:20Z</time>
      </trkpt>
      <trkpt lat="45.90106" lon="4.75039">
        <ele>192</ele>
        <time>2018-02-20T10:15:21Z</time>
      </trkpt>
      <trkpt lat="45.90102" lon="4.75037">
        <ele>192</ele>
        <time>2018-02-20T10:15:22Z</time>
      </trkpt>
      <trkpt lat="45.90096" lon="4.75035">
        <ele>192</ele>
        <time>2018-02-20T10:15:23Z</time>
      </trkpt>
      <trkpt lat="45.9009" lon="4.75033">
        <ele>192</ele>
        <time>2018-02-20T10:15:24Z</time>
      </trkpt>
      <trkpt lat="45.90083" lon="4.75032">
        <ele>192</ele>
        <time>2018-02-20T10:15:25Z</time>
      </trkpt>
      <trkpt lat="45.90079" lon="4.7503">
        <ele>193</ele>
        <time>2018-02-20T10:15:26Z</time>
      </trkpt>
      <trkpt lat="45.90072" lon="4.75028">
        <ele>193</ele>
        <time>2018-02-20T10:15:27Z</time>
      </trkpt>
      <trkpt lat="45.90067" lon="4.75025">
        <ele>193</ele>
        <time>2018-02-20T10:15:28Z</time>
      </trkpt>
      <trkpt lat="45.90063" lon="4.75022">
        <ele>193</ele>
        <time>2018-02-20T10:15:29Z</time>
      </trkpt>
      <trkpt lat="45.90058" lon="4.7502">
        <ele>193</ele>
        <time>2018-02-20T10:15:30Z</time>
      </trkpt>
      <trkpt lat="45.90051" lon="4.75016">
        <ele>193</ele>
        <time>2018-02-20T10:15:32Z</time>
      </trkpt>
      <trkpt lat="45.90046" lon="4.75014">
        <ele>193</ele>
        <time>2018-02-20T10:15:33Z</time>
      </trkpt>
      <trkpt lat="45.90041" lon="4.75014">
        <ele>193</ele>
        <time>2018-02-20T10:15:34Z</time>
      </trkpt>
      <trkpt lat="45.90036" lon="4.75013">
        <ele>193</ele>
        <time>2018-02-20T10:15:35Z</time>
      </trkpt>
      <trkpt lat="45.90032" lon="4.75012">
        <ele>193</ele>
        <time>2018-02-20T10:15:36Z</time>
      </trkpt>
      <trkpt lat="45.90025" lon="4.7501">
        <ele>193</ele>
        <time>2018-02-20T10:15:37Z</time>
      </trkpt>
      <trkpt lat="45.90017" lon="4.75006">
        <ele>193</ele>
        <time>2018-02-20T10:15:39Z</time>
      </trkpt>
      <trkpt lat="45.90013" lon="4.75005">
        <ele>193</ele>
        <time>2018-02-20T10:15:40Z</time>
      </trkpt>
      <trkpt lat="45.90008" lon="4.75003">
        <ele>192</ele>
        <time>2018-02-20T10:15:41Z</time>
      </trkpt>
      <trkpt lat="45.90003" lon="4.75001">
        <ele>192</ele>
        <time>2018-02-20T10:15:42Z</time>
      </trkpt>
      <trkpt lat="45.89999" lon="4.75">
        <ele>192</ele>
        <time>2018-02-20T10:15:43Z</time>
      </trkpt>
      <trkpt lat="45.89993" lon="4.74999">
        <ele>192</ele>
        <time>2018-02-20T10:15:44Z</time>
      </trkpt>
      <trkpt lat="45.89985" lon="4.74997">
        <ele>192</ele>
        <time>2018-02-20T10:15:46Z</time>
      </trkpt>
      <trkpt lat="45.8998" lon="4.74997">
        <ele>192</ele>
        <time>2018-02-20T10:15:47Z</time>
      </trkpt>
      <trkpt lat="45.89975" lon="4.74997">
        <ele>193</ele>
        <time>2018-02-20T10:15:48Z</time>
      </trkpt>
      <trkpt lat="45.89969" lon="4.74996">
        <ele>193</ele>
        <time>2018-02-20T10:15:49Z</time>
      </trkpt>
      <trkpt lat="45.89964" lon="4.74998">
        <ele>193</ele>
        <time>2018-02-20T10:15:50Z</time>
      </trkpt>
      <trkpt lat="45.8996" lon="4.74997">
        <ele>193</ele>
        <time>2018-02-20T10:15:51Z</time>
      </trkpt>
      <trkpt lat="45.89955" lon="4.74996">
        <ele>193</ele>
        <time>2018-02-20T10:15:52Z</time>
      </trkpt>
      <trkpt lat="45.89947" lon="4.74994">
        <ele>193</ele>
        <time>2018-02-20T10:15:53Z</time>
      </trkpt>
      <trkpt lat="45.89942" lon="4.74992">
        <ele>193</ele>
        <time>2018-02-20T10:15:54Z</time>
      </trkpt>
      <trkpt lat="45.89936" lon="4.74991">
        <ele>193</ele>
        <time>2018-02-20T10:15:55Z</time>
      </trkpt>
      <trkpt lat="45.89931" lon="4.74989">
        <ele>193</ele>
        <time>2018-02-20T10:15:56Z</time>
      </trkpt>
      <trkpt lat="45.89926" lon="4.74986">
        <ele>193</ele>
        <time>2018-02-20T10:15:57Z</time>
      </trkpt>
      <trkpt lat="45.89921" lon="4.74984">
        <ele>193</ele>
        <time>2018-02-20T10:15:58Z</time>
      </trkpt>
      <trkpt lat="45.89916" lon="4.74983">
        <ele>194</ele>
        <time>2018-02-20T10:15:59Z</time>
      </trkpt>
      <trkpt lat="45.89912" lon="4.74981">
        <ele>194</ele>
        <time>2018-02-20T10:16:00Z</time>
      </trkpt>
      <trkpt lat="45.89906" lon="4.74978">
        <ele>194</ele>
        <time>2018-02-20T10:16:01Z</time>
      </trkpt>
      <trkpt lat="45.89901" lon="4.74977">
        <ele>194</ele>
        <time>2018-02-20T10:16:02Z</time>
      </trkpt>
      <trkpt lat="45.89897" lon="4.74977">
        <ele>194</ele>
        <time>2018-02-20T10:16:03Z</time>
      </trkpt>
      <trkpt lat="45.89893" lon="4.74973">
        <ele>194</ele>
        <time>2018-02-20T10:16:04Z</time>
      </trkpt>
      <trkpt lat="45.89887" lon="4.74973">
        <ele>194</ele>
        <time>2018-02-20T10:16:05Z</time>
      </trkpt>
      <trkpt lat="45.89882" lon="4.74972">
        <ele>194</ele>
        <time>2018-02-20T10:16:06Z</time>
      </trkpt>
      <trkpt lat="45.89876" lon="4.7497">
        <ele>194</ele>
        <time>2018-02-20T10:16:07Z</time>
      </trkpt>
      <trkpt lat="45.8987" lon="4.74968">
        <ele>194</ele>
        <time>2018-02-20T10:16:08Z</time>
      </trkpt>
      <trkpt lat="45.89865" lon="4.74966">
        <ele>194</ele>
        <time>2018-02-20T10:16:09Z</time>
      </trkpt>
      <trkpt lat="45.8986" lon="4.74964">
        <ele>194</ele>
        <time>2018-02-20T10:16:10Z</time>
      </trkpt>
      <trkpt lat="45.89854" lon="4.74964">
        <ele>194</ele>
        <time>2018-02-20T10:16:11Z</time>
      </trkpt>
      <trkpt lat="45.89849" lon="4.74963">
        <ele>194</ele>
        <time>2018-02-20T10:16:12Z</time>
      </trkpt>
      <trkpt lat="45.89843" lon="4.74963">
        <ele>194</ele>
        <time>2018-02-20T10:16:13Z</time>
      </trkpt>
      <trkpt lat="45.89834" lon="4.74961">
        <ele>194</ele>
        <time>2018-02-20T10:16:15Z</time>
      </trkpt>
      <trkpt lat="45.89828" lon="4.74959">
        <ele>194</ele>
        <time>2018-02-20T10:16:16Z</time>
      </trkpt>
      <trkpt lat="45.89824" lon="4.74959">
        <ele>195</ele>
        <time>2018-02-20T10:16:17Z</time>
      </trkpt>
      <trkpt lat="45.89818" lon="4.74957">
        <ele>195</ele>
        <time>2018-02-20T10:16:18Z</time>
      </trkpt>
      <trkpt lat="45.89814" lon="4.74954">
        <ele>195</ele>
        <time>2018-02-20T10:16:19Z</time>
      </trkpt>
      <trkpt lat="45.89809" lon="4.74952">
        <ele>195</ele>
        <time>2018-02-20T10:16:20Z</time>
      </trkpt>
      <trkpt lat="45.89806" lon="4.7495">
        <ele>195</ele>
        <time>2018-02-20T10:16:21Z</time>
      </trkpt>
      <trkpt lat="45.898" lon="4.74948">
        <ele>195</ele>
        <time>2018-02-20T10:16:22Z</time>
      </trkpt>
      <trkpt lat="45.89794" lon="4.74944">
        <ele>195</ele>
        <time>2018-02-20T10:16:23Z</time>
      </trkpt>
      <trkpt lat="45.89789" lon="4.74942">
        <ele>195</ele>
        <time>2018-02-20T10:16:24Z</time>
      </trkpt>
      <trkpt lat="45.89783" lon="4.74939">
        <ele>195</ele>
        <time>2018-02-20T10:16:25Z</time>
      </trkpt>
      <trkpt lat="45.89778" lon="4.74936">
        <ele>195</ele>
        <time>2018-02-20T10:16:26Z</time>
      </trkpt>
      <trkpt lat="45.89773" lon="4.74934">
        <ele>195</ele>
        <time>2018-02-20T10:16:27Z</time>
      </trkpt>
      <trkpt lat="45.89764" lon="4.74931">
        <ele>195</ele>
        <time>2018-02-20T10:16:28Z</time>
      </trkpt>
      <trkpt lat="45.89758" lon="4.74927">
        <ele>195</ele>
        <time>2018-02-20T10:16:30Z</time>
      </trkpt>
      <trkpt lat="45.89751" lon="4.74925">
        <ele>195</ele>
        <time>2018-02-20T10:16:31Z</time>
      </trkpt>
      <trkpt lat="45.89746" lon="4.74923">
        <ele>195</ele>
        <time>2018-02-20T10:16:32Z</time>
      </trkpt>
      <trkpt lat="45.89739" lon="4.7492">
        <ele>195</ele>
        <time>2018-02-20T10:16:33Z</time>
      </trkpt>
      <trkpt lat="45.89732" lon="4.74917">
        <ele>195</ele>
        <time>2018-02-20T10:16:34Z</time>
      </trkpt>
      <trkpt lat="45.89727" lon="4.74916">
        <ele>195</ele>
        <time>2018-02-20T10:16:35Z</time>
      </trkpt>
      <trkpt lat="45.89721" lon="4.74914">
        <ele>195</ele>
        <time>2018-02-20T10:16:36Z</time>
      </trkpt>
      <trkpt lat="45.89716" lon="4.74915">
        <ele>195</ele>
        <time>2018-02-20T10:16:37Z</time>
      </trkpt>
      <trkpt lat="45.89709" lon="4.74915">
        <ele>195</ele>
        <time>2018-02-20T10:16:38Z</time>
      </trkpt>
      <trkpt lat="45.89703" lon="4.74915">
        <ele>195</ele>
        <time>2018-02-20T10:16:39Z</time>
      </trkpt>
      <trkpt lat="45.89697" lon="4.74915">
        <ele>195</ele>
        <time>2018-02-20T10:16:40Z</time>
      </trkpt>
      <trkpt lat="45.89691" lon="4.74914">
        <ele>195</ele>
        <time>2018-02-20T10:16:41Z</time>
      </trkpt>
      <trkpt lat="45.89685" lon="4.74914">
        <ele>195</ele>
        <time>2018-02-20T10:16:42Z</time>
      </trkpt>
      <trkpt lat="45.89678" lon="4.74913">
        <ele>196</ele>
        <time>2018-02-20T10:16:43Z</time>
      </trkpt>
      <trkpt lat="45.89672" lon="4.74913">
        <ele>196</ele>
        <time>2018-02-20T10:16:44Z</time>
      </trkpt>
      <trkpt lat="45.89669" lon="4.7491">
        <ele>196</ele>
        <time>2018-02-20T10:16:45Z</time>
      </trkpt>
      <trkpt lat="45.89663" lon="4.7491">
        <ele>196</ele>
        <time>2018-02-20T10:16:46Z</time>
      </trkpt>
      <trkpt lat="45.89658" lon="4.74909">
        <ele>196</ele>
        <time>2018-02-20T10:16:47Z</time>
      </trkpt>
      <trkpt lat="45.89653" lon="4.7491">
        <ele>196</ele>
        <time>2018-02-20T10:16:48Z</time>
      </trkpt>
      <trkpt lat="45.89647" lon="4.74911">
        <ele>196</ele>
        <time>2018-02-20T10:16:49Z</time>
      </trkpt>
      <trkpt lat="45.89639" lon="4.7491">
        <ele>196</ele>
        <time>2018-02-20T10:16:51Z</time>
      </trkpt>
      <trkpt lat="45.89633" lon="4.7491">
        <ele>196</ele>
        <time>2018-02-20T10:16:52Z</time>
      </trkpt>
      <trkpt lat="45.89627" lon="4.74909">
        <ele>196</ele>
        <time>2018-02-20T10:16:53Z</time>
      </trkpt>
      <trkpt lat="45.89621" lon="4.74908">
        <ele>197</ele>
        <time>2018-02-20T10:16:54Z</time>
      </trkpt>
      <trkpt lat="45.89618" lon="4.74906">
        <ele>197</ele>
        <time>2018-02-20T10:16:55Z</time>
      </trkpt>
      <trkpt lat="45.89612" lon="4.74905">
        <ele>197</ele>
        <time>2018-02-20T10:16:56Z</time>
      </trkpt>
      <trkpt lat="45.89605" lon="4.74905">
        <ele>197</ele>
        <time>2018-02-20T10:16:57Z</time>
      </trkpt>
      <trkpt lat="45.896" lon="4.74903">
        <ele>197</ele>
        <time>2018-02-20T10:16:58Z</time>
      </trkpt>
      <trkpt lat="45.89595" lon="4.74903">
        <ele>197</ele>
        <time>2018-02-20T10:16:59Z</time>
      </trkpt>
      <trkpt lat="45.8959" lon="4.74903">
        <ele>197</ele>
        <time>2018-02-20T10:17:00Z</time>
      </trkpt>
      <trkpt lat="45.89584" lon="4.74901">
        <ele>197</ele>
        <time>2018-02-20T10:17:01Z</time>
      </trkpt>
      <trkpt lat="45.8958" lon="4.74901">
        <ele>198</ele>
        <time>2018-02-20T10:17:02Z</time>
      </trkpt>
      <trkpt lat="45.89573" lon="4.74897">
        <ele>198</ele>
        <time>2018-02-20T10:17:04Z</time>
      </trkpt>
      <trkpt lat="45.89569" lon="4.74896">
        <ele>198</ele>
        <time>2018-02-20T10:17:05Z</time>
      </trkpt>
      <trkpt lat="45.89563" lon="4.74894">
        <ele>198</ele>
        <time>2018-02-20T10:17:06Z</time>
      </trkpt>
      <trkpt lat="45.89559" lon="4.74894">
        <ele>198</ele>
        <time>2018-02-20T10:17:07Z</time>
      </trkpt>
      <trkpt lat="45.89553" lon="4.74892">
        <ele>198</ele>
        <time>2018-02-20T10:17:08Z</time>
      </trkpt>
      <trkpt lat="45.89548" lon="4.74891">
        <ele>198</ele>
        <time>2018-02-20T10:17:09Z</time>
      </trkpt>
      <trkpt lat="45.89541" lon="4.74888">
        <ele>198</ele>
        <time>2018-02-20T10:17:11Z</time>
      </trkpt>
      <trkpt lat="45.89536" lon="4.74888">
        <ele>198</ele>
        <time>2018-02-20T10:17:12Z</time>
      </trkpt>
      <trkpt lat="45.89532" lon="4.74887">
        <ele>198</ele>
        <time>2018-02-20T10:17:13Z</time>
      </trkpt>
      <trkpt lat="45.89526" lon="4.74885">
        <ele>198</ele>
        <time>2018-02-20T10:17:14Z</time>
      </trkpt>
      <trkpt lat="45.89521" lon="4.74884">
        <ele>198</ele>
        <time>2018-02-20T10:17:15Z</time>
      </trkpt>
      <trkpt lat="45.89516" lon="4.74884">
        <ele>198</ele>
        <time>2018-02-20T10:17:16Z</time>
      </trkpt>
      <trkpt lat="45.8951" lon="4.74884">
        <ele>198</ele>
        <time>2018-02-20T10:17:17Z</time>
      </trkpt>
      <trkpt lat="45.89505" lon="4.74883">
        <ele>198</ele>
        <time>2018-02-20T10:17:18Z</time>
      </trkpt>
      <trkpt lat="45.89496" lon="4.74882">
        <ele>198</ele>
        <time>2018-02-20T10:17:20Z</time>
      </trkpt>
      <trkpt lat="45.89492" lon="4.74881">
        <ele>198</ele>
        <time>2018-02-20T10:17:21Z</time>
      </trkpt>
      <trkpt lat="45.89486" lon="4.74881">
        <ele>198</ele>
        <time>2018-02-20T10:17:22Z</time>
      </trkpt>
      <trkpt lat="45.89482" lon="4.7488">
        <ele>198</ele>
        <time>2018-02-20T10:17:23Z</time>
      </trkpt>
      <trkpt lat="45.89472" lon="4.74882">
        <ele>198</ele>
        <time>2018-02-20T10:17:24Z</time>
      </trkpt>
      <trkpt lat="45.89467" lon="4.74881">
        <ele>198</ele>
        <time>2018-02-20T10:17:25Z</time>
      </trkpt>
      <trkpt lat="45.8946" lon="4.7488">
        <ele>199</ele>
        <time>2018-02-20T10:17:26Z</time>
      </trkpt>
      <trkpt lat="45.89455" lon="4.7488">
        <ele>199</ele>
        <time>2018-02-20T10:17:27Z</time>
      </trkpt>
      <trkpt lat="45.89448" lon="4.74878">
        <ele>199</ele>
        <time>2018-02-20T10:17:28Z</time>
      </trkpt>
      <trkpt lat="45.89442" lon="4.74876">
        <ele>199</ele>
        <time>2018-02-20T10:17:29Z</time>
      </trkpt>
      <trkpt lat="45.89436" lon="4.74875">
        <ele>199</ele>
        <time>2018-02-20T10:17:30Z</time>
      </trkpt>
      <trkpt lat="45.89432" lon="4.74874">
        <ele>199</ele>
        <time>2018-02-20T10:17:31Z</time>
      </trkpt>
      <trkpt lat="45.89426" lon="4.74874">
        <ele>199</ele>
        <time>2018-02-20T10:17:32Z</time>
      </trkpt>
      <trkpt lat="45.89422" lon="4.74874">
        <ele>199</ele>
        <time>2018-02-20T10:17:33Z</time>
      </trkpt>
      <trkpt lat="45.89415" lon="4.74873">
        <ele>199</ele>
        <time>2018-02-20T10:17:34Z</time>
      </trkpt>
      <trkpt lat="45.8941" lon="4.74872">
        <ele>199</ele>
        <time>2018-02-20T10:17:35Z</time>
      </trkpt>
      <trkpt lat="45.89405" lon="4.74871">
        <ele>199</ele>
        <time>2018-02-20T10:17:36Z</time>
      </trkpt>
      <trkpt lat="45.894" lon="4.7487">
        <ele>199</ele>
        <time>2018-02-20T10:17:37Z</time>
      </trkpt>
      <trkpt lat="45.89394" lon="4.74869">
        <ele>199</ele>
        <time>2018-02-20T10:17:38Z</time>
      </trkpt>
      <trkpt lat="45.89389" lon="4.74868">
        <ele>199</ele>
        <time>2018-02-20T10:17:39Z</time>
      </trkpt>
      <trkpt lat="45.89381" lon="4.74867">
        <ele>199</ele>
        <time>2018-02-20T10:17:40Z</time>
      </trkpt>
      <trkpt lat="45.89377" lon="4.74867">
        <ele>199</ele>
        <time>2018-02-20T10:17:41Z</time>
      </trkpt>
      <trkpt lat="45.89372" lon="4.74866">
        <ele>199</ele>
        <time>2018-02-20T10:17:42Z</time>
      </trkpt>
      <trkpt lat="45.89366" lon="4.74866">
        <ele>199</ele>
        <time>2018-02-20T10:17:43Z</time>
      </trkpt>
      <trkpt lat="45.8936" lon="4.74866">
        <ele>199</ele>
        <time>2018-02-20T10:17:44Z</time>
      </trkpt>
      <trkpt lat="45.89354" lon="4.74863">
        <ele>199</ele>
        <time>2018-02-20T10:17:46Z</time>
      </trkpt>
      <trkpt lat="45.89348" lon="4.74863">
        <ele>199</ele>
        <time>2018-02-20T10:17:47Z</time>
      </trkpt>
      <trkpt lat="45.89343" lon="4.74862">
        <ele>199</ele>
        <time>2018-02-20T10:17:48Z</time>
      </trkpt>
      <trkpt lat="45.89338" lon="4.74862">
        <ele>199</ele>
        <time>2018-02-20T10:17:49Z</time>
      </trkpt>
      <trkpt lat="45.89331" lon="4.74863">
        <ele>198</ele>
        <time>2018-02-20T10:17:50Z</time>
      </trkpt>
      <trkpt lat="45.89326" lon="4.74864">
        <ele>198</ele>
        <time>2018-02-20T10:17:51Z</time>
      </trkpt>
      <trkpt lat="45.89319" lon="4.74862">
        <ele>198</ele>
        <time>2018-02-20T10:17:52Z</time>
      </trkpt>
      <trkpt lat="45.89314" lon="4.74861">
        <ele>198</ele>
        <time>2018-02-20T10:17:53Z</time>
      </trkpt>
      <trkpt lat="45.89308" lon="4.7486">
        <ele>198</ele>
        <time>2018-02-20T10:17:54Z</time>
      </trkpt>
      <trkpt lat="45.89302" lon="4.7486">
        <ele>198</ele>
        <time>2018-02-20T10:17:55Z</time>
      </trkpt>
      <trkpt lat="45.89297" lon="4.74856">
        <ele>198</ele>
        <time>2018-02-20T10:17:56Z</time>
      </trkpt>
      <trkpt lat="45.89293" lon="4.74854">
        <ele>198</ele>
        <time>2018-02-20T10:17:57Z</time>
      </trkpt>
      <trkpt lat="45.89285" lon="4.74851">
        <ele>198</ele>
        <time>2018-02-20T10:17:58Z</time>
      </trkpt>
      <trkpt lat="45.89279" lon="4.74851">
        <ele>198</ele>
        <time>2018-02-20T10:17:59Z</time>
      </trkpt>
      <trkpt lat="45.89269" lon="4.74853">
        <ele>198</ele>
        <time>2018-02-20T10:18:00Z</time>
      </trkpt>
      <trkpt lat="45.89264" lon="4.74852">
        <ele>198</ele>
        <time>2018-02-20T10:18:01Z</time>
      </trkpt>
      <trkpt lat="45.89258" lon="4.74852">
        <ele>198</ele>
        <time>2018-02-20T10:18:02Z</time>
      </trkpt>
      <trkpt lat="45.89252" lon="4.7485">
        <ele>197</ele>
        <time>2018-02-20T10:18:03Z</time>
      </trkpt>
      <trkpt lat="45.89246" lon="4.74851">
        <ele>198</ele>
        <time>2018-02-20T10:18:04Z</time>
      </trkpt>
      <trkpt lat="45.89242" lon="4.7485">
        <ele>198</ele>
        <time>2018-02-20T10:18:05Z</time>
      </trkpt>
      <trkpt lat="45.89237" lon="4.74849">
        <ele>198</ele>
        <time>2018-02-20T10:18:06Z</time>
      </trkpt>
      <trkpt lat="45.89232" lon="4.74849">
        <ele>198</ele>
        <time>2018-02-20T10:18:07Z</time>
      </trkpt>
      <trkpt lat="45.89226" lon="4.7485">
        <ele>198</ele>
        <time>2018-02-20T10:18:08Z</time>
      </trkpt>
      <trkpt lat="45.89218" lon="4.74851">
        <ele>198</ele>
        <time>2018-02-20T10:18:10Z</time>
      </trkpt>
      <trkpt lat="45.89212" lon="4.74852">
        <ele>198</ele>
        <time>2018-02-20T10:18:11Z</time>
      </trkpt>
      <trkpt lat="45.89207" lon="4.74852">
        <ele>198</ele>
        <time>2018-02-20T10:18:12Z</time>
      </trkpt>
      <trkpt lat="45.89202" lon="4.74852">
        <ele>198</ele>
        <time>2018-02-20T10:18:13Z</time>
      </trkpt>
      <trkpt lat="45.89196" lon="4.74852">
        <ele>198</ele>
        <time>2018-02-20T10:18:14Z</time>
      </trkpt>
      <trkpt lat="45.8919" lon="4.74852">
        <ele>198</ele>
        <time>2018-02-20T10:18:15Z</time>
      </trkpt>
      <trkpt lat="45.89185" lon="4.74852">
        <ele>198</ele>
        <time>2018-02-20T10:18:16Z</time>
      </trkpt>
      <trkpt lat="45.8918" lon="4.74853">
        <ele>198</ele>
        <time>2018-02-20T10:18:17Z</time>
      </trkpt>
      <trkpt lat="45.89175" lon="4.74853">
        <ele>198</ele>
        <time>2018-02-20T10:18:18Z</time>
      </trkpt>
      <trkpt lat="45.89171" lon="4.74852">
        <ele>198</ele>
        <time>2018-02-20T10:18:19Z</time>
      </trkpt>
      <trkpt lat="45.89167" lon="4.74853">
        <ele>198</ele>
        <time>2018-02-20T10:18:20Z</time>
      </trkpt>
      <trkpt lat="45.8916" lon="4.74856">
        <ele>198</ele>
        <time>2018-02-20T10:18:21Z</time>
      </trkpt>
      <trkpt lat="45.89151" lon="4.74856">
        <ele>199</ele>
        <time>2018-02-20T10:18:23Z</time>
      </trkpt>
      <trkpt lat="45.89149" lon="4.74856">
        <ele>199</ele>
        <time>2018-02-20T10:18:24Z</time>
      </trkpt>
      <trkpt lat="45.8914" lon="4.74855">
        <ele>199</ele>
        <time>2018-02-20T10:18:27Z</time>
      </trkpt>
      <trkpt lat="45.89136" lon="4.74856">
        <ele>199</ele>
        <time>2018-02-20T10:18:28Z</time>
      </trkpt>
      <trkpt lat="45.89128" lon="4.74856">
        <ele>199</ele>
        <time>2018-02-20T10:18:30Z</time>
      </trkpt>
      <trkpt lat="45.89123" lon="4.74857">
        <ele>199</ele>
        <time>2018-02-20T10:18:31Z</time>
      </trkpt>
      <trkpt lat="45.89115" lon="4.74858">
        <ele>199</ele>
        <time>2018-02-20T10:18:33Z</time>
      </trkpt>
      <trkpt lat="45.89111" lon="4.74859">
        <ele>199</ele>
        <time>2018-02-20T10:18:34Z</time>
      </trkpt>
      <trkpt lat="45.89107" lon="4.7486">
        <ele>199</ele>
        <time>2018-02-20T10:18:35Z</time>
      </trkpt>
      <trkpt lat="45.89098" lon="4.74863">
        <ele>199</ele>
        <time>2018-02-20T10:18:36Z</time>
      </trkpt>
      <trkpt lat="45.89092" lon="4.74863">
        <ele>199</ele>
        <time>2018-02-20T10:18:38Z</time>
      </trkpt>
      <trkpt lat="45.89085" lon="4.74866">
        <ele>199</ele>
        <time>2018-02-20T10:18:39Z</time>
      </trkpt>
      <trkpt lat="45.89078" lon="4.74867">
        <ele>199</ele>
        <time>2018-02-20T10:18:41Z</time>
      </trkpt>
      <trkpt lat="45.89074" lon="4.74868">
        <ele>199</ele>
        <time>2018-02-20T10:18:42Z</time>
      </trkpt>
      <trkpt lat="45.89067" lon="4.7487">
        <ele>199</ele>
        <time>2018-02-20T10:18:44Z</time>
      </trkpt>
      <trkpt lat="45.89063" lon="4.74871">
        <ele>199</ele>
        <time>2018-02-20T10:18:45Z</time>
      </trkpt>
      <trkpt lat="45.89057" lon="4.74873">
        <ele>199</ele>
        <time>2018-02-20T10:18:47Z</time>
      </trkpt>
      <trkpt lat="45.89053" lon="4.74874">
        <ele>199</ele>
        <time>2018-02-20T10:18:48Z</time>
      </trkpt>
      <trkpt lat="45.89046" lon="4.74879">
        <ele>199</ele>
        <time>2018-02-20T10:18:50Z</time>
      </trkpt>
      <trkpt lat="45.89043" lon="4.74882">
        <ele>199</ele>
        <time>2018-02-20T10:18:51Z</time>
      </trkpt>
      <trkpt lat="45.89037" lon="4.74888">
        <ele>199</ele>
        <time>2018-02-20T10:18:53Z</time>
      </trkpt>
      <trkpt lat="45.89033" lon="4.74891">
        <ele>199</ele>
        <time>2018-02-20T10:18:54Z</time>
      </trkpt>
      <trkpt lat="45.89027" lon="4.74897">
        <ele>199</ele>
        <time>2018-02-20T10:18:56Z</time>
      </trkpt>
      <trkpt lat="45.89023" lon="4.749">
        <ele>199</ele>
        <time>2018-02-20T10:18:57Z</time>
      </trkpt>
      <trkpt lat="45.89015" lon="4.74904">
        <ele>199</ele>
        <time>2018-02-20T10:18:59Z</time>
      </trkpt>
      <trkpt lat="45.89011" lon="4.74907">
        <ele>199</ele>
        <time>2018-02-20T10:19:00Z</time>
      </trkpt>
      <trkpt lat="45.89007" lon="4.74909">
        <ele>199</ele>
        <time>2018-02-20T10:19:01Z</time>
      </trkpt>
      <trkpt lat="45.89002" lon="4.74912">
        <ele>199</ele>
        <time>2018-02-20T10:19:02Z</time>
      </trkpt>
      <trkpt lat="45.88995" lon="4.74918">
        <ele>199</ele>
        <time>2018-02-20T10:19:04Z</time>
      </trkpt>
      <trkpt lat="45.88988" lon="4.74922">
        <ele>199</ele>
        <time>2018-02-20T10:19:05Z</time>
      </trkpt>
      <trkpt lat="45.88983" lon="4.74924">
        <ele>199</ele>
        <time>2018-02-20T10:19:06Z</time>
      </trkpt>
      <trkpt lat="45.88979" lon="4.74927">
        <ele>199</ele>
        <time>2018-02-20T10:19:07Z</time>
      </trkpt>
      <trkpt lat="45.88971" lon="4.74931">
        <ele>200</ele>
        <time>2018-02-20T10:19:09Z</time>
      </trkpt>
      <trkpt lat="45.88966" lon="4.74934">
        <ele>200</ele>
        <time>2018-02-20T10:19:10Z</time>
      </trkpt>
      <trkpt lat="45.88961" lon="4.74937">
        <ele>200</ele>
        <time>2018-02-20T10:19:11Z</time>
      </trkpt>
      <trkpt lat="45.88958" lon="4.7494">
        <ele>200</ele>
        <time>2018-02-20T10:19:12Z</time>
      </trkpt>
      <trkpt lat="45.88953" lon="4.74942">
        <ele>200</ele>
        <time>2018-02-20T10:19:13Z</time>
      </trkpt>
      <trkpt lat="45.88949" lon="4.74945">
        <ele>200</ele>
        <time>2018-02-20T10:19:14Z</time>
      </trkpt>
      <trkpt lat="45.88941" lon="4.74948">
        <ele>200</ele>
        <time>2018-02-20T10:19:16Z</time>
      </trkpt>
      <trkpt lat="45.88937" lon="4.7495">
        <ele>200</ele>
        <time>2018-02-20T10:19:17Z</time>
      </trkpt>
      <trkpt lat="45.88933" lon="4.74951">
        <ele>200</ele>
        <time>2018-02-20T10:19:18Z</time>
      </trkpt>
      <trkpt lat="45.88926" lon="4.74951">
        <ele>200</ele>
        <time>2018-02-20T10:19:19Z</time>
      </trkpt>
      <trkpt lat="45.88921" lon="4.74952">
        <ele>200</ele>
        <time>2018-02-20T10:19:21Z</time>
      </trkpt>
      <trkpt lat="45.88916" lon="4.74954">
        <ele>201</ele>
        <time>2018-02-20T10:19:22Z</time>
      </trkpt>
      <trkpt lat="45.8891" lon="4.74956">
        <ele>201</ele>
        <time>2018-02-20T10:19:23Z</time>
      </trkpt>
      <trkpt lat="45.88904" lon="4.74958">
        <ele>201</ele>
        <time>2018-02-20T10:19:24Z</time>
      </trkpt>
      <trkpt lat="45.88898" lon="4.7496">
        <ele>201</ele>
        <time>2018-02-20T10:19:25Z</time>
      </trkpt>
      <trkpt lat="45.88894" lon="4.7496">
        <ele>201</ele>
        <time>2018-02-20T10:19:26Z</time>
      </trkpt>
      <trkpt lat="45.88889" lon="4.74959">
        <ele>201</ele>
        <time>2018-02-20T10:19:27Z</time>
      </trkpt>
      <trkpt lat="45.88884" lon="4.74958">
        <ele>201</ele>
        <time>2018-02-20T10:19:28Z</time>
      </trkpt>
      <trkpt lat="45.88876" lon="4.74957">
        <ele>201</ele>
        <time>2018-02-20T10:19:30Z</time>
      </trkpt>
      <trkpt lat="45.88873" lon="4.74956">
        <ele>201</ele>
        <time>2018-02-20T10:19:31Z</time>
      </trkpt>
      <trkpt lat="45.88869" lon="4.74954">
        <ele>201</ele>
        <time>2018-02-20T10:19:32Z</time>
      </trkpt>
      <trkpt lat="45.88863" lon="4.74954">
        <ele>201</ele>
        <time>2018-02-20T10:19:33Z</time>
      </trkpt>
      <trkpt lat="45.88856" lon="4.74954">
        <ele>201</ele>
        <time>2018-02-20T10:19:34Z</time>
      </trkpt>
      <trkpt lat="45.88851" lon="4.74953">
        <ele>201</ele>
        <time>2018-02-20T10:19:35Z</time>
      </trkpt>
      <trkpt lat="45.88845" lon="4.74952">
        <ele>201</ele>
        <time>2018-02-20T10:19:36Z</time>
      </trkpt>
      <trkpt lat="45.88841" lon="4.7495">
        <ele>201</ele>
        <time>2018-02-20T10:19:37Z</time>
      </trkpt>
      <trkpt lat="45.88837" lon="4.74946">
        <ele>201</ele>
        <time>2018-02-20T10:19:39Z</time>
      </trkpt>
      <trkpt lat="45.88832" lon="4.74946">
        <ele>201</ele>
        <time>2018-02-20T10:19:40Z</time>
      </trkpt>
      <trkpt lat="45.88825" lon="4.74945">
        <ele>201</ele>
        <time>2018-02-20T10:19:41Z</time>
      </trkpt>
      <trkpt lat="45.88819" lon="4.74945">
        <ele>201</ele>
        <time>2018-02-20T10:19:42Z</time>
      </trkpt>
      <trkpt lat="45.88814" lon="4.74944">
        <ele>201</ele>
        <time>2018-02-20T10:19:43Z</time>
      </trkpt>
      <trkpt lat="45.88809" lon="4.74943">
        <ele>201</ele>
        <time>2018-02-20T10:19:44Z</time>
      </trkpt>
      <trkpt lat="45.88804" lon="4.74943">
        <ele>201</ele>
        <time>2018-02-20T10:19:45Z</time>
      </trkpt>
      <trkpt lat="45.88798" lon="4.74942">
        <ele>201</ele>
        <time>2018-02-20T10:19:46Z</time>
      </trkpt>
      <trkpt lat="45.88794" lon="4.74939">
        <ele>201</ele>
        <time>2018-02-20T10:19:47Z</time>
      </trkpt>
      <trkpt lat="45.88788" lon="4.74937">
        <ele>201</ele>
        <time>2018-02-20T10:19:48Z</time>
      </trkpt>
      <trkpt lat="45.88783" lon="4.74937">
        <ele>201</ele>
        <time>2018-02-20T10:19:49Z</time>
      </trkpt>
      <trkpt lat="45.88778" lon="4.74936">
        <ele>201</ele>
        <time>2018-02-20T10:19:50Z</time>
      </trkpt>
      <trkpt lat="45.88772" lon="4.74938">
        <ele>201</ele>
        <time>2018-02-20T10:19:51Z</time>
      </trkpt>
      <trkpt lat="45.88766" lon="4.74937">
        <ele>201</ele>
        <time>2018-02-20T10:19:52Z</time>
      </trkpt>
      <trkpt lat="45.88761" lon="4.74937">
        <ele>201</ele>
        <time>2018-02-20T10:19:53Z</time>
      </trkpt>
      <trkpt lat="45.88757" lon="4.74935">
        <ele>201</ele>
        <time>2018-02-20T10:19:54Z</time>
      </trkpt>
      <trkpt lat="45.88748" lon="4.74934">
        <ele>201</ele>
        <time>2018-02-20T10:19:56Z</time>
      </trkpt>
      <trkpt lat="45.88743" lon="4.74933">
        <ele>201</ele>
        <time>2018-02-20T10:19:57Z</time>
      </trkpt>
      <trkpt lat="45.88738" lon="4.74932">
        <ele>201</ele>
        <time>2018-02-20T10:19:58Z</time>
      </trkpt>
      <trkpt lat="45.88732" lon="4.74932">
        <ele>201</ele>
        <time>2018-02-20T10:19:59Z</time>
      </trkpt>
      <trkpt lat="45.88727" lon="4.74931">
        <ele>201</ele>
        <time>2018-02-20T10:20:00Z</time>
      </trkpt>
      <trkpt lat="45.88723" lon="4.74928">
        <ele>201</ele>
        <time>2018-02-20T10:20:01Z</time>
      </trkpt>
      <trkpt lat="45.88718" lon="4.74927">
        <ele>201</ele>
        <time>2018-02-20T10:20:02Z</time>
      </trkpt>
      <trkpt lat="45.88713" lon="4.74926">
        <ele>201</ele>
        <time>2018-02-20T10:20:03Z</time>
      </trkpt>
      <trkpt lat="45.88707" lon="4.74925">
        <ele>202</ele>
        <time>2018-02-20T10:20:04Z</time>
      </trkpt>
      <trkpt lat="45.88702" lon="4.74923">
        <ele>202</ele>
        <time>2018-02-20T10:20:05Z</time>
      </trkpt>
      <trkpt lat="45.88693" lon="4.74922">
        <ele>202</ele>
        <time>2018-02-20T10:20:07Z</time>
      </trkpt>
      <trkpt lat="45.88689" lon="4.7492">
        <ele>202</ele>
        <time>2018-02-20T10:20:08Z</time>
      </trkpt>
      <trkpt lat="45.88681" lon="4.74916">
        <ele>202</ele>
        <time>2018-02-20T10:20:10Z</time>
      </trkpt>
      <trkpt lat="45.88678" lon="4.74914">
        <ele>202</ele>
        <time>2018-02-20T10:20:11Z</time>
      </trkpt>
      <trkpt lat="45.88669" lon="4.74909">
        <ele>202</ele>
        <time>2018-02-20T10:20:14Z</time>
      </trkpt>
      <trkpt lat="45.88667" lon="4.74911">
        <ele>202</ele>
        <time>2018-02-20T10:20:15Z</time>
      </trkpt>
      <trkpt lat="45.88661" lon="4.74917">
        <ele>202</ele>
        <time>2018-02-20T10:20:17Z</time>
      </trkpt>
      <trkpt lat="45.88658" lon="4.7492">
        <ele>202</ele>
        <time>2018-02-20T10:20:18Z</time>
      </trkpt>
      <trkpt lat="45.88653" lon="4.74929">
        <ele>202</ele>
        <time>2018-02-20T10:20:20Z</time>
      </trkpt>
      <trkpt lat="45.88651" lon="4.74933">
        <ele>202</ele>
        <time>2018-02-20T10:20:21Z</time>
      </trkpt>
      <trkpt lat="45.88647" lon="4.74942">
        <ele>201</ele>
        <time>2018-02-20T10:20:23Z</time>
      </trkpt>
      <trkpt lat="45.88646" lon="4.74946">
        <ele>201</ele>
        <time>2018-02-20T10:20:24Z</time>
      </trkpt>
      <trkpt lat="45.88644" lon="4.74953">
        <ele>201</ele>
        <time>2018-02-20T10:20:25Z</time>
      </trkpt>
      <trkpt lat="45.88642" lon="4.74959">
        <ele>201</ele>
        <time>2018-02-20T10:20:26Z</time>
      </trkpt>
      <trkpt lat="45.8864" lon="4.74965">
        <ele>201</ele>
        <time>2018-02-20T10:20:27Z</time>
      </trkpt>
      <trkpt lat="45.88637" lon="4.7497">
        <ele>201</ele>
        <time>2018-02-20T10:20:28Z</time>
      </trkpt>
      <trkpt lat="45.88635" lon="4.74976">
        <ele>201</ele>
        <time>2018-02-20T10:20:29Z</time>
      </trkpt>
      <trkpt lat="45.88633" lon="4.74983">
        <ele>201</ele>
        <time>2018-02-20T10:20:30Z</time>
      </trkpt>
      <trkpt lat="45.88632" lon="4.74989">
        <ele>201</ele>
        <time>2018-02-20T10:20:31Z</time>
      </trkpt>
      <trkpt lat="45.88629" lon="4.74996">
        <ele>201</ele>
        <time>2018-02-20T10:20:32Z</time>
      </trkpt>
      <trkpt lat="45.88628" lon="4.75003">
        <ele>202</ele>
        <time>2018-02-20T10:20:33Z</time>
      </trkpt>
      <trkpt lat="45.88626" lon="4.75011">
        <ele>202</ele>
        <time>2018-02-20T10:20:34Z</time>
      </trkpt>
      <trkpt lat="45.88624" lon="4.75017">
        <ele>202</ele>
        <time>2018-02-20T10:20:35Z</time>
      </trkpt>
      <trkpt lat="45.88623" lon="4.75024">
        <ele>202</ele>
        <time>2018-02-20T10:20:36Z</time>
      </trkpt>
      <trkpt lat="45.88623" lon="4.75032">
        <ele>202</ele>
        <time>2018-02-20T10:20:37Z</time>
      </trkpt>
      <trkpt lat="45.88621" lon="4.7504">
        <ele>202</ele>
        <time>2018-02-20T10:20:38Z</time>
      </trkpt>
      <trkpt lat="45.88619" lon="4.75047">
        <ele>202</ele>
        <time>2018-02-20T10:20:39Z</time>
      </trkpt>
      <trkpt lat="45.88617" lon="4.75054">
        <ele>202</ele>
        <time>2018-02-20T10:20:40Z</time>
      </trkpt>
      <trkpt lat="45.88615" lon="4.75061">
        <ele>202</ele>
        <time>2018-02-20T10:20:41Z</time>
      </trkpt>
      <trkpt lat="45.88613" lon="4.75068">
        <ele>202</ele>
        <time>2018-02-20T10:20:42Z</time>
      </trkpt>
      <trkpt lat="45.88611" lon="4.75074">
        <ele>202</ele>
        <time>2018-02-20T10:20:43Z</time>
      </trkpt>
      <trkpt lat="45.88608" lon="4.75079">
        <ele>202</ele>
        <time>2018-02-20T10:20:44Z</time>
      </trkpt>
      <trkpt lat="45.88601" lon="4.75088">
        <ele>202</ele>
        <time>2018-02-20T10:20:46Z</time>
      </trkpt>
      <trkpt lat="45.88597" lon="4.75092">
        <ele>202</ele>
        <time>2018-02-20T10:20:47Z</time>
      </trkpt>
      <trkpt lat="45.88593" lon="4.75098">
        <ele>202</ele>
        <time>2018-02-20T10:20:48Z</time>
      </trkpt>
      <trkpt lat="45.88589" lon="4.75104">
        <ele>202</ele>
        <time>2018-02-20T10:20:49Z</time>
      </trkpt>
      <trkpt lat="45.88586" lon="4.7511">
        <ele>202</ele>
        <time>2018-02-20T10:20:50Z</time>
      </trkpt>
      <trkpt lat="45.88582" lon="4.75114">
        <ele>201</ele>
        <time>2018-02-20T10:20:51Z</time>
      </trkpt>
      <trkpt lat="45.88578" lon="4.75118">
        <ele>201</ele>
        <time>2018-02-20T10:20:52Z</time>
      </trkpt>
      <trkpt lat="45.88574" lon="4.75122">
        <ele>201</ele>
        <time>2018-02-20T10:20:53Z</time>
      </trkpt>
      <trkpt lat="45.88569" lon="4.75131">
        <ele>201</ele>
        <time>2018-02-20T10:20:55Z</time>
      </trkpt>
      <trkpt lat="45.88566" lon="4.75134">
        <ele>201</ele>
        <time>2018-02-20T10:20:56Z</time>
      </trkpt>
      <trkpt lat="45.88563" lon="4.75139">
        <ele>201</ele>
        <time>2018-02-20T10:20:57Z</time>
      </trkpt>
      <trkpt lat="45.88559" lon="4.75144">
        <ele>201</ele>
        <time>2018-02-20T10:20:58Z</time>
      </trkpt>
      <trkpt lat="45.88556" lon="4.75148">
        <ele>201</ele>
        <time>2018-02-20T10:20:59Z</time>
      </trkpt>
      <trkpt lat="45.88552" lon="4.75153">
        <ele>201</ele>
        <time>2018-02-20T10:21:00Z</time>
      </trkpt>
      <trkpt lat="45.88549" lon="4.75158">
        <ele>201</ele>
        <time>2018-02-20T10:21:01Z</time>
      </trkpt>
      <trkpt lat="45.88548" lon="4.75166">
        <ele>201</ele>
        <time>2018-02-20T10:21:02Z</time>
      </trkpt>
      <trkpt lat="45.88545" lon="4.75171">
        <ele>201</ele>
        <time>2018-02-20T10:21:03Z</time>
      </trkpt>
      <trkpt lat="45.88542" lon="4.75178">
        <ele>201</ele>
        <time>2018-02-20T10:21:04Z</time>
      </trkpt>
      <trkpt lat="45.8854" lon="4.75185">
        <ele>201</ele>
        <time>2018-02-20T10:21:05Z</time>
      </trkpt>
      <trkpt lat="45.88537" lon="4.7519">
        <ele>201</ele>
        <time>2018-02-20T10:21:06Z</time>
      </trkpt>
      <trkpt lat="45.88534" lon="4.75196">
        <ele>201</ele>
        <time>2018-02-20T10:21:07Z</time>
      </trkpt>
      <trkpt lat="45.8853" lon="4.75202">
        <ele>201</ele>
        <time>2018-02-20T10:21:08Z</time>
      </trkpt>
      <trkpt lat="45.88527" lon="4.75209">
        <ele>201</ele>
        <time>2018-02-20T10:21:09Z</time>
      </trkpt>
      <trkpt lat="45.88524" lon="4.75214">
        <ele>201</ele>
        <time>2018-02-20T10:21:10Z</time>
      </trkpt>
      <trkpt lat="45.88521" lon="4.75221">
        <ele>201</ele>
        <time>2018-02-20T10:21:11Z</time>
      </trkpt>
      <trkpt lat="45.88517" lon="4.75226">
        <ele>201</ele>
        <time>2018-02-20T10:21:12Z</time>
      </trkpt>
      <trkpt lat="45.88512" lon="4.75232">
        <ele>201</ele>
        <time>2018-02-20T10:21:13Z</time>
      </trkpt>
      <trkpt lat="45.8851" lon="4.75238">
        <ele>201</ele>
        <time>2018-02-20T10:21:14Z</time>
      </trkpt>
      <trkpt lat="45.88505" lon="4.75242">
        <ele>201</ele>
        <time>2018-02-20T10:21:15Z</time>
      </trkpt>
      <trkpt lat="45.88501" lon="4.75246">
        <ele>201</ele>
        <time>2018-02-20T10:21:16Z</time>
      </trkpt>
      <trkpt lat="45.88496" lon="4.75248">
        <ele>201</ele>
        <time>2018-02-20T10:21:17Z</time>
      </trkpt>
      <trkpt lat="45.88491" lon="4.75252">
        <ele>201</ele>
        <time>2018-02-20T10:21:18Z</time>
      </trkpt>
      <trkpt lat="45.88486" lon="4.75253">
        <ele>201</ele>
        <time>2018-02-20T10:21:19Z</time>
      </trkpt>
      <trkpt lat="45.88481" lon="4.75256">
        <ele>201</ele>
        <time>2018-02-20T10:21:20Z</time>
      </trkpt>
      <trkpt lat="45.88478" lon="4.75258">
        <ele>201</ele>
        <time>2018-02-20T10:21:21Z</time>
      </trkpt>
      <trkpt lat="45.88472" lon="4.75261">
        <ele>201</ele>
        <time>2018-02-20T10:21:22Z</time>
      </trkpt>
      <trkpt lat="45.88468" lon="4.75263">
        <ele>201</ele>
        <time>2018-02-20T10:21:23Z</time>
      </trkpt>
      <trkpt lat="45.88464" lon="4.75265">
        <ele>201</ele>
        <time>2018-02-20T10:21:24Z</time>
      </trkpt>
      <trkpt lat="45.88459" lon="4.75268">
        <ele>201</ele>
        <time>2018-02-20T10:21:25Z</time>
      </trkpt>
      <trkpt lat="45.88454" lon="4.75272">
        <ele>201</ele>
        <time>2018-02-20T10:21:26Z</time>
      </trkpt>
      <trkpt lat="45.88449" lon="4.75274">
        <ele>201</ele>
        <time>2018-02-20T10:21:27Z</time>
      </trkpt>
      <trkpt lat="45.88443" lon="4.75277">
        <ele>201</ele>
        <time>2018-02-20T10:21:28Z</time>
      </trkpt>
      <trkpt lat="45.88438" lon="4.75281">
        <ele>201</ele>
        <time>2018-02-20T10:21:29Z</time>
      </trkpt>
      <trkpt lat="45.88434" lon="4.75284">
        <ele>201</ele>
        <time>2018-02-20T10:21:30Z</time>
      </trkpt>
      <trkpt lat="45.88429" lon="4.75288">
        <ele>201</ele>
        <time>2018-02-20T10:21:31Z</time>
      </trkpt>
      <trkpt lat="45.88427" lon="4.75292">
        <ele>201</ele>
        <time>2018-02-20T10:21:32Z</time>
      </trkpt>
      <trkpt lat="45.88423" lon="4.75297">
        <ele>201</ele>
        <time>2018-02-20T10:21:33Z</time>
      </trkpt>
      <trkpt lat="45.8842" lon="4.75302">
        <ele>201</ele>
        <time>2018-02-20T10:21:34Z</time>
      </trkpt>
      <trkpt lat="45.88416" lon="4.75308">
        <ele>200</ele>
        <time>2018-02-20T10:21:35Z</time>
      </trkpt>
      <trkpt lat="45.88414" lon="4.75314">
        <ele>200</ele>
        <time>2018-02-20T10:21:36Z</time>
      </trkpt>
      <trkpt lat="45.88411" lon="4.7532">
        <ele>200</ele>
        <time>2018-02-20T10:21:37Z</time>
      </trkpt>
      <trkpt lat="45.88409" lon="4.75328">
        <ele>200</ele>
        <time>2018-02-20T10:21:38Z</time>
      </trkpt>
      <trkpt lat="45.88407" lon="4.75334">
        <ele>200</ele>
        <time>2018-02-20T10:21:39Z</time>
      </trkpt>
      <trkpt lat="45.88405" lon="4.75339">
        <ele>200</ele>
        <time>2018-02-20T10:21:40Z</time>
      </trkpt>
      <trkpt lat="45.88402" lon="4.75345">
        <ele>201</ele>
        <time>2018-02-20T10:21:41Z</time>
      </trkpt>
      <trkpt lat="45.88399" lon="4.75352">
        <ele>201</ele>
        <time>2018-02-20T10:21:42Z</time>
      </trkpt>
      <trkpt lat="45.88395" lon="4.75358">
        <ele>201</ele>
        <time>2018-02-20T10:21:43Z</time>
      </trkpt>
      <trkpt lat="45.88391" lon="4.75365">
        <ele>201</ele>
        <time>2018-02-20T10:21:44Z</time>
      </trkpt>
      <trkpt lat="45.88389" lon="4.75371">
        <ele>201</ele>
        <time>2018-02-20T10:21:45Z</time>
      </trkpt>
      <trkpt lat="45.88387" lon="4.75377">
        <ele>201</ele>
        <time>2018-02-20T10:21:46Z</time>
      </trkpt>
      <trkpt lat="45.88385" lon="4.75382">
        <ele>201</ele>
        <time>2018-02-20T10:21:47Z</time>
      </trkpt>
      <trkpt lat="45.88383" lon="4.75389">
        <ele>201</ele>
        <time>2018-02-20T10:21:48Z</time>
      </trkpt>
      <trkpt lat="45.88381" lon="4.75397">
        <ele>202</ele>
        <time>2018-02-20T10:21:49Z</time>
      </trkpt>
      <trkpt lat="45.88378" lon="4.75404">
        <ele>202</ele>
        <time>2018-02-20T10:21:50Z</time>
      </trkpt>
      <trkpt lat="45.88377" lon="4.75411">
        <ele>202</ele>
        <time>2018-02-20T10:21:51Z</time>
      </trkpt>
      <trkpt lat="45.88375" lon="4.75417">
        <ele>203</ele>
        <time>2018-02-20T10:21:52Z</time>
      </trkpt>
      <trkpt lat="45.88374" lon="4.75424">
        <ele>203</ele>
        <time>2018-02-20T10:21:53Z</time>
      </trkpt>
      <trkpt lat="45.88372" lon="4.75432">
        <ele>203</ele>
        <time>2018-02-20T10:21:54Z</time>
      </trkpt>
      <trkpt lat="45.8837" lon="4.75439">
        <ele>203</ele>
        <time>2018-02-20T10:21:55Z</time>
      </trkpt>
      <trkpt lat="45.88369" lon="4.75446">
        <ele>203</ele>
        <time>2018-02-20T10:21:56Z</time>
      </trkpt>
      <trkpt lat="45.88369" lon="4.75453">
        <ele>203</ele>
        <time>2018-02-20T10:21:57Z</time>
      </trkpt>
      <trkpt lat="45.88369" lon="4.7546">
        <ele>203</ele>
        <time>2018-02-20T10:21:58Z</time>
      </trkpt>
      <trkpt lat="45.88368" lon="4.75467">
        <ele>203</ele>
        <time>2018-02-20T10:21:59Z</time>
      </trkpt>
      <trkpt lat="45.88366" lon="4.75475">
        <ele>203</ele>
        <time>2018-02-20T10:22:00Z</time>
      </trkpt>
      <trkpt lat="45.88365" lon="4.75482">
        <ele>203</ele>
        <time>2018-02-20T10:22:01Z</time>
      </trkpt>
      <trkpt lat="45.88365" lon="4.75489">
        <ele>203</ele>
        <time>2018-02-20T10:22:02Z</time>
      </trkpt>
      <trkpt lat="45.88364" lon="4.75495">
        <ele>203</ele>
        <time>2018-02-20T10:22:03Z</time>
      </trkpt>
      <trkpt lat="45.88363" lon="4.75502">
        <ele>204</ele>
        <time>2018-02-20T10:22:04Z</time>
      </trkpt>
      <trkpt lat="45.88363" lon="4.75509">
        <ele>204</ele>
        <time>2018-02-20T10:22:05Z</time>
      </trkpt>
      <trkpt lat="45.88363" lon="4.75516">
        <ele>204</ele>
        <time>2018-02-20T10:22:06Z</time>
      </trkpt>
      <trkpt lat="45.88363" lon="4.75523">
        <ele>204</ele>
        <time>2018-02-20T10:22:07Z</time>
      </trkpt>
      <trkpt lat="45.88363" lon="4.75529">
        <ele>204</ele>
        <time>2018-02-20T10:22:08Z</time>
      </trkpt>
      <trkpt lat="45.88363" lon="4.75537">
        <ele>204</ele>
        <time>2018-02-20T10:22:09Z</time>
      </trkpt>
      <trkpt lat="45.88363" lon="4.75544">
        <ele>204</ele>
        <time>2018-02-20T10:22:10Z</time>
      </trkpt>
      <trkpt lat="45.88363" lon="4.75551">
        <ele>204</ele>
        <time>2018-02-20T10:22:11Z</time>
      </trkpt>
      <trkpt lat="45.88363" lon="4.75558">
        <ele>204</ele>
        <time>2018-02-20T10:22:12Z</time>
      </trkpt>
      <trkpt lat="45.88364" lon="4.7557">
        <ele>204</ele>
        <time>2018-02-20T10:22:14Z</time>
      </trkpt>
      <trkpt lat="45.88363" lon="4.75577">
        <ele>204</ele>
        <time>2018-02-20T10:22:15Z</time>
      </trkpt>
      <trkpt lat="45.88364" lon="4.75584">
        <ele>204</ele>
        <time>2018-02-20T10:22:16Z</time>
      </trkpt>
      <trkpt lat="45.88363" lon="4.75591">
        <ele>204</ele>
        <time>2018-02-20T10:22:17Z</time>
      </trkpt>
      <trkpt lat="45.88364" lon="4.75598">
        <ele>204</ele>
        <time>2018-02-20T10:22:18Z</time>
      </trkpt>
      <trkpt lat="45.88364" lon="4.75605">
        <ele>204</ele>
        <time>2018-02-20T10:22:19Z</time>
      </trkpt>
      <trkpt lat="45.88363" lon="4.75611">
        <ele>204</ele>
        <time>2018-02-20T10:22:20Z</time>
      </trkpt>
      <trkpt lat="45.88363" lon="4.75618">
        <ele>204</ele>
        <time>2018-02-20T10:22:21Z</time>
      </trkpt>
      <trkpt lat="45.88364" lon="4.75625">
        <ele>204</ele>
        <time>2018-02-20T10:22:22Z</time>
      </trkpt>
      <trkpt lat="45.88364" lon="4.75632">
        <ele>204</ele>
        <time>2018-02-20T10:22:23Z</time>
      </trkpt>
      <trkpt lat="45.88364" lon="4.7564">
        <ele>204</ele>
        <time>2018-02-20T10:22:24Z</time>
      </trkpt>
      <trkpt lat="45.88364" lon="4.75646">
        <ele>204</ele>
        <time>2018-02-20T10:22:25Z</time>
      </trkpt>
      <trkpt lat="45.88364" lon="4.75652">
        <ele>204</ele>
        <time>2018-02-20T10:22:26Z</time>
      </trkpt>
      <trkpt lat="45.88363" lon="4.7566">
        <ele>204</ele>
        <time>2018-02-20T10:22:27Z</time>
      </trkpt>
      <trkpt lat="45.88364" lon="4.75666">
        <ele>204</ele>
        <time>2018-02-20T10:22:28Z</time>
      </trkpt>
      <trkpt lat="45.88362" lon="4.75673">
        <ele>204</ele>
        <time>2018-02-20T10:22:29Z</time>
      </trkpt>
      <trkpt lat="45.88362" lon="4.7568">
        <ele>204</ele>
        <time>2018-02-20T10:22:30Z</time>
      </trkpt>
      <trkpt lat="45.88361" lon="4.75687">
        <ele>204</ele>
        <time>2018-02-20T10:22:31Z</time>
      </trkpt>
      <trkpt lat="45.8836" lon="4.75694">
        <ele>204</ele>
        <time>2018-02-20T10:22:32Z</time>
      </trkpt>
      <trkpt lat="45.88356" lon="4.75701">
        <ele>204</ele>
        <time>2018-02-20T10:22:33Z</time>
      </trkpt>
      <trkpt lat="45.88354" lon="4.75712">
        <ele>204</ele>
        <time>2018-02-20T10:22:35Z</time>
      </trkpt>
      <trkpt lat="45.88353" lon="4.75719">
        <ele>204</ele>
        <time>2018-02-20T10:22:36Z</time>
      </trkpt>
      <trkpt lat="45.8835" lon="4.75731">
        <ele>203</ele>
        <time>2018-02-20T10:22:38Z</time>
      </trkpt>
      <trkpt lat="45.88349" lon="4.75737">
        <ele>203</ele>
        <time>2018-02-20T10:22:39Z</time>
      </trkpt>
      <trkpt lat="45.88348" lon="4.75744">
        <ele>203</ele>
        <time>2018-02-20T10:22:40Z</time>
      </trkpt>
      <trkpt lat="45.88346" lon="4.7575">
        <ele>203</ele>
        <time>2018-02-20T10:22:41Z</time>
      </trkpt>
      <trkpt lat="45.88344" lon="4.75756">
        <ele>203</ele>
        <time>2018-02-20T10:22:42Z</time>
      </trkpt>
      <trkpt lat="45.88344" lon="4.75763">
        <ele>203</ele>
        <time>2018-02-20T10:22:43Z</time>
      </trkpt>
      <trkpt lat="45.88342" lon="4.75775">
        <ele>203</ele>
        <time>2018-02-20T10:22:45Z</time>
      </trkpt>
      <trkpt lat="45.88342" lon="4.75782">
        <ele>203</ele>
        <time>2018-02-20T10:22:46Z</time>
      </trkpt>
      <trkpt lat="45.88341" lon="4.75788">
        <ele>203</ele>
        <time>2018-02-20T10:22:47Z</time>
      </trkpt>
      <trkpt lat="45.88341" lon="4.75795">
        <ele>203</ele>
        <time>2018-02-20T10:22:48Z</time>
      </trkpt>
      <trkpt lat="45.88341" lon="4.75801">
        <ele>203</ele>
        <time>2018-02-20T10:22:49Z</time>
      </trkpt>
      <trkpt lat="45.88341" lon="4.75808">
        <ele>203</ele>
        <time>2018-02-20T10:22:50Z</time>
      </trkpt>
      <trkpt lat="45.88343" lon="4.75815">
        <ele>203</ele>
        <time>2018-02-20T10:22:51Z</time>
      </trkpt>
      <trkpt lat="45.88342" lon="4.75821">
        <ele>203</ele>
        <time>2018-02-20T10:22:52Z</time>
      </trkpt>
      <trkpt lat="45.88341" lon="4.75827">
        <ele>203</ele>
        <time>2018-02-20T10:22:53Z</time>
      </trkpt>
      <trkpt lat="45.8834" lon="4.75835">
        <ele>203</ele>
        <time>2018-02-20T10:22:54Z</time>
      </trkpt>
      <trkpt lat="45.8834" lon="4.75841">
        <ele>203</ele>
        <time>2018-02-20T10:22:55Z</time>
      </trkpt>
      <trkpt lat="45.8834" lon="4.75848">
        <ele>204</ele>
        <time>2018-02-20T10:22:56Z</time>
      </trkpt>
      <trkpt lat="45.8834" lon="4.75855">
        <ele>204</ele>
        <time>2018-02-20T10:22:57Z</time>
      </trkpt>
      <trkpt lat="45.8834" lon="4.75861">
        <ele>204</ele>
        <time>2018-02-20T10:22:58Z</time>
      </trkpt>
      <trkpt lat="45.8834" lon="4.75868">
        <ele>204</ele>
        <time>2018-02-20T10:22:59Z</time>
      </trkpt>
      <trkpt lat="45.8834" lon="4.75875">
        <ele>204</ele>
        <time>2018-02-20T10:23:00Z</time>
      </trkpt>
      <trkpt lat="45.88339" lon="4.75881">
        <ele>204</ele>
        <time>2018-02-20T10:23:01Z</time>
      </trkpt>
      <trkpt lat="45.88337" lon="4.75888">
        <ele>204</ele>
        <time>2018-02-20T10:23:02Z</time>
      </trkpt>
      <trkpt lat="45.88337" lon="4.75899">
        <ele>204</ele>
        <time>2018-02-20T10:23:04Z</time>
      </trkpt>
      <trkpt lat="45.88336" lon="4.75906">
        <ele>205</ele>
        <time>2018-02-20T10:23:05Z</time>
      </trkpt>
      <trkpt lat="45.88335" lon="4.75911">
        <ele>205</ele>
        <time>2018-02-20T10:23:06Z</time>
      </trkpt>
      <trkpt lat="45.88333" lon="4.75918">
        <ele>205</ele>
        <time>2018-02-20T10:23:07Z</time>
      </trkpt>
      <trkpt lat="45.88329" lon="4.75929">
        <ele>205</ele>
        <time>2018-02-20T10:23:09Z</time>
      </trkpt>
      <trkpt lat="45.88327" lon="4.75935">
        <ele>205</ele>
        <time>2018-02-20T10:23:10Z</time>
      </trkpt>
      <trkpt lat="45.88325" lon="4.75941">
        <ele>206</ele>
        <time>2018-02-20T10:23:11Z</time>
      </trkpt>
      <trkpt lat="45.88324" lon="4.75948">
        <ele>206</ele>
        <time>2018-02-20T10:23:12Z</time>
      </trkpt>
      <trkpt lat="45.88321" lon="4.75958">
        <ele>206</ele>
        <time>2018-02-20T10:23:14Z</time>
      </trkpt>
      <trkpt lat="45.88319" lon="4.75963">
        <ele>206</ele>
        <time>2018-02-20T10:23:15Z</time>
      </trkpt>
      <trkpt lat="45.88314" lon="4.75974">
        <ele>206</ele>
        <time>2018-02-20T10:23:17Z</time>
      </trkpt>
      <trkpt lat="45.88312" lon="4.7598">
        <ele>206</ele>
        <time>2018-02-20T10:23:18Z</time>
      </trkpt>
      <trkpt lat="45.88309" lon="4.75991">
        <ele>206</ele>
        <time>2018-02-20T10:23:20Z</time>
      </trkpt>
      <trkpt lat="45.88307" lon="4.75997">
        <ele>206</ele>
        <time>2018-02-20T10:23:21Z</time>
      </trkpt>
      <trkpt lat="45.88304" lon="4.76003">
        <ele>207</ele>
        <time>2018-02-20T10:23:22Z</time>
      </trkpt>
      <trkpt lat="45.88303" lon="4.76009">
        <ele>207</ele>
        <time>2018-02-20T10:23:23Z</time>
      </trkpt>
      <trkpt lat="45.88301" lon="4.76016">
        <ele>207</ele>
        <time>2018-02-20T10:23:24Z</time>
      </trkpt>
      <trkpt lat="45.883" lon="4.76022">
        <ele>207</ele>
        <time>2018-02-20T10:23:25Z</time>
      </trkpt>
      <trkpt lat="45.88298" lon="4.76031">
        <ele>207</ele>
        <time>2018-02-20T10:23:26Z</time>
      </trkpt>
      <trkpt lat="45.88298" lon="4.76038">
        <ele>207</ele>
        <time>2018-02-20T10:23:27Z</time>
      </trkpt>
      <trkpt lat="45.88297" lon="4.7605">
        <ele>207</ele>
        <time>2018-02-20T10:23:29Z</time>
      </trkpt>
      <trkpt lat="45.88296" lon="4.76056">
        <ele>208</ele>
        <time>2018-02-20T10:23:30Z</time>
      </trkpt>
      <trkpt lat="45.88295" lon="4.76068">
        <ele>208</ele>
        <time>2018-02-20T10:23:32Z</time>
      </trkpt>
      <trkpt lat="45.88294" lon="4.76074">
        <ele>208</ele>
        <time>2018-02-20T10:23:33Z</time>
      </trkpt>
      <trkpt lat="45.88293" lon="4.76087">
        <ele>209</ele>
        <time>2018-02-20T10:23:35Z</time>
      </trkpt>
      <trkpt lat="45.88293" lon="4.76093">
        <ele>209</ele>
        <time>2018-02-20T10:23:36Z</time>
      </trkpt>
      <trkpt lat="45.88292" lon="4.76104">
        <ele>210</ele>
        <time>2018-02-20T10:23:38Z</time>
      </trkpt>
      <trkpt lat="45.88292" lon="4.76109">
        <ele>210</ele>
        <time>2018-02-20T10:23:39Z</time>
      </trkpt>
      <trkpt lat="45.88291" lon="4.76121">
        <ele>210</ele>
        <time>2018-02-20T10:23:41Z</time>
      </trkpt>
      <trkpt lat="45.88291" lon="4.76127">
        <ele>210</ele>
        <time>2018-02-20T10:23:42Z</time>
      </trkpt>
      <trkpt lat="45.8829" lon="4.76139">
        <ele>210</ele>
        <time>2018-02-20T10:23:44Z</time>
      </trkpt>
      <trkpt lat="45.8829" lon="4.76144">
        <ele>210</ele>
        <time>2018-02-20T10:23:45Z</time>
      </trkpt>
      <trkpt lat="45.88289" lon="4.76156">
        <ele>211</ele>
        <time>2018-02-20T10:23:47Z</time>
      </trkpt>
      <trkpt lat="45.88289" lon="4.76162">
        <ele>211</ele>
        <time>2018-02-20T10:23:48Z</time>
      </trkpt>
      <trkpt lat="45.88289" lon="4.76173">
        <ele>212</ele>
        <time>2018-02-20T10:23:50Z</time>
      </trkpt>
      <trkpt lat="45.88289" lon="4.76179">
        <ele>212</ele>
        <time>2018-02-20T10:23:51Z</time>
      </trkpt>
      <trkpt lat="45.88288" lon="4.76191">
        <ele>212</ele>
        <time>2018-02-20T10:23:53Z</time>
      </trkpt>
      <trkpt lat="45.88288" lon="4.76196">
        <ele>212</ele>
        <time>2018-02-20T10:23:54Z</time>
      </trkpt>
      <trkpt lat="45.88288" lon="4.76206">
        <ele>213</ele>
        <time>2018-02-20T10:23:56Z</time>
      </trkpt>
      <trkpt lat="45.88287" lon="4.76211">
        <ele>213</ele>
        <time>2018-02-20T10:23:57Z</time>
      </trkpt>
      <trkpt lat="45.88286" lon="4.76221">
        <ele>213</ele>
        <time>2018-02-20T10:23:59Z</time>
      </trkpt>
      <trkpt lat="45.88286" lon="4.76226">
        <ele>213</ele>
        <time>2018-02-20T10:24:00Z</time>
      </trkpt>
      <trkpt lat="45.88285" lon="4.76237">
        <ele>213</ele>
        <time>2018-02-20T10:24:02Z</time>
      </trkpt>
      <trkpt lat="45.88284" lon="4.76242">
        <ele>213</ele>
        <time>2018-02-20T10:24:03Z</time>
      </trkpt>
      <trkpt lat="45.88284" lon="4.76253">
        <ele>214</ele>
        <time>2018-02-20T10:24:05Z</time>
      </trkpt>
      <trkpt lat="45.88283" lon="4.76258">
        <ele>214</ele>
        <time>2018-02-20T10:24:06Z</time>
      </trkpt>
      <trkpt lat="45.88282" lon="4.76269">
        <ele>214</ele>
        <time>2018-02-20T10:24:08Z</time>
      </trkpt>
      <trkpt lat="45.88281" lon="4.76275">
        <ele>214</ele>
        <time>2018-02-20T10:24:09Z</time>
      </trkpt>
      <trkpt lat="45.88279" lon="4.76285">
        <ele>214</ele>
        <time>2018-02-20T10:24:11Z</time>
      </trkpt>
      <trkpt lat="45.88279" lon="4.76291">
        <ele>214</ele>
        <time>2018-02-20T10:24:12Z</time>
      </trkpt>
      <trkpt lat="45.88277" lon="4.76301">
        <ele>214</ele>
        <time>2018-02-20T10:24:14Z</time>
      </trkpt>
      <trkpt lat="45.88276" lon="4.76307">
        <ele>214</ele>
        <time>2018-02-20T10:24:15Z</time>
      </trkpt>
      <trkpt lat="45.88272" lon="4.76316">
        <ele>214</ele>
        <time>2018-02-20T10:24:17Z</time>
      </trkpt>
      <trkpt lat="45.8827" lon="4.76322">
        <ele>214</ele>
        <time>2018-02-20T10:24:18Z</time>
      </trkpt>
      <trkpt lat="45.88267" lon="4.76332">
        <ele>214</ele>
        <time>2018-02-20T10:24:20Z</time>
      </trkpt>
      <trkpt lat="45.88266" lon="4.76336">
        <ele>214</ele>
        <time>2018-02-20T10:24:21Z</time>
      </trkpt>
      <trkpt lat="45.88262" lon="4.76345">
        <ele>214</ele>
        <time>2018-02-20T10:24:23Z</time>
      </trkpt>
      <trkpt lat="45.88261" lon="4.7635">
        <ele>214</ele>
        <time>2018-02-20T10:24:24Z</time>
      </trkpt>
      <trkpt lat="45.88257" lon="4.76359">
        <ele>214</ele>
        <time>2018-02-20T10:24:26Z</time>
      </trkpt>
      <trkpt lat="45.88256" lon="4.76364">
        <ele>214</ele>
        <time>2018-02-20T10:24:27Z</time>
      </trkpt>
      <trkpt lat="45.88253" lon="4.76373">
        <ele>214</ele>
        <time>2018-02-20T10:24:29Z</time>
      </trkpt>
      <trkpt lat="45.8825" lon="4.76378">
        <ele>215</ele>
        <time>2018-02-20T10:24:30Z</time>
      </trkpt>
      <trkpt lat="45.88248" lon="4.76384">
        <ele>215</ele>
        <time>2018-02-20T10:24:31Z</time>
      </trkpt>
      <trkpt lat="45.88246" lon="4.7639">
        <ele>215</ele>
        <time>2018-02-20T10:24:32Z</time>
      </trkpt>
      <trkpt lat="45.88243" lon="4.76398">
        <ele>215</ele>
        <time>2018-02-20T10:24:33Z</time>
      </trkpt>
      <trkpt lat="45.88241" lon="4.76405">
        <ele>214</ele>
        <time>2018-02-20T10:24:34Z</time>
      </trkpt>
      <trkpt lat="45.88239" lon="4.76411">
        <ele>214</ele>
        <time>2018-02-20T10:24:35Z</time>
      </trkpt>
      <trkpt lat="45.88236" lon="4.76417">
        <ele>214</ele>
        <time>2018-02-20T10:24:36Z</time>
      </trkpt>
      <trkpt lat="45.88232" lon="4.76428">
        <ele>214</ele>
        <time>2018-02-20T10:24:38Z</time>
      </trkpt>
      <trkpt lat="45.88229" lon="4.76433">
        <ele>214</ele>
        <time>2018-02-20T10:24:39Z</time>
      </trkpt>
      <trkpt lat="45.88227" lon="4.76438">
        <ele>214</ele>
        <time>2018-02-20T10:24:40Z</time>
      </trkpt>
      <trkpt lat="45.88225" lon="4.76445">
        <ele>214</ele>
        <time>2018-02-20T10:24:41Z</time>
      </trkpt>
      <trkpt lat="45.88221" lon="4.76456">
        <ele>214</ele>
        <time>2018-02-20T10:24:43Z</time>
      </trkpt>
      <trkpt lat="45.88219" lon="4.76461">
        <ele>214</ele>
        <time>2018-02-20T10:24:44Z</time>
      </trkpt>
      <trkpt lat="45.88217" lon="4.76467">
        <ele>214</ele>
        <time>2018-02-20T10:24:45Z</time>
      </trkpt>
      <trkpt lat="45.88214" lon="4.76473">
        <ele>214</ele>
        <time>2018-02-20T10:24:46Z</time>
      </trkpt>
      <trkpt lat="45.88212" lon="4.76479">
        <ele>214</ele>
        <time>2018-02-20T10:24:47Z</time>
      </trkpt>
      <trkpt lat="45.8821" lon="4.76485">
        <ele>214</ele>
        <time>2018-02-20T10:24:48Z</time>
      </trkpt>
      <trkpt lat="45.88208" lon="4.76491">
        <ele>214</ele>
        <time>2018-02-20T10:24:49Z</time>
      </trkpt>
      <trkpt lat="45.88206" lon="4.76497">
        <ele>214</ele>
        <time>2018-02-20T10:24:50Z</time>
      </trkpt>
      <trkpt lat="45.88204" lon="4.76504">
        <ele>214</ele>
        <time>2018-02-20T10:24:51Z</time>
      </trkpt>
      <trkpt lat="45.88202" lon="4.76509">
        <ele>214</ele>
        <time>2018-02-20T10:24:52Z</time>
      </trkpt>
      <trkpt lat="45.882" lon="4.76516">
        <ele>214</ele>
        <time>2018-02-20T10:24:53Z</time>
      </trkpt>
      <trkpt lat="45.88198" lon="4.76522">
        <ele>214</ele>
        <time>2018-02-20T10:24:54Z</time>
      </trkpt>
      <trkpt lat="45.88196" lon="4.7653">
        <ele>214</ele>
        <time>2018-02-20T10:24:55Z</time>
      </trkpt>
      <trkpt lat="45.88193" lon="4.76537">
        <ele>214</ele>
        <time>2018-02-20T10:24:56Z</time>
      </trkpt>
      <trkpt lat="45.88191" lon="4.76545">
        <ele>214</ele>
        <time>2018-02-20T10:24:57Z</time>
      </trkpt>
      <trkpt lat="45.88189" lon="4.76552">
        <ele>214</ele>
        <time>2018-02-20T10:24:58Z</time>
      </trkpt>
      <trkpt lat="45.88188" lon="4.76559">
        <ele>214</ele>
        <time>2018-02-20T10:24:59Z</time>
      </trkpt>
      <trkpt lat="45.88187" lon="4.76566">
        <ele>214</ele>
        <time>2018-02-20T10:25:00Z</time>
      </trkpt>
      <trkpt lat="45.88185" lon="4.76573">
        <ele>214</ele>
        <time>2018-02-20T10:25:01Z</time>
      </trkpt>
      <trkpt lat="45.88183" lon="4.7658">
        <ele>214</ele>
        <time>2018-02-20T10:25:02Z</time>
      </trkpt>
      <trkpt lat="45.88181" lon="4.76586">
        <ele>214</ele>
        <time>2018-02-20T10:25:03Z</time>
      </trkpt>
      <trkpt lat="45.88178" lon="4.76593">
        <ele>214</ele>
        <time>2018-02-20T10:25:04Z</time>
      </trkpt>
      <trkpt lat="45.88176" lon="4.76599">
        <ele>214</ele>
        <time>2018-02-20T10:25:05Z</time>
      </trkpt>
      <trkpt lat="45.88174" lon="4.76604">
        <ele>214</ele>
        <time>2018-02-20T10:25:06Z</time>
      </trkpt>
      <trkpt lat="45.8817" lon="4.76615">
        <ele>214</ele>
        <time>2018-02-20T10:25:08Z</time>
      </trkpt>
      <trkpt lat="45.88168" lon="4.7662">
        <ele>214</ele>
        <time>2018-02-20T10:25:09Z</time>
      </trkpt>
      <trkpt lat="45.88165" lon="4.76631">
        <ele>215</ele>
        <time>2018-02-20T10:25:11Z</time>
      </trkpt>
      <trkpt lat="45.88162" lon="4.76636">
        <ele>215</ele>
        <time>2018-02-20T10:25:12Z</time>
      </trkpt>
      <trkpt lat="45.88161" lon="4.76643">
        <ele>214</ele>
        <time>2018-02-20T10:25:13Z</time>
      </trkpt>
      <trkpt lat="45.88159" lon="4.76649">
        <ele>214</ele>
        <time>2018-02-20T10:25:14Z</time>
      </trkpt>
      <trkpt lat="45.88155" lon="4.7666">
        <ele>214</ele>
        <time>2018-02-20T10:25:16Z</time>
      </trkpt>
      <trkpt lat="45.88153" lon="4.76665">
        <ele>214</ele>
        <time>2018-02-20T10:25:17Z</time>
      </trkpt>
      <trkpt lat="45.88151" lon="4.76672">
        <ele>214</ele>
        <time>2018-02-20T10:25:18Z</time>
      </trkpt>
      <trkpt lat="45.88148" lon="4.76678">
        <ele>214</ele>
        <time>2018-02-20T10:25:19Z</time>
      </trkpt>
      <trkpt lat="45.88145" lon="4.76683">
        <ele>214</ele>
        <time>2018-02-20T10:25:20Z</time>
      </trkpt>
      <trkpt lat="45.88142" lon="4.76689">
        <ele>214</ele>
        <time>2018-02-20T10:25:21Z</time>
      </trkpt>
      <trkpt lat="45.88139" lon="4.76695">
        <ele>214</ele>
        <time>2018-02-20T10:25:22Z</time>
      </trkpt>
      <trkpt lat="45.88136" lon="4.767">
        <ele>214</ele>
        <time>2018-02-20T10:25:23Z</time>
      </trkpt>
      <trkpt lat="45.88133" lon="4.76706">
        <ele>214</ele>
        <time>2018-02-20T10:25:24Z</time>
      </trkpt>
      <trkpt lat="45.88129" lon="4.76712">
        <ele>214</ele>
        <time>2018-02-20T10:25:25Z</time>
      </trkpt>
      <trkpt lat="45.88126" lon="4.76717">
        <ele>214</ele>
        <time>2018-02-20T10:25:26Z</time>
      </trkpt>
      <trkpt lat="45.88122" lon="4.76724">
        <ele>214</ele>
        <time>2018-02-20T10:25:27Z</time>
      </trkpt>
      <trkpt lat="45.8812" lon="4.76729">
        <ele>214</ele>
        <time>2018-02-20T10:25:28Z</time>
      </trkpt>
      <trkpt lat="45.88118" lon="4.76735">
        <ele>214</ele>
        <time>2018-02-20T10:25:29Z</time>
      </trkpt>
      <trkpt lat="45.88116" lon="4.76742">
        <ele>214</ele>
        <time>2018-02-20T10:25:30Z</time>
      </trkpt>
      <trkpt lat="45.88113" lon="4.76749">
        <ele>214</ele>
        <time>2018-02-20T10:25:31Z</time>
      </trkpt>
      <trkpt lat="45.88111" lon="4.76756">
        <ele>213</ele>
        <time>2018-02-20T10:25:32Z</time>
      </trkpt>
      <trkpt lat="45.88109" lon="4.76763">
        <ele>213</ele>
        <time>2018-02-20T10:25:33Z</time>
      </trkpt>
      <trkpt lat="45.88107" lon="4.76771">
        <ele>213</ele>
        <time>2018-02-20T10:25:34Z</time>
      </trkpt>
      <trkpt lat="45.88106" lon="4.76779">
        <ele>213</ele>
        <time>2018-02-20T10:25:35Z</time>
      </trkpt>
      <trkpt lat="45.88105" lon="4.76789">
        <ele>213</ele>
        <time>2018-02-20T10:25:36Z</time>
      </trkpt>
      <trkpt lat="45.88105" lon="4.76797">
        <ele>213</ele>
        <time>2018-02-20T10:25:37Z</time>
      </trkpt>
      <trkpt lat="45.88104" lon="4.76803">
        <ele>213</ele>
        <time>2018-02-20T10:25:38Z</time>
      </trkpt>
      <trkpt lat="45.88104" lon="4.76811">
        <ele>213</ele>
        <time>2018-02-20T10:25:39Z</time>
      </trkpt>
      <trkpt lat="45.88103" lon="4.76819">
        <ele>213</ele>
        <time>2018-02-20T10:25:40Z</time>
      </trkpt>
      <trkpt lat="45.88102" lon="4.76826">
        <ele>213</ele>
        <time>2018-02-20T10:25:41Z</time>
      </trkpt>
      <trkpt lat="45.88101" lon="4.76835">
        <ele>212</ele>
        <time>2018-02-20T10:25:42Z</time>
      </trkpt>
      <trkpt lat="45.881" lon="4.76842">
        <ele>212</ele>
        <time>2018-02-20T10:25:43Z</time>
      </trkpt>
      <trkpt lat="45.88101" lon="4.7685">
        <ele>212</ele>
        <time>2018-02-20T10:25:44Z</time>
      </trkpt>
      <trkpt lat="45.881" lon="4.76859">
        <ele>212</ele>
        <time>2018-02-20T10:25:45Z</time>
      </trkpt>
      <trkpt lat="45.88098" lon="4.76867">
        <ele>212</ele>
        <time>2018-02-20T10:25:46Z</time>
      </trkpt>
      <trkpt lat="45.88097" lon="4.76873">
        <ele>212</ele>
        <time>2018-02-20T10:25:47Z</time>
      </trkpt>
      <trkpt lat="45.88096" lon="4.7688">
        <ele>212</ele>
        <time>2018-02-20T10:25:48Z</time>
      </trkpt>
      <trkpt lat="45.88095" lon="4.76886">
        <ele>212</ele>
        <time>2018-02-20T10:25:49Z</time>
      </trkpt>
      <trkpt lat="45.88094" lon="4.76893">
        <ele>212</ele>
        <time>2018-02-20T10:25:50Z</time>
      </trkpt>
      <trkpt lat="45.88092" lon="4.769">
        <ele>212</ele>
        <time>2018-02-20T10:25:51Z</time>
      </trkpt>
      <trkpt lat="45.88093" lon="4.76907">
        <ele>212</ele>
        <time>2018-02-20T10:25:52Z</time>
      </trkpt>
      <trkpt lat="45.88092" lon="4.76914">
        <ele>213</ele>
        <time>2018-02-20T10:25:53Z</time>
      </trkpt>
      <trkpt lat="45.88091" lon="4.7692">
        <ele>213</ele>
        <time>2018-02-20T10:25:54Z</time>
      </trkpt>
      <trkpt lat="45.88089" lon="4.76927">
        <ele>213</ele>
        <time>2018-02-20T10:25:55Z</time>
      </trkpt>
      <trkpt lat="45.88089" lon="4.76933">
        <ele>212</ele>
        <time>2018-02-20T10:25:56Z</time>
      </trkpt>
      <trkpt lat="45.88087" lon="4.76941">
        <ele>212</ele>
        <time>2018-02-20T10:25:57Z</time>
      </trkpt>
      <trkpt lat="45.88086" lon="4.76948">
        <ele>212</ele>
        <time>2018-02-20T10:25:58Z</time>
      </trkpt>
      <trkpt lat="45.88084" lon="4.76955">
        <ele>212</ele>
        <time>2018-02-20T10:25:59Z</time>
      </trkpt>
      <trkpt lat="45.88083" lon="4.76961">
        <ele>213</ele>
        <time>2018-02-20T10:26:00Z</time>
      </trkpt>
      <trkpt lat="45.88081" lon="4.76968">
        <ele>213</ele>
        <time>2018-02-20T10:26:01Z</time>
      </trkpt>
      <trkpt lat="45.8808" lon="4.76974">
        <ele>213</ele>
        <time>2018-02-20T10:26:02Z</time>
      </trkpt>
      <trkpt lat="45.88079" lon="4.76981">
        <ele>213</ele>
        <time>2018-02-20T10:26:03Z</time>
      </trkpt>
      <trkpt lat="45.88077" lon="4.76992">
        <ele>213</ele>
        <time>2018-02-20T10:26:05Z</time>
      </trkpt>
      <trkpt lat="45.88076" lon="4.77">
        <ele>213</ele>
        <time>2018-02-20T10:26:06Z</time>
      </trkpt>
      <trkpt lat="45.88074" lon="4.77006">
        <ele>213</ele>
        <time>2018-02-20T10:26:07Z</time>
      </trkpt>
      <trkpt lat="45.88072" lon="4.77013">
        <ele>213</ele>
        <time>2018-02-20T10:26:08Z</time>
      </trkpt>
      <trkpt lat="45.88071" lon="4.77019">
        <ele>214</ele>
        <time>2018-02-20T10:26:09Z</time>
      </trkpt>
      <trkpt lat="45.88069" lon="4.77026">
        <ele>214</ele>
        <time>2018-02-20T10:26:10Z</time>
      </trkpt>
      <trkpt lat="45.88067" lon="4.77033">
        <ele>214</ele>
        <time>2018-02-20T10:26:11Z</time>
      </trkpt>
      <trkpt lat="45.88065" lon="4.7704">
        <ele>214</ele>
        <time>2018-02-20T10:26:12Z</time>
      </trkpt>
      <trkpt lat="45.88064" lon="4.77047">
        <ele>214</ele>
        <time>2018-02-20T10:26:13Z</time>
      </trkpt>
      <trkpt lat="45.88062" lon="4.77053">
        <ele>214</ele>
        <time>2018-02-20T10:26:14Z</time>
      </trkpt>
      <trkpt lat="45.88059" lon="4.77059">
        <ele>214</ele>
        <time>2018-02-20T10:26:15Z</time>
      </trkpt>
      <trkpt lat="45.88057" lon="4.77065">
        <ele>214</ele>
        <time>2018-02-20T10:26:16Z</time>
      </trkpt>
      <trkpt lat="45.88057" lon="4.77072">
        <ele>214</ele>
        <time>2018-02-20T10:26:17Z</time>
      </trkpt>
      <trkpt lat="45.88056" lon="4.77078">
        <ele>214</ele>
        <time>2018-02-20T10:26:18Z</time>
      </trkpt>
      <trkpt lat="45.88053" lon="4.77084">
        <ele>215</ele>
        <time>2018-02-20T10:26:19Z</time>
      </trkpt>
      <trkpt lat="45.88051" lon="4.7709">
        <ele>215</ele>
        <time>2018-02-20T10:26:20Z</time>
      </trkpt>
      <trkpt lat="45.8805" lon="4.77096">
        <ele>215</ele>
        <time>2018-02-20T10:26:21Z</time>
      </trkpt>
      <trkpt lat="45.88048" lon="4.77102">
        <ele>215</ele>
        <time>2018-02-20T10:26:22Z</time>
      </trkpt>
      <trkpt lat="45.88047" lon="4.77108">
        <ele>215</ele>
        <time>2018-02-20T10:26:23Z</time>
      </trkpt>
      <trkpt lat="45.88045" lon="4.77114">
        <ele>215</ele>
        <time>2018-02-20T10:26:24Z</time>
      </trkpt>
      <trkpt lat="45.88044" lon="4.77126">
        <ele>215</ele>
        <time>2018-02-20T10:26:26Z</time>
      </trkpt>
      <trkpt lat="45.88043" lon="4.77132">
        <ele>215</ele>
        <time>2018-02-20T10:26:27Z</time>
      </trkpt>
      <trkpt lat="45.8804" lon="4.77144">
        <ele>215</ele>
        <time>2018-02-20T10:26:29Z</time>
      </trkpt>
      <trkpt lat="45.8804" lon="4.7715">
        <ele>215</ele>
        <time>2018-02-20T10:26:30Z</time>
      </trkpt>
      <trkpt lat="45.88038" lon="4.77162">
        <ele>215</ele>
        <time>2018-02-20T10:26:32Z</time>
      </trkpt>
      <trkpt lat="45.88037" lon="4.77167">
        <ele>216</ele>
        <time>2018-02-20T10:26:33Z</time>
      </trkpt>
      <trkpt lat="45.88036" lon="4.77179">
        <ele>216</ele>
        <time>2018-02-20T10:26:35Z</time>
      </trkpt>
      <trkpt lat="45.88035" lon="4.77185">
        <ele>216</ele>
        <time>2018-02-20T10:26:36Z</time>
      </trkpt>
      <trkpt lat="45.88035" lon="4.77197">
        <ele>216</ele>
        <time>2018-02-20T10:26:38Z</time>
      </trkpt>
      <trkpt lat="45.88034" lon="4.77203">
        <ele>216</ele>
        <time>2018-02-20T10:26:39Z</time>
      </trkpt>
      <trkpt lat="45.88034" lon="4.77215">
        <ele>216</ele>
        <time>2018-02-20T10:26:41Z</time>
      </trkpt>
      <trkpt lat="45.88034" lon="4.77221">
        <ele>216</ele>
        <time>2018-02-20T10:26:42Z</time>
      </trkpt>
      <trkpt lat="45.88033" lon="4.77232">
        <ele>216</ele>
        <time>2018-02-20T10:26:44Z</time>
      </trkpt>
      <trkpt lat="45.88032" lon="4.77237">
        <ele>216</ele>
        <time>2018-02-20T10:26:45Z</time>
      </trkpt>
      <trkpt lat="45.8803" lon="4.77248">
        <ele>216</ele>
        <time>2018-02-20T10:26:47Z</time>
      </trkpt>
      <trkpt lat="45.88029" lon="4.77254">
        <ele>216</ele>
        <time>2018-02-20T10:26:48Z</time>
      </trkpt>
      <trkpt lat="45.88029" lon="4.77261">
        <ele>216</ele>
        <time>2018-02-20T10:26:49Z</time>
      </trkpt>
      <trkpt lat="45.88028" lon="4.77267">
        <ele>215</ele>
        <time>2018-02-20T10:26:50Z</time>
      </trkpt>
      <trkpt lat="45.88027" lon="4.77274">
        <ele>215</ele>
        <time>2018-02-20T10:26:51Z</time>
      </trkpt>
      <trkpt lat="45.88026" lon="4.77281">
        <ele>215</ele>
        <time>2018-02-20T10:26:52Z</time>
      </trkpt>
      <trkpt lat="45.88025" lon="4.77288">
        <ele>215</ele>
        <time>2018-02-20T10:26:53Z</time>
      </trkpt>
      <trkpt lat="45.88023" lon="4.77295">
        <ele>215</ele>
        <time>2018-02-20T10:26:54Z</time>
      </trkpt>
      <trkpt lat="45.88021" lon="4.77307">
        <ele>215</ele>
        <time>2018-02-20T10:26:56Z</time>
      </trkpt>
      <trkpt lat="45.8802" lon="4.77312">
        <ele>215</ele>
        <time>2018-02-20T10:26:57Z</time>
      </trkpt>
      <trkpt lat="45.88019" lon="4.77324">
        <ele>215</ele>
        <time>2018-02-20T10:26:59Z</time>
      </trkpt>
      <trkpt lat="45.88018" lon="4.7733">
        <ele>215</ele>
        <time>2018-02-20T10:27:00Z</time>
      </trkpt>
      <trkpt lat="45.88017" lon="4.77337">
        <ele>215</ele>
        <time>2018-02-20T10:27:01Z</time>
      </trkpt>
      <trkpt lat="45.88016" lon="4.77343">
        <ele>215</ele>
        <time>2018-02-20T10:27:02Z</time>
      </trkpt>
      <trkpt lat="45.88014" lon="4.77349">
        <ele>215</ele>
        <time>2018-02-20T10:27:03Z</time>
      </trkpt>
      <trkpt lat="45.88013" lon="4.77356">
        <ele>215</ele>
        <time>2018-02-20T10:27:04Z</time>
      </trkpt>
      <trkpt lat="45.88012" lon="4.77362">
        <ele>215</ele>
        <time>2018-02-20T10:27:05Z</time>
      </trkpt>
      <trkpt lat="45.88011" lon="4.77369">
        <ele>215</ele>
        <time>2018-02-20T10:27:06Z</time>
      </trkpt>
      <trkpt lat="45.8801" lon="4.77376">
        <ele>215</ele>
        <time>2018-02-20T10:27:07Z</time>
      </trkpt>
      <trkpt lat="45.88008" lon="4.77383">
        <ele>215</ele>
        <time>2018-02-20T10:27:08Z</time>
      </trkpt>
      <trkpt lat="45.88006" lon="4.77389">
        <ele>215</ele>
        <time>2018-02-20T10:27:09Z</time>
      </trkpt>
      <trkpt lat="45.88006" lon="4.77396">
        <ele>215</ele>
        <time>2018-02-20T10:27:10Z</time>
      </trkpt>
      <trkpt lat="45.88005" lon="4.77403">
        <ele>215</ele>
        <time>2018-02-20T10:27:11Z</time>
      </trkpt>
      <trkpt lat="45.88006" lon="4.77411">
        <ele>215</ele>
        <time>2018-02-20T10:27:12Z</time>
      </trkpt>
      <trkpt lat="45.88005" lon="4.77417">
        <ele>215</ele>
        <time>2018-02-20T10:27:13Z</time>
      </trkpt>
      <trkpt lat="45.88004" lon="4.77424">
        <ele>215</ele>
        <time>2018-02-20T10:27:14Z</time>
      </trkpt>
      <trkpt lat="45.88004" lon="4.77431">
        <ele>215</ele>
        <time>2018-02-20T10:27:15Z</time>
      </trkpt>
      <trkpt lat="45.88004" lon="4.77438">
        <ele>215</ele>
        <time>2018-02-20T10:27:16Z</time>
      </trkpt>
      <trkpt lat="45.88002" lon="4.77446">
        <ele>215</ele>
        <time>2018-02-20T10:27:17Z</time>
      </trkpt>
      <trkpt lat="45.88002" lon="4.77452">
        <ele>215</ele>
        <time>2018-02-20T10:27:18Z</time>
      </trkpt>
      <trkpt lat="45.88001" lon="4.77459">
        <ele>215</ele>
        <time>2018-02-20T10:27:19Z</time>
      </trkpt>
      <trkpt lat="45.88" lon="4.77465">
        <ele>215</ele>
        <time>2018-02-20T10:27:20Z</time>
      </trkpt>
      <trkpt lat="45.87999" lon="4.77472">
        <ele>217</ele>
        <time>2018-02-20T10:27:21Z</time>
      </trkpt>
      <trkpt lat="45.87998" lon="4.77478">
        <ele>217</ele>
        <time>2018-02-20T10:27:22Z</time>
      </trkpt>
      <trkpt lat="45.87997" lon="4.77486">
        <ele>216</ele>
        <time>2018-02-20T10:27:23Z</time>
      </trkpt>
      <trkpt lat="45.87996" lon="4.77492">
        <ele>216</ele>
        <time>2018-02-20T10:27:24Z</time>
      </trkpt>
      <trkpt lat="45.87994" lon="4.775">
        <ele>216</ele>
        <time>2018-02-20T10:27:25Z</time>
      </trkpt>
      <trkpt lat="45.87993" lon="4.77507">
        <ele>216</ele>
        <time>2018-02-20T10:27:26Z</time>
      </trkpt>
      <trkpt lat="45.87993" lon="4.77514">
        <ele>217</ele>
        <time>2018-02-20T10:27:27Z</time>
      </trkpt>
      <trkpt lat="45.87991" lon="4.77522">
        <ele>217</ele>
        <time>2018-02-20T10:27:28Z</time>
      </trkpt>
      <trkpt lat="45.8799" lon="4.77528">
        <ele>217</ele>
        <time>2018-02-20T10:27:29Z</time>
      </trkpt>
      <trkpt lat="45.8799" lon="4.77535">
        <ele>217</ele>
        <time>2018-02-20T10:27:30Z</time>
      </trkpt>
      <trkpt lat="45.87988" lon="4.77547">
        <ele>217</ele>
        <time>2018-02-20T10:27:32Z</time>
      </trkpt>
      <trkpt lat="45.87988" lon="4.77554">
        <ele>217</ele>
        <time>2018-02-20T10:27:33Z</time>
      </trkpt>
      <trkpt lat="45.87988" lon="4.77561">
        <ele>217</ele>
        <time>2018-02-20T10:27:34Z</time>
      </trkpt>
      <trkpt lat="45.87987" lon="4.77568">
        <ele>217</ele>
        <time>2018-02-20T10:27:35Z</time>
      </trkpt>
      <trkpt lat="45.87986" lon="4.77575">
        <ele>217</ele>
        <time>2018-02-20T10:27:36Z</time>
      </trkpt>
      <trkpt lat="45.87984" lon="4.77582">
        <ele>217</ele>
        <time>2018-02-20T10:27:37Z</time>
      </trkpt>
      <trkpt lat="45.87982" lon="4.77589">
        <ele>218</ele>
        <time>2018-02-20T10:27:38Z</time>
      </trkpt>
      <trkpt lat="45.87981" lon="4.77595">
        <ele>218</ele>
        <time>2018-02-20T10:27:39Z</time>
      </trkpt>
      <trkpt lat="45.87978" lon="4.77607">
        <ele>218</ele>
        <time>2018-02-20T10:27:41Z</time>
      </trkpt>
      <trkpt lat="45.87977" lon="4.77612">
        <ele>218</ele>
        <time>2018-02-20T10:27:42Z</time>
      </trkpt>
      <trkpt lat="45.87974" lon="4.77623">
        <ele>218</ele>
        <time>2018-02-20T10:27:44Z</time>
      </trkpt>
      <trkpt lat="45.87973" lon="4.77629">
        <ele>218</ele>
        <time>2018-02-20T10:27:45Z</time>
      </trkpt>
      <trkpt lat="45.87972" lon="4.77634">
        <ele>218</ele>
        <time>2018-02-20T10:27:46Z</time>
      </trkpt>
      <trkpt lat="45.87972" lon="4.77643">
        <ele>218</ele>
        <time>2018-02-20T10:27:47Z</time>
      </trkpt>
      <trkpt lat="45.87971" lon="4.77652">
        <ele>218</ele>
        <time>2018-02-20T10:27:49Z</time>
      </trkpt>
      <trkpt lat="45.87969" lon="4.77656">
        <ele>218</ele>
        <time>2018-02-20T10:27:50Z</time>
      </trkpt>
      <trkpt lat="45.87966" lon="4.77662">
        <ele>218</ele>
        <time>2018-02-20T10:27:51Z</time>
      </trkpt>
      <trkpt lat="45.87962" lon="4.77666">
        <ele>218</ele>
        <time>2018-02-20T10:27:52Z</time>
      </trkpt>
      <trkpt lat="45.87959" lon="4.77676">
        <ele>218</ele>
        <time>2018-02-20T10:27:54Z</time>
      </trkpt>
      <trkpt lat="45.87958" lon="4.77683">
        <ele>218</ele>
        <time>2018-02-20T10:27:55Z</time>
      </trkpt>
      <trkpt lat="45.87957" lon="4.7769">
        <ele>218</ele>
        <time>2018-02-20T10:27:56Z</time>
      </trkpt>
      <trkpt lat="45.87956" lon="4.77698">
        <ele>218</ele>
        <time>2018-02-20T10:27:57Z</time>
      </trkpt>
      <trkpt lat="45.87956" lon="4.77705">
        <ele>218</ele>
        <time>2018-02-20T10:27:58Z</time>
      </trkpt>
      <trkpt lat="45.87955" lon="4.77713">
        <ele>218</ele>
        <time>2018-02-20T10:27:59Z</time>
      </trkpt>
      <trkpt lat="45.87956" lon="4.7772">
        <ele>218</ele>
        <time>2018-02-20T10:28:00Z</time>
      </trkpt>
      <trkpt lat="45.87957" lon="4.77727">
        <ele>218</ele>
        <time>2018-02-20T10:28:01Z</time>
      </trkpt>
      <trkpt lat="45.87957" lon="4.77734">
        <ele>218</ele>
        <time>2018-02-20T10:28:02Z</time>
      </trkpt>
      <trkpt lat="45.87957" lon="4.77741">
        <ele>218</ele>
        <time>2018-02-20T10:28:03Z</time>
      </trkpt>
      <trkpt lat="45.87957" lon="4.77748">
        <ele>218</ele>
        <time>2018-02-20T10:28:04Z</time>
      </trkpt>
      <trkpt lat="45.87957" lon="4.77755">
        <ele>219</ele>
        <time>2018-02-20T10:28:05Z</time>
      </trkpt>
      <trkpt lat="45.87958" lon="4.77762">
        <ele>219</ele>
        <time>2018-02-20T10:28:06Z</time>
      </trkpt>
      <trkpt lat="45.87958" lon="4.77769">
        <ele>219</ele>
        <time>2018-02-20T10:28:07Z</time>
      </trkpt>
      <trkpt lat="45.87959" lon="4.77775">
        <ele>219</ele>
        <time>2018-02-20T10:28:08Z</time>
      </trkpt>
      <trkpt lat="45.87961" lon="4.77782">
        <ele>219</ele>
        <time>2018-02-20T10:28:09Z</time>
      </trkpt>
      <trkpt lat="45.87963" lon="4.77793">
        <ele>219</ele>
        <time>2018-02-20T10:28:11Z</time>
      </trkpt>
      <trkpt lat="45.87964" lon="4.778">
        <ele>219</ele>
        <time>2018-02-20T10:28:12Z</time>
      </trkpt>
      <trkpt lat="45.87966" lon="4.77806">
        <ele>219</ele>
        <time>2018-02-20T10:28:13Z</time>
      </trkpt>
      <trkpt lat="45.87966" lon="4.77812">
        <ele>218</ele>
        <time>2018-02-20T10:28:14Z</time>
      </trkpt>
      <trkpt lat="45.87968" lon="4.77825">
        <ele>218</ele>
        <time>2018-02-20T10:28:16Z</time>
      </trkpt>
      <trkpt lat="45.87968" lon="4.77833">
        <ele>218</ele>
        <time>2018-02-20T10:28:17Z</time>
      </trkpt>
      <trkpt lat="45.87968" lon="4.7784">
        <ele>219</ele>
        <time>2018-02-20T10:28:18Z</time>
      </trkpt>
      <trkpt lat="45.87967" lon="4.77846">
        <ele>219</ele>
        <time>2018-02-20T10:28:19Z</time>
      </trkpt>
      <trkpt lat="45.87967" lon="4.77853">
        <ele>219</ele>
        <time>2018-02-20T10:28:20Z</time>
      </trkpt>
      <trkpt lat="45.87967" lon="4.7786">
        <ele>219</ele>
        <time>2018-02-20T10:28:21Z</time>
      </trkpt>
      <trkpt lat="45.87968" lon="4.77867">
        <ele>219</ele>
        <time>2018-02-20T10:28:22Z</time>
      </trkpt>
      <trkpt lat="45.87968" lon="4.77872">
        <ele>219</ele>
        <time>2018-02-20T10:28:23Z</time>
      </trkpt>
      <trkpt lat="45.87969" lon="4.77885">
        <ele>219</ele>
        <time>2018-02-20T10:28:25Z</time>
      </trkpt>
      <trkpt lat="45.87969" lon="4.77892">
        <ele>219</ele>
        <time>2018-02-20T10:28:26Z</time>
      </trkpt>
      <trkpt lat="45.8797" lon="4.77904">
        <ele>219</ele>
        <time>2018-02-20T10:28:28Z</time>
      </trkpt>
      <trkpt lat="45.87971" lon="4.77909">
        <ele>219</ele>
        <time>2018-02-20T10:28:29Z</time>
      </trkpt>
      <trkpt lat="45.87971" lon="4.77919">
        <ele>219</ele>
        <time>2018-02-20T10:28:31Z</time>
      </trkpt>
      <trkpt lat="45.87972" lon="4.77923">
        <ele>219</ele>
        <time>2018-02-20T10:28:32Z</time>
      </trkpt>
      <trkpt lat="45.87974" lon="4.77933">
        <ele>219</ele>
        <time>2018-02-20T10:28:34Z</time>
      </trkpt>
      <trkpt lat="45.87978" lon="4.77934">
        <ele>219</ele>
        <time>2018-02-20T10:28:35Z</time>
      </trkpt>
      <trkpt lat="45.87983" lon="4.77944">
        <ele>219</ele>
        <time>2018-02-20T10:28:37Z</time>
      </trkpt>
      <trkpt lat="45.87986" lon="4.7795">
        <ele>219</ele>
        <time>2018-02-20T10:28:38Z</time>
      </trkpt>
      <trkpt lat="45.87986" lon="4.77959">
        <ele>219</ele>
        <time>2018-02-20T10:28:39Z</time>
      </trkpt>
      <trkpt lat="45.87988" lon="4.77965">
        <ele>219</ele>
        <time>2018-02-20T10:28:40Z</time>
      </trkpt>
      <trkpt lat="45.87988" lon="4.77974">
        <ele>219</ele>
        <time>2018-02-20T10:28:41Z</time>
      </trkpt>
      <trkpt lat="45.87989" lon="4.77982">
        <ele>219</ele>
        <time>2018-02-20T10:28:42Z</time>
      </trkpt>
      <trkpt lat="45.8799" lon="4.7799">
        <ele>218</ele>
        <time>2018-02-20T10:28:43Z</time>
      </trkpt>
      <trkpt lat="45.87991" lon="4.77998">
        <ele>218</ele>
        <time>2018-02-20T10:28:44Z</time>
      </trkpt>
      <trkpt lat="45.87993" lon="4.78006">
        <ele>217</ele>
        <time>2018-02-20T10:28:45Z</time>
      </trkpt>
      <trkpt lat="45.87993" lon="4.78015">
        <ele>217</ele>
        <time>2018-02-20T10:28:46Z</time>
      </trkpt>
      <trkpt lat="45.87994" lon="4.78022">
        <ele>217</ele>
        <time>2018-02-20T10:28:47Z</time>
      </trkpt>
      <trkpt lat="45.87995" lon="4.78029">
        <ele>217</ele>
        <time>2018-02-20T10:28:48Z</time>
      </trkpt>
      <trkpt lat="45.87996" lon="4.78037">
        <ele>217</ele>
        <time>2018-02-20T10:28:49Z</time>
      </trkpt>
      <trkpt lat="45.87998" lon="4.78045">
        <ele>217</ele>
        <time>2018-02-20T10:28:50Z</time>
      </trkpt>
      <trkpt lat="45.88" lon="4.78053">
        <ele>217</ele>
        <time>2018-02-20T10:28:51Z</time>
      </trkpt>
      <trkpt lat="45.88" lon="4.78062">
        <ele>217</ele>
        <time>2018-02-20T10:28:52Z</time>
      </trkpt>
      <trkpt lat="45.88001" lon="4.78069">
        <ele>215</ele>
        <time>2018-02-20T10:28:53Z</time>
      </trkpt>
      <trkpt lat="45.88002" lon="4.78076">
        <ele>215</ele>
        <time>2018-02-20T10:28:54Z</time>
      </trkpt>
      <trkpt lat="45.88004" lon="4.78083">
        <ele>215</ele>
        <time>2018-02-20T10:28:55Z</time>
      </trkpt>
      <trkpt lat="45.88005" lon="4.78091">
        <ele>215</ele>
        <time>2018-02-20T10:28:56Z</time>
      </trkpt>
      <trkpt lat="45.88002" lon="4.78097">
        <ele>214</ele>
        <time>2018-02-20T10:28:57Z</time>
      </trkpt>
      <trkpt lat="45.88004" lon="4.78106">
        <ele>214</ele>
        <time>2018-02-20T10:28:58Z</time>
      </trkpt>
      <trkpt lat="45.88005" lon="4.78113">
        <ele>214</ele>
        <time>2018-02-20T10:28:59Z</time>
      </trkpt>
      <trkpt lat="45.88005" lon="4.78121">
        <ele>214</ele>
        <time>2018-02-20T10:29:00Z</time>
      </trkpt>
      <trkpt lat="45.88005" lon="4.78129">
        <ele>214</ele>
        <time>2018-02-20T10:29:01Z</time>
      </trkpt>
      <trkpt lat="45.88006" lon="4.78136">
        <ele>214</ele>
        <time>2018-02-20T10:29:02Z</time>
      </trkpt>
      <trkpt lat="45.88006" lon="4.78144">
        <ele>214</ele>
        <time>2018-02-20T10:29:03Z</time>
      </trkpt>
      <trkpt lat="45.88006" lon="4.78153">
        <ele>214</ele>
        <time>2018-02-20T10:29:04Z</time>
      </trkpt>
      <trkpt lat="45.88007" lon="4.7816">
        <ele>215</ele>
        <time>2018-02-20T10:29:05Z</time>
      </trkpt>
      <trkpt lat="45.88008" lon="4.78169">
        <ele>214</ele>
        <time>2018-02-20T10:29:06Z</time>
      </trkpt>
      <trkpt lat="45.88008" lon="4.78178">
        <ele>214</ele>
        <time>2018-02-20T10:29:07Z</time>
      </trkpt>
      <trkpt lat="45.88009" lon="4.78185">
        <ele>214</ele>
        <time>2018-02-20T10:29:08Z</time>
      </trkpt>
      <trkpt lat="45.88009" lon="4.78193">
        <ele>214</ele>
        <time>2018-02-20T10:29:09Z</time>
      </trkpt>
      <trkpt lat="45.88008" lon="4.78201">
        <ele>214</ele>
        <time>2018-02-20T10:29:10Z</time>
      </trkpt>
      <trkpt lat="45.88007" lon="4.7821">
        <ele>214</ele>
        <time>2018-02-20T10:29:11Z</time>
      </trkpt>
      <trkpt lat="45.88003" lon="4.78218">
        <ele>214</ele>
        <time>2018-02-20T10:29:12Z</time>
      </trkpt>
      <trkpt lat="45.88003" lon="4.78226">
        <ele>214</ele>
        <time>2018-02-20T10:29:13Z</time>
      </trkpt>
      <trkpt lat="45.88002" lon="4.78233">
        <ele>214</ele>
        <time>2018-02-20T10:29:14Z</time>
      </trkpt>
      <trkpt lat="45.88003" lon="4.78241">
        <ele>214</ele>
        <time>2018-02-20T10:29:15Z</time>
      </trkpt>
      <trkpt lat="45.88003" lon="4.78248">
        <ele>214</ele>
        <time>2018-02-20T10:29:16Z</time>
      </trkpt>
      <trkpt lat="45.88002" lon="4.78255">
        <ele>214</ele>
        <time>2018-02-20T10:29:17Z</time>
      </trkpt>
      <trkpt lat="45.88001" lon="4.78263">
        <ele>213</ele>
        <time>2018-02-20T10:29:18Z</time>
      </trkpt>
      <trkpt lat="45.88" lon="4.7827">
        <ele>215</ele>
        <time>2018-02-20T10:29:19Z</time>
      </trkpt>
      <trkpt lat="45.87999" lon="4.78277">
        <ele>215</ele>
        <time>2018-02-20T10:29:20Z</time>
      </trkpt>
      <trkpt lat="45.87998" lon="4.78284">
        <ele>215</ele>
        <time>2018-02-20T10:29:21Z</time>
      </trkpt>
      <trkpt lat="45.87997" lon="4.78293">
        <ele>215</ele>
        <time>2018-02-20T10:29:22Z</time>
      </trkpt>
      <trkpt lat="45.87996" lon="4.783">
        <ele>215</ele>
        <time>2018-02-20T10:29:23Z</time>
      </trkpt>
      <trkpt lat="45.87995" lon="4.78308">
        <ele>215</ele>
        <time>2018-02-20T10:29:24Z</time>
      </trkpt>
      <trkpt lat="45.87994" lon="4.78314">
        <ele>215</ele>
        <time>2018-02-20T10:29:25Z</time>
      </trkpt>
      <trkpt lat="45.87992" lon="4.78321">
        <ele>215</ele>
        <time>2018-02-20T10:29:26Z</time>
      </trkpt>
      <trkpt lat="45.87991" lon="4.78329">
        <ele>215</ele>
        <time>2018-02-20T10:29:27Z</time>
      </trkpt>
      <trkpt lat="45.8799" lon="4.78336">
        <ele>214</ele>
        <time>2018-02-20T10:29:28Z</time>
      </trkpt>
      <trkpt lat="45.87989" lon="4.78343">
        <ele>215</ele>
        <time>2018-02-20T10:29:29Z</time>
      </trkpt>
      <trkpt lat="45.87988" lon="4.7835">
        <ele>215</ele>
        <time>2018-02-20T10:29:30Z</time>
      </trkpt>
      <trkpt lat="45.87988" lon="4.78357">
        <ele>215</ele>
        <time>2018-02-20T10:29:31Z</time>
      </trkpt>
      <trkpt lat="45.87988" lon="4.78364">
        <ele>215</ele>
        <time>2018-02-20T10:29:32Z</time>
      </trkpt>
      <trkpt lat="45.87988" lon="4.78371">
        <ele>215</ele>
        <time>2018-02-20T10:29:33Z</time>
      </trkpt>
      <trkpt lat="45.87989" lon="4.78378">
        <ele>215</ele>
        <time>2018-02-20T10:29:34Z</time>
      </trkpt>
      <trkpt lat="45.8799" lon="4.78385">
        <ele>215</ele>
        <time>2018-02-20T10:29:35Z</time>
      </trkpt>
      <trkpt lat="45.8799" lon="4.78392">
        <ele>214</ele>
        <time>2018-02-20T10:29:36Z</time>
      </trkpt>
      <trkpt lat="45.8799" lon="4.78405">
        <ele>214</ele>
        <time>2018-02-20T10:29:38Z</time>
      </trkpt>
      <trkpt lat="45.87988" lon="4.78409">
        <ele>214</ele>
        <time>2018-02-20T10:29:39Z</time>
      </trkpt>
      <trkpt lat="45.87981" lon="4.78415">
        <ele>214</ele>
        <time>2018-02-20T10:29:42Z</time>
      </trkpt>
      <trkpt lat="45.87979" lon="4.78415">
        <ele>214</ele>
        <time>2018-02-20T10:29:43Z</time>
      </trkpt>
      <trkpt lat="45.87972" lon="4.78416">
        <ele>215</ele>
        <time>2018-02-20T10:29:45Z</time>
      </trkpt>
      <trkpt lat="45.87969" lon="4.78417">
        <ele>215</ele>
        <time>2018-02-20T10:29:46Z</time>
      </trkpt>
      <trkpt lat="45.87962" lon="4.78418">
        <ele>215</ele>
        <time>2018-02-20T10:29:48Z</time>
      </trkpt>
      <trkpt lat="45.87959" lon="4.78419">
        <ele>215</ele>
        <time>2018-02-20T10:29:49Z</time>
      </trkpt>
      <trkpt lat="45.87953" lon="4.78421">
        <ele>216</ele>
        <time>2018-02-20T10:29:51Z</time>
      </trkpt>
      <trkpt lat="45.8795" lon="4.78422">
        <ele>216</ele>
        <time>2018-02-20T10:29:52Z</time>
      </trkpt>
      <trkpt lat="45.87944" lon="4.78423">
        <ele>216</ele>
        <time>2018-02-20T10:29:54Z</time>
      </trkpt>
      <trkpt lat="45.87941" lon="4.78424">
        <ele>216</ele>
        <time>2018-02-20T10:29:55Z</time>
      </trkpt>
      <trkpt lat="45.87935" lon="4.78425">
        <ele>216</ele>
        <time>2018-02-20T10:29:57Z</time>
      </trkpt>
      <trkpt lat="45.87932" lon="4.78426">
        <ele>216</ele>
        <time>2018-02-20T10:29:58Z</time>
      </trkpt>
      <trkpt lat="45.87926" lon="4.78428">
        <ele>216</ele>
        <time>2018-02-20T10:30:00Z</time>
      </trkpt>
      <trkpt lat="45.87923" lon="4.78429">
        <ele>217</ele>
        <time>2018-02-20T10:30:01Z</time>
      </trkpt>
      <trkpt lat="45.87915" lon="4.7843">
        <ele>219</ele>
        <time>2018-02-20T10:30:04Z</time>
      </trkpt>
      <trkpt lat="45.87913" lon="4.78431">
        <ele>219</ele>
        <time>2018-02-20T10:30:05Z</time>
      </trkpt>
      <trkpt lat="45.87905" lon="4.78433">
        <ele>219</ele>
        <time>2018-02-20T10:30:08Z</time>
      </trkpt>
      <trkpt lat="45.87902" lon="4.78434">
        <ele>219</ele>
        <time>2018-02-20T10:30:09Z</time>
      </trkpt>
      <trkpt lat="45.87896" lon="4.78435">
        <ele>220</ele>
        <time>2018-02-20T10:30:11Z</time>
      </trkpt>
      <trkpt lat="45.87893" lon="4.78436">
        <ele>220</ele>
        <time>2018-02-20T10:30:12Z</time>
      </trkpt>
      <trkpt lat="45.87886" lon="4.78439">
        <ele>220</ele>
        <time>2018-02-20T10:30:14Z</time>
      </trkpt>
      <trkpt lat="45.87883" lon="4.7844">
        <ele>221</ele>
        <time>2018-02-20T10:30:15Z</time>
      </trkpt>
      <trkpt lat="45.87875" lon="4.78443">
        <ele>221</ele>
        <time>2018-02-20T10:30:18Z</time>
      </trkpt>
      <trkpt lat="45.87872" lon="4.78444">
        <ele>221</ele>
        <time>2018-02-20T10:30:19Z</time>
      </trkpt>
      <trkpt lat="45.87863" lon="4.78446">
        <ele>222</ele>
        <time>2018-02-20T10:30:22Z</time>
      </trkpt>
      <trkpt lat="45.87861" lon="4.78447">
        <ele>222</ele>
        <time>2018-02-20T10:30:23Z</time>
      </trkpt>
      <trkpt lat="45.87856" lon="4.78451">
        <ele>222</ele>
        <time>2018-02-20T10:30:25Z</time>
      </trkpt>
      <trkpt lat="45.87853" lon="4.78452">
        <ele>222</ele>
        <time>2018-02-20T10:30:26Z</time>
      </trkpt>
      <trkpt lat="45.87844" lon="4.78454">
        <ele>222</ele>
        <time>2018-02-20T10:30:29Z</time>
      </trkpt>
      <trkpt lat="45.87841" lon="4.78455">
        <ele>222</ele>
        <time>2018-02-20T10:30:30Z</time>
      </trkpt>
      <trkpt lat="45.87833" lon="4.78455">
        <ele>225</ele>
        <time>2018-02-20T10:30:32Z</time>
      </trkpt>
      <trkpt lat="45.87829" lon="4.78455">
        <ele>225</ele>
        <time>2018-02-20T10:30:33Z</time>
      </trkpt>
      <trkpt lat="45.87822" lon="4.78457">
        <ele>225</ele>
        <time>2018-02-20T10:30:36Z</time>
      </trkpt>
      <trkpt lat="45.87819" lon="4.78458">
        <ele>226</ele>
        <time>2018-02-20T10:30:37Z</time>
      </trkpt>
      <trkpt lat="45.87814" lon="4.78464">
        <ele>226</ele>
        <time>2018-02-20T10:30:39Z</time>
      </trkpt>
      <trkpt lat="45.87812" lon="4.78468">
        <ele>226</ele>
        <time>2018-02-20T10:30:40Z</time>
      </trkpt>
      <trkpt lat="45.87811" lon="4.78479">
        <ele>226</ele>
        <time>2018-02-20T10:30:42Z</time>
      </trkpt>
      <trkpt lat="45.87812" lon="4.78485">
        <ele>226</ele>
        <time>2018-02-20T10:30:43Z</time>
      </trkpt>
      <trkpt lat="45.87816" lon="4.78495">
        <ele>226</ele>
        <time>2018-02-20T10:30:45Z</time>
      </trkpt>
      <trkpt lat="45.87817" lon="4.785">
        <ele>227</ele>
        <time>2018-02-20T10:30:46Z</time>
      </trkpt>
      <trkpt lat="45.87819" lon="4.78508">
        <ele>227</ele>
        <time>2018-02-20T10:30:48Z</time>
      </trkpt>
      <trkpt lat="45.8782" lon="4.78513">
        <ele>227</ele>
        <time>2018-02-20T10:30:49Z</time>
      </trkpt>
      <trkpt lat="45.87823" lon="4.78523">
        <ele>228</ele>
        <time>2018-02-20T10:30:51Z</time>
      </trkpt>
      <trkpt lat="45.87824" lon="4.78528">
        <ele>228</ele>
        <time>2018-02-20T10:30:52Z</time>
      </trkpt>
      <trkpt lat="45.87827" lon="4.78538">
        <ele>228</ele>
        <time>2018-02-20T10:30:54Z</time>
      </trkpt>
      <trkpt lat="45.87827" lon="4.78542">
        <ele>228</ele>
        <time>2018-02-20T10:30:55Z</time>
      </trkpt>
      <trkpt lat="45.87829" lon="4.78552">
        <ele>228</ele>
        <time>2018-02-20T10:30:57Z</time>
      </trkpt>
      <trkpt lat="45.8783" lon="4.78558">
        <ele>228</ele>
        <time>2018-02-20T10:30:58Z</time>
      </trkpt>
      <trkpt lat="45.87832" lon="4.78567">
        <ele>228</ele>
        <time>2018-02-20T10:31:00Z</time>
      </trkpt>
      <trkpt lat="45.87832" lon="4.78572">
        <ele>228</ele>
        <time>2018-02-20T10:31:01Z</time>
      </trkpt>
      <trkpt lat="45.87834" lon="4.78583">
        <ele>228</ele>
        <time>2018-02-20T10:31:03Z</time>
      </trkpt>
      <trkpt lat="45.87834" lon="4.78589">
        <ele>227</ele>
        <time>2018-02-20T10:31:04Z</time>
      </trkpt>
      <trkpt lat="45.87835" lon="4.78597">
        <ele>227</ele>
        <time>2018-02-20T10:31:06Z</time>
      </trkpt>
      <trkpt lat="45.87835" lon="4.78602">
        <ele>226</ele>
        <time>2018-02-20T10:31:07Z</time>
      </trkpt>
      <trkpt lat="45.87837" lon="4.78613">
        <ele>226</ele>
        <time>2018-02-20T10:31:09Z</time>
      </trkpt>
      <trkpt lat="45.87839" lon="4.78619">
        <ele>226</ele>
        <time>2018-02-20T10:31:10Z</time>
      </trkpt>
      <trkpt lat="45.87841" lon="4.7863">
        <ele>226</ele>
        <time>2018-02-20T10:31:12Z</time>
      </trkpt>
      <trkpt lat="45.87842" lon="4.78636">
        <ele>226</ele>
        <time>2018-02-20T10:31:13Z</time>
      </trkpt>
      <trkpt lat="45.87843" lon="4.78648">
        <ele>226</ele>
        <time>2018-02-20T10:31:15Z</time>
      </trkpt>
      <trkpt lat="45.87844" lon="4.78654">
        <ele>226</ele>
        <time>2018-02-20T10:31:16Z</time>
      </trkpt>
      <trkpt lat="45.87845" lon="4.78665">
        <ele>227</ele>
        <time>2018-02-20T10:31:18Z</time>
      </trkpt>
      <trkpt lat="45.87845" lon="4.78671">
        <ele>227</ele>
        <time>2018-02-20T10:31:19Z</time>
      </trkpt>
      <trkpt lat="45.87846" lon="4.78683">
        <ele>226</ele>
        <time>2018-02-20T10:31:21Z</time>
      </trkpt>
      <trkpt lat="45.87846" lon="4.78688">
        <ele>226</ele>
        <time>2018-02-20T10:31:22Z</time>
      </trkpt>
      <trkpt lat="45.87847" lon="4.787">
        <ele>226</ele>
        <time>2018-02-20T10:31:24Z</time>
      </trkpt>
      <trkpt lat="45.87847" lon="4.78706">
        <ele>226</ele>
        <time>2018-02-20T10:31:25Z</time>
      </trkpt>
      <trkpt lat="45.87848" lon="4.78718">
        <ele>226</ele>
        <time>2018-02-20T10:31:27Z</time>
      </trkpt>
      <trkpt lat="45.87849" lon="4.78724">
        <ele>226</ele>
        <time>2018-02-20T10:31:28Z</time>
      </trkpt>
      <trkpt lat="45.87849" lon="4.78736">
        <ele>226</ele>
        <time>2018-02-20T10:31:30Z</time>
      </trkpt>
      <trkpt lat="45.8785" lon="4.78742">
        <ele>226</ele>
        <time>2018-02-20T10:31:31Z</time>
      </trkpt>
      <trkpt lat="45.8785" lon="4.78754">
        <ele>226</ele>
        <time>2018-02-20T10:31:33Z</time>
      </trkpt>
      <trkpt lat="45.8785" lon="4.7876">
        <ele>226</ele>
        <time>2018-02-20T10:31:34Z</time>
      </trkpt>
      <trkpt lat="45.8785" lon="4.78772">
        <ele>226</ele>
        <time>2018-02-20T10:31:36Z</time>
      </trkpt>
      <trkpt lat="45.8785" lon="4.78778">
        <ele>226</ele>
        <time>2018-02-20T10:31:37Z</time>
      </trkpt>
      <trkpt lat="45.8785" lon="4.7879">
        <ele>226</ele>
        <time>2018-02-20T10:31:39Z</time>
      </trkpt>
      <trkpt lat="45.8785" lon="4.78796">
        <ele>226</ele>
        <time>2018-02-20T10:31:40Z</time>
      </trkpt>
      <trkpt lat="45.8785" lon="4.78808">
        <ele>226</ele>
        <time>2018-02-20T10:31:42Z</time>
      </trkpt>
      <trkpt lat="45.87849" lon="4.78814">
        <ele>227</ele>
        <time>2018-02-20T10:31:43Z</time>
      </trkpt>
      <trkpt lat="45.87848" lon="4.78826">
        <ele>227</ele>
        <time>2018-02-20T10:31:45Z</time>
      </trkpt>
      <trkpt lat="45.87847" lon="4.78832">
        <ele>227</ele>
        <time>2018-02-20T10:31:46Z</time>
      </trkpt>
      <trkpt lat="45.87846" lon="4.78844">
        <ele>227</ele>
        <time>2018-02-20T10:31:48Z</time>
      </trkpt>
      <trkpt lat="45.87846" lon="4.7885">
        <ele>226</ele>
        <time>2018-02-20T10:31:49Z</time>
      </trkpt>
      <trkpt lat="45.87845" lon="4.78861">
        <ele>226</ele>
        <time>2018-02-20T10:31:51Z</time>
      </trkpt>
      <trkpt lat="45.87845" lon="4.78867">
        <ele>226</ele>
        <time>2018-02-20T10:31:52Z</time>
      </trkpt>
      <trkpt lat="45.87844" lon="4.78879">
        <ele>225</ele>
        <time>2018-02-20T10:31:54Z</time>
      </trkpt>
      <trkpt lat="45.87843" lon="4.78885">
        <ele>225</ele>
        <time>2018-02-20T10:31:55Z</time>
      </trkpt>
      <trkpt lat="45.87841" lon="4.78897">
        <ele>226</ele>
        <time>2018-02-20T10:31:57Z</time>
      </trkpt>
      <trkpt lat="45.87841" lon="4.78902">
        <ele>226</ele>
        <time>2018-02-20T10:31:58Z</time>
      </trkpt>
      <trkpt lat="45.8784" lon="4.78913">
        <ele>226</ele>
        <time>2018-02-20T10:32:00Z</time>
      </trkpt>
      <trkpt lat="45.87839" lon="4.78919">
        <ele>226</ele>
        <time>2018-02-20T10:32:01Z</time>
      </trkpt>
      <trkpt lat="45.87838" lon="4.78931">
        <ele>226</ele>
        <time>2018-02-20T10:32:03Z</time>
      </trkpt>
      <trkpt lat="45.87837" lon="4.78937">
        <ele>226</ele>
        <time>2018-02-20T10:32:04Z</time>
      </trkpt>
      <trkpt lat="45.87837" lon="4.78949">
        <ele>225</ele>
        <time>2018-02-20T10:32:06Z</time>
      </trkpt>
      <trkpt lat="45.87836" lon="4.78954">
        <ele>225</ele>
        <time>2018-02-20T10:32:07Z</time>
      </trkpt>
      <trkpt lat="45.87836" lon="4.78966">
        <ele>226</ele>
        <time>2018-02-20T10:32:09Z</time>
      </trkpt>
      <trkpt lat="45.87836" lon="4.78971">
        <ele>226</ele>
        <time>2018-02-20T10:32:10Z</time>
      </trkpt>
      <trkpt lat="45.87837" lon="4.78982">
        <ele>227</ele>
        <time>2018-02-20T10:32:12Z</time>
      </trkpt>
      <trkpt lat="45.87837" lon="4.78988">
        <ele>227</ele>
        <time>2018-02-20T10:32:13Z</time>
      </trkpt>
      <trkpt lat="45.87838" lon="4.79">
        <ele>228</ele>
        <time>2018-02-20T10:32:15Z</time>
      </trkpt>
      <trkpt lat="45.87838" lon="4.79006">
        <ele>228</ele>
        <time>2018-02-20T10:32:16Z</time>
      </trkpt>
      <trkpt lat="45.87839" lon="4.79018">
        <ele>228</ele>
        <time>2018-02-20T10:32:18Z</time>
      </trkpt>
      <trkpt lat="45.8784" lon="4.79024">
        <ele>228</ele>
        <time>2018-02-20T10:32:19Z</time>
      </trkpt>
      <trkpt lat="45.87842" lon="4.79035">
        <ele>228</ele>
        <time>2018-02-20T10:32:21Z</time>
      </trkpt>
      <trkpt lat="45.87843" lon="4.79041">
        <ele>228</ele>
        <time>2018-02-20T10:32:22Z</time>
      </trkpt>
      <trkpt lat="45.87844" lon="4.79052">
        <ele>228</ele>
        <time>2018-02-20T10:32:24Z</time>
      </trkpt>
      <trkpt lat="45.87845" lon="4.79058">
        <ele>228</ele>
        <time>2018-02-20T10:32:25Z</time>
      </trkpt>
      <trkpt lat="45.87846" lon="4.79069">
        <ele>229</ele>
        <time>2018-02-20T10:32:27Z</time>
      </trkpt>
      <trkpt lat="45.87846" lon="4.79075">
        <ele>229</ele>
        <time>2018-02-20T10:32:28Z</time>
      </trkpt>
      <trkpt lat="45.87847" lon="4.79086">
        <ele>231</ele>
        <time>2018-02-20T10:32:30Z</time>
      </trkpt>
      <trkpt lat="45.87847" lon="4.79092">
        <ele>231</ele>
        <time>2018-02-20T10:32:31Z</time>
      </trkpt>
      <trkpt lat="45.87849" lon="4.79103">
        <ele>230</ele>
        <time>2018-02-20T10:32:33Z</time>
      </trkpt>
      <trkpt lat="45.8785" lon="4.79109">
        <ele>230</ele>
        <time>2018-02-20T10:32:34Z</time>
      </trkpt>
      <trkpt lat="45.87852" lon="4.7912">
        <ele>230</ele>
        <time>2018-02-20T10:32:36Z</time>
      </trkpt>
      <trkpt lat="45.87853" lon="4.79125">
        <ele>230</ele>
        <time>2018-02-20T10:32:37Z</time>
      </trkpt>
      <trkpt lat="45.87855" lon="4.79136">
        <ele>230</ele>
        <time>2018-02-20T10:32:39Z</time>
      </trkpt>
      <trkpt lat="45.87856" lon="4.79141">
        <ele>231</ele>
        <time>2018-02-20T10:32:40Z</time>
      </trkpt>
      <trkpt lat="45.87858" lon="4.79152">
        <ele>231</ele>
        <time>2018-02-20T10:32:42Z</time>
      </trkpt>
      <trkpt lat="45.87859" lon="4.79157">
        <ele>231</ele>
        <time>2018-02-20T10:32:43Z</time>
      </trkpt>
      <trkpt lat="45.8786" lon="4.79167">
        <ele>231</ele>
        <time>2018-02-20T10:32:45Z</time>
      </trkpt>
      <trkpt lat="45.87861" lon="4.79172">
        <ele>233</ele>
        <time>2018-02-20T10:32:46Z</time>
      </trkpt>
      <trkpt lat="45.87862" lon="4.79181">
        <ele>233</ele>
        <time>2018-02-20T10:32:48Z</time>
      </trkpt>
      <trkpt lat="45.87863" lon="4.79187">
        <ele>233</ele>
        <time>2018-02-20T10:32:49Z</time>
      </trkpt>
      <trkpt lat="45.87865" lon="4.79197">
        <ele>233</ele>
        <time>2018-02-20T10:32:51Z</time>
      </trkpt>
      <trkpt lat="45.87866" lon="4.79202">
        <ele>233</ele>
        <time>2018-02-20T10:32:52Z</time>
      </trkpt>
      <trkpt lat="45.87867" lon="4.79212">
        <ele>233</ele>
        <time>2018-02-20T10:32:54Z</time>
      </trkpt>
      <trkpt lat="45.87868" lon="4.79217">
        <ele>233</ele>
        <time>2018-02-20T10:32:55Z</time>
      </trkpt>
      <trkpt lat="45.87871" lon="4.79227">
        <ele>233</ele>
        <time>2018-02-20T10:32:57Z</time>
      </trkpt>
      <trkpt lat="45.87872" lon="4.79232">
        <ele>233</ele>
        <time>2018-02-20T10:32:58Z</time>
      </trkpt>
      <trkpt lat="45.87874" lon="4.79241">
        <ele>233</ele>
        <time>2018-02-20T10:33:00Z</time>
      </trkpt>
      <trkpt lat="45.87875" lon="4.79246">
        <ele>233</ele>
        <time>2018-02-20T10:33:01Z</time>
      </trkpt>
      <trkpt lat="45.87876" lon="4.79255">
        <ele>236</ele>
        <time>2018-02-20T10:33:03Z</time>
      </trkpt>
      <trkpt lat="45.87876" lon="4.7926">
        <ele>236</ele>
        <time>2018-02-20T10:33:04Z</time>
      </trkpt>
      <trkpt lat="45.87877" lon="4.7927">
        <ele>236</ele>
        <time>2018-02-20T10:33:06Z</time>
      </trkpt>
      <trkpt lat="45.87877" lon="4.79275">
        <ele>236</ele>
        <time>2018-02-20T10:33:07Z</time>
      </trkpt>
      <trkpt lat="45.87878" lon="4.79284">
        <ele>237</ele>
        <time>2018-02-20T10:33:09Z</time>
      </trkpt>
      <trkpt lat="45.87879" lon="4.79288">
        <ele>237</ele>
        <time>2018-02-20T10:33:10Z</time>
      </trkpt>
      <trkpt lat="45.8788" lon="4.79296">
        <ele>237</ele>
        <time>2018-02-20T10:33:12Z</time>
      </trkpt>
      <trkpt lat="45.87881" lon="4.793">
        <ele>237</ele>
        <time>2018-02-20T10:33:13Z</time>
      </trkpt>
      <trkpt lat="45.87883" lon="4.7931">
        <ele>237</ele>
        <time>2018-02-20T10:33:15Z</time>
      </trkpt>
      <trkpt lat="45.87884" lon="4.79314">
        <ele>237</ele>
        <time>2018-02-20T10:33:16Z</time>
      </trkpt>
      <trkpt lat="45.87885" lon="4.79323">
        <ele>237</ele>
        <time>2018-02-20T10:33:18Z</time>
      </trkpt>
      <trkpt lat="45.87885" lon="4.79328">
        <ele>237</ele>
        <time>2018-02-20T10:33:19Z</time>
      </trkpt>
      <trkpt lat="45.87886" lon="4.79337">
        <ele>240</ele>
        <time>2018-02-20T10:33:21Z</time>
      </trkpt>
      <trkpt lat="45.87887" lon="4.79341">
        <ele>240</ele>
        <time>2018-02-20T10:33:22Z</time>
      </trkpt>
      <trkpt lat="45.87888" lon="4.79351">
        <ele>240</ele>
        <time>2018-02-20T10:33:24Z</time>
      </trkpt>
      <trkpt lat="45.87889" lon="4.79355">
        <ele>240</ele>
        <time>2018-02-20T10:33:25Z</time>
      </trkpt>
      <trkpt lat="45.8789" lon="4.79365">
        <ele>241</ele>
        <time>2018-02-20T10:33:27Z</time>
      </trkpt>
      <trkpt lat="45.87891" lon="4.79369">
        <ele>241</ele>
        <time>2018-02-20T10:33:28Z</time>
      </trkpt>
      <trkpt lat="45.87893" lon="4.79377">
        <ele>241</ele>
        <time>2018-02-20T10:33:30Z</time>
      </trkpt>
      <trkpt lat="45.87894" lon="4.79381">
        <ele>241</ele>
        <time>2018-02-20T10:33:31Z</time>
      </trkpt>
      <trkpt lat="45.87895" lon="4.79391">
        <ele>241</ele>
        <time>2018-02-20T10:33:33Z</time>
      </trkpt>
      <trkpt lat="45.87896" lon="4.79395">
        <ele>241</ele>
        <time>2018-02-20T10:33:34Z</time>
      </trkpt>
      <trkpt lat="45.87897" lon="4.79404">
        <ele>241</ele>
        <time>2018-02-20T10:33:36Z</time>
      </trkpt>
      <trkpt lat="45.87898" lon="4.79409">
        <ele>241</ele>
        <time>2018-02-20T10:33:37Z</time>
      </trkpt>
      <trkpt lat="45.879" lon="4.79417">
        <ele>243</ele>
        <time>2018-02-20T10:33:39Z</time>
      </trkpt>
      <trkpt lat="45.87901" lon="4.79422">
        <ele>243</ele>
        <time>2018-02-20T10:33:40Z</time>
      </trkpt>
      <trkpt lat="45.87902" lon="4.79431">
        <ele>244</ele>
        <time>2018-02-20T10:33:42Z</time>
      </trkpt>
      <trkpt lat="45.87902" lon="4.79436">
        <ele>244</ele>
        <time>2018-02-20T10:33:43Z</time>
      </trkpt>
      <trkpt lat="45.87904" lon="4.79445">
        <ele>245</ele>
        <time>2018-02-20T10:33:45Z</time>
      </trkpt>
      <trkpt lat="45.87904" lon="4.79449">
        <ele>245</ele>
        <time>2018-02-20T10:33:46Z</time>
      </trkpt>
      <trkpt lat="45.87905" lon="4.79458">
        <ele>246</ele>
        <time>2018-02-20T10:33:48Z</time>
      </trkpt>
      <trkpt lat="45.87906" lon="4.79463">
        <ele>246</ele>
        <time>2018-02-20T10:33:49Z</time>
      </trkpt>
      <trkpt lat="45.87908" lon="4.79471">
        <ele>246</ele>
        <time>2018-02-20T10:33:51Z</time>
      </trkpt>
      <trkpt lat="45.8791" lon="4.79476">
        <ele>246</ele>
        <time>2018-02-20T10:33:52Z</time>
      </trkpt>
      <trkpt lat="45.87912" lon="4.79485">
        <ele>246</ele>
        <time>2018-02-20T10:33:54Z</time>
      </trkpt>
      <trkpt lat="45.87913" lon="4.7949">
        <ele>246</ele>
        <time>2018-02-20T10:33:55Z</time>
      </trkpt>
      <trkpt lat="45.87915" lon="4.79501">
        <ele>245</ele>
        <time>2018-02-20T10:33:57Z</time>
      </trkpt>
      <trkpt lat="45.87917" lon="4.79506">
        <ele>244</ele>
        <time>2018-02-20T10:33:58Z</time>
      </trkpt>
      <trkpt lat="45.87919" lon="4.79516">
        <ele>242</ele>
        <time>2018-02-20T10:34:00Z</time>
      </trkpt>
      <trkpt lat="45.87921" lon="4.79521">
        <ele>242</ele>
        <time>2018-02-20T10:34:01Z</time>
      </trkpt>
      <trkpt lat="45.87922" lon="4.79527">
        <ele>241</ele>
        <time>2018-02-20T10:34:02Z</time>
      </trkpt>
      <trkpt lat="45.87924" lon="4.79533">
        <ele>241</ele>
        <time>2018-02-20T10:34:03Z</time>
      </trkpt>
      <trkpt lat="45.87929" lon="4.7954">
        <ele>241</ele>
        <time>2018-02-20T10:34:04Z</time>
      </trkpt>
      <trkpt lat="45.87931" lon="4.79546">
        <ele>241</ele>
        <time>2018-02-20T10:34:05Z</time>
      </trkpt>
      <trkpt lat="45.87934" lon="4.79554">
        <ele>241</ele>
        <time>2018-02-20T10:34:06Z</time>
      </trkpt>
      <trkpt lat="45.87935" lon="4.79559">
        <ele>241</ele>
        <time>2018-02-20T10:34:07Z</time>
      </trkpt>
      <trkpt lat="45.87938" lon="4.79567">
        <ele>241</ele>
        <time>2018-02-20T10:34:08Z</time>
      </trkpt>
      <trkpt lat="45.87942" lon="4.79575">
        <ele>241</ele>
        <time>2018-02-20T10:34:09Z</time>
      </trkpt>
      <trkpt lat="45.87945" lon="4.79586">
        <ele>241</ele>
        <time>2018-02-20T10:34:10Z</time>
      </trkpt>
      <trkpt lat="45.87948" lon="4.79593">
        <ele>241</ele>
        <time>2018-02-20T10:34:11Z</time>
      </trkpt>
      <trkpt lat="45.87951" lon="4.79602">
        <ele>240</ele>
        <time>2018-02-20T10:34:12Z</time>
      </trkpt>
      <trkpt lat="45.87955" lon="4.79611">
        <ele>240</ele>
        <time>2018-02-20T10:34:13Z</time>
      </trkpt>
      <trkpt lat="45.87959" lon="4.79621">
        <ele>240</ele>
        <time>2018-02-20T10:34:14Z</time>
      </trkpt>
      <trkpt lat="45.87964" lon="4.7963">
        <ele>239</ele>
        <time>2018-02-20T10:34:15Z</time>
      </trkpt>
      <trkpt lat="45.87969" lon="4.79638">
        <ele>239</ele>
        <time>2018-02-20T10:34:16Z</time>
      </trkpt>
      <trkpt lat="45.87973" lon="4.79647">
        <ele>239</ele>
        <time>2018-02-20T10:34:17Z</time>
      </trkpt>
      <trkpt lat="45.87978" lon="4.79655">
        <ele>238</ele>
        <time>2018-02-20T10:34:18Z</time>
      </trkpt>
      <trkpt lat="45.87981" lon="4.79665">
        <ele>238</ele>
        <time>2018-02-20T10:34:19Z</time>
      </trkpt>
      <trkpt lat="45.87985" lon="4.79673">
        <ele>239</ele>
        <time>2018-02-20T10:34:20Z</time>
      </trkpt>
      <trkpt lat="45.87989" lon="4.7968">
        <ele>239</ele>
        <time>2018-02-20T10:34:21Z</time>
      </trkpt>
      <trkpt lat="45.87992" lon="4.79688">
        <ele>240</ele>
        <time>2018-02-20T10:34:22Z</time>
      </trkpt>
      <trkpt lat="45.87996" lon="4.79694">
        <ele>240</ele>
        <time>2018-02-20T10:34:23Z</time>
      </trkpt>
      <trkpt lat="45.87998" lon="4.79701">
        <ele>241</ele>
        <time>2018-02-20T10:34:24Z</time>
      </trkpt>
      <trkpt lat="45.88" lon="4.79707">
        <ele>241</ele>
        <time>2018-02-20T10:34:25Z</time>
      </trkpt>
      <trkpt lat="45.88005" lon="4.79717">
        <ele>237</ele>
        <time>2018-02-20T10:34:27Z</time>
      </trkpt>
      <trkpt lat="45.88007" lon="4.79722">
        <ele>237</ele>
        <time>2018-02-20T10:34:28Z</time>
      </trkpt>
      <trkpt lat="45.88012" lon="4.79732">
        <ele>238</ele>
        <time>2018-02-20T10:34:30Z</time>
      </trkpt>
      <trkpt lat="45.88015" lon="4.79736">
        <ele>238</ele>
        <time>2018-02-20T10:34:31Z</time>
      </trkpt>
      <trkpt lat="45.88017" lon="4.79745">
        <ele>238</ele>
        <time>2018-02-20T10:34:33Z</time>
      </trkpt>
      <trkpt lat="45.88018" lon="4.79749">
        <ele>238</ele>
        <time>2018-02-20T10:34:34Z</time>
      </trkpt>
      <trkpt lat="45.8802" lon="4.79758">
        <ele>241</ele>
        <time>2018-02-20T10:34:36Z</time>
      </trkpt>
      <trkpt lat="45.88022" lon="4.79761">
        <ele>241</ele>
        <time>2018-02-20T10:34:37Z</time>
      </trkpt>
      <trkpt lat="45.88025" lon="4.79772">
        <ele>241</ele>
        <time>2018-02-20T10:34:40Z</time>
      </trkpt>
      <trkpt lat="45.88026" lon="4.79776">
        <ele>242</ele>
        <time>2018-02-20T10:34:41Z</time>
      </trkpt>
      <trkpt lat="45.88029" lon="4.79788">
        <ele>242</ele>
        <time>2018-02-20T10:34:44Z</time>
      </trkpt>
      <trkpt lat="45.8803" lon="4.79792">
        <ele>242</ele>
        <time>2018-02-20T10:34:45Z</time>
      </trkpt>
      <trkpt lat="45.88032" lon="4.79804">
        <ele>242</ele>
        <time>2018-02-20T10:34:48Z</time>
      </trkpt>
      <trkpt lat="45.88033" lon="4.79807">
        <ele>243</ele>
        <time>2018-02-20T10:34:49Z</time>
      </trkpt>
      <trkpt lat="45.88034" lon="4.79819">
        <ele>243</ele>
        <time>2018-02-20T10:34:52Z</time>
      </trkpt>
      <trkpt lat="45.88034" lon="4.79823">
        <ele>243</ele>
        <time>2018-02-20T10:34:53Z</time>
      </trkpt>
      <trkpt lat="45.88033" lon="4.79833">
        <ele>243</ele>
        <time>2018-02-20T10:34:56Z</time>
      </trkpt>
      <trkpt lat="45.88033" lon="4.79837">
        <ele>247</ele>
        <time>2018-02-20T10:34:57Z</time>
      </trkpt>
      <trkpt lat="45.88032" lon="4.79848">
        <ele>247</ele>
        <time>2018-02-20T10:35:00Z</time>
      </trkpt>
      <trkpt lat="45.88032" lon="4.79852">
        <ele>247</ele>
        <time>2018-02-20T10:35:01Z</time>
      </trkpt>
      <trkpt lat="45.8803" lon="4.79862">
        <ele>247</ele>
        <time>2018-02-20T10:35:04Z</time>
      </trkpt>
      <trkpt lat="45.88029" lon="4.79866">
        <ele>247</ele>
        <time>2018-02-20T10:35:05Z</time>
      </trkpt>
      <trkpt lat="45.88028" lon="4.79876">
        <ele>247</ele>
        <time>2018-02-20T10:35:08Z</time>
      </trkpt>
      <trkpt lat="45.88028" lon="4.79879">
        <ele>247</ele>
        <time>2018-02-20T10:35:09Z</time>
      </trkpt>
      <trkpt lat="45.88026" lon="4.79891">
        <ele>248</ele>
        <time>2018-02-20T10:35:12Z</time>
      </trkpt>
      <trkpt lat="45.88025" lon="4.79894">
        <ele>248</ele>
        <time>2018-02-20T10:35:13Z</time>
      </trkpt>
      <trkpt lat="45.88022" lon="4.79906">
        <ele>248</ele>
        <time>2018-02-20T10:35:16Z</time>
      </trkpt>
      <trkpt lat="45.88021" lon="4.7991">
        <ele>249</ele>
        <time>2018-02-20T10:35:17Z</time>
      </trkpt>
      <trkpt lat="45.88019" lon="4.79919">
        <ele>250</ele>
        <time>2018-02-20T10:35:19Z</time>
      </trkpt>
      <trkpt lat="45.88018" lon="4.79923">
        <ele>250</ele>
        <time>2018-02-20T10:35:20Z</time>
      </trkpt>
      <trkpt lat="45.88014" lon="4.79934">
        <ele>250</ele>
        <time>2018-02-20T10:35:23Z</time>
      </trkpt>
      <trkpt lat="45.88013" lon="4.79938">
        <ele>250</ele>
        <time>2018-02-20T10:35:24Z</time>
      </trkpt>
      <trkpt lat="45.8801" lon="4.7995">
        <ele>250</ele>
        <time>2018-02-20T10:35:27Z</time>
      </trkpt>
      <trkpt lat="45.88009" lon="4.79954">
        <ele>250</ele>
        <time>2018-02-20T10:35:28Z</time>
      </trkpt>
      <trkpt lat="45.88006" lon="4.79965">
        <ele>250</ele>
        <time>2018-02-20T10:35:31Z</time>
      </trkpt>
      <trkpt lat="45.88006" lon="4.79969">
        <ele>250</ele>
        <time>2018-02-20T10:35:32Z</time>
      </trkpt>
      <trkpt lat="45.88003" lon="4.7998">
        <ele>250</ele>
        <time>2018-02-20T10:35:35Z</time>
      </trkpt>
      <trkpt lat="45.88002" lon="4.79984">
        <ele>250</ele>
        <time>2018-02-20T10:35:36Z</time>
      </trkpt>
      <trkpt lat="45.87999" lon="4.79995">
        <ele>252</ele>
        <time>2018-02-20T10:35:39Z</time>
      </trkpt>
      <trkpt lat="45.87999" lon="4.79999">
        <ele>251</ele>
        <time>2018-02-20T10:35:40Z</time>
      </trkpt>
      <trkpt lat="45.87995" lon="4.8001">
        <ele>253</ele>
        <time>2018-02-20T10:35:43Z</time>
      </trkpt>
      <trkpt lat="45.87994" lon="4.80014">
        <ele>254</ele>
        <time>2018-02-20T10:35:44Z</time>
      </trkpt>
      <trkpt lat="45.8799" lon="4.80022">
        <ele>255</ele>
        <time>2018-02-20T10:35:46Z</time>
      </trkpt>
      <trkpt lat="45.87989" lon="4.80026">
        <ele>255</ele>
        <time>2018-02-20T10:35:47Z</time>
      </trkpt>
      <trkpt lat="45.87983" lon="4.80036">
        <ele>256</ele>
        <time>2018-02-20T10:35:50Z</time>
      </trkpt>
      <trkpt lat="45.87981" lon="4.80038">
        <ele>256</ele>
        <time>2018-02-20T10:35:51Z</time>
      </trkpt>
      <trkpt lat="45.87975" lon="4.80046">
        <ele>256</ele>
        <time>2018-02-20T10:35:54Z</time>
      </trkpt>
      <trkpt lat="45.87972" lon="4.80048">
        <ele>256</ele>
        <time>2018-02-20T10:35:55Z</time>
      </trkpt>
      <trkpt lat="45.87967" lon="4.80056">
        <ele>257</ele>
        <time>2018-02-20T10:35:58Z</time>
      </trkpt>
      <trkpt lat="45.87966" lon="4.80059">
        <ele>257</ele>
        <time>2018-02-20T10:35:59Z</time>
      </trkpt>
      <trkpt lat="45.87961" lon="4.80066">
        <ele>257</ele>
        <time>2018-02-20T10:36:02Z</time>
      </trkpt>
      <trkpt lat="45.8796" lon="4.80068">
        <ele>257</ele>
        <time>2018-02-20T10:36:03Z</time>
      </trkpt>
      <trkpt lat="45.87954" lon="4.80074">
        <ele>258</ele>
        <time>2018-02-20T10:36:06Z</time>
      </trkpt>
      <trkpt lat="45.87952" lon="4.80076">
        <ele>258</ele>
        <time>2018-02-20T10:36:07Z</time>
      </trkpt>
      <trkpt lat="45.87945" lon="4.8008">
        <ele>258</ele>
        <time>2018-02-20T10:36:10Z</time>
      </trkpt>
      <trkpt lat="45.87942" lon="4.80081">
        <ele>259</ele>
        <time>2018-02-20T10:36:11Z</time>
      </trkpt>
      <trkpt lat="45.87936" lon="4.80084">
        <ele>259</ele>
        <time>2018-02-20T10:36:13Z</time>
      </trkpt>
      <trkpt lat="45.87933" lon="4.80086">
        <ele>259</ele>
        <time>2018-02-20T10:36:14Z</time>
      </trkpt>
      <trkpt lat="45.87926" lon="4.8009">
        <ele>260</ele>
        <time>2018-02-20T10:36:16Z</time>
      </trkpt>
      <trkpt lat="45.87923" lon="4.80092">
        <ele>260</ele>
        <time>2018-02-20T10:36:17Z</time>
      </trkpt>
      <trkpt lat="45.87915" lon="4.80096">
        <ele>262</ele>
        <time>2018-02-20T10:36:20Z</time>
      </trkpt>
      <trkpt lat="45.87913" lon="4.80099">
        <ele>262</ele>
        <time>2018-02-20T10:36:21Z</time>
      </trkpt>
      <trkpt lat="45.87908" lon="4.80104">
        <ele>262</ele>
        <time>2018-02-20T10:36:23Z</time>
      </trkpt>
      <trkpt lat="45.87906" lon="4.80108">
        <ele>262</ele>
        <time>2018-02-20T10:36:24Z</time>
      </trkpt>
      <trkpt lat="45.87901" lon="4.80115">
        <ele>262</ele>
        <time>2018-02-20T10:36:26Z</time>
      </trkpt>
      <trkpt lat="45.87899" lon="4.8012">
        <ele>262</ele>
        <time>2018-02-20T10:36:27Z</time>
      </trkpt>
      <trkpt lat="45.87898" lon="4.80126">
        <ele>262</ele>
        <time>2018-02-20T10:36:28Z</time>
      </trkpt>
      <trkpt lat="45.87897" lon="4.80133">
        <ele>262</ele>
        <time>2018-02-20T10:36:29Z</time>
      </trkpt>
      <trkpt lat="45.87896" lon="4.80139">
        <ele>262</ele>
        <time>2018-02-20T10:36:30Z</time>
      </trkpt>
      <trkpt lat="45.87895" lon="4.80147">
        <ele>261</ele>
        <time>2018-02-20T10:36:31Z</time>
      </trkpt>
      <trkpt lat="45.87895" lon="4.80155">
        <ele>261</ele>
        <time>2018-02-20T10:36:32Z</time>
      </trkpt>
      <trkpt lat="45.87895" lon="4.80163">
        <ele>261</ele>
        <time>2018-02-20T10:36:33Z</time>
      </trkpt>
      <trkpt lat="45.87894" lon="4.80173">
        <ele>257</ele>
        <time>2018-02-20T10:36:34Z</time>
      </trkpt>
      <trkpt lat="45.87894" lon="4.80185">
        <ele>257</ele>
        <time>2018-02-20T10:36:35Z</time>
      </trkpt>
      <trkpt lat="45.87893" lon="4.80195">
        <ele>257</ele>
        <time>2018-02-20T10:36:36Z</time>
      </trkpt>
      <trkpt lat="45.87893" lon="4.80206">
        <ele>256</ele>
        <time>2018-02-20T10:36:37Z</time>
      </trkpt>
      <trkpt lat="45.87894" lon="4.80216">
        <ele>256</ele>
        <time>2018-02-20T10:36:38Z</time>
      </trkpt>
      <trkpt lat="45.87893" lon="4.80228">
        <ele>255</ele>
        <time>2018-02-20T10:36:39Z</time>
      </trkpt>
      <trkpt lat="45.87893" lon="4.80241">
        <ele>255</ele>
        <time>2018-02-20T10:36:40Z</time>
      </trkpt>
      <trkpt lat="45.87893" lon="4.80253">
        <ele>252</ele>
        <time>2018-02-20T10:36:41Z</time>
      </trkpt>
      <trkpt lat="45.87893" lon="4.80264">
        <ele>252</ele>
        <time>2018-02-20T10:36:42Z</time>
      </trkpt>
      <trkpt lat="45.87891" lon="4.80276">
        <ele>252</ele>
        <time>2018-02-20T10:36:43Z</time>
      </trkpt>
      <trkpt lat="45.87891" lon="4.80288">
        <ele>252</ele>
        <time>2018-02-20T10:36:44Z</time>
      </trkpt>
      <trkpt lat="45.87889" lon="4.80299">
        <ele>252</ele>
        <time>2018-02-20T10:36:45Z</time>
      </trkpt>
      <trkpt lat="45.87888" lon="4.80311">
        <ele>252</ele>
        <time>2018-02-20T10:36:46Z</time>
      </trkpt>
      <trkpt lat="45.87886" lon="4.80322">
        <ele>252</ele>
        <time>2018-02-20T10:36:47Z</time>
      </trkpt>
      <trkpt lat="45.87887" lon="4.80333">
        <ele>251</ele>
        <time>2018-02-20T10:36:48Z</time>
      </trkpt>
      <trkpt lat="45.87886" lon="4.80344">
        <ele>249</ele>
        <time>2018-02-20T10:36:49Z</time>
      </trkpt>
      <trkpt lat="45.87885" lon="4.80355">
        <ele>249</ele>
        <time>2018-02-20T10:36:50Z</time>
      </trkpt>
      <trkpt lat="45.87885" lon="4.80366">
        <ele>249</ele>
        <time>2018-02-20T10:36:51Z</time>
      </trkpt>
      <trkpt lat="45.87883" lon="4.80378">
        <ele>249</ele>
        <time>2018-02-20T10:36:52Z</time>
      </trkpt>
      <trkpt lat="45.87882" lon="4.80389">
        <ele>248</ele>
        <time>2018-02-20T10:36:53Z</time>
      </trkpt>
      <trkpt lat="45.87881" lon="4.804">
        <ele>248</ele>
        <time>2018-02-20T10:36:54Z</time>
      </trkpt>
      <trkpt lat="45.87881" lon="4.80409">
        <ele>248</ele>
        <time>2018-02-20T10:36:55Z</time>
      </trkpt>
      <trkpt lat="45.87879" lon="4.80416">
        <ele>248</ele>
        <time>2018-02-20T10:36:56Z</time>
      </trkpt>
      <trkpt lat="45.87877" lon="4.80426">
        <ele>247</ele>
        <time>2018-02-20T10:36:57Z</time>
      </trkpt>
      <trkpt lat="45.87877" lon="4.80434">
        <ele>247</ele>
        <time>2018-02-20T10:36:58Z</time>
      </trkpt>
      <trkpt lat="45.87876" lon="4.80442">
        <ele>247</ele>
        <time>2018-02-20T10:36:59Z</time>
      </trkpt>
      <trkpt lat="45.87876" lon="4.8045">
        <ele>248</ele>
        <time>2018-02-20T10:37:00Z</time>
      </trkpt>
      <trkpt lat="45.87876" lon="4.80457">
        <ele>248</ele>
        <time>2018-02-20T10:37:01Z</time>
      </trkpt>
      <trkpt lat="45.87876" lon="4.80465">
        <ele>248</ele>
        <time>2018-02-20T10:37:02Z</time>
      </trkpt>
      <trkpt lat="45.87874" lon="4.80471">
        <ele>248</ele>
        <time>2018-02-20T10:37:03Z</time>
      </trkpt>
      <trkpt lat="45.87874" lon="4.80478">
        <ele>248</ele>
        <time>2018-02-20T10:37:04Z</time>
      </trkpt>
      <trkpt lat="45.87873" lon="4.80484">
        <ele>248</ele>
        <time>2018-02-20T10:37:05Z</time>
      </trkpt>
      <trkpt lat="45.87873" lon="4.80497">
        <ele>248</ele>
        <time>2018-02-20T10:37:07Z</time>
      </trkpt>
      <trkpt lat="45.87873" lon="4.80502">
        <ele>250</ele>
        <time>2018-02-20T10:37:08Z</time>
      </trkpt>
      <trkpt lat="45.8787" lon="4.80511">
        <ele>251</ele>
        <time>2018-02-20T10:37:10Z</time>
      </trkpt>
      <trkpt lat="45.87869" lon="4.80514">
        <ele>251</ele>
        <time>2018-02-20T10:37:11Z</time>
      </trkpt>
      <trkpt lat="45.87867" lon="4.80526">
        <ele>251</ele>
        <time>2018-02-20T10:37:15Z</time>
      </trkpt>
      <trkpt lat="45.87868" lon="4.80529">
        <ele>251</ele>
        <time>2018-02-20T10:37:16Z</time>
      </trkpt>
      <trkpt lat="45.87867" lon="4.8054">
        <ele>251</ele>
        <time>2018-02-20T10:37:19Z</time>
      </trkpt>
      <trkpt lat="45.87867" lon="4.80544">
        <ele>251</ele>
        <time>2018-02-20T10:37:20Z</time>
      </trkpt>
      <trkpt lat="45.87867" lon="4.80556">
        <ele>251</ele>
        <time>2018-02-20T10:37:23Z</time>
      </trkpt>
      <trkpt lat="45.87867" lon="4.80561">
        <ele>251</ele>
        <time>2018-02-20T10:37:24Z</time>
      </trkpt>
      <trkpt lat="45.87866" lon="4.80569">
        <ele>252</ele>
        <time>2018-02-20T10:37:26Z</time>
      </trkpt>
      <trkpt lat="45.87866" lon="4.80574">
        <ele>252</ele>
        <time>2018-02-20T10:37:27Z</time>
      </trkpt>
      <trkpt lat="45.87865" lon="4.80583">
        <ele>252</ele>
        <time>2018-02-20T10:37:29Z</time>
      </trkpt>
      <trkpt lat="45.87865" lon="4.80587">
        <ele>254</ele>
        <time>2018-02-20T10:37:30Z</time>
      </trkpt>
      <trkpt lat="45.87864" lon="4.806">
        <ele>254</ele>
        <time>2018-02-20T10:37:33Z</time>
      </trkpt>
      <trkpt lat="45.87865" lon="4.80604">
        <ele>254</ele>
        <time>2018-02-20T10:37:34Z</time>
      </trkpt>
      <trkpt lat="45.87865" lon="4.80612">
        <ele>255</ele>
        <time>2018-02-20T10:37:36Z</time>
      </trkpt>
      <trkpt lat="45.87865" lon="4.80617">
        <ele>255</ele>
        <time>2018-02-20T10:37:37Z</time>
      </trkpt>
      <trkpt lat="45.87866" lon="4.80629">
        <ele>255</ele>
        <time>2018-02-20T10:37:40Z</time>
      </trkpt>
      <trkpt lat="45.87866" lon="4.80633">
        <ele>255</ele>
        <time>2018-02-20T10:37:41Z</time>
      </trkpt>
      <trkpt lat="45.87865" lon="4.80645">
        <ele>256</ele>
        <time>2018-02-20T10:37:44Z</time>
      </trkpt>
      <trkpt lat="45.87865" lon="4.80648">
        <ele>256</ele>
        <time>2018-02-20T10:37:45Z</time>
      </trkpt>
      <trkpt lat="45.87865" lon="4.8066">
        <ele>256</ele>
        <time>2018-02-20T10:37:48Z</time>
      </trkpt>
      <trkpt lat="45.87865" lon="4.80664">
        <ele>256</ele>
        <time>2018-02-20T10:37:49Z</time>
      </trkpt>
      <trkpt lat="45.87865" lon="4.80672">
        <ele>257</ele>
        <time>2018-02-20T10:37:51Z</time>
      </trkpt>
      <trkpt lat="45.87865" lon="4.80677">
        <ele>257</ele>
        <time>2018-02-20T10:37:52Z</time>
      </trkpt>
      <trkpt lat="45.87865" lon="4.80689">
        <ele>257</ele>
        <time>2018-02-20T10:37:55Z</time>
      </trkpt>
      <trkpt lat="45.87866" lon="4.80693">
        <ele>257</ele>
        <time>2018-02-20T10:37:56Z</time>
      </trkpt>
      <trkpt lat="45.87866" lon="4.80703">
        <ele>257</ele>
        <time>2018-02-20T10:37:58Z</time>
      </trkpt>
      <trkpt lat="45.87866" lon="4.80707">
        <ele>257</ele>
        <time>2018-02-20T10:37:59Z</time>
      </trkpt>
      <trkpt lat="45.87867" lon="4.80719">
        <ele>257</ele>
        <time>2018-02-20T10:38:02Z</time>
      </trkpt>
      <trkpt lat="45.87866" lon="4.80724">
        <ele>257</ele>
        <time>2018-02-20T10:38:03Z</time>
      </trkpt>
      <trkpt lat="45.87865" lon="4.80734">
        <ele>257</ele>
        <time>2018-02-20T10:38:06Z</time>
      </trkpt>
      <trkpt lat="45.87864" lon="4.80737">
        <ele>257</ele>
        <time>2018-02-20T10:38:07Z</time>
      </trkpt>
      <trkpt lat="45.87862" lon="4.80747">
        <ele>257</ele>
        <time>2018-02-20T10:38:09Z</time>
      </trkpt>
      <trkpt lat="45.87861" lon="4.80751">
        <ele>256</ele>
        <time>2018-02-20T10:38:10Z</time>
      </trkpt>
      <trkpt lat="45.87858" lon="4.8076">
        <ele>256</ele>
        <time>2018-02-20T10:38:12Z</time>
      </trkpt>
      <trkpt lat="45.87856" lon="4.80765">
        <ele>256</ele>
        <time>2018-02-20T10:38:13Z</time>
      </trkpt>
      <trkpt lat="45.87852" lon="4.80773">
        <ele>256</ele>
        <time>2018-02-20T10:38:15Z</time>
      </trkpt>
      <trkpt lat="45.8785" lon="4.80777">
        <ele>256</ele>
        <time>2018-02-20T10:38:16Z</time>
      </trkpt>
      <trkpt lat="45.87845" lon="4.80786">
        <ele>255</ele>
        <time>2018-02-20T10:38:18Z</time>
      </trkpt>
      <trkpt lat="45.87842" lon="4.8079">
        <ele>255</ele>
        <time>2018-02-20T10:38:19Z</time>
      </trkpt>
      <trkpt lat="45.87837" lon="4.80799">
        <ele>255</ele>
        <time>2018-02-20T10:38:21Z</time>
      </trkpt>
      <trkpt lat="45.87835" lon="4.80803">
        <ele>255</ele>
        <time>2018-02-20T10:38:22Z</time>
      </trkpt>
      <trkpt lat="45.87832" lon="4.80809">
        <ele>256</ele>
        <time>2018-02-20T10:38:23Z</time>
      </trkpt>
      <trkpt lat="45.87828" lon="4.80814">
        <ele>256</ele>
        <time>2018-02-20T10:38:24Z</time>
      </trkpt>
      <trkpt lat="45.87824" lon="4.80819">
        <ele>256</ele>
        <time>2018-02-20T10:38:25Z</time>
      </trkpt>
      <trkpt lat="45.87821" lon="4.80825">
        <ele>255</ele>
        <time>2018-02-20T10:38:26Z</time>
      </trkpt>
      <trkpt lat="45.87818" lon="4.8083">
        <ele>255</ele>
        <time>2018-02-20T10:38:27Z</time>
      </trkpt>
      <trkpt lat="45.87814" lon="4.80836">
        <ele>254</ele>
        <time>2018-02-20T10:38:28Z</time>
      </trkpt>
      <trkpt lat="45.87809" lon="4.80842">
        <ele>253</ele>
        <time>2018-02-20T10:38:29Z</time>
      </trkpt>
      <trkpt lat="45.87805" lon="4.80849">
        <ele>253</ele>
        <time>2018-02-20T10:38:30Z</time>
      </trkpt>
      <trkpt lat="45.87801" lon="4.80855">
        <ele>253</ele>
        <time>2018-02-20T10:38:31Z</time>
      </trkpt>
      <trkpt lat="45.87797" lon="4.80861">
        <ele>253</ele>
        <time>2018-02-20T10:38:32Z</time>
      </trkpt>
      <trkpt lat="45.87793" lon="4.80868">
        <ele>253</ele>
        <time>2018-02-20T10:38:33Z</time>
      </trkpt>
      <trkpt lat="45.87787" lon="4.80875">
        <ele>253</ele>
        <time>2018-02-20T10:38:34Z</time>
      </trkpt>
      <trkpt lat="45.87783" lon="4.80883">
        <ele>253</ele>
        <time>2018-02-20T10:38:35Z</time>
      </trkpt>
      <trkpt lat="45.87778" lon="4.80891">
        <ele>252</ele>
        <time>2018-02-20T10:38:36Z</time>
      </trkpt>
      <trkpt lat="45.87774" lon="4.80899">
        <ele>252</ele>
        <time>2018-02-20T10:38:37Z</time>
      </trkpt>
      <trkpt lat="45.87769" lon="4.80909">
        <ele>251</ele>
        <time>2018-02-20T10:38:38Z</time>
      </trkpt>
      <trkpt lat="45.87765" lon="4.80919">
        <ele>249</ele>
        <time>2018-02-20T10:38:39Z</time>
      </trkpt>
      <trkpt lat="45.87761" lon="4.80928">
        <ele>249</ele>
        <time>2018-02-20T10:38:40Z</time>
      </trkpt>
      <trkpt lat="45.87758" lon="4.80939">
        <ele>249</ele>
        <time>2018-02-20T10:38:41Z</time>
      </trkpt>
      <trkpt lat="45.87755" lon="4.8095">
        <ele>249</ele>
        <time>2018-02-20T10:38:42Z</time>
      </trkpt>
      <trkpt lat="45.87753" lon="4.80961">
        <ele>249</ele>
        <time>2018-02-20T10:38:43Z</time>
      </trkpt>
      <trkpt lat="45.87753" lon="4.80973">
        <ele>249</ele>
        <time>2018-02-20T10:38:44Z</time>
      </trkpt>
      <trkpt lat="45.87753" lon="4.80984">
        <ele>249</ele>
        <time>2018-02-20T10:38:45Z</time>
      </trkpt>
      <trkpt lat="45.87752" lon="4.80995">
        <ele>249</ele>
        <time>2018-02-20T10:38:46Z</time>
      </trkpt>
      <trkpt lat="45.87751" lon="4.81006">
        <ele>248</ele>
        <time>2018-02-20T10:38:47Z</time>
      </trkpt>
      <trkpt lat="45.87752" lon="4.81016">
        <ele>247</ele>
        <time>2018-02-20T10:38:48Z</time>
      </trkpt>
      <trkpt lat="45.87751" lon="4.81027">
        <ele>246</ele>
        <time>2018-02-20T10:38:49Z</time>
      </trkpt>
      <trkpt lat="45.87751" lon="4.81037">
        <ele>246</ele>
        <time>2018-02-20T10:38:50Z</time>
      </trkpt>
      <trkpt lat="45.8775" lon="4.81047">
        <ele>249</ele>
        <time>2018-02-20T10:38:51Z</time>
      </trkpt>
      <trkpt lat="45.87751" lon="4.81057">
        <ele>246</ele>
        <time>2018-02-20T10:38:52Z</time>
      </trkpt>
      <trkpt lat="45.87749" lon="4.81067">
        <ele>248</ele>
        <time>2018-02-20T10:38:53Z</time>
      </trkpt>
      <trkpt lat="45.87748" lon="4.81078">
        <ele>247</ele>
        <time>2018-02-20T10:38:54Z</time>
      </trkpt>
      <trkpt lat="45.87745" lon="4.81087">
        <ele>246</ele>
        <time>2018-02-20T10:38:55Z</time>
      </trkpt>
      <trkpt lat="45.8774" lon="4.81094">
        <ele>246</ele>
        <time>2018-02-20T10:38:56Z</time>
      </trkpt>
      <trkpt lat="45.87736" lon="4.811">
        <ele>246</ele>
        <time>2018-02-20T10:38:57Z</time>
      </trkpt>
      <trkpt lat="45.87731" lon="4.81107">
        <ele>246</ele>
        <time>2018-02-20T10:38:58Z</time>
      </trkpt>
      <trkpt lat="45.87726" lon="4.81114">
        <ele>246</ele>
        <time>2018-02-20T10:38:59Z</time>
      </trkpt>
      <trkpt lat="45.87722" lon="4.81119">
        <ele>246</ele>
        <time>2018-02-20T10:39:00Z</time>
      </trkpt>
      <trkpt lat="45.87718" lon="4.81124">
        <ele>246</ele>
        <time>2018-02-20T10:39:01Z</time>
      </trkpt>
      <trkpt lat="45.87714" lon="4.81128">
        <ele>246</ele>
        <time>2018-02-20T10:39:02Z</time>
      </trkpt>
      <trkpt lat="45.87708" lon="4.81132">
        <ele>246</ele>
        <time>2018-02-20T10:39:03Z</time>
      </trkpt>
      <trkpt lat="45.87703" lon="4.81138">
        <ele>246</ele>
        <time>2018-02-20T10:39:04Z</time>
      </trkpt>
      <trkpt lat="45.87697" lon="4.81141">
        <ele>246</ele>
        <time>2018-02-20T10:39:05Z</time>
      </trkpt>
      <trkpt lat="45.87692" lon="4.81145">
        <ele>246</ele>
        <time>2018-02-20T10:39:06Z</time>
      </trkpt>
      <trkpt lat="45.87686" lon="4.81149">
        <ele>246</ele>
        <time>2018-02-20T10:39:07Z</time>
      </trkpt>
      <trkpt lat="45.87682" lon="4.81153">
        <ele>246</ele>
        <time>2018-02-20T10:39:08Z</time>
      </trkpt>
      <trkpt lat="45.87677" lon="4.8116">
        <ele>247</ele>
        <time>2018-02-20T10:39:09Z</time>
      </trkpt>
      <trkpt lat="45.87672" lon="4.81163">
        <ele>247</ele>
        <time>2018-02-20T10:39:10Z</time>
      </trkpt>
      <trkpt lat="45.87667" lon="4.81168">
        <ele>247</ele>
        <time>2018-02-20T10:39:11Z</time>
      </trkpt>
      <trkpt lat="45.87662" lon="4.81173">
        <ele>247</ele>
        <time>2018-02-20T10:39:12Z</time>
      </trkpt>
      <trkpt lat="45.87657" lon="4.81177">
        <ele>247</ele>
        <time>2018-02-20T10:39:13Z</time>
      </trkpt>
      <trkpt lat="45.87652" lon="4.81181">
        <ele>247</ele>
        <time>2018-02-20T10:39:14Z</time>
      </trkpt>
      <trkpt lat="45.87647" lon="4.81185">
        <ele>247</ele>
        <time>2018-02-20T10:39:15Z</time>
      </trkpt>
      <trkpt lat="45.87642" lon="4.8119">
        <ele>247</ele>
        <time>2018-02-20T10:39:16Z</time>
      </trkpt>
      <trkpt lat="45.87638" lon="4.81194">
        <ele>247</ele>
        <time>2018-02-20T10:39:17Z</time>
      </trkpt>
      <trkpt lat="45.87632" lon="4.81199">
        <ele>247</ele>
        <time>2018-02-20T10:39:18Z</time>
      </trkpt>
      <trkpt lat="45.87625" lon="4.81205">
        <ele>247</ele>
        <time>2018-02-20T10:39:20Z</time>
      </trkpt>
      <trkpt lat="45.8762" lon="4.81208">
        <ele>247</ele>
        <time>2018-02-20T10:39:21Z</time>
      </trkpt>
      <trkpt lat="45.87615" lon="4.81211">
        <ele>247</ele>
        <time>2018-02-20T10:39:22Z</time>
      </trkpt>
      <trkpt lat="45.87612" lon="4.81214">
        <ele>247</ele>
        <time>2018-02-20T10:39:23Z</time>
      </trkpt>
      <trkpt lat="45.87607" lon="4.81217">
        <ele>247</ele>
        <time>2018-02-20T10:39:24Z</time>
      </trkpt>
      <trkpt lat="45.87602" lon="4.81219">
        <ele>247</ele>
        <time>2018-02-20T10:39:25Z</time>
      </trkpt>
      <trkpt lat="45.87598" lon="4.81223">
        <ele>247</ele>
        <time>2018-02-20T10:39:26Z</time>
      </trkpt>
      <trkpt lat="45.87594" lon="4.81225">
        <ele>247</ele>
        <time>2018-02-20T10:39:27Z</time>
      </trkpt>
      <trkpt lat="45.87586" lon="4.8123">
        <ele>247</ele>
        <time>2018-02-20T10:39:29Z</time>
      </trkpt>
      <trkpt lat="45.87581" lon="4.81231">
        <ele>250</ele>
        <time>2018-02-20T10:39:30Z</time>
      </trkpt>
      <trkpt lat="45.87573" lon="4.81236">
        <ele>250</ele>
        <time>2018-02-20T10:39:32Z</time>
      </trkpt>
      <trkpt lat="45.87569" lon="4.81238">
        <ele>250</ele>
        <time>2018-02-20T10:39:33Z</time>
      </trkpt>
      <trkpt lat="45.87562" lon="4.81238">
        <ele>250</ele>
        <time>2018-02-20T10:39:35Z</time>
      </trkpt>
      <trkpt lat="45.87557" lon="4.81238">
        <ele>251</ele>
        <time>2018-02-20T10:39:36Z</time>
      </trkpt>
      <trkpt lat="45.87552" lon="4.81238">
        <ele>251</ele>
        <time>2018-02-20T10:39:37Z</time>
      </trkpt>
      <trkpt lat="45.87547" lon="4.81238">
        <ele>252</ele>
        <time>2018-02-20T10:39:38Z</time>
      </trkpt>
      <trkpt lat="45.87543" lon="4.81236">
        <ele>252</ele>
        <time>2018-02-20T10:39:39Z</time>
      </trkpt>
      <trkpt lat="45.87537" lon="4.81238">
        <ele>252</ele>
        <time>2018-02-20T10:39:40Z</time>
      </trkpt>
      <trkpt lat="45.87533" lon="4.81239">
        <ele>252</ele>
        <time>2018-02-20T10:39:41Z</time>
      </trkpt>
      <trkpt lat="45.87528" lon="4.81242">
        <ele>252</ele>
        <time>2018-02-20T10:39:42Z</time>
      </trkpt>
      <trkpt lat="45.87521" lon="4.81248">
        <ele>253</ele>
        <time>2018-02-20T10:39:44Z</time>
      </trkpt>
      <trkpt lat="45.87517" lon="4.81253">
        <ele>250</ele>
        <time>2018-02-20T10:39:45Z</time>
      </trkpt>
      <trkpt lat="45.87512" lon="4.81263">
        <ele>250</ele>
        <time>2018-02-20T10:39:47Z</time>
      </trkpt>
      <trkpt lat="45.87511" lon="4.81269">
        <ele>249</ele>
        <time>2018-02-20T10:39:48Z</time>
      </trkpt>
      <trkpt lat="45.87509" lon="4.81276">
        <ele>249</ele>
        <time>2018-02-20T10:39:49Z</time>
      </trkpt>
      <trkpt lat="45.87507" lon="4.81283">
        <ele>248</ele>
        <time>2018-02-20T10:39:50Z</time>
      </trkpt>
      <trkpt lat="45.87505" lon="4.81291">
        <ele>248</ele>
        <time>2018-02-20T10:39:51Z</time>
      </trkpt>
      <trkpt lat="45.87504" lon="4.81298">
        <ele>248</ele>
        <time>2018-02-20T10:39:52Z</time>
      </trkpt>
      <trkpt lat="45.87503" lon="4.81307">
        <ele>247</ele>
        <time>2018-02-20T10:39:53Z</time>
      </trkpt>
      <trkpt lat="45.87502" lon="4.81315">
        <ele>247</ele>
        <time>2018-02-20T10:39:54Z</time>
      </trkpt>
      <trkpt lat="45.87499" lon="4.81325">
        <ele>250</ele>
        <time>2018-02-20T10:39:55Z</time>
      </trkpt>
      <trkpt lat="45.87495" lon="4.81333">
        <ele>249</ele>
        <time>2018-02-20T10:39:56Z</time>
      </trkpt>
      <trkpt lat="45.87492" lon="4.81342">
        <ele>248</ele>
        <time>2018-02-20T10:39:57Z</time>
      </trkpt>
      <trkpt lat="45.87487" lon="4.81352">
        <ele>248</ele>
        <time>2018-02-20T10:39:58Z</time>
      </trkpt>
      <trkpt lat="45.87482" lon="4.81361">
        <ele>248</ele>
        <time>2018-02-20T10:39:59Z</time>
      </trkpt>
      <trkpt lat="45.87477" lon="4.8137">
        <ele>248</ele>
        <time>2018-02-20T10:40:00Z</time>
      </trkpt>
      <trkpt lat="45.87472" lon="4.81379">
        <ele>248</ele>
        <time>2018-02-20T10:40:01Z</time>
      </trkpt>
      <trkpt lat="45.87467" lon="4.81388">
        <ele>247</ele>
        <time>2018-02-20T10:40:02Z</time>
      </trkpt>
      <trkpt lat="45.87462" lon="4.81397">
        <ele>247</ele>
        <time>2018-02-20T10:40:03Z</time>
      </trkpt>
      <trkpt lat="45.87457" lon="4.81407">
        <ele>247</ele>
        <time>2018-02-20T10:40:04Z</time>
      </trkpt>
      <trkpt lat="45.87451" lon="4.81416">
        <ele>247</ele>
        <time>2018-02-20T10:40:05Z</time>
      </trkpt>
      <trkpt lat="45.87446" lon="4.81426">
        <ele>243</ele>
        <time>2018-02-20T10:40:06Z</time>
      </trkpt>
      <trkpt lat="45.8744" lon="4.81435">
        <ele>243</ele>
        <time>2018-02-20T10:40:07Z</time>
      </trkpt>
      <trkpt lat="45.87435" lon="4.81445">
        <ele>243</ele>
        <time>2018-02-20T10:40:08Z</time>
      </trkpt>
      <trkpt lat="45.87429" lon="4.81455">
        <ele>242</ele>
        <time>2018-02-20T10:40:09Z</time>
      </trkpt>
      <trkpt lat="45.87425" lon="4.81465">
        <ele>242</ele>
        <time>2018-02-20T10:40:10Z</time>
      </trkpt>
      <trkpt lat="45.8742" lon="4.81476">
        <ele>242</ele>
        <time>2018-02-20T10:40:11Z</time>
      </trkpt>
      <trkpt lat="45.87416" lon="4.81487">
        <ele>246</ele>
        <time>2018-02-20T10:40:12Z</time>
      </trkpt>
      <trkpt lat="45.87412" lon="4.81497">
        <ele>244</ele>
        <time>2018-02-20T10:40:13Z</time>
      </trkpt>
      <trkpt lat="45.87408" lon="4.81508">
        <ele>243</ele>
        <time>2018-02-20T10:40:14Z</time>
      </trkpt>
      <trkpt lat="45.87403" lon="4.81518">
        <ele>244</ele>
        <time>2018-02-20T10:40:15Z</time>
      </trkpt>
      <trkpt lat="45.87399" lon="4.81528">
        <ele>244</ele>
        <time>2018-02-20T10:40:16Z</time>
      </trkpt>
      <trkpt lat="45.87396" lon="4.81539">
        <ele>244</ele>
        <time>2018-02-20T10:40:17Z</time>
      </trkpt>
      <trkpt lat="45.87392" lon="4.81549">
        <ele>244</ele>
        <time>2018-02-20T10:40:18Z</time>
      </trkpt>
      <trkpt lat="45.87389" lon="4.81561">
        <ele>243</ele>
        <time>2018-02-20T10:40:19Z</time>
      </trkpt>
      <trkpt lat="45.87388" lon="4.81572">
        <ele>243</ele>
        <time>2018-02-20T10:40:20Z</time>
      </trkpt>
      <trkpt lat="45.87386" lon="4.81584">
        <ele>239</ele>
        <time>2018-02-20T10:40:21Z</time>
      </trkpt>
      <trkpt lat="45.87384" lon="4.81597">
        <ele>239</ele>
        <time>2018-02-20T10:40:22Z</time>
      </trkpt>
      <trkpt lat="45.87379" lon="4.81609">
        <ele>239</ele>
        <time>2018-02-20T10:40:23Z</time>
      </trkpt>
      <trkpt lat="45.87375" lon="4.81621">
        <ele>239</ele>
        <time>2018-02-20T10:40:24Z</time>
      </trkpt>
      <trkpt lat="45.87372" lon="4.81632">
        <ele>239</ele>
        <time>2018-02-20T10:40:25Z</time>
      </trkpt>
      <trkpt lat="45.87368" lon="4.81641">
        <ele>239</ele>
        <time>2018-02-20T10:40:26Z</time>
      </trkpt>
      <trkpt lat="45.87364" lon="4.8165">
        <ele>239</ele>
        <time>2018-02-20T10:40:27Z</time>
      </trkpt>
      <trkpt lat="45.8736" lon="4.8166">
        <ele>240</ele>
        <time>2018-02-20T10:40:28Z</time>
      </trkpt>
      <trkpt lat="45.87359" lon="4.81671">
        <ele>237</ele>
        <time>2018-02-20T10:40:29Z</time>
      </trkpt>
      <trkpt lat="45.87356" lon="4.81682">
        <ele>237</ele>
        <time>2018-02-20T10:40:30Z</time>
      </trkpt>
      <trkpt lat="45.87354" lon="4.81693">
        <ele>236</ele>
        <time>2018-02-20T10:40:31Z</time>
      </trkpt>
      <trkpt lat="45.8735" lon="4.81703">
        <ele>236</ele>
        <time>2018-02-20T10:40:32Z</time>
      </trkpt>
      <trkpt lat="45.87347" lon="4.81713">
        <ele>236</ele>
        <time>2018-02-20T10:40:33Z</time>
      </trkpt>
      <trkpt lat="45.87345" lon="4.81724">
        <ele>236</ele>
        <time>2018-02-20T10:40:34Z</time>
      </trkpt>
      <trkpt lat="45.87341" lon="4.81734">
        <ele>236</ele>
        <time>2018-02-20T10:40:35Z</time>
      </trkpt>
      <trkpt lat="45.87338" lon="4.81744">
        <ele>237</ele>
        <time>2018-02-20T10:40:36Z</time>
      </trkpt>
      <trkpt lat="45.87335" lon="4.81754">
        <ele>237</ele>
        <time>2018-02-20T10:40:37Z</time>
      </trkpt>
      <trkpt lat="45.87331" lon="4.81763">
        <ele>238</ele>
        <time>2018-02-20T10:40:38Z</time>
      </trkpt>
      <trkpt lat="45.87327" lon="4.81773">
        <ele>238</ele>
        <time>2018-02-20T10:40:39Z</time>
      </trkpt>
      <trkpt lat="45.87324" lon="4.81782">
        <ele>238</ele>
        <time>2018-02-20T10:40:40Z</time>
      </trkpt>
      <trkpt lat="45.87322" lon="4.81792">
        <ele>238</ele>
        <time>2018-02-20T10:40:41Z</time>
      </trkpt>
      <trkpt lat="45.87319" lon="4.81801">
        <ele>238</ele>
        <time>2018-02-20T10:40:42Z</time>
      </trkpt>
      <trkpt lat="45.87316" lon="4.8181">
        <ele>238</ele>
        <time>2018-02-20T10:40:43Z</time>
      </trkpt>
      <trkpt lat="45.87313" lon="4.81819">
        <ele>238</ele>
        <time>2018-02-20T10:40:44Z</time>
      </trkpt>
      <trkpt lat="45.8731" lon="4.81828">
        <ele>238</ele>
        <time>2018-02-20T10:40:45Z</time>
      </trkpt>
      <trkpt lat="45.87307" lon="4.81836">
        <ele>236</ele>
        <time>2018-02-20T10:40:46Z</time>
      </trkpt>
      <trkpt lat="45.87303" lon="4.81846">
        <ele>236</ele>
        <time>2018-02-20T10:40:47Z</time>
      </trkpt>
      <trkpt lat="45.873" lon="4.81857">
        <ele>236</ele>
        <time>2018-02-20T10:40:48Z</time>
      </trkpt>
      <trkpt lat="45.87298" lon="4.81867">
        <ele>235</ele>
        <time>2018-02-20T10:40:49Z</time>
      </trkpt>
      <trkpt lat="45.87297" lon="4.81878">
        <ele>235</ele>
        <time>2018-02-20T10:40:50Z</time>
      </trkpt>
      <trkpt lat="45.87295" lon="4.81887">
        <ele>235</ele>
        <time>2018-02-20T10:40:51Z</time>
      </trkpt>
      <trkpt lat="45.87293" lon="4.81896">
        <ele>235</ele>
        <time>2018-02-20T10:40:52Z</time>
      </trkpt>
      <trkpt lat="45.87289" lon="4.81901">
        <ele>235</ele>
        <time>2018-02-20T10:40:53Z</time>
      </trkpt>
      <trkpt lat="45.87285" lon="4.81906">
        <ele>235</ele>
        <time>2018-02-20T10:40:54Z</time>
      </trkpt>
      <trkpt lat="45.87276" lon="4.81912">
        <ele>235</ele>
        <time>2018-02-20T10:40:55Z</time>
      </trkpt>
      <trkpt lat="45.87271" lon="4.81915">
        <ele>235</ele>
        <time>2018-02-20T10:40:56Z</time>
      </trkpt>
      <trkpt lat="45.87266" lon="4.8192">
        <ele>231</ele>
        <time>2018-02-20T10:40:57Z</time>
      </trkpt>
      <trkpt lat="45.87262" lon="4.81926">
        <ele>231</ele>
        <time>2018-02-20T10:40:58Z</time>
      </trkpt>
      <trkpt lat="45.87258" lon="4.8193">
        <ele>231</ele>
        <time>2018-02-20T10:40:59Z</time>
      </trkpt>
      <trkpt lat="45.87253" lon="4.81934">
        <ele>231</ele>
        <time>2018-02-20T10:41:00Z</time>
      </trkpt>
      <trkpt lat="45.87247" lon="4.81937">
        <ele>232</ele>
        <time>2018-02-20T10:41:01Z</time>
      </trkpt>
      <trkpt lat="45.87242" lon="4.8194">
        <ele>232</ele>
        <time>2018-02-20T10:41:02Z</time>
      </trkpt>
      <trkpt lat="45.87237" lon="4.81943">
        <ele>232</ele>
        <time>2018-02-20T10:41:03Z</time>
      </trkpt>
      <trkpt lat="45.87232" lon="4.81946">
        <ele>232</ele>
        <time>2018-02-20T10:41:04Z</time>
      </trkpt>
      <trkpt lat="45.87226" lon="4.81949">
        <ele>231</ele>
        <time>2018-02-20T10:41:05Z</time>
      </trkpt>
      <trkpt lat="45.87221" lon="4.81953">
        <ele>231</ele>
        <time>2018-02-20T10:41:06Z</time>
      </trkpt>
      <trkpt lat="45.87217" lon="4.81955">
        <ele>231</ele>
        <time>2018-02-20T10:41:07Z</time>
      </trkpt>
      <trkpt lat="45.87212" lon="4.81957">
        <ele>231</ele>
        <time>2018-02-20T10:41:08Z</time>
      </trkpt>
      <trkpt lat="45.87207" lon="4.8196">
        <ele>231</ele>
        <time>2018-02-20T10:41:09Z</time>
      </trkpt>
      <trkpt lat="45.87203" lon="4.81961">
        <ele>231</ele>
        <time>2018-02-20T10:41:10Z</time>
      </trkpt>
      <trkpt lat="45.87197" lon="4.81962">
        <ele>231</ele>
        <time>2018-02-20T10:41:11Z</time>
      </trkpt>
      <trkpt lat="45.87192" lon="4.81961">
        <ele>231</ele>
        <time>2018-02-20T10:41:12Z</time>
      </trkpt>
      <trkpt lat="45.87186" lon="4.81961">
        <ele>231</ele>
        <time>2018-02-20T10:41:13Z</time>
      </trkpt>
      <trkpt lat="45.87179" lon="4.81962">
        <ele>231</ele>
        <time>2018-02-20T10:41:14Z</time>
      </trkpt>
      <trkpt lat="45.8717" lon="4.81962">
        <ele>231</ele>
        <time>2018-02-20T10:41:15Z</time>
      </trkpt>
      <trkpt lat="45.87163" lon="4.81961">
        <ele>232</ele>
        <time>2018-02-20T10:41:16Z</time>
      </trkpt>
      <trkpt lat="45.87153" lon="4.81962">
        <ele>232</ele>
        <time>2018-02-20T10:41:17Z</time>
      </trkpt>
      <trkpt lat="45.87143" lon="4.81963">
        <ele>232</ele>
        <time>2018-02-20T10:41:18Z</time>
      </trkpt>
      <trkpt lat="45.87135" lon="4.81963">
        <ele>232</ele>
        <time>2018-02-20T10:41:19Z</time>
      </trkpt>
      <trkpt lat="45.87126" lon="4.81963">
        <ele>231</ele>
        <time>2018-02-20T10:41:20Z</time>
      </trkpt>
      <trkpt lat="45.87117" lon="4.81963">
        <ele>231</ele>
        <time>2018-02-20T10:41:21Z</time>
      </trkpt>
      <trkpt lat="45.87108" lon="4.81961">
        <ele>231</ele>
        <time>2018-02-20T10:41:22Z</time>
      </trkpt>
      <trkpt lat="45.87098" lon="4.81962">
        <ele>231</ele>
        <time>2018-02-20T10:41:23Z</time>
      </trkpt>
      <trkpt lat="45.87088" lon="4.8196">
        <ele>232</ele>
        <time>2018-02-20T10:41:24Z</time>
      </trkpt>
      <trkpt lat="45.87077" lon="4.81959">
        <ele>230</ele>
        <time>2018-02-20T10:41:25Z</time>
      </trkpt>
      <trkpt lat="45.87068" lon="4.81955">
        <ele>230</ele>
        <time>2018-02-20T10:41:26Z</time>
      </trkpt>
      <trkpt lat="45.87058" lon="4.81953">
        <ele>230</ele>
        <time>2018-02-20T10:41:27Z</time>
      </trkpt>
      <trkpt lat="45.87049" lon="4.81949">
        <ele>230</ele>
        <time>2018-02-20T10:41:28Z</time>
      </trkpt>
      <trkpt lat="45.8704" lon="4.81945">
        <ele>230</ele>
        <time>2018-02-20T10:41:29Z</time>
      </trkpt>
      <trkpt lat="45.87031" lon="4.81941">
        <ele>230</ele>
        <time>2018-02-20T10:41:30Z</time>
      </trkpt>
      <trkpt lat="45.87023" lon="4.81939">
        <ele>230</ele>
        <time>2018-02-20T10:41:31Z</time>
      </trkpt>
      <trkpt lat="45.87015" lon="4.81939">
        <ele>230</ele>
        <time>2018-02-20T10:41:32Z</time>
      </trkpt>
      <trkpt lat="45.87006" lon="4.81942">
        <ele>229</ele>
        <time>2018-02-20T10:41:33Z</time>
      </trkpt>
      <trkpt lat="45.86998" lon="4.81947">
        <ele>227</ele>
        <time>2018-02-20T10:41:34Z</time>
      </trkpt>
      <trkpt lat="45.86991" lon="4.81953">
        <ele>226</ele>
        <time>2018-02-20T10:41:35Z</time>
      </trkpt>
      <trkpt lat="45.86992" lon="4.81964">
        <ele>225</ele>
        <time>2018-02-20T10:41:37Z</time>
      </trkpt>
      <trkpt lat="45.86993" lon="4.81969">
        <ele>225</ele>
        <time>2018-02-20T10:41:38Z</time>
      </trkpt>
      <trkpt lat="45.86993" lon="4.8198">
        <ele>223</ele>
        <time>2018-02-20T10:41:40Z</time>
      </trkpt>
      <trkpt lat="45.86992" lon="4.81987">
        <ele>222</ele>
        <time>2018-02-20T10:41:41Z</time>
      </trkpt>
      <trkpt lat="45.86991" lon="4.81997">
        <ele>221</ele>
        <time>2018-02-20T10:41:43Z</time>
      </trkpt>
      <trkpt lat="45.8699" lon="4.82001">
        <ele>221</ele>
        <time>2018-02-20T10:41:44Z</time>
      </trkpt>
      <trkpt lat="45.8699" lon="4.82011">
        <ele>221</ele>
        <time>2018-02-20T10:41:46Z</time>
      </trkpt>
      <trkpt lat="45.86989" lon="4.82017">
        <ele>222</ele>
        <time>2018-02-20T10:41:47Z</time>
      </trkpt>
      <trkpt lat="45.86991" lon="4.82022">
        <ele>222</ele>
        <time>2018-02-20T10:41:48Z</time>
      </trkpt>
      <trkpt lat="45.86995" lon="4.82026">
        <ele>223</ele>
        <time>2018-02-20T10:41:49Z</time>
      </trkpt>
      <trkpt lat="45.87" lon="4.82029">
        <ele>223</ele>
        <time>2018-02-20T10:41:50Z</time>
      </trkpt>
      <trkpt lat="45.87005" lon="4.82031">
        <ele>218</ele>
        <time>2018-02-20T10:41:51Z</time>
      </trkpt>
      <trkpt lat="45.87009" lon="4.82035">
        <ele>218</ele>
        <time>2018-02-20T10:41:52Z</time>
      </trkpt>
      <trkpt lat="45.87015" lon="4.82039">
        <ele>218</ele>
        <time>2018-02-20T10:41:53Z</time>
      </trkpt>
      <trkpt lat="45.87019" lon="4.82042">
        <ele>218</ele>
        <time>2018-02-20T10:41:54Z</time>
      </trkpt>
      <trkpt lat="45.87025" lon="4.82046">
        <ele>218</ele>
        <time>2018-02-20T10:41:55Z</time>
      </trkpt>
      <trkpt lat="45.8703" lon="4.82051">
        <ele>218</ele>
        <time>2018-02-20T10:41:56Z</time>
      </trkpt>
      <trkpt lat="45.87037" lon="4.82053">
        <ele>218</ele>
        <time>2018-02-20T10:41:57Z</time>
      </trkpt>
      <trkpt lat="45.87043" lon="4.82058">
        <ele>218</ele>
        <time>2018-02-20T10:41:58Z</time>
      </trkpt>
      <trkpt lat="45.87051" lon="4.82064">
        <ele>218</ele>
        <time>2018-02-20T10:41:59Z</time>
      </trkpt>
      <trkpt lat="45.87057" lon="4.82068">
        <ele>217</ele>
        <time>2018-02-20T10:42:00Z</time>
      </trkpt>
      <trkpt lat="45.87062" lon="4.82071">
        <ele>217</ele>
        <time>2018-02-20T10:42:01Z</time>
      </trkpt>
      <trkpt lat="45.8707" lon="4.82077">
        <ele>216</ele>
        <time>2018-02-20T10:42:02Z</time>
      </trkpt>
      <trkpt lat="45.87076" lon="4.82082">
        <ele>215</ele>
        <time>2018-02-20T10:42:03Z</time>
      </trkpt>
      <trkpt lat="45.87082" lon="4.82088">
        <ele>215</ele>
        <time>2018-02-20T10:42:04Z</time>
      </trkpt>
      <trkpt lat="45.87089" lon="4.82092">
        <ele>213</ele>
        <time>2018-02-20T10:42:05Z</time>
      </trkpt>
      <trkpt lat="45.87097" lon="4.82097">
        <ele>213</ele>
        <time>2018-02-20T10:42:06Z</time>
      </trkpt>
      <trkpt lat="45.87104" lon="4.82102">
        <ele>213</ele>
        <time>2018-02-20T10:42:07Z</time>
      </trkpt>
      <trkpt lat="45.87112" lon="4.82106">
        <ele>213</ele>
        <time>2018-02-20T10:42:08Z</time>
      </trkpt>
      <trkpt lat="45.87119" lon="4.82112">
        <ele>212</ele>
        <time>2018-02-20T10:42:09Z</time>
      </trkpt>
      <trkpt lat="45.87127" lon="4.82117">
        <ele>212</ele>
        <time>2018-02-20T10:42:10Z</time>
      </trkpt>
      <trkpt lat="45.87133" lon="4.82122">
        <ele>212</ele>
        <time>2018-02-20T10:42:11Z</time>
      </trkpt>
      <trkpt lat="45.8714" lon="4.82129">
        <ele>212</ele>
        <time>2018-02-20T10:42:12Z</time>
      </trkpt>
      <trkpt lat="45.87146" lon="4.82136">
        <ele>211</ele>
        <time>2018-02-20T10:42:13Z</time>
      </trkpt>
      <trkpt lat="45.87153" lon="4.82144">
        <ele>211</ele>
        <time>2018-02-20T10:42:14Z</time>
      </trkpt>
      <trkpt lat="45.87157" lon="4.82152">
        <ele>210</ele>
        <time>2018-02-20T10:42:15Z</time>
      </trkpt>
      <trkpt lat="45.87162" lon="4.82161">
        <ele>209</ele>
        <time>2018-02-20T10:42:16Z</time>
      </trkpt>
      <trkpt lat="45.87167" lon="4.82171">
        <ele>209</ele>
        <time>2018-02-20T10:42:17Z</time>
      </trkpt>
      <trkpt lat="45.8717" lon="4.82181">
        <ele>208</ele>
        <time>2018-02-20T10:42:18Z</time>
      </trkpt>
      <trkpt lat="45.87173" lon="4.82191">
        <ele>208</ele>
        <time>2018-02-20T10:42:19Z</time>
      </trkpt>
      <trkpt lat="45.87178" lon="4.822">
        <ele>208</ele>
        <time>2018-02-20T10:42:20Z</time>
      </trkpt>
      <trkpt lat="45.8718" lon="4.8221">
        <ele>208</ele>
        <time>2018-02-20T10:42:21Z</time>
      </trkpt>
      <trkpt lat="45.87185" lon="4.82221">
        <ele>208</ele>
        <time>2018-02-20T10:42:22Z</time>
      </trkpt>
      <trkpt lat="45.87189" lon="4.82231">
        <ele>208</ele>
        <time>2018-02-20T10:42:23Z</time>
      </trkpt>
      <trkpt lat="45.87191" lon="4.8224">
        <ele>208</ele>
        <time>2018-02-20T10:42:24Z</time>
      </trkpt>
      <trkpt lat="45.87197" lon="4.8225">
        <ele>209</ele>
        <time>2018-02-20T10:42:25Z</time>
      </trkpt>
      <trkpt lat="45.872" lon="4.82259">
        <ele>209</ele>
        <time>2018-02-20T10:42:26Z</time>
      </trkpt>
      <trkpt lat="45.87201" lon="4.82266">
        <ele>209</ele>
        <time>2018-02-20T10:42:27Z</time>
      </trkpt>
      <trkpt lat="45.87203" lon="4.82274">
        <ele>210</ele>
        <time>2018-02-20T10:42:28Z</time>
      </trkpt>
      <trkpt lat="45.87205" lon="4.8228">
        <ele>210</ele>
        <time>2018-02-20T10:42:29Z</time>
      </trkpt>
      <trkpt lat="45.87207" lon="4.82286">
        <ele>210</ele>
        <time>2018-02-20T10:42:30Z</time>
      </trkpt>
      <trkpt lat="45.8721" lon="4.82293">
        <ele>210</ele>
        <time>2018-02-20T10:42:31Z</time>
      </trkpt>
      <trkpt lat="45.87214" lon="4.82298">
        <ele>210</ele>
        <time>2018-02-20T10:42:32Z</time>
      </trkpt>
      <trkpt lat="45.87217" lon="4.82303">
        <ele>210</ele>
        <time>2018-02-20T10:42:33Z</time>
      </trkpt>
      <trkpt lat="45.87222" lon="4.82313">
        <ele>210</ele>
        <time>2018-02-20T10:42:35Z</time>
      </trkpt>
      <trkpt lat="45.87224" lon="4.82319">
        <ele>210</ele>
        <time>2018-02-20T10:42:36Z</time>
      </trkpt>
      <trkpt lat="45.87229" lon="4.82329">
        <ele>210</ele>
        <time>2018-02-20T10:42:38Z</time>
      </trkpt>
      <trkpt lat="45.87232" lon="4.82333">
        <ele>209</ele>
        <time>2018-02-20T10:42:39Z</time>
      </trkpt>
      <trkpt lat="45.87237" lon="4.82343">
        <ele>212</ele>
        <time>2018-02-20T10:42:41Z</time>
      </trkpt>
      <trkpt lat="45.87239" lon="4.82348">
        <ele>213</ele>
        <time>2018-02-20T10:42:42Z</time>
      </trkpt>
      <trkpt lat="45.87244" lon="4.82356">
        <ele>214</ele>
        <time>2018-02-20T10:42:44Z</time>
      </trkpt>
      <trkpt lat="45.87247" lon="4.82361">
        <ele>214</ele>
        <time>2018-02-20T10:42:45Z</time>
      </trkpt>
      <trkpt lat="45.87251" lon="4.82369">
        <ele>209</ele>
        <time>2018-02-20T10:42:47Z</time>
      </trkpt>
      <trkpt lat="45.87254" lon="4.82373">
        <ele>209</ele>
        <time>2018-02-20T10:42:48Z</time>
      </trkpt>
      <trkpt lat="45.87258" lon="4.82381">
        <ele>209</ele>
        <time>2018-02-20T10:42:50Z</time>
      </trkpt>
      <trkpt lat="45.8726" lon="4.82386">
        <ele>209</ele>
        <time>2018-02-20T10:42:51Z</time>
      </trkpt>
      <trkpt lat="45.87265" lon="4.82394">
        <ele>210</ele>
        <time>2018-02-20T10:42:53Z</time>
      </trkpt>
      <trkpt lat="45.87267" lon="4.82398">
        <ele>210</ele>
        <time>2018-02-20T10:42:54Z</time>
      </trkpt>
      <trkpt lat="45.87271" lon="4.82405">
        <ele>210</ele>
        <time>2018-02-20T10:42:56Z</time>
      </trkpt>
      <trkpt lat="45.87274" lon="4.82409">
        <ele>210</ele>
        <time>2018-02-20T10:42:57Z</time>
      </trkpt>
      <trkpt lat="45.87278" lon="4.82418">
        <ele>213</ele>
        <time>2018-02-20T10:42:59Z</time>
      </trkpt>
      <trkpt lat="45.8728" lon="4.82422">
        <ele>213</ele>
        <time>2018-02-20T10:43:00Z</time>
      </trkpt>
      <trkpt lat="45.87285" lon="4.82428">
        <ele>213</ele>
        <time>2018-02-20T10:43:02Z</time>
      </trkpt>
      <trkpt lat="45.87287" lon="4.82431">
        <ele>213</ele>
        <time>2018-02-20T10:43:03Z</time>
      </trkpt>
      <trkpt lat="45.87292" lon="4.82437">
        <ele>212</ele>
        <time>2018-02-20T10:43:05Z</time>
      </trkpt>
      <trkpt lat="45.87294" lon="4.82441">
        <ele>212</ele>
        <time>2018-02-20T10:43:06Z</time>
      </trkpt>
      <trkpt lat="45.87299" lon="4.82447">
        <ele>212</ele>
        <time>2018-02-20T10:43:08Z</time>
      </trkpt>
      <trkpt lat="45.87301" lon="4.82451">
        <ele>212</ele>
        <time>2018-02-20T10:43:09Z</time>
      </trkpt>
      <trkpt lat="45.87304" lon="4.82458">
        <ele>212</ele>
        <time>2018-02-20T10:43:11Z</time>
      </trkpt>
      <trkpt lat="45.87306" lon="4.82462">
        <ele>212</ele>
        <time>2018-02-20T10:43:12Z</time>
      </trkpt>
      <trkpt lat="45.8731" lon="4.8247">
        <ele>212</ele>
        <time>2018-02-20T10:43:14Z</time>
      </trkpt>
      <trkpt lat="45.87312" lon="4.82474">
        <ele>212</ele>
        <time>2018-02-20T10:43:15Z</time>
      </trkpt>
      <trkpt lat="45.87317" lon="4.82482">
        <ele>212</ele>
        <time>2018-02-20T10:43:17Z</time>
      </trkpt>
      <trkpt lat="45.87319" lon="4.82486">
        <ele>211</ele>
        <time>2018-02-20T10:43:18Z</time>
      </trkpt>
      <trkpt lat="45.87323" lon="4.82495">
        <ele>211</ele>
        <time>2018-02-20T10:43:20Z</time>
      </trkpt>
      <trkpt lat="45.87325" lon="4.825">
        <ele>212</ele>
        <time>2018-02-20T10:43:21Z</time>
      </trkpt>
      <trkpt lat="45.8733" lon="4.82509">
        <ele>212</ele>
        <time>2018-02-20T10:43:23Z</time>
      </trkpt>
      <trkpt lat="45.87333" lon="4.82513">
        <ele>213</ele>
        <time>2018-02-20T10:43:24Z</time>
      </trkpt>
      <trkpt lat="45.87337" lon="4.82523">
        <ele>208</ele>
        <time>2018-02-20T10:43:26Z</time>
      </trkpt>
      <trkpt lat="45.8734" lon="4.82528">
        <ele>208</ele>
        <time>2018-02-20T10:43:27Z</time>
      </trkpt>
      <trkpt lat="45.87344" lon="4.82539">
        <ele>209</ele>
        <time>2018-02-20T10:43:29Z</time>
      </trkpt>
      <trkpt lat="45.87346" lon="4.82544">
        <ele>209</ele>
        <time>2018-02-20T10:43:30Z</time>
      </trkpt>
      <trkpt lat="45.87349" lon="4.82555">
        <ele>210</ele>
        <time>2018-02-20T10:43:32Z</time>
      </trkpt>
      <trkpt lat="45.87351" lon="4.82561">
        <ele>210</ele>
        <time>2018-02-20T10:43:33Z</time>
      </trkpt>
      <trkpt lat="45.87354" lon="4.82568">
        <ele>210</ele>
        <time>2018-02-20T10:43:34Z</time>
      </trkpt>
      <trkpt lat="45.87356" lon="4.82573">
        <ele>210</ele>
        <time>2018-02-20T10:43:35Z</time>
      </trkpt>
      <trkpt lat="45.87359" lon="4.82578">
        <ele>210</ele>
        <time>2018-02-20T10:43:36Z</time>
      </trkpt>
      <trkpt lat="45.87361" lon="4.82584">
        <ele>213</ele>
        <time>2018-02-20T10:43:37Z</time>
      </trkpt>
      <trkpt lat="45.87364" lon="4.8259">
        <ele>213</ele>
        <time>2018-02-20T10:43:38Z</time>
      </trkpt>
      <trkpt lat="45.87367" lon="4.82596">
        <ele>213</ele>
        <time>2018-02-20T10:43:39Z</time>
      </trkpt>
      <trkpt lat="45.87369" lon="4.82602">
        <ele>213</ele>
        <time>2018-02-20T10:43:40Z</time>
      </trkpt>
      <trkpt lat="45.87372" lon="4.82608">
        <ele>213</ele>
        <time>2018-02-20T10:43:41Z</time>
      </trkpt>
      <trkpt lat="45.87374" lon="4.82614">
        <ele>213</ele>
        <time>2018-02-20T10:43:42Z</time>
      </trkpt>
      <trkpt lat="45.87376" lon="4.8262">
        <ele>213</ele>
        <time>2018-02-20T10:43:43Z</time>
      </trkpt>
      <trkpt lat="45.87379" lon="4.82626">
        <ele>213</ele>
        <time>2018-02-20T10:43:44Z</time>
      </trkpt>
      <trkpt lat="45.87382" lon="4.82633">
        <ele>213</ele>
        <time>2018-02-20T10:43:45Z</time>
      </trkpt>
      <trkpt lat="45.87385" lon="4.8264">
        <ele>213</ele>
        <time>2018-02-20T10:43:46Z</time>
      </trkpt>
      <trkpt lat="45.87388" lon="4.82647">
        <ele>213</ele>
        <time>2018-02-20T10:43:47Z</time>
      </trkpt>
      <trkpt lat="45.87391" lon="4.82653">
        <ele>213</ele>
        <time>2018-02-20T10:43:48Z</time>
      </trkpt>
      <trkpt lat="45.87394" lon="4.82661">
        <ele>213</ele>
        <time>2018-02-20T10:43:49Z</time>
      </trkpt>
      <trkpt lat="45.87397" lon="4.82668">
        <ele>214</ele>
        <time>2018-02-20T10:43:50Z</time>
      </trkpt>
      <trkpt lat="45.87401" lon="4.82675">
        <ele>214</ele>
        <time>2018-02-20T10:43:51Z</time>
      </trkpt>
      <trkpt lat="45.87405" lon="4.82682">
        <ele>214</ele>
        <time>2018-02-20T10:43:52Z</time>
      </trkpt>
      <trkpt lat="45.87408" lon="4.82689">
        <ele>214</ele>
        <time>2018-02-20T10:43:53Z</time>
      </trkpt>
      <trkpt lat="45.87412" lon="4.82696">
        <ele>215</ele>
        <time>2018-02-20T10:43:54Z</time>
      </trkpt>
      <trkpt lat="45.87416" lon="4.82702">
        <ele>215</ele>
        <time>2018-02-20T10:43:55Z</time>
      </trkpt>
      <trkpt lat="45.87419" lon="4.82711">
        <ele>209</ele>
        <time>2018-02-20T10:43:56Z</time>
      </trkpt>
      <trkpt lat="45.87423" lon="4.82718">
        <ele>209</ele>
        <time>2018-02-20T10:43:57Z</time>
      </trkpt>
      <trkpt lat="45.87426" lon="4.82724">
        <ele>209</ele>
        <time>2018-02-20T10:43:58Z</time>
      </trkpt>
      <trkpt lat="45.8743" lon="4.8273">
        <ele>209</ele>
        <time>2018-02-20T10:43:59Z</time>
      </trkpt>
      <trkpt lat="45.87434" lon="4.82737">
        <ele>210</ele>
        <time>2018-02-20T10:44:00Z</time>
      </trkpt>
      <trkpt lat="45.87437" lon="4.82743">
        <ele>210</ele>
        <time>2018-02-20T10:44:01Z</time>
      </trkpt>
      <trkpt lat="45.87441" lon="4.8275">
        <ele>209</ele>
        <time>2018-02-20T10:44:02Z</time>
      </trkpt>
      <trkpt lat="45.87443" lon="4.82756">
        <ele>211</ele>
        <time>2018-02-20T10:44:03Z</time>
      </trkpt>
      <trkpt lat="45.87446" lon="4.82763">
        <ele>210</ele>
        <time>2018-02-20T10:44:04Z</time>
      </trkpt>
      <trkpt lat="45.8745" lon="4.8277">
        <ele>210</ele>
        <time>2018-02-20T10:44:05Z</time>
      </trkpt>
      <trkpt lat="45.87454" lon="4.82777">
        <ele>210</ele>
        <time>2018-02-20T10:44:06Z</time>
      </trkpt>
      <trkpt lat="45.87457" lon="4.82784">
        <ele>209</ele>
        <time>2018-02-20T10:44:07Z</time>
      </trkpt>
      <trkpt lat="45.8746" lon="4.82791">
        <ele>209</ele>
        <time>2018-02-20T10:44:08Z</time>
      </trkpt>
      <trkpt lat="45.87463" lon="4.82798">
        <ele>209</ele>
        <time>2018-02-20T10:44:09Z</time>
      </trkpt>
      <trkpt lat="45.87467" lon="4.82806">
        <ele>209</ele>
        <time>2018-02-20T10:44:10Z</time>
      </trkpt>
      <trkpt lat="45.8747" lon="4.82812">
        <ele>209</ele>
        <time>2018-02-20T10:44:11Z</time>
      </trkpt>
      <trkpt lat="45.87473" lon="4.8282">
        <ele>209</ele>
        <time>2018-02-20T10:44:12Z</time>
      </trkpt>
      <trkpt lat="45.87477" lon="4.82828">
        <ele>209</ele>
        <time>2018-02-20T10:44:13Z</time>
      </trkpt>
      <trkpt lat="45.87481" lon="4.82835">
        <ele>209</ele>
        <time>2018-02-20T10:44:14Z</time>
      </trkpt>
      <trkpt lat="45.87484" lon="4.82842">
        <ele>209</ele>
        <time>2018-02-20T10:44:15Z</time>
      </trkpt>
      <trkpt lat="45.87488" lon="4.8285">
        <ele>209</ele>
        <time>2018-02-20T10:44:16Z</time>
      </trkpt>
      <trkpt lat="45.87492" lon="4.82859">
        <ele>210</ele>
        <time>2018-02-20T10:44:17Z</time>
      </trkpt>
      <trkpt lat="45.87495" lon="4.82868">
        <ele>210</ele>
        <time>2018-02-20T10:44:18Z</time>
      </trkpt>
      <trkpt lat="45.87499" lon="4.82877">
        <ele>210</ele>
        <time>2018-02-20T10:44:19Z</time>
      </trkpt>
      <trkpt lat="45.87502" lon="4.82887">
        <ele>206</ele>
        <time>2018-02-20T10:44:20Z</time>
      </trkpt>
      <trkpt lat="45.87506" lon="4.82898">
        <ele>207</ele>
        <time>2018-02-20T10:44:21Z</time>
      </trkpt>
      <trkpt lat="45.8751" lon="4.82909">
        <ele>207</ele>
        <time>2018-02-20T10:44:22Z</time>
      </trkpt>
      <trkpt lat="45.87514" lon="4.82919">
        <ele>208</ele>
        <time>2018-02-20T10:44:23Z</time>
      </trkpt>
      <trkpt lat="45.87517" lon="4.8293">
        <ele>207</ele>
        <time>2018-02-20T10:44:24Z</time>
      </trkpt>
      <trkpt lat="45.87521" lon="4.82941">
        <ele>207</ele>
        <time>2018-02-20T10:44:25Z</time>
      </trkpt>
      <trkpt lat="45.87524" lon="4.82953">
        <ele>206</ele>
        <time>2018-02-20T10:44:26Z</time>
      </trkpt>
      <trkpt lat="45.87526" lon="4.82964">
        <ele>206</ele>
        <time>2018-02-20T10:44:27Z</time>
      </trkpt>
      <trkpt lat="45.87529" lon="4.82975">
        <ele>206</ele>
        <time>2018-02-20T10:44:28Z</time>
      </trkpt>
      <trkpt lat="45.87532" lon="4.82986">
        <ele>206</ele>
        <time>2018-02-20T10:44:29Z</time>
      </trkpt>
      <trkpt lat="45.87533" lon="4.82998">
        <ele>206</ele>
        <time>2018-02-20T10:44:30Z</time>
      </trkpt>
      <trkpt lat="45.87533" lon="4.83009">
        <ele>202</ele>
        <time>2018-02-20T10:44:31Z</time>
      </trkpt>
      <trkpt lat="45.87533" lon="4.8302">
        <ele>202</ele>
        <time>2018-02-20T10:44:32Z</time>
      </trkpt>
      <trkpt lat="45.87532" lon="4.83032">
        <ele>201</ele>
        <time>2018-02-20T10:44:33Z</time>
      </trkpt>
      <trkpt lat="45.8753" lon="4.83044">
        <ele>201</ele>
        <time>2018-02-20T10:44:34Z</time>
      </trkpt>
      <trkpt lat="45.87526" lon="4.83057">
        <ele>200</ele>
        <time>2018-02-20T10:44:35Z</time>
      </trkpt>
      <trkpt lat="45.87523" lon="4.83069">
        <ele>200</ele>
        <time>2018-02-20T10:44:36Z</time>
      </trkpt>
      <trkpt lat="45.87518" lon="4.8308">
        <ele>199</ele>
        <time>2018-02-20T10:44:37Z</time>
      </trkpt>
      <trkpt lat="45.87512" lon="4.83089">
        <ele>196</ele>
        <time>2018-02-20T10:44:38Z</time>
      </trkpt>
      <trkpt lat="45.87506" lon="4.83098">
        <ele>195</ele>
        <time>2018-02-20T10:44:39Z</time>
      </trkpt>
      <trkpt lat="45.87499" lon="4.83105">
        <ele>196</ele>
        <time>2018-02-20T10:44:40Z</time>
      </trkpt>
      <trkpt lat="45.87492" lon="4.83112">
        <ele>196</ele>
        <time>2018-02-20T10:44:41Z</time>
      </trkpt>
      <trkpt lat="45.87485" lon="4.83119">
        <ele>195</ele>
        <time>2018-02-20T10:44:42Z</time>
      </trkpt>
      <trkpt lat="45.87481" lon="4.83126">
        <ele>195</ele>
        <time>2018-02-20T10:44:43Z</time>
      </trkpt>
      <trkpt lat="45.87477" lon="4.83134">
        <ele>194</ele>
        <time>2018-02-20T10:44:44Z</time>
      </trkpt>
      <trkpt lat="45.87474" lon="4.83144">
        <ele>194</ele>
        <time>2018-02-20T10:44:45Z</time>
      </trkpt>
      <trkpt lat="45.87478" lon="4.83152">
        <ele>193</ele>
        <time>2018-02-20T10:44:46Z</time>
      </trkpt>
      <trkpt lat="45.87483" lon="4.8316">
        <ele>193</ele>
        <time>2018-02-20T10:44:47Z</time>
      </trkpt>
      <trkpt lat="45.87487" lon="4.83167">
        <ele>189</ele>
        <time>2018-02-20T10:44:48Z</time>
      </trkpt>
      <trkpt lat="45.87497" lon="4.83164">
        <ele>191</ele>
        <time>2018-02-20T10:44:49Z</time>
      </trkpt>
      <trkpt lat="45.87505" lon="4.83164">
        <ele>190</ele>
        <time>2018-02-20T10:44:50Z</time>
      </trkpt>
      <trkpt lat="45.87511" lon="4.83163">
        <ele>190</ele>
        <time>2018-02-20T10:44:51Z</time>
      </trkpt>
      <trkpt lat="45.87518" lon="4.8316">
        <ele>190</ele>
        <time>2018-02-20T10:44:52Z</time>
      </trkpt>
      <trkpt lat="45.87524" lon="4.8316">
        <ele>190</ele>
        <time>2018-02-20T10:44:53Z</time>
      </trkpt>
      <trkpt lat="45.87531" lon="4.83161">
        <ele>190</ele>
        <time>2018-02-20T10:44:54Z</time>
      </trkpt>
      <trkpt lat="45.87537" lon="4.83165">
        <ele>189</ele>
        <time>2018-02-20T10:44:55Z</time>
      </trkpt>
      <trkpt lat="45.87543" lon="4.8317">
        <ele>184</ele>
        <time>2018-02-20T10:44:56Z</time>
      </trkpt>
      <trkpt lat="45.8755" lon="4.83177">
        <ele>183</ele>
        <time>2018-02-20T10:44:57Z</time>
      </trkpt>
      <trkpt lat="45.87555" lon="4.83187">
        <ele>183</ele>
        <time>2018-02-20T10:44:58Z</time>
      </trkpt>
      <trkpt lat="45.87559" lon="4.83196">
        <ele>182</ele>
        <time>2018-02-20T10:44:59Z</time>
      </trkpt>
      <trkpt lat="45.87563" lon="4.83207">
        <ele>182</ele>
        <time>2018-02-20T10:45:00Z</time>
      </trkpt>
      <trkpt lat="45.87567" lon="4.83215">
        <ele>182</ele>
        <time>2018-02-20T10:45:01Z</time>
      </trkpt>
      <trkpt lat="45.8757" lon="4.83223">
        <ele>181</ele>
        <time>2018-02-20T10:45:02Z</time>
      </trkpt>
      <trkpt lat="45.87569" lon="4.83232">
        <ele>181</ele>
        <time>2018-02-20T10:45:03Z</time>
      </trkpt>
      <trkpt lat="45.87565" lon="4.8324">
        <ele>180</ele>
        <time>2018-02-20T10:45:04Z</time>
      </trkpt>
      <trkpt lat="45.87561" lon="4.83246">
        <ele>180</ele>
        <time>2018-02-20T10:45:05Z</time>
      </trkpt>
      <trkpt lat="45.87557" lon="4.83252">
        <ele>178</ele>
        <time>2018-02-20T10:45:06Z</time>
      </trkpt>
      <trkpt lat="45.87551" lon="4.83257">
        <ele>178</ele>
        <time>2018-02-20T10:45:07Z</time>
      </trkpt>
      <trkpt lat="45.87544" lon="4.83263">
        <ele>178</ele>
        <time>2018-02-20T10:45:08Z</time>
      </trkpt>
      <trkpt lat="45.8754" lon="4.83271">
        <ele>178</ele>
        <time>2018-02-20T10:45:09Z</time>
      </trkpt>
      <trkpt lat="45.87537" lon="4.8328">
        <ele>178</ele>
        <time>2018-02-20T10:45:10Z</time>
      </trkpt>
      <trkpt lat="45.87537" lon="4.83289">
        <ele>178</ele>
        <time>2018-02-20T10:45:11Z</time>
      </trkpt>
      <trkpt lat="45.87539" lon="4.83299">
        <ele>177</ele>
        <time>2018-02-20T10:45:12Z</time>
      </trkpt>
      <trkpt lat="45.87544" lon="4.83308">
        <ele>177</ele>
        <time>2018-02-20T10:45:13Z</time>
      </trkpt>
      <trkpt lat="45.87549" lon="4.83317">
        <ele>177</ele>
        <time>2018-02-20T10:45:14Z</time>
      </trkpt>
      <trkpt lat="45.87552" lon="4.83326">
        <ele>177</ele>
        <time>2018-02-20T10:45:15Z</time>
      </trkpt>
      <trkpt lat="45.87556" lon="4.83334">
        <ele>176</ele>
        <time>2018-02-20T10:45:16Z</time>
      </trkpt>
      <trkpt lat="45.87561" lon="4.83343">
        <ele>176</ele>
        <time>2018-02-20T10:45:17Z</time>
      </trkpt>
      <trkpt lat="45.87566" lon="4.83351">
        <ele>176</ele>
        <time>2018-02-20T10:45:18Z</time>
      </trkpt>
      <trkpt lat="45.87572" lon="4.83359">
        <ele>175</ele>
        <time>2018-02-20T10:45:19Z</time>
      </trkpt>
      <trkpt lat="45.87578" lon="4.83367">
        <ele>175</ele>
        <time>2018-02-20T10:45:20Z</time>
      </trkpt>
      <trkpt lat="45.87584" lon="4.83375">
        <ele>174</ele>
        <time>2018-02-20T10:45:21Z</time>
      </trkpt>
      <trkpt lat="45.87591" lon="4.83382">
        <ele>174</ele>
        <time>2018-02-20T10:45:22Z</time>
      </trkpt>
      <trkpt lat="45.87597" lon="4.83388">
        <ele>174</ele>
        <time>2018-02-20T10:45:23Z</time>
      </trkpt>
      <trkpt lat="45.87604" lon="4.83395">
        <ele>174</ele>
        <time>2018-02-20T10:45:24Z</time>
      </trkpt>
      <trkpt lat="45.8761" lon="4.834">
        <ele>174</ele>
        <time>2018-02-20T10:45:25Z</time>
      </trkpt>
      <trkpt lat="45.87616" lon="4.83405">
        <ele>174</ele>
        <time>2018-02-20T10:45:26Z</time>
      </trkpt>
      <trkpt lat="45.87623" lon="4.83411">
        <ele>174</ele>
        <time>2018-02-20T10:45:27Z</time>
      </trkpt>
      <trkpt lat="45.87628" lon="4.83417">
        <ele>174</ele>
        <time>2018-02-20T10:45:28Z</time>
      </trkpt>
      <trkpt lat="45.87634" lon="4.83423">
        <ele>172</ele>
        <time>2018-02-20T10:45:29Z</time>
      </trkpt>
      <trkpt lat="45.87639" lon="4.83429">
        <ele>172</ele>
        <time>2018-02-20T10:45:30Z</time>
      </trkpt>
      <trkpt lat="45.87645" lon="4.83437">
        <ele>172</ele>
        <time>2018-02-20T10:45:31Z</time>
      </trkpt>
      <trkpt lat="45.8765" lon="4.83443">
        <ele>172</ele>
        <time>2018-02-20T10:45:32Z</time>
      </trkpt>
      <trkpt lat="45.87655" lon="4.8345">
        <ele>172</ele>
        <time>2018-02-20T10:45:33Z</time>
      </trkpt>
      <trkpt lat="45.8766" lon="4.83456">
        <ele>172</ele>
        <time>2018-02-20T10:45:34Z</time>
      </trkpt>
      <trkpt lat="45.87664" lon="4.83464">
        <ele>172</ele>
        <time>2018-02-20T10:45:35Z</time>
      </trkpt>
      <trkpt lat="45.87669" lon="4.83471">
        <ele>172</ele>
        <time>2018-02-20T10:45:36Z</time>
      </trkpt>
      <trkpt lat="45.8767" lon="4.83478">
        <ele>172</ele>
        <time>2018-02-20T10:45:37Z</time>
      </trkpt>
      <trkpt lat="45.8767" lon="4.83486">
        <ele>171</ele>
        <time>2018-02-20T10:45:38Z</time>
      </trkpt>
      <trkpt lat="45.87671" lon="4.83494">
        <ele>171</ele>
        <time>2018-02-20T10:45:39Z</time>
      </trkpt>
      <trkpt lat="45.87672" lon="4.83502">
        <ele>171</ele>
        <time>2018-02-20T10:45:40Z</time>
      </trkpt>
      <trkpt lat="45.87674" lon="4.83509">
        <ele>170</ele>
        <time>2018-02-20T10:45:41Z</time>
      </trkpt>
      <trkpt lat="45.87675" lon="4.8352">
        <ele>169</ele>
        <time>2018-02-20T10:45:43Z</time>
      </trkpt>
      <trkpt lat="45.87675" lon="4.83526">
        <ele>169</ele>
        <time>2018-02-20T10:45:44Z</time>
      </trkpt>
      <trkpt lat="45.87675" lon="4.83533">
        <ele>169</ele>
        <time>2018-02-20T10:45:45Z</time>
      </trkpt>
      <trkpt lat="45.87676" lon="4.8354">
        <ele>168</ele>
        <time>2018-02-20T10:45:46Z</time>
      </trkpt>
      <trkpt lat="45.87677" lon="4.83547">
        <ele>168</ele>
        <time>2018-02-20T10:45:47Z</time>
      </trkpt>
      <trkpt lat="45.87679" lon="4.83555">
        <ele>168</ele>
        <time>2018-02-20T10:45:48Z</time>
      </trkpt>
      <trkpt lat="45.8768" lon="4.83561">
        <ele>167</ele>
        <time>2018-02-20T10:45:49Z</time>
      </trkpt>
      <trkpt lat="45.87681" lon="4.83569">
        <ele>167</ele>
        <time>2018-02-20T10:45:50Z</time>
      </trkpt>
      <trkpt lat="45.87682" lon="4.83575">
        <ele>167</ele>
        <time>2018-02-20T10:45:51Z</time>
      </trkpt>
      <trkpt lat="45.87683" lon="4.83581">
        <ele>167</ele>
        <time>2018-02-20T10:45:52Z</time>
      </trkpt>
      <trkpt lat="45.87683" lon="4.83589">
        <ele>165</ele>
        <time>2018-02-20T10:45:53Z</time>
      </trkpt>
      <trkpt lat="45.87684" lon="4.83595">
        <ele>165</ele>
        <time>2018-02-20T10:45:54Z</time>
      </trkpt>
      <trkpt lat="45.87684" lon="4.83602">
        <ele>165</ele>
        <time>2018-02-20T10:45:55Z</time>
      </trkpt>
      <trkpt lat="45.87685" lon="4.83609">
        <ele>165</ele>
        <time>2018-02-20T10:45:56Z</time>
      </trkpt>
      <trkpt lat="45.87685" lon="4.83616">
        <ele>165</ele>
        <time>2018-02-20T10:45:57Z</time>
      </trkpt>
      <trkpt lat="45.87686" lon="4.83622">
        <ele>165</ele>
        <time>2018-02-20T10:45:58Z</time>
      </trkpt>
      <trkpt lat="45.87686" lon="4.83634">
        <ele>165</ele>
        <time>2018-02-20T10:46:00Z</time>
      </trkpt>
      <trkpt lat="45.87686" lon="4.83639">
        <ele>165</ele>
        <time>2018-02-20T10:46:01Z</time>
      </trkpt>
      <trkpt lat="45.87686" lon="4.83651">
        <ele>165</ele>
        <time>2018-02-20T10:46:03Z</time>
      </trkpt>
      <trkpt lat="45.87687" lon="4.83656">
        <ele>165</ele>
        <time>2018-02-20T10:46:04Z</time>
      </trkpt>
      <trkpt lat="45.87687" lon="4.83668">
        <ele>165</ele>
        <time>2018-02-20T10:46:06Z</time>
      </trkpt>
      <trkpt lat="45.87688" lon="4.83674">
        <ele>165</ele>
        <time>2018-02-20T10:46:07Z</time>
      </trkpt>
      <trkpt lat="45.87689" lon="4.83684">
        <ele>165</ele>
        <time>2018-02-20T10:46:09Z</time>
      </trkpt>
      <trkpt lat="45.87689" lon="4.8369">
        <ele>165</ele>
        <time>2018-02-20T10:46:10Z</time>
      </trkpt>
      <trkpt lat="45.8769" lon="4.83698">
        <ele>165</ele>
        <time>2018-02-20T10:46:11Z</time>
      </trkpt>
      <trkpt lat="45.87691" lon="4.83705">
        <ele>165</ele>
        <time>2018-02-20T10:46:12Z</time>
      </trkpt>
      <trkpt lat="45.87693" lon="4.83716">
        <ele>165</ele>
        <time>2018-02-20T10:46:14Z</time>
      </trkpt>
      <trkpt lat="45.87693" lon="4.83723">
        <ele>165</ele>
        <time>2018-02-20T10:46:15Z</time>
      </trkpt>
      <trkpt lat="45.87693" lon="4.83731">
        <ele>165</ele>
        <time>2018-02-20T10:46:16Z</time>
      </trkpt>
      <trkpt lat="45.87694" lon="4.83739">
        <ele>165</ele>
        <time>2018-02-20T10:46:17Z</time>
      </trkpt>
      <trkpt lat="45.87694" lon="4.83747">
        <ele>165</ele>
        <time>2018-02-20T10:46:18Z</time>
      </trkpt>
      <trkpt lat="45.87694" lon="4.83756">
        <ele>167</ele>
        <time>2018-02-20T10:46:19Z</time>
      </trkpt>
      <trkpt lat="45.87695" lon="4.83764">
        <ele>167</ele>
        <time>2018-02-20T10:46:20Z</time>
      </trkpt>
      <trkpt lat="45.87697" lon="4.83774">
        <ele>168</ele>
        <time>2018-02-20T10:46:21Z</time>
      </trkpt>
      <trkpt lat="45.87698" lon="4.83783">
        <ele>168</ele>
        <time>2018-02-20T10:46:22Z</time>
      </trkpt>
      <trkpt lat="45.877" lon="4.83791">
        <ele>168</ele>
        <time>2018-02-20T10:46:23Z</time>
      </trkpt>
      <trkpt lat="45.877" lon="4.83799">
        <ele>169</ele>
        <time>2018-02-20T10:46:24Z</time>
      </trkpt>
      <trkpt lat="45.877" lon="4.83808">
        <ele>169</ele>
        <time>2018-02-20T10:46:25Z</time>
      </trkpt>
      <trkpt lat="45.877" lon="4.83816">
        <ele>169</ele>
        <time>2018-02-20T10:46:26Z</time>
      </trkpt>
      <trkpt lat="45.877" lon="4.83821">
        <ele>169</ele>
        <time>2018-02-20T10:46:27Z</time>
      </trkpt>
      <trkpt lat="45.87699" lon="4.83833">
        <ele>170</ele>
        <time>2018-02-20T10:46:29Z</time>
      </trkpt>
      <trkpt lat="45.87699" lon="4.83838">
        <ele>172</ele>
        <time>2018-02-20T10:46:30Z</time>
      </trkpt>
      <trkpt lat="45.877" lon="4.83844">
        <ele>172</ele>
        <time>2018-02-20T10:46:31Z</time>
      </trkpt>
      <trkpt lat="45.87703" lon="4.8385">
        <ele>172</ele>
        <time>2018-02-20T10:46:32Z</time>
      </trkpt>
      <trkpt lat="45.87707" lon="4.83853">
        <ele>172</ele>
        <time>2018-02-20T10:46:33Z</time>
      </trkpt>
      <trkpt lat="45.87712" lon="4.83855">
        <ele>172</ele>
        <time>2018-02-20T10:46:34Z</time>
      </trkpt>
      <trkpt lat="45.8772" lon="4.83856">
        <ele>172</ele>
        <time>2018-02-20T10:46:36Z</time>
      </trkpt>
      <trkpt lat="45.87725" lon="4.83855">
        <ele>172</ele>
        <time>2018-02-20T10:46:37Z</time>
      </trkpt>
      <trkpt lat="45.8773" lon="4.83853">
        <ele>172</ele>
        <time>2018-02-20T10:46:38Z</time>
      </trkpt>
      <trkpt lat="45.87734" lon="4.83851">
        <ele>172</ele>
        <time>2018-02-20T10:46:39Z</time>
      </trkpt>
      <trkpt lat="45.87739" lon="4.83849">
        <ele>172</ele>
        <time>2018-02-20T10:46:40Z</time>
      </trkpt>
      <trkpt lat="45.87743" lon="4.83846">
        <ele>172</ele>
        <time>2018-02-20T10:46:41Z</time>
      </trkpt>
      <trkpt lat="45.87747" lon="4.83844">
        <ele>171</ele>
        <time>2018-02-20T10:46:42Z</time>
      </trkpt>
      <trkpt lat="45.87753" lon="4.83841">
        <ele>171</ele>
        <time>2018-02-20T10:46:43Z</time>
      </trkpt>
      <trkpt lat="45.87758" lon="4.83838">
        <ele>171</ele>
        <time>2018-02-20T10:46:44Z</time>
      </trkpt>
      <trkpt lat="45.87763" lon="4.83835">
        <ele>171</ele>
        <time>2018-02-20T10:46:45Z</time>
      </trkpt>
      <trkpt lat="45.87769" lon="4.83832">
        <ele>170</ele>
        <time>2018-02-20T10:46:46Z</time>
      </trkpt>
      <trkpt lat="45.87774" lon="4.83827">
        <ele>170</ele>
        <time>2018-02-20T10:46:47Z</time>
      </trkpt>
      <trkpt lat="45.8778" lon="4.83822">
        <ele>170</ele>
        <time>2018-02-20T10:46:48Z</time>
      </trkpt>
      <trkpt lat="45.87785" lon="4.83816">
        <ele>169</ele>
        <time>2018-02-20T10:46:49Z</time>
      </trkpt>
      <trkpt lat="45.87789" lon="4.83811">
        <ele>169</ele>
        <time>2018-02-20T10:46:50Z</time>
      </trkpt>
      <trkpt lat="45.87795" lon="4.83808">
        <ele>169</ele>
        <time>2018-02-20T10:46:51Z</time>
      </trkpt>
      <trkpt lat="45.87799" lon="4.83803">
        <ele>169</ele>
        <time>2018-02-20T10:46:52Z</time>
      </trkpt>
      <trkpt lat="45.87802" lon="4.83799">
        <ele>169</ele>
        <time>2018-02-20T10:46:53Z</time>
      </trkpt>
      <trkpt lat="45.87807" lon="4.83795">
        <ele>169</ele>
        <time>2018-02-20T10:46:54Z</time>
      </trkpt>
      <trkpt lat="45.87811" lon="4.8379">
        <ele>169</ele>
        <time>2018-02-20T10:46:55Z</time>
      </trkpt>
      <trkpt lat="45.87814" lon="4.83785">
        <ele>168</ele>
        <time>2018-02-20T10:46:56Z</time>
      </trkpt>
      <trkpt lat="45.87818" lon="4.83779">
        <ele>168</ele>
        <time>2018-02-20T10:46:57Z</time>
      </trkpt>
      <trkpt lat="45.87824" lon="4.83776">
        <ele>168</ele>
        <time>2018-02-20T10:46:58Z</time>
      </trkpt>
      <trkpt lat="45.8783" lon="4.8377">
        <ele>167</ele>
        <time>2018-02-20T10:46:59Z</time>
      </trkpt>
      <trkpt lat="45.87834" lon="4.83767">
        <ele>168</ele>
        <time>2018-02-20T10:47:00Z</time>
      </trkpt>
      <trkpt lat="45.87838" lon="4.83762">
        <ele>168</ele>
        <time>2018-02-20T10:47:01Z</time>
      </trkpt>
      <trkpt lat="45.87843" lon="4.83758">
        <ele>168</ele>
        <time>2018-02-20T10:47:02Z</time>
      </trkpt>
      <trkpt lat="45.87848" lon="4.83753">
        <ele>168</ele>
        <time>2018-02-20T10:47:03Z</time>
      </trkpt>
      <trkpt lat="45.87852" lon="4.83748">
        <ele>167</ele>
        <time>2018-02-20T10:47:04Z</time>
      </trkpt>
      <trkpt lat="45.87858" lon="4.83744">
        <ele>168</ele>
        <time>2018-02-20T10:47:05Z</time>
      </trkpt>
      <trkpt lat="45.87864" lon="4.83739">
        <ele>168</ele>
        <time>2018-02-20T10:47:06Z</time>
      </trkpt>
      <trkpt lat="45.87869" lon="4.83735">
        <ele>168</ele>
        <time>2018-02-20T10:47:07Z</time>
      </trkpt>
      <trkpt lat="45.87874" lon="4.83729">
        <ele>169</ele>
        <time>2018-02-20T10:47:08Z</time>
      </trkpt>
      <trkpt lat="45.87879" lon="4.83725">
        <ele>169</ele>
        <time>2018-02-20T10:47:09Z</time>
      </trkpt>
      <trkpt lat="45.87885" lon="4.83722">
        <ele>169</ele>
        <time>2018-02-20T10:47:10Z</time>
      </trkpt>
      <trkpt lat="45.87886" lon="4.83717">
        <ele>169</ele>
        <time>2018-02-20T10:47:11Z</time>
      </trkpt>
      <trkpt lat="45.8789" lon="4.83713">
        <ele>169</ele>
        <time>2018-02-20T10:47:12Z</time>
      </trkpt>
      <trkpt lat="45.87895" lon="4.83709">
        <ele>169</ele>
        <time>2018-02-20T10:47:13Z</time>
      </trkpt>
      <trkpt lat="45.87898" lon="4.83704">
        <ele>169</ele>
        <time>2018-02-20T10:47:14Z</time>
      </trkpt>
      <trkpt lat="45.87902" lon="4.83699">
        <ele>169</ele>
        <time>2018-02-20T10:47:15Z</time>
      </trkpt>
      <trkpt lat="45.87909" lon="4.83691">
        <ele>170</ele>
        <time>2018-02-20T10:47:18Z</time>
      </trkpt>
      <trkpt lat="45.8791" lon="4.8369">
        <ele>170</ele>
        <time>2018-02-20T10:47:19Z</time>
      </trkpt>
      <trkpt lat="45.87917" lon="4.83686">
        <ele>171</ele>
        <time>2018-02-20T10:47:40Z</time>
      </trkpt>
      <trkpt lat="45.87919" lon="4.83683">
        <ele>171</ele>
        <time>2018-02-20T10:47:41Z</time>
      </trkpt>
      <trkpt lat="45.87924" lon="4.83678">
        <ele>171</ele>
        <time>2018-02-20T10:47:43Z</time>
      </trkpt>
      <trkpt lat="45.87927" lon="4.83674">
        <ele>171</ele>
        <time>2018-02-20T10:47:44Z</time>
      </trkpt>
      <trkpt lat="45.87934" lon="4.83668">
        <ele>171</ele>
        <time>2018-02-20T10:47:46Z</time>
      </trkpt>
      <trkpt lat="45.87937" lon="4.83665">
        <ele>171</ele>
        <time>2018-02-20T10:47:47Z</time>
      </trkpt>
      <trkpt lat="45.87944" lon="4.83656">
        <ele>171</ele>
        <time>2018-02-20T10:47:49Z</time>
      </trkpt>
      <trkpt lat="45.87947" lon="4.83652">
        <ele>171</ele>
        <time>2018-02-20T10:47:50Z</time>
      </trkpt>
      <trkpt lat="45.87953" lon="4.83644">
        <ele>171</ele>
        <time>2018-02-20T10:47:52Z</time>
      </trkpt>
      <trkpt lat="45.8796" lon="4.83639">
        <ele>171</ele>
        <time>2018-02-20T10:47:53Z</time>
      </trkpt>
      <trkpt lat="45.87965" lon="4.8363">
        <ele>171</ele>
        <time>2018-02-20T10:47:55Z</time>
      </trkpt>
      <trkpt lat="45.87969" lon="4.83625">
        <ele>171</ele>
        <time>2018-02-20T10:47:56Z</time>
      </trkpt>
      <trkpt lat="45.87974" lon="4.83622">
        <ele>171</ele>
        <time>2018-02-20T10:47:57Z</time>
      </trkpt>
      <trkpt lat="45.87979" lon="4.83617">
        <ele>171</ele>
        <time>2018-02-20T10:47:58Z</time>
      </trkpt>
      <trkpt lat="45.87984" lon="4.83613">
        <ele>171</ele>
        <time>2018-02-20T10:47:59Z</time>
      </trkpt>
      <trkpt lat="45.87988" lon="4.83609">
        <ele>171</ele>
        <time>2018-02-20T10:48:00Z</time>
      </trkpt>
      <trkpt lat="45.87993" lon="4.83605">
        <ele>171</ele>
        <time>2018-02-20T10:48:01Z</time>
      </trkpt>
      <trkpt lat="45.87997" lon="4.83599">
        <ele>171</ele>
        <time>2018-02-20T10:48:02Z</time>
      </trkpt>
      <trkpt lat="45.88001" lon="4.83595">
        <ele>171</ele>
        <time>2018-02-20T10:48:03Z</time>
      </trkpt>
      <trkpt lat="45.88006" lon="4.83591">
        <ele>171</ele>
        <time>2018-02-20T10:48:04Z</time>
      </trkpt>
      <trkpt lat="45.88012" lon="4.83585">
        <ele>171</ele>
        <time>2018-02-20T10:48:05Z</time>
      </trkpt>
      <trkpt lat="45.88016" lon="4.8358">
        <ele>172</ele>
        <time>2018-02-20T10:48:06Z</time>
      </trkpt>
      <trkpt lat="45.88021" lon="4.83576">
        <ele>172</ele>
        <time>2018-02-20T10:48:07Z</time>
      </trkpt>
      <trkpt lat="45.88025" lon="4.8357">
        <ele>172</ele>
        <time>2018-02-20T10:48:08Z</time>
      </trkpt>
      <trkpt lat="45.88028" lon="4.83567">
        <ele>172</ele>
        <time>2018-02-20T10:48:09Z</time>
      </trkpt>
      <trkpt lat="45.88033" lon="4.8356">
        <ele>172</ele>
        <time>2018-02-20T10:48:10Z</time>
      </trkpt>
      <trkpt lat="45.88037" lon="4.83556">
        <ele>172</ele>
        <time>2018-02-20T10:48:11Z</time>
      </trkpt>
      <trkpt lat="45.88042" lon="4.83552">
        <ele>172</ele>
        <time>2018-02-20T10:48:12Z</time>
      </trkpt>
      <trkpt lat="45.88045" lon="4.83548">
        <ele>172</ele>
        <time>2018-02-20T10:48:13Z</time>
      </trkpt>
      <trkpt lat="45.88049" lon="4.83543">
        <ele>173</ele>
        <time>2018-02-20T10:48:14Z</time>
      </trkpt>
      <trkpt lat="45.88054" lon="4.83537">
        <ele>173</ele>
        <time>2018-02-20T10:48:15Z</time>
      </trkpt>
      <trkpt lat="45.8806" lon="4.83536">
        <ele>173</ele>
        <time>2018-02-20T10:48:16Z</time>
      </trkpt>
      <trkpt lat="45.88067" lon="4.8353">
        <ele>173</ele>
        <time>2018-02-20T10:48:18Z</time>
      </trkpt>
      <trkpt lat="45.88069" lon="4.83527">
        <ele>173</ele>
        <time>2018-02-20T10:48:19Z</time>
      </trkpt>
      <trkpt lat="45.88076" lon="4.8352">
        <ele>173</ele>
        <time>2018-02-20T10:48:22Z</time>
      </trkpt>
      <trkpt lat="45.88079" lon="4.83518">
        <ele>173</ele>
        <time>2018-02-20T10:48:23Z</time>
      </trkpt>
      <trkpt lat="45.88085" lon="4.83511">
        <ele>173</ele>
        <time>2018-02-20T10:48:26Z</time>
      </trkpt>
      <trkpt lat="45.88088" lon="4.83508">
        <ele>173</ele>
        <time>2018-02-20T10:48:27Z</time>
      </trkpt>
      <trkpt lat="45.88093" lon="4.83503">
        <ele>173</ele>
        <time>2018-02-20T10:48:29Z</time>
      </trkpt>
      <trkpt lat="45.88095" lon="4.83501">
        <ele>173</ele>
        <time>2018-02-20T10:48:30Z</time>
      </trkpt>
      <trkpt lat="45.88101" lon="4.83495">
        <ele>172</ele>
        <time>2018-02-20T10:48:32Z</time>
      </trkpt>
      <trkpt lat="45.88105" lon="4.83491">
        <ele>172</ele>
        <time>2018-02-20T10:48:33Z</time>
      </trkpt>
      <trkpt lat="45.88112" lon="4.83485">
        <ele>172</ele>
        <time>2018-02-20T10:48:35Z</time>
      </trkpt>
      <trkpt lat="45.88116" lon="4.83483">
        <ele>172</ele>
        <time>2018-02-20T10:48:36Z</time>
      </trkpt>
      <trkpt lat="45.88123" lon="4.83476">
        <ele>172</ele>
        <time>2018-02-20T10:48:38Z</time>
      </trkpt>
      <trkpt lat="45.88127" lon="4.83473">
        <ele>172</ele>
        <time>2018-02-20T10:48:39Z</time>
      </trkpt>
      <trkpt lat="45.88133" lon="4.83465">
        <ele>172</ele>
        <time>2018-02-20T10:48:41Z</time>
      </trkpt>
      <trkpt lat="45.88138" lon="4.83462">
        <ele>171</ele>
        <time>2018-02-20T10:48:42Z</time>
      </trkpt>
      <trkpt lat="45.88142" lon="4.83459">
        <ele>171</ele>
        <time>2018-02-20T10:48:43Z</time>
      </trkpt>
      <trkpt lat="45.88149" lon="4.83456">
        <ele>171</ele>
        <time>2018-02-20T10:48:44Z</time>
      </trkpt>
      <trkpt lat="45.88153" lon="4.83452">
        <ele>171</ele>
        <time>2018-02-20T10:48:45Z</time>
      </trkpt>
      <trkpt lat="45.88157" lon="4.83448">
        <ele>171</ele>
        <time>2018-02-20T10:48:46Z</time>
      </trkpt>
      <trkpt lat="45.88165" lon="4.83443">
        <ele>171</ele>
        <time>2018-02-20T10:48:48Z</time>
      </trkpt>
      <trkpt lat="45.88168" lon="4.8344">
        <ele>171</ele>
        <time>2018-02-20T10:48:49Z</time>
      </trkpt>
      <trkpt lat="45.88171" lon="4.83437">
        <ele>171</ele>
        <time>2018-02-20T10:48:50Z</time>
      </trkpt>
      <trkpt lat="45.88177" lon="4.83434">
        <ele>171</ele>
        <time>2018-02-20T10:48:51Z</time>
      </trkpt>
      <trkpt lat="45.88181" lon="4.83431">
        <ele>171</ele>
        <time>2018-02-20T10:48:52Z</time>
      </trkpt>
      <trkpt lat="45.88185" lon="4.83428">
        <ele>171</ele>
        <time>2018-02-20T10:48:53Z</time>
      </trkpt>
      <trkpt lat="45.88192" lon="4.83425">
        <ele>171</ele>
        <time>2018-02-20T10:48:55Z</time>
      </trkpt>
      <trkpt lat="45.88196" lon="4.83422">
        <ele>171</ele>
        <time>2018-02-20T10:48:56Z</time>
      </trkpt>
      <trkpt lat="45.882" lon="4.83422">
        <ele>171</ele>
        <time>2018-02-20T10:48:57Z</time>
      </trkpt>
      <trkpt lat="45.88206" lon="4.83418">
        <ele>171</ele>
        <time>2018-02-20T10:48:58Z</time>
      </trkpt>
      <trkpt lat="45.88212" lon="4.83417">
        <ele>172</ele>
        <time>2018-02-20T10:48:59Z</time>
      </trkpt>
      <trkpt lat="45.88216" lon="4.83417">
        <ele>171</ele>
        <time>2018-02-20T10:49:00Z</time>
      </trkpt>
      <trkpt lat="45.8822" lon="4.83416">
        <ele>171</ele>
        <time>2018-02-20T10:49:01Z</time>
      </trkpt>
      <trkpt lat="45.88226" lon="4.83415">
        <ele>171</ele>
        <time>2018-02-20T10:49:02Z</time>
      </trkpt>
      <trkpt lat="45.88233" lon="4.8341">
        <ele>171</ele>
        <time>2018-02-20T10:49:04Z</time>
      </trkpt>
      <trkpt lat="45.88238" lon="4.83408">
        <ele>172</ele>
        <time>2018-02-20T10:49:05Z</time>
      </trkpt>
      <trkpt lat="45.88246" lon="4.83405">
        <ele>172</ele>
        <time>2018-02-20T10:49:07Z</time>
      </trkpt>
      <trkpt lat="45.8825" lon="4.83404">
        <ele>172</ele>
        <time>2018-02-20T10:49:08Z</time>
      </trkpt>
      <trkpt lat="45.88256" lon="4.834">
        <ele>172</ele>
        <time>2018-02-20T10:49:09Z</time>
      </trkpt>
      <trkpt lat="45.8826" lon="4.83399">
        <ele>172</ele>
        <time>2018-02-20T10:49:10Z</time>
      </trkpt>
      <trkpt lat="45.88267" lon="4.83397">
        <ele>172</ele>
        <time>2018-02-20T10:49:12Z</time>
      </trkpt>
      <trkpt lat="45.88272" lon="4.83395">
        <ele>172</ele>
        <time>2018-02-20T10:49:13Z</time>
      </trkpt>
      <trkpt lat="45.88276" lon="4.83393">
        <ele>172</ele>
        <time>2018-02-20T10:49:14Z</time>
      </trkpt>
      <trkpt lat="45.88281" lon="4.83391">
        <ele>172</ele>
        <time>2018-02-20T10:49:15Z</time>
      </trkpt>
      <trkpt lat="45.88289" lon="4.83389">
        <ele>172</ele>
        <time>2018-02-20T10:49:17Z</time>
      </trkpt>
      <trkpt lat="45.88295" lon="4.83387">
        <ele>172</ele>
        <time>2018-02-20T10:49:18Z</time>
      </trkpt>
      <trkpt lat="45.883" lon="4.83384">
        <ele>172</ele>
        <time>2018-02-20T10:49:19Z</time>
      </trkpt>
      <trkpt lat="45.88305" lon="4.83382">
        <ele>172</ele>
        <time>2018-02-20T10:49:20Z</time>
      </trkpt>
      <trkpt lat="45.88309" lon="4.83381">
        <ele>172</ele>
        <time>2018-02-20T10:49:21Z</time>
      </trkpt>
      <trkpt lat="45.88314" lon="4.8338">
        <ele>172</ele>
        <time>2018-02-20T10:49:22Z</time>
      </trkpt>
      <trkpt lat="45.88322" lon="4.83377">
        <ele>172</ele>
        <time>2018-02-20T10:49:24Z</time>
      </trkpt>
      <trkpt lat="45.88327" lon="4.83377">
        <ele>172</ele>
        <time>2018-02-20T10:49:25Z</time>
      </trkpt>
      <trkpt lat="45.88335" lon="4.83373">
        <ele>172</ele>
        <time>2018-02-20T10:49:27Z</time>
      </trkpt>
      <trkpt lat="45.88338" lon="4.83373">
        <ele>172</ele>
        <time>2018-02-20T10:49:28Z</time>
      </trkpt>
      <trkpt lat="45.88343" lon="4.83372">
        <ele>172</ele>
        <time>2018-02-20T10:49:29Z</time>
      </trkpt>
      <trkpt lat="45.88348" lon="4.83369">
        <ele>172</ele>
        <time>2018-02-20T10:49:30Z</time>
      </trkpt>
      <trkpt lat="45.88356" lon="4.83366">
        <ele>172</ele>
        <time>2018-02-20T10:49:32Z</time>
      </trkpt>
      <trkpt lat="45.88362" lon="4.83362">
        <ele>172</ele>
        <time>2018-02-20T10:49:33Z</time>
      </trkpt>
      <trkpt lat="45.88367" lon="4.8336">
        <ele>172</ele>
        <time>2018-02-20T10:49:34Z</time>
      </trkpt>
      <trkpt lat="45.88371" lon="4.83359">
        <ele>172</ele>
        <time>2018-02-20T10:49:35Z</time>
      </trkpt>
      <trkpt lat="45.88376" lon="4.83358">
        <ele>172</ele>
        <time>2018-02-20T10:49:36Z</time>
      </trkpt>
      <trkpt lat="45.8838" lon="4.83355">
        <ele>172</ele>
        <time>2018-02-20T10:49:37Z</time>
      </trkpt>
      <trkpt lat="45.88385" lon="4.83354">
        <ele>172</ele>
        <time>2018-02-20T10:49:38Z</time>
      </trkpt>
      <trkpt lat="45.88389" lon="4.83354">
        <ele>172</ele>
        <time>2018-02-20T10:49:39Z</time>
      </trkpt>
      <trkpt lat="45.88394" lon="4.83354">
        <ele>172</ele>
        <time>2018-02-20T10:49:40Z</time>
      </trkpt>
      <trkpt lat="45.88398" lon="4.83349">
        <ele>172</ele>
        <time>2018-02-20T10:49:41Z</time>
      </trkpt>
      <trkpt lat="45.88407" lon="4.83346">
        <ele>172</ele>
        <time>2018-02-20T10:49:43Z</time>
      </trkpt>
      <trkpt lat="45.88411" lon="4.83343">
        <ele>172</ele>
        <time>2018-02-20T10:49:44Z</time>
      </trkpt>
      <trkpt lat="45.88417" lon="4.83339">
        <ele>172</ele>
        <time>2018-02-20T10:49:46Z</time>
      </trkpt>
      <trkpt lat="45.88421" lon="4.83337">
        <ele>172</ele>
        <time>2018-02-20T10:49:47Z</time>
      </trkpt>
      <trkpt lat="45.88425" lon="4.83335">
        <ele>172</ele>
        <time>2018-02-20T10:49:48Z</time>
      </trkpt>
      <trkpt lat="45.8843" lon="4.83333">
        <ele>172</ele>
        <time>2018-02-20T10:49:49Z</time>
      </trkpt>
      <trkpt lat="45.88435" lon="4.83331">
        <ele>172</ele>
        <time>2018-02-20T10:49:50Z</time>
      </trkpt>
      <trkpt lat="45.88439" lon="4.83328">
        <ele>172</ele>
        <time>2018-02-20T10:49:51Z</time>
      </trkpt>
      <trkpt lat="45.88447" lon="4.83323">
        <ele>172</ele>
        <time>2018-02-20T10:49:53Z</time>
      </trkpt>
      <trkpt lat="45.88453" lon="4.83321">
        <ele>172</ele>
        <time>2018-02-20T10:49:54Z</time>
      </trkpt>
      <trkpt lat="45.88458" lon="4.83317">
        <ele>172</ele>
        <time>2018-02-20T10:49:55Z</time>
      </trkpt>
      <trkpt lat="45.88462" lon="4.83315">
        <ele>172</ele>
        <time>2018-02-20T10:49:56Z</time>
      </trkpt>
      <trkpt lat="45.88467" lon="4.83313">
        <ele>172</ele>
        <time>2018-02-20T10:49:57Z</time>
      </trkpt>
      <trkpt lat="45.88471" lon="4.83311">
        <ele>172</ele>
        <time>2018-02-20T10:49:58Z</time>
      </trkpt>
      <trkpt lat="45.88479" lon="4.83306">
        <ele>172</ele>
        <time>2018-02-20T10:50:00Z</time>
      </trkpt>
      <trkpt lat="45.88483" lon="4.83304">
        <ele>172</ele>
        <time>2018-02-20T10:50:01Z</time>
      </trkpt>
      <trkpt lat="45.8849" lon="4.83299">
        <ele>172</ele>
        <time>2018-02-20T10:50:03Z</time>
      </trkpt>
      <trkpt lat="45.88493" lon="4.83298">
        <ele>172</ele>
        <time>2018-02-20T10:50:04Z</time>
      </trkpt>
      <trkpt lat="45.88502" lon="4.83294">
        <ele>172</ele>
        <time>2018-02-20T10:50:06Z</time>
      </trkpt>
      <trkpt lat="45.88507" lon="4.83291">
        <ele>172</ele>
        <time>2018-02-20T10:50:07Z</time>
      </trkpt>
      <trkpt lat="45.88511" lon="4.83288">
        <ele>172</ele>
        <time>2018-02-20T10:50:08Z</time>
      </trkpt>
      <trkpt lat="45.88515" lon="4.83286">
        <ele>172</ele>
        <time>2018-02-20T10:50:09Z</time>
      </trkpt>
      <trkpt lat="45.88522" lon="4.8328">
        <ele>172</ele>
        <time>2018-02-20T10:50:11Z</time>
      </trkpt>
      <trkpt lat="45.88525" lon="4.83278">
        <ele>172</ele>
        <time>2018-02-20T10:50:12Z</time>
      </trkpt>
      <trkpt lat="45.88529" lon="4.83274">
        <ele>172</ele>
        <time>2018-02-20T10:50:13Z</time>
      </trkpt>
      <trkpt lat="45.88534" lon="4.83272">
        <ele>172</ele>
        <time>2018-02-20T10:50:14Z</time>
      </trkpt>
      <trkpt lat="45.8854" lon="4.83267">
        <ele>172</ele>
        <time>2018-02-20T10:50:16Z</time>
      </trkpt>
      <trkpt lat="45.88543" lon="4.83264">
        <ele>172</ele>
        <time>2018-02-20T10:50:17Z</time>
      </trkpt>
      <trkpt lat="45.88549" lon="4.83257">
        <ele>172</ele>
        <time>2018-02-20T10:50:19Z</time>
      </trkpt>
      <trkpt lat="45.88551" lon="4.83253">
        <ele>172</ele>
        <time>2018-02-20T10:50:20Z</time>
      </trkpt>
      <trkpt lat="45.88556" lon="4.83245">
        <ele>172</ele>
        <time>2018-02-20T10:50:22Z</time>
      </trkpt>
      <trkpt lat="45.88559" lon="4.83241">
        <ele>172</ele>
        <time>2018-02-20T10:50:23Z</time>
      </trkpt>
      <trkpt lat="45.88565" lon="4.83233">
        <ele>172</ele>
        <time>2018-02-20T10:50:25Z</time>
      </trkpt>
      <trkpt lat="45.88568" lon="4.83229">
        <ele>172</ele>
        <time>2018-02-20T10:50:26Z</time>
      </trkpt>
      <trkpt lat="45.88573" lon="4.8322">
        <ele>172</ele>
        <time>2018-02-20T10:50:28Z</time>
      </trkpt>
      <trkpt lat="45.88576" lon="4.83216">
        <ele>172</ele>
        <time>2018-02-20T10:50:29Z</time>
      </trkpt>
      <trkpt lat="45.88583" lon="4.83208">
        <ele>172</ele>
        <time>2018-02-20T10:50:31Z</time>
      </trkpt>
      <trkpt lat="45.88586" lon="4.83204">
        <ele>172</ele>
        <time>2018-02-20T10:50:32Z</time>
      </trkpt>
      <trkpt lat="45.88592" lon="4.83196">
        <ele>172</ele>
        <time>2018-02-20T10:50:34Z</time>
      </trkpt>
      <trkpt lat="45.88596" lon="4.83191">
        <ele>172</ele>
        <time>2018-02-20T10:50:35Z</time>
      </trkpt>
      <trkpt lat="45.886" lon="4.83186">
        <ele>172</ele>
        <time>2018-02-20T10:50:36Z</time>
      </trkpt>
      <trkpt lat="45.88607" lon="4.83178">
        <ele>172</ele>
        <time>2018-02-20T10:50:37Z</time>
      </trkpt>
      <trkpt lat="45.88614" lon="4.83171">
        <ele>172</ele>
        <time>2018-02-20T10:50:39Z</time>
      </trkpt>
      <trkpt lat="45.88617" lon="4.83167">
        <ele>172</ele>
        <time>2018-02-20T10:50:40Z</time>
      </trkpt>
      <trkpt lat="45.88623" lon="4.83159">
        <ele>172</ele>
        <time>2018-02-20T10:50:42Z</time>
      </trkpt>
      <trkpt lat="45.88627" lon="4.83155">
        <ele>173</ele>
        <time>2018-02-20T10:50:43Z</time>
      </trkpt>
      <trkpt lat="45.88632" lon="4.83147">
        <ele>173</ele>
        <time>2018-02-20T10:50:45Z</time>
      </trkpt>
      <trkpt lat="45.88635" lon="4.83142">
        <ele>173</ele>
        <time>2018-02-20T10:50:46Z</time>
      </trkpt>
      <trkpt lat="45.8864" lon="4.83135">
        <ele>173</ele>
        <time>2018-02-20T10:50:48Z</time>
      </trkpt>
      <trkpt lat="45.88644" lon="4.83132">
        <ele>173</ele>
        <time>2018-02-20T10:50:49Z</time>
      </trkpt>
      <trkpt lat="45.88647" lon="4.83128">
        <ele>173</ele>
        <time>2018-02-20T10:50:50Z</time>
      </trkpt>
      <trkpt lat="45.88651" lon="4.83123">
        <ele>173</ele>
        <time>2018-02-20T10:50:51Z</time>
      </trkpt>
      <trkpt lat="45.88655" lon="4.83119">
        <ele>173</ele>
        <time>2018-02-20T10:50:52Z</time>
      </trkpt>
      <trkpt lat="45.88658" lon="4.83115">
        <ele>173</ele>
        <time>2018-02-20T10:50:53Z</time>
      </trkpt>
      <trkpt lat="45.88665" lon="4.83107">
        <ele>174</ele>
        <time>2018-02-20T10:50:55Z</time>
      </trkpt>
      <trkpt lat="45.88668" lon="4.83102">
        <ele>174</ele>
        <time>2018-02-20T10:50:56Z</time>
      </trkpt>
      <trkpt lat="45.88672" lon="4.83097">
        <ele>174</ele>
        <time>2018-02-20T10:50:57Z</time>
      </trkpt>
      <trkpt lat="45.88676" lon="4.83092">
        <ele>174</ele>
        <time>2018-02-20T10:50:58Z</time>
      </trkpt>
      <trkpt lat="45.88682" lon="4.83084">
        <ele>174</ele>
        <time>2018-02-20T10:51:00Z</time>
      </trkpt>
      <trkpt lat="45.88686" lon="4.8308">
        <ele>174</ele>
        <time>2018-02-20T10:51:01Z</time>
      </trkpt>
      <trkpt lat="45.88691" lon="4.83083">
        <ele>174</ele>
        <time>2018-02-20T10:51:03Z</time>
      </trkpt>
      <trkpt lat="45.88695" lon="4.8308">
        <ele>174</ele>
        <time>2018-02-20T10:51:04Z</time>
      </trkpt>
      <trkpt lat="45.88701" lon="4.83072">
        <ele>174</ele>
        <time>2018-02-20T10:51:06Z</time>
      </trkpt>
      <trkpt lat="45.88704" lon="4.83069">
        <ele>174</ele>
        <time>2018-02-20T10:51:07Z</time>
      </trkpt>
      <trkpt lat="45.88707" lon="4.83065">
        <ele>174</ele>
        <time>2018-02-20T10:51:08Z</time>
      </trkpt>
      <trkpt lat="45.88709" lon="4.83056">
        <ele>174</ele>
        <time>2018-02-20T10:51:09Z</time>
      </trkpt>
      <trkpt lat="45.88715" lon="4.83049">
        <ele>174</ele>
        <time>2018-02-20T10:51:11Z</time>
      </trkpt>
      <trkpt lat="45.88718" lon="4.83046">
        <ele>174</ele>
        <time>2018-02-20T10:51:12Z</time>
      </trkpt>
      <trkpt lat="45.88724" lon="4.83039">
        <ele>174</ele>
        <time>2018-02-20T10:51:14Z</time>
      </trkpt>
      <trkpt lat="45.88726" lon="4.83036">
        <ele>173</ele>
        <time>2018-02-20T10:51:15Z</time>
      </trkpt>
      <trkpt lat="45.88731" lon="4.83028">
        <ele>173</ele>
        <time>2018-02-20T10:51:17Z</time>
      </trkpt>
      <trkpt lat="45.88734" lon="4.83024">
        <ele>173</ele>
        <time>2018-02-20T10:51:18Z</time>
      </trkpt>
      <trkpt lat="45.88738" lon="4.8302">
        <ele>173</ele>
        <time>2018-02-20T10:51:19Z</time>
      </trkpt>
      <trkpt lat="45.88741" lon="4.83016">
        <ele>173</ele>
        <time>2018-02-20T10:51:20Z</time>
      </trkpt>
      <trkpt lat="45.88748" lon="4.83008">
        <ele>172</ele>
        <time>2018-02-20T10:51:22Z</time>
      </trkpt>
      <trkpt lat="45.88754" lon="4.83003">
        <ele>172</ele>
        <time>2018-02-20T10:51:23Z</time>
      </trkpt>
      <trkpt lat="45.88758" lon="4.82998">
        <ele>172</ele>
        <time>2018-02-20T10:51:24Z</time>
      </trkpt>
      <trkpt lat="45.88761" lon="4.82991">
        <ele>172</ele>
        <time>2018-02-20T10:51:25Z</time>
      </trkpt>
      <trkpt lat="45.88768" lon="4.82985">
        <ele>172</ele>
        <time>2018-02-20T10:51:27Z</time>
      </trkpt>
      <trkpt lat="45.88772" lon="4.82981">
        <ele>172</ele>
        <time>2018-02-20T10:51:28Z</time>
      </trkpt>
      <trkpt lat="45.88777" lon="4.82973">
        <ele>172</ele>
        <time>2018-02-20T10:51:30Z</time>
      </trkpt>
      <trkpt lat="45.8878" lon="4.82969">
        <ele>172</ele>
        <time>2018-02-20T10:51:31Z</time>
      </trkpt>
      <trkpt lat="45.88779" lon="4.82957">
        <ele>172</ele>
        <time>2018-02-20T10:51:34Z</time>
      </trkpt>
      <trkpt lat="45.88785" lon="4.82953">
        <ele>172</ele>
        <time>2018-02-20T10:51:35Z</time>
      </trkpt>
      <trkpt lat="45.88792" lon="4.82946">
        <ele>172</ele>
        <time>2018-02-20T10:51:37Z</time>
      </trkpt>
      <trkpt lat="45.88796" lon="4.82942">
        <ele>172</ele>
        <time>2018-02-20T10:51:38Z</time>
      </trkpt>
      <trkpt lat="45.888" lon="4.82938">
        <ele>172</ele>
        <time>2018-02-20T10:51:39Z</time>
      </trkpt>
      <trkpt lat="45.88804" lon="4.82933">
        <ele>172</ele>
        <time>2018-02-20T10:51:40Z</time>
      </trkpt>
      <trkpt lat="45.88811" lon="4.82927">
        <ele>172</ele>
        <time>2018-02-20T10:51:42Z</time>
      </trkpt>
      <trkpt lat="45.88816" lon="4.82922">
        <ele>172</ele>
        <time>2018-02-20T10:51:43Z</time>
      </trkpt>
      <trkpt lat="45.88822" lon="4.82919">
        <ele>172</ele>
        <time>2018-02-20T10:51:44Z</time>
      </trkpt>
      <trkpt lat="45.88826" lon="4.82915">
        <ele>172</ele>
        <time>2018-02-20T10:51:45Z</time>
      </trkpt>
      <trkpt lat="45.8883" lon="4.82911">
        <ele>172</ele>
        <time>2018-02-20T10:51:46Z</time>
      </trkpt>
      <trkpt lat="45.88834" lon="4.82907">
        <ele>172</ele>
        <time>2018-02-20T10:51:47Z</time>
      </trkpt>
      <trkpt lat="45.8884" lon="4.829">
        <ele>172</ele>
        <time>2018-02-20T10:51:49Z</time>
      </trkpt>
      <trkpt lat="45.88844" lon="4.82895">
        <ele>172</ele>
        <time>2018-02-20T10:51:50Z</time>
      </trkpt>
      <trkpt lat="45.88847" lon="4.82891">
        <ele>172</ele>
        <time>2018-02-20T10:51:51Z</time>
      </trkpt>
      <trkpt lat="45.8885" lon="4.82887">
        <ele>172</ele>
        <time>2018-02-20T10:51:52Z</time>
      </trkpt>
      <trkpt lat="45.88854" lon="4.82883">
        <ele>172</ele>
        <time>2018-02-20T10:51:53Z</time>
      </trkpt>
      <trkpt lat="45.88858" lon="4.82877">
        <ele>172</ele>
        <time>2018-02-20T10:51:54Z</time>
      </trkpt>
      <trkpt lat="45.88862" lon="4.82873">
        <ele>172</ele>
        <time>2018-02-20T10:51:55Z</time>
      </trkpt>
      <trkpt lat="45.88866" lon="4.82867">
        <ele>172</ele>
        <time>2018-02-20T10:51:56Z</time>
      </trkpt>
      <trkpt lat="45.88873" lon="4.8286">
        <ele>172</ele>
        <time>2018-02-20T10:51:58Z</time>
      </trkpt>
      <trkpt lat="45.88877" lon="4.82854">
        <ele>172</ele>
        <time>2018-02-20T10:51:59Z</time>
      </trkpt>
      <trkpt lat="45.8888" lon="4.82849">
        <ele>172</ele>
        <time>2018-02-20T10:52:00Z</time>
      </trkpt>
      <trkpt lat="45.88885" lon="4.82845">
        <ele>172</ele>
        <time>2018-02-20T10:52:01Z</time>
      </trkpt>
      <trkpt lat="45.88891" lon="4.82837">
        <ele>172</ele>
        <time>2018-02-20T10:52:03Z</time>
      </trkpt>
      <trkpt lat="45.88895" lon="4.82832">
        <ele>172</ele>
        <time>2018-02-20T10:52:04Z</time>
      </trkpt>
      <trkpt lat="45.88899" lon="4.82829">
        <ele>172</ele>
        <time>2018-02-20T10:52:05Z</time>
      </trkpt>
      <trkpt lat="45.88903" lon="4.82826">
        <ele>172</ele>
        <time>2018-02-20T10:52:06Z</time>
      </trkpt>
      <trkpt lat="45.88907" lon="4.8282">
        <ele>172</ele>
        <time>2018-02-20T10:52:07Z</time>
      </trkpt>
      <trkpt lat="45.8891" lon="4.82817">
        <ele>172</ele>
        <time>2018-02-20T10:52:08Z</time>
      </trkpt>
      <trkpt lat="45.88914" lon="4.82813">
        <ele>172</ele>
        <time>2018-02-20T10:52:09Z</time>
      </trkpt>
      <trkpt lat="45.88918" lon="4.82806">
        <ele>172</ele>
        <time>2018-02-20T10:52:10Z</time>
      </trkpt>
      <trkpt lat="45.88922" lon="4.82802">
        <ele>172</ele>
        <time>2018-02-20T10:52:11Z</time>
      </trkpt>
      <trkpt lat="45.88926" lon="4.82797">
        <ele>172</ele>
        <time>2018-02-20T10:52:12Z</time>
      </trkpt>
      <trkpt lat="45.88929" lon="4.82792">
        <ele>172</ele>
        <time>2018-02-20T10:52:13Z</time>
      </trkpt>
      <trkpt lat="45.88933" lon="4.82788">
        <ele>172</ele>
        <time>2018-02-20T10:52:14Z</time>
      </trkpt>
      <trkpt lat="45.88936" lon="4.82784">
        <ele>172</ele>
        <time>2018-02-20T10:52:15Z</time>
      </trkpt>
      <trkpt lat="45.8894" lon="4.8278">
        <ele>172</ele>
        <time>2018-02-20T10:52:16Z</time>
      </trkpt>
      <trkpt lat="45.88943" lon="4.82775">
        <ele>172</ele>
        <time>2018-02-20T10:52:17Z</time>
      </trkpt>
      <trkpt lat="45.88947" lon="4.8277">
        <ele>172</ele>
        <time>2018-02-20T10:52:18Z</time>
      </trkpt>
      <trkpt lat="45.88955" lon="4.82763">
        <ele>172</ele>
        <time>2018-02-20T10:52:20Z</time>
      </trkpt>
      <trkpt lat="45.88956" lon="4.82763">
        <ele>172</ele>
        <time>2018-02-20T10:52:21Z</time>
      </trkpt>
      <trkpt lat="45.88962" lon="4.82758">
        <ele>172</ele>
        <time>2018-02-20T10:52:24Z</time>
      </trkpt>
      <trkpt lat="45.88966" lon="4.82751">
        <ele>172</ele>
        <time>2018-02-20T10:52:25Z</time>
      </trkpt>
      <trkpt lat="45.8897" lon="4.82743">
        <ele>172</ele>
        <time>2018-02-20T10:52:26Z</time>
      </trkpt>
      <trkpt lat="45.88974" lon="4.82739">
        <ele>173</ele>
        <time>2018-02-20T10:52:27Z</time>
      </trkpt>
      <trkpt lat="45.8898" lon="4.82733">
        <ele>173</ele>
        <time>2018-02-20T10:52:28Z</time>
      </trkpt>
      <trkpt lat="45.8898" lon="4.82726">
        <ele>173</ele>
        <time>2018-02-20T10:52:29Z</time>
      </trkpt>
      <trkpt lat="45.88982" lon="4.82721">
        <ele>173</ele>
        <time>2018-02-20T10:52:30Z</time>
      </trkpt>
      <trkpt lat="45.88985" lon="4.82715">
        <ele>173</ele>
        <time>2018-02-20T10:52:31Z</time>
      </trkpt>
      <trkpt lat="45.8899" lon="4.82705">
        <ele>173</ele>
        <time>2018-02-20T10:52:33Z</time>
      </trkpt>
      <trkpt lat="45.88993" lon="4.82701">
        <ele>173</ele>
        <time>2018-02-20T10:52:34Z</time>
      </trkpt>
      <trkpt lat="45.88996" lon="4.82696">
        <ele>173</ele>
        <time>2018-02-20T10:52:35Z</time>
      </trkpt>
      <trkpt lat="45.88999" lon="4.8269">
        <ele>173</ele>
        <time>2018-02-20T10:52:36Z</time>
      </trkpt>
      <trkpt lat="45.89003" lon="4.82676">
        <ele>173</ele>
        <time>2018-02-20T10:52:37Z</time>
      </trkpt>
      <trkpt lat="45.89008" lon="4.82666">
        <ele>173</ele>
        <time>2018-02-20T10:52:39Z</time>
      </trkpt>
      <trkpt lat="45.8901" lon="4.8266">
        <ele>173</ele>
        <time>2018-02-20T10:52:40Z</time>
      </trkpt>
      <trkpt lat="45.89014" lon="4.82652">
        <ele>173</ele>
        <time>2018-02-20T10:52:42Z</time>
      </trkpt>
      <trkpt lat="45.89015" lon="4.82647">
        <ele>173</ele>
        <time>2018-02-20T10:52:43Z</time>
      </trkpt>
      <trkpt lat="45.89019" lon="4.82643">
        <ele>174</ele>
        <time>2018-02-20T10:52:44Z</time>
      </trkpt>
      <trkpt lat="45.89021" lon="4.82637">
        <ele>174</ele>
        <time>2018-02-20T10:52:45Z</time>
      </trkpt>
      <trkpt lat="45.89026" lon="4.82629">
        <ele>174</ele>
        <time>2018-02-20T10:52:47Z</time>
      </trkpt>
      <trkpt lat="45.89029" lon="4.82625">
        <ele>174</ele>
        <time>2018-02-20T10:52:48Z</time>
      </trkpt>
      <trkpt lat="45.89033" lon="4.82615">
        <ele>174</ele>
        <time>2018-02-20T10:52:50Z</time>
      </trkpt>
      <trkpt lat="45.89034" lon="4.82611">
        <ele>174</ele>
        <time>2018-02-20T10:52:51Z</time>
      </trkpt>
      <trkpt lat="45.89039" lon="4.82601">
        <ele>174</ele>
        <time>2018-02-20T10:52:53Z</time>
      </trkpt>
      <trkpt lat="45.89042" lon="4.82595">
        <ele>174</ele>
        <time>2018-02-20T10:52:54Z</time>
      </trkpt>
      <trkpt lat="45.89046" lon="4.82586">
        <ele>174</ele>
        <time>2018-02-20T10:52:56Z</time>
      </trkpt>
      <trkpt lat="45.89049" lon="4.82582">
        <ele>174</ele>
        <time>2018-02-20T10:52:57Z</time>
      </trkpt>
      <trkpt lat="45.89053" lon="4.82575">
        <ele>174</ele>
        <time>2018-02-20T10:52:59Z</time>
      </trkpt>
      <trkpt lat="45.89056" lon="4.82572">
        <ele>174</ele>
        <time>2018-02-20T10:53:00Z</time>
      </trkpt>
      <trkpt lat="45.89063" lon="4.82566">
        <ele>174</ele>
        <time>2018-02-20T10:53:05Z</time>
      </trkpt>
      <trkpt lat="45.89064" lon="4.82566">
        <ele>174</ele>
        <time>2018-02-20T10:53:06Z</time>
      </trkpt>
      <trkpt lat="45.89071" lon="4.82568">
        <ele>174</ele>
        <time>2018-02-20T10:53:13Z</time>
      </trkpt>
      <trkpt lat="45.89074" lon="4.82569">
        <ele>174</ele>
        <time>2018-02-20T10:53:14Z</time>
      </trkpt>
      <trkpt lat="45.89079" lon="4.82578">
        <ele>174</ele>
        <time>2018-02-20T10:53:17Z</time>
      </trkpt>
      <trkpt lat="45.89081" lon="4.82581">
        <ele>174</ele>
        <time>2018-02-20T10:53:18Z</time>
      </trkpt>
      <trkpt lat="45.89086" lon="4.82584">
        <ele>174</ele>
        <time>2018-02-20T10:53:20Z</time>
      </trkpt>
      <trkpt lat="45.8909" lon="4.82586">
        <ele>174</ele>
        <time>2018-02-20T10:53:21Z</time>
      </trkpt>
      <trkpt lat="45.89098" lon="4.82591">
        <ele>174</ele>
        <time>2018-02-20T10:53:23Z</time>
      </trkpt>
      <trkpt lat="45.89102" lon="4.82594">
        <ele>174</ele>
        <time>2018-02-20T10:53:24Z</time>
      </trkpt>
      <trkpt lat="45.8911" lon="4.82597">
        <ele>174</ele>
        <time>2018-02-20T10:53:26Z</time>
      </trkpt>
      <trkpt lat="45.89114" lon="4.82598">
        <ele>174</ele>
        <time>2018-02-20T10:53:27Z</time>
      </trkpt>
      <trkpt lat="45.89122" lon="4.82597">
        <ele>174</ele>
        <time>2018-02-20T10:53:29Z</time>
      </trkpt>
      <trkpt lat="45.89126" lon="4.82596">
        <ele>174</ele>
        <time>2018-02-20T10:53:30Z</time>
      </trkpt>
      <trkpt lat="45.89133" lon="4.82591">
        <ele>174</ele>
        <time>2018-02-20T10:53:32Z</time>
      </trkpt>
      <trkpt lat="45.89136" lon="4.82587">
        <ele>174</ele>
        <time>2018-02-20T10:53:33Z</time>
      </trkpt>
      <trkpt lat="45.89141" lon="4.82577">
        <ele>173</ele>
        <time>2018-02-20T10:53:35Z</time>
      </trkpt>
      <trkpt lat="45.8914" lon="4.82569">
        <ele>173</ele>
        <time>2018-02-20T10:53:36Z</time>
      </trkpt>
      <trkpt lat="45.89143" lon="4.82557">
        <ele>173</ele>
        <time>2018-02-20T10:53:38Z</time>
      </trkpt>
      <trkpt lat="45.89145" lon="4.82553">
        <ele>173</ele>
        <time>2018-02-20T10:53:39Z</time>
      </trkpt>
      <trkpt lat="45.89148" lon="4.82548">
        <ele>173</ele>
        <time>2018-02-20T10:53:40Z</time>
      </trkpt>
      <trkpt lat="45.89152" lon="4.82544">
        <ele>173</ele>
        <time>2018-02-20T10:53:41Z</time>
      </trkpt>
      <trkpt lat="45.89156" lon="4.82539">
        <ele>173</ele>
        <time>2018-02-20T10:53:42Z</time>
      </trkpt>
      <trkpt lat="45.8916" lon="4.82534">
        <ele>173</ele>
        <time>2018-02-20T10:53:43Z</time>
      </trkpt>
      <trkpt lat="45.89164" lon="4.82529">
        <ele>173</ele>
        <time>2018-02-20T10:53:44Z</time>
      </trkpt>
      <trkpt lat="45.89168" lon="4.82525">
        <ele>172</ele>
        <time>2018-02-20T10:53:45Z</time>
      </trkpt>
      <trkpt lat="45.89172" lon="4.82521">
        <ele>172</ele>
        <time>2018-02-20T10:53:46Z</time>
      </trkpt>
      <trkpt lat="45.89175" lon="4.82517">
        <ele>172</ele>
        <time>2018-02-20T10:53:47Z</time>
      </trkpt>
      <trkpt lat="45.89181" lon="4.82513">
        <ele>172</ele>
        <time>2018-02-20T10:53:48Z</time>
      </trkpt>
      <trkpt lat="45.89186" lon="4.82508">
        <ele>172</ele>
        <time>2018-02-20T10:53:49Z</time>
      </trkpt>
      <trkpt lat="45.8919" lon="4.82504">
        <ele>172</ele>
        <time>2018-02-20T10:53:50Z</time>
      </trkpt>
      <trkpt lat="45.89194" lon="4.825">
        <ele>172</ele>
        <time>2018-02-20T10:53:51Z</time>
      </trkpt>
      <trkpt lat="45.89198" lon="4.82495">
        <ele>172</ele>
        <time>2018-02-20T10:53:52Z</time>
      </trkpt>
      <trkpt lat="45.89203" lon="4.82491">
        <ele>172</ele>
        <time>2018-02-20T10:53:53Z</time>
      </trkpt>
      <trkpt lat="45.89209" lon="4.82482">
        <ele>173</ele>
        <time>2018-02-20T10:53:55Z</time>
      </trkpt>
      <trkpt lat="45.89213" lon="4.82478">
        <ele>173</ele>
        <time>2018-02-20T10:53:56Z</time>
      </trkpt>
      <trkpt lat="45.89219" lon="4.8247">
        <ele>173</ele>
        <time>2018-02-20T10:53:58Z</time>
      </trkpt>
      <trkpt lat="45.89223" lon="4.82467">
        <ele>173</ele>
        <time>2018-02-20T10:53:59Z</time>
      </trkpt>
      <trkpt lat="45.89229" lon="4.82459">
        <ele>173</ele>
        <time>2018-02-20T10:54:01Z</time>
      </trkpt>
      <trkpt lat="45.89233" lon="4.82454">
        <ele>173</ele>
        <time>2018-02-20T10:54:02Z</time>
      </trkpt>
      <trkpt lat="45.89236" lon="4.8245">
        <ele>173</ele>
        <time>2018-02-20T10:54:03Z</time>
      </trkpt>
      <trkpt lat="45.8924" lon="4.82446">
        <ele>173</ele>
        <time>2018-02-20T10:54:04Z</time>
      </trkpt>
      <trkpt lat="45.89243" lon="4.82442">
        <ele>173</ele>
        <time>2018-02-20T10:54:05Z</time>
      </trkpt>
      <trkpt lat="45.89247" lon="4.82438">
        <ele>173</ele>
        <time>2018-02-20T10:54:06Z</time>
      </trkpt>
      <trkpt lat="45.89253" lon="4.8243">
        <ele>173</ele>
        <time>2018-02-20T10:54:08Z</time>
      </trkpt>
      <trkpt lat="45.89257" lon="4.82427">
        <ele>173</ele>
        <time>2018-02-20T10:54:09Z</time>
      </trkpt>
      <trkpt lat="45.89263" lon="4.8242">
        <ele>173</ele>
        <time>2018-02-20T10:54:11Z</time>
      </trkpt>
      <trkpt lat="45.89267" lon="4.82417">
        <ele>173</ele>
        <time>2018-02-20T10:54:12Z</time>
      </trkpt>
      <trkpt lat="45.89272" lon="4.82411">
        <ele>173</ele>
        <time>2018-02-20T10:54:13Z</time>
      </trkpt>
      <trkpt lat="45.89276" lon="4.82409">
        <ele>173</ele>
        <time>2018-02-20T10:54:14Z</time>
      </trkpt>
      <trkpt lat="45.89279" lon="4.82405">
        <ele>173</ele>
        <time>2018-02-20T10:54:15Z</time>
      </trkpt>
      <trkpt lat="45.89283" lon="4.82399">
        <ele>173</ele>
        <time>2018-02-20T10:54:16Z</time>
      </trkpt>
      <trkpt lat="45.89286" lon="4.82395">
        <ele>173</ele>
        <time>2018-02-20T10:54:17Z</time>
      </trkpt>
      <trkpt lat="45.89291" lon="4.82391">
        <ele>173</ele>
        <time>2018-02-20T10:54:18Z</time>
      </trkpt>
      <trkpt lat="45.89294" lon="4.82382">
        <ele>173</ele>
        <time>2018-02-20T10:54:20Z</time>
      </trkpt>
      <trkpt lat="45.89299" lon="4.82378">
        <ele>173</ele>
        <time>2018-02-20T10:54:21Z</time>
      </trkpt>
      <trkpt lat="45.89304" lon="4.82371">
        <ele>173</ele>
        <time>2018-02-20T10:54:23Z</time>
      </trkpt>
      <trkpt lat="45.89308" lon="4.82367">
        <ele>173</ele>
        <time>2018-02-20T10:54:24Z</time>
      </trkpt>
      <trkpt lat="45.89311" lon="4.82359">
        <ele>173</ele>
        <time>2018-02-20T10:54:26Z</time>
      </trkpt>
      <trkpt lat="45.89317" lon="4.82352">
        <ele>173</ele>
        <time>2018-02-20T10:54:27Z</time>
      </trkpt>
      <trkpt lat="45.89322" lon="4.82347">
        <ele>173</ele>
        <time>2018-02-20T10:54:28Z</time>
      </trkpt>
      <trkpt lat="45.89325" lon="4.82342">
        <ele>172</ele>
        <time>2018-02-20T10:54:29Z</time>
      </trkpt>
      <trkpt lat="45.89329" lon="4.82338">
        <ele>172</ele>
        <time>2018-02-20T10:54:30Z</time>
      </trkpt>
      <trkpt lat="45.89333" lon="4.82333">
        <ele>172</ele>
        <time>2018-02-20T10:54:31Z</time>
      </trkpt>
      <trkpt lat="45.89338" lon="4.82323">
        <ele>172</ele>
        <time>2018-02-20T10:54:33Z</time>
      </trkpt>
      <trkpt lat="45.89341" lon="4.82319">
        <ele>172</ele>
        <time>2018-02-20T10:54:34Z</time>
      </trkpt>
      <trkpt lat="45.89345" lon="4.82315">
        <ele>172</ele>
        <time>2018-02-20T10:54:35Z</time>
      </trkpt>
      <trkpt lat="45.89348" lon="4.82312">
        <ele>172</ele>
        <time>2018-02-20T10:54:36Z</time>
      </trkpt>
      <trkpt lat="45.89354" lon="4.82304">
        <ele>172</ele>
        <time>2018-02-20T10:54:38Z</time>
      </trkpt>
      <trkpt lat="45.89357" lon="4.823">
        <ele>172</ele>
        <time>2018-02-20T10:54:39Z</time>
      </trkpt>
      <trkpt lat="45.89361" lon="4.82296">
        <ele>172</ele>
        <time>2018-02-20T10:54:40Z</time>
      </trkpt>
      <trkpt lat="45.89364" lon="4.82291">
        <ele>172</ele>
        <time>2018-02-20T10:54:41Z</time>
      </trkpt>
      <trkpt lat="45.89371" lon="4.82283">
        <ele>172</ele>
        <time>2018-02-20T10:54:42Z</time>
      </trkpt>
      <trkpt lat="45.89374" lon="4.82278">
        <ele>172</ele>
        <time>2018-02-20T10:54:43Z</time>
      </trkpt>
      <trkpt lat="45.89378" lon="4.82274">
        <ele>172</ele>
        <time>2018-02-20T10:54:44Z</time>
      </trkpt>
      <trkpt lat="45.89382" lon="4.8227">
        <ele>172</ele>
        <time>2018-02-20T10:54:45Z</time>
      </trkpt>
      <trkpt lat="45.89385" lon="4.82265">
        <ele>172</ele>
        <time>2018-02-20T10:54:46Z</time>
      </trkpt>
      <trkpt lat="45.89389" lon="4.82261">
        <ele>172</ele>
        <time>2018-02-20T10:54:47Z</time>
      </trkpt>
      <trkpt lat="45.89394" lon="4.82257">
        <ele>172</ele>
        <time>2018-02-20T10:54:48Z</time>
      </trkpt>
      <trkpt lat="45.89397" lon="4.82253">
        <ele>172</ele>
        <time>2018-02-20T10:54:49Z</time>
      </trkpt>
      <trkpt lat="45.89405" lon="4.82246">
        <ele>171</ele>
        <time>2018-02-20T10:54:51Z</time>
      </trkpt>
      <trkpt lat="45.89408" lon="4.82242">
        <ele>171</ele>
        <time>2018-02-20T10:54:52Z</time>
      </trkpt>
      <trkpt lat="45.89414" lon="4.82241">
        <ele>171</ele>
        <time>2018-02-20T10:54:53Z</time>
      </trkpt>
      <trkpt lat="45.89418" lon="4.82237">
        <ele>171</ele>
        <time>2018-02-20T10:54:54Z</time>
      </trkpt>
      <trkpt lat="45.89425" lon="4.82231">
        <ele>171</ele>
        <time>2018-02-20T10:54:56Z</time>
      </trkpt>
      <trkpt lat="45.89427" lon="4.82226">
        <ele>171</ele>
        <time>2018-02-20T10:54:57Z</time>
      </trkpt>
      <trkpt lat="45.8943" lon="4.82221">
        <ele>171</ele>
        <time>2018-02-20T10:54:58Z</time>
      </trkpt>
      <trkpt lat="45.89434" lon="4.82216">
        <ele>171</ele>
        <time>2018-02-20T10:54:59Z</time>
      </trkpt>
      <trkpt lat="45.89439" lon="4.82206">
        <ele>171</ele>
        <time>2018-02-20T10:55:01Z</time>
      </trkpt>
      <trkpt lat="45.89443" lon="4.82202">
        <ele>171</ele>
        <time>2018-02-20T10:55:02Z</time>
      </trkpt>
      <trkpt lat="45.89447" lon="4.82197">
        <ele>171</ele>
        <time>2018-02-20T10:55:03Z</time>
      </trkpt>
      <trkpt lat="45.89451" lon="4.82192">
        <ele>171</ele>
        <time>2018-02-20T10:55:04Z</time>
      </trkpt>
      <trkpt lat="45.89456" lon="4.82189">
        <ele>171</ele>
        <time>2018-02-20T10:55:05Z</time>
      </trkpt>
      <trkpt lat="45.89459" lon="4.82184">
        <ele>171</ele>
        <time>2018-02-20T10:55:06Z</time>
      </trkpt>
      <trkpt lat="45.89464" lon="4.82181">
        <ele>171</ele>
        <time>2018-02-20T10:55:07Z</time>
      </trkpt>
      <trkpt lat="45.89469" lon="4.82177">
        <ele>171</ele>
        <time>2018-02-20T10:55:08Z</time>
      </trkpt>
      <trkpt lat="45.89474" lon="4.82174">
        <ele>171</ele>
        <time>2018-02-20T10:55:09Z</time>
      </trkpt>
      <trkpt lat="45.89478" lon="4.82171">
        <ele>171</ele>
        <time>2018-02-20T10:55:10Z</time>
      </trkpt>
      <trkpt lat="45.89485" lon="4.82164">
        <ele>171</ele>
        <time>2018-02-20T10:55:12Z</time>
      </trkpt>
      <trkpt lat="45.8949" lon="4.82161">
        <ele>171</ele>
        <time>2018-02-20T10:55:13Z</time>
      </trkpt>
      <trkpt lat="45.89497" lon="4.82154">
        <ele>171</ele>
        <time>2018-02-20T10:55:15Z</time>
      </trkpt>
      <trkpt lat="45.89502" lon="4.8215">
        <ele>172</ele>
        <time>2018-02-20T10:55:16Z</time>
      </trkpt>
      <trkpt lat="45.89509" lon="4.82144">
        <ele>172</ele>
        <time>2018-02-20T10:55:18Z</time>
      </trkpt>
      <trkpt lat="45.89512" lon="4.82143">
        <ele>172</ele>
        <time>2018-02-20T10:55:19Z</time>
      </trkpt>
      <trkpt lat="45.89516" lon="4.82139">
        <ele>172</ele>
        <time>2018-02-20T10:55:20Z</time>
      </trkpt>
      <trkpt lat="45.89521" lon="4.82135">
        <ele>172</ele>
        <time>2018-02-20T10:55:21Z</time>
      </trkpt>
      <trkpt lat="45.89526" lon="4.82133">
        <ele>172</ele>
        <time>2018-02-20T10:55:22Z</time>
      </trkpt>
      <trkpt lat="45.89531" lon="4.82132">
        <ele>172</ele>
        <time>2018-02-20T10:55:23Z</time>
      </trkpt>
      <trkpt lat="45.89536" lon="4.82131">
        <ele>172</ele>
        <time>2018-02-20T10:55:24Z</time>
      </trkpt>
      <trkpt lat="45.8954" lon="4.8213">
        <ele>172</ele>
        <time>2018-02-20T10:55:25Z</time>
      </trkpt>
      <trkpt lat="45.89545" lon="4.82127">
        <ele>173</ele>
        <time>2018-02-20T10:55:26Z</time>
      </trkpt>
      <trkpt lat="45.89551" lon="4.82122">
        <ele>173</ele>
        <time>2018-02-20T10:55:27Z</time>
      </trkpt>
      <trkpt lat="45.89554" lon="4.82112">
        <ele>173</ele>
        <time>2018-02-20T10:55:29Z</time>
      </trkpt>
      <trkpt lat="45.89557" lon="4.82105">
        <ele>173</ele>
        <time>2018-02-20T10:55:30Z</time>
      </trkpt>
      <trkpt lat="45.89559" lon="4.82098">
        <ele>173</ele>
        <time>2018-02-20T10:55:31Z</time>
      </trkpt>
      <trkpt lat="45.89562" lon="4.82092">
        <ele>173</ele>
        <time>2018-02-20T10:55:32Z</time>
      </trkpt>
      <trkpt lat="45.89566" lon="4.82085">
        <ele>173</ele>
        <time>2018-02-20T10:55:33Z</time>
      </trkpt>
      <trkpt lat="45.89569" lon="4.82079">
        <ele>172</ele>
        <time>2018-02-20T10:55:34Z</time>
      </trkpt>
      <trkpt lat="45.89575" lon="4.82074">
        <ele>172</ele>
        <time>2018-02-20T10:55:35Z</time>
      </trkpt>
      <trkpt lat="45.89579" lon="4.82069">
        <ele>172</ele>
        <time>2018-02-20T10:55:36Z</time>
      </trkpt>
      <trkpt lat="45.89584" lon="4.82065">
        <ele>173</ele>
        <time>2018-02-20T10:55:37Z</time>
      </trkpt>
      <trkpt lat="45.89588" lon="4.82061">
        <ele>173</ele>
        <time>2018-02-20T10:55:38Z</time>
      </trkpt>
      <trkpt lat="45.89592" lon="4.82057">
        <ele>173</ele>
        <time>2018-02-20T10:55:39Z</time>
      </trkpt>
      <trkpt lat="45.89597" lon="4.82053">
        <ele>173</ele>
        <time>2018-02-20T10:55:40Z</time>
      </trkpt>
      <trkpt lat="45.896" lon="4.8205">
        <ele>173</ele>
        <time>2018-02-20T10:55:41Z</time>
      </trkpt>
      <trkpt lat="45.89604" lon="4.82046">
        <ele>173</ele>
        <time>2018-02-20T10:55:42Z</time>
      </trkpt>
      <trkpt lat="45.89611" lon="4.8204">
        <ele>173</ele>
        <time>2018-02-20T10:55:44Z</time>
      </trkpt>
      <trkpt lat="45.89615" lon="4.82037">
        <ele>173</ele>
        <time>2018-02-20T10:55:45Z</time>
      </trkpt>
      <trkpt lat="45.8962" lon="4.82035">
        <ele>173</ele>
        <time>2018-02-20T10:55:46Z</time>
      </trkpt>
      <trkpt lat="45.89624" lon="4.82031">
        <ele>173</ele>
        <time>2018-02-20T10:55:47Z</time>
      </trkpt>
      <trkpt lat="45.8963" lon="4.82023">
        <ele>173</ele>
        <time>2018-02-20T10:55:49Z</time>
      </trkpt>
      <trkpt lat="45.89633" lon="4.82018">
        <ele>173</ele>
        <time>2018-02-20T10:55:50Z</time>
      </trkpt>
      <trkpt lat="45.89638" lon="4.82015">
        <ele>173</ele>
        <time>2018-02-20T10:55:51Z</time>
      </trkpt>
      <trkpt lat="45.89642" lon="4.82012">
        <ele>173</ele>
        <time>2018-02-20T10:55:52Z</time>
      </trkpt>
      <trkpt lat="45.89645" lon="4.82008">
        <ele>173</ele>
        <time>2018-02-20T10:55:53Z</time>
      </trkpt>
      <trkpt lat="45.89649" lon="4.82003">
        <ele>174</ele>
        <time>2018-02-20T10:55:54Z</time>
      </trkpt>
      <trkpt lat="45.89656" lon="4.81997">
        <ele>173</ele>
        <time>2018-02-20T10:55:56Z</time>
      </trkpt>
      <trkpt lat="45.8966" lon="4.81995">
        <ele>173</ele>
        <time>2018-02-20T10:55:57Z</time>
      </trkpt>
      <trkpt lat="45.89664" lon="4.81992">
        <ele>173</ele>
        <time>2018-02-20T10:55:58Z</time>
      </trkpt>
      <trkpt lat="45.89668" lon="4.81989">
        <ele>174</ele>
        <time>2018-02-20T10:55:59Z</time>
      </trkpt>
      <trkpt lat="45.89672" lon="4.81987">
        <ele>174</ele>
        <time>2018-02-20T10:56:00Z</time>
      </trkpt>
      <trkpt lat="45.89677" lon="4.81984">
        <ele>174</ele>
        <time>2018-02-20T10:56:01Z</time>
      </trkpt>
      <trkpt lat="45.89681" lon="4.8198">
        <ele>173</ele>
        <time>2018-02-20T10:56:02Z</time>
      </trkpt>
      <trkpt lat="45.89686" lon="4.81977">
        <ele>173</ele>
        <time>2018-02-20T10:56:03Z</time>
      </trkpt>
      <trkpt lat="45.89689" lon="4.81973">
        <ele>173</ele>
        <time>2018-02-20T10:56:04Z</time>
      </trkpt>
      <trkpt lat="45.89693" lon="4.81969">
        <ele>173</ele>
        <time>2018-02-20T10:56:05Z</time>
      </trkpt>
      <trkpt lat="45.89701" lon="4.81963">
        <ele>173</ele>
        <time>2018-02-20T10:56:07Z</time>
      </trkpt>
      <trkpt lat="45.89705" lon="4.81961">
        <ele>173</ele>
        <time>2018-02-20T10:56:08Z</time>
      </trkpt>
      <trkpt lat="45.89713" lon="4.81955">
        <ele>173</ele>
        <time>2018-02-20T10:56:10Z</time>
      </trkpt>
      <trkpt lat="45.89717" lon="4.81952">
        <ele>173</ele>
        <time>2018-02-20T10:56:11Z</time>
      </trkpt>
      <trkpt lat="45.89721" lon="4.81949">
        <ele>173</ele>
        <time>2018-02-20T10:56:12Z</time>
      </trkpt>
      <trkpt lat="45.89724" lon="4.81946">
        <ele>173</ele>
        <time>2018-02-20T10:56:13Z</time>
      </trkpt>
      <trkpt lat="45.89732" lon="4.8194">
        <ele>173</ele>
        <time>2018-02-20T10:56:15Z</time>
      </trkpt>
      <trkpt lat="45.89735" lon="4.81937">
        <ele>173</ele>
        <time>2018-02-20T10:56:16Z</time>
      </trkpt>
      <trkpt lat="45.89742" lon="4.81932">
        <ele>174</ele>
        <time>2018-02-20T10:56:18Z</time>
      </trkpt>
      <trkpt lat="45.89745" lon="4.81929">
        <ele>174</ele>
        <time>2018-02-20T10:56:19Z</time>
      </trkpt>
      <trkpt lat="45.89752" lon="4.81922">
        <ele>174</ele>
        <time>2018-02-20T10:56:21Z</time>
      </trkpt>
      <trkpt lat="45.89755" lon="4.81919">
        <ele>174</ele>
        <time>2018-02-20T10:56:22Z</time>
      </trkpt>
      <trkpt lat="45.89761" lon="4.81914">
        <ele>174</ele>
        <time>2018-02-20T10:56:24Z</time>
      </trkpt>
      <trkpt lat="45.89765" lon="4.81911">
        <ele>174</ele>
        <time>2018-02-20T10:56:25Z</time>
      </trkpt>
      <trkpt lat="45.89771" lon="4.81906">
        <ele>174</ele>
        <time>2018-02-20T10:56:27Z</time>
      </trkpt>
      <trkpt lat="45.89774" lon="4.81904">
        <ele>174</ele>
        <time>2018-02-20T10:56:28Z</time>
      </trkpt>
      <trkpt lat="45.8978" lon="4.81899">
        <ele>174</ele>
        <time>2018-02-20T10:56:30Z</time>
      </trkpt>
      <trkpt lat="45.89783" lon="4.81897">
        <ele>174</ele>
        <time>2018-02-20T10:56:31Z</time>
      </trkpt>
      <trkpt lat="45.8979" lon="4.81892">
        <ele>174</ele>
        <time>2018-02-20T10:56:33Z</time>
      </trkpt>
      <trkpt lat="45.89794" lon="4.81889">
        <ele>174</ele>
        <time>2018-02-20T10:56:34Z</time>
      </trkpt>
      <trkpt lat="45.898" lon="4.81882">
        <ele>174</ele>
        <time>2018-02-20T10:56:36Z</time>
      </trkpt>
      <trkpt lat="45.89804" lon="4.81879">
        <ele>174</ele>
        <time>2018-02-20T10:56:37Z</time>
      </trkpt>
      <trkpt lat="45.8981" lon="4.81873">
        <ele>174</ele>
        <time>2018-02-20T10:56:39Z</time>
      </trkpt>
      <trkpt lat="45.89813" lon="4.8187">
        <ele>174</ele>
        <time>2018-02-20T10:56:40Z</time>
      </trkpt>
      <trkpt lat="45.8982" lon="4.81863">
        <ele>174</ele>
        <time>2018-02-20T10:56:42Z</time>
      </trkpt>
      <trkpt lat="45.89823" lon="4.8186">
        <ele>174</ele>
        <time>2018-02-20T10:56:43Z</time>
      </trkpt>
      <trkpt lat="45.89829" lon="4.81854">
        <ele>174</ele>
        <time>2018-02-20T10:56:45Z</time>
      </trkpt>
      <trkpt lat="45.89833" lon="4.8185">
        <ele>174</ele>
        <time>2018-02-20T10:56:46Z</time>
      </trkpt>
      <trkpt lat="45.89839" lon="4.81843">
        <ele>175</ele>
        <time>2018-02-20T10:56:48Z</time>
      </trkpt>
      <trkpt lat="45.89843" lon="4.8184">
        <ele>175</ele>
        <time>2018-02-20T10:56:49Z</time>
      </trkpt>
      <trkpt lat="45.89849" lon="4.81833">
        <ele>175</ele>
        <time>2018-02-20T10:56:51Z</time>
      </trkpt>
      <trkpt lat="45.89852" lon="4.81829">
        <ele>175</ele>
        <time>2018-02-20T10:56:52Z</time>
      </trkpt>
      <trkpt lat="45.89859" lon="4.81822">
        <ele>175</ele>
        <time>2018-02-20T10:56:54Z</time>
      </trkpt>
      <trkpt lat="45.89861" lon="4.81817">
        <ele>175</ele>
        <time>2018-02-20T10:56:55Z</time>
      </trkpt>
      <trkpt lat="45.89868" lon="4.81809">
        <ele>175</ele>
        <time>2018-02-20T10:56:57Z</time>
      </trkpt>
      <trkpt lat="45.89871" lon="4.81805">
        <ele>175</ele>
        <time>2018-02-20T10:56:58Z</time>
      </trkpt>
      <trkpt lat="45.89878" lon="4.81798">
        <ele>176</ele>
        <time>2018-02-20T10:57:00Z</time>
      </trkpt>
      <trkpt lat="45.89882" lon="4.81794">
        <ele>176</ele>
        <time>2018-02-20T10:57:01Z</time>
      </trkpt>
      <trkpt lat="45.89888" lon="4.81786">
        <ele>176</ele>
        <time>2018-02-20T10:57:03Z</time>
      </trkpt>
      <trkpt lat="45.89891" lon="4.81783">
        <ele>176</ele>
        <time>2018-02-20T10:57:04Z</time>
      </trkpt>
      <trkpt lat="45.89898" lon="4.81777">
        <ele>176</ele>
        <time>2018-02-20T10:57:06Z</time>
      </trkpt>
      <trkpt lat="45.89901" lon="4.81773">
        <ele>176</ele>
        <time>2018-02-20T10:57:07Z</time>
      </trkpt>
      <trkpt lat="45.89908" lon="4.81768">
        <ele>176</ele>
        <time>2018-02-20T10:57:09Z</time>
      </trkpt>
      <trkpt lat="45.89912" lon="4.81766">
        <ele>176</ele>
        <time>2018-02-20T10:57:10Z</time>
      </trkpt>
      <trkpt lat="45.89919" lon="4.81764">
        <ele>177</ele>
        <time>2018-02-20T10:57:12Z</time>
      </trkpt>
      <trkpt lat="45.89923" lon="4.81765">
        <ele>177</ele>
        <time>2018-02-20T10:57:13Z</time>
      </trkpt>
      <trkpt lat="45.89931" lon="4.81768">
        <ele>177</ele>
        <time>2018-02-20T10:57:15Z</time>
      </trkpt>
      <trkpt lat="45.89935" lon="4.8177">
        <ele>177</ele>
        <time>2018-02-20T10:57:16Z</time>
      </trkpt>
      <trkpt lat="45.89943" lon="4.81768">
        <ele>177</ele>
        <time>2018-02-20T10:57:18Z</time>
      </trkpt>
      <trkpt lat="45.89946" lon="4.81764">
        <ele>177</ele>
        <time>2018-02-20T10:57:19Z</time>
      </trkpt>
      <trkpt lat="45.89953" lon="4.81755">
        <ele>177</ele>
        <time>2018-02-20T10:57:21Z</time>
      </trkpt>
      <trkpt lat="45.89955" lon="4.81749">
        <ele>177</ele>
        <time>2018-02-20T10:57:22Z</time>
      </trkpt>
      <trkpt lat="45.89958" lon="4.81738">
        <ele>176</ele>
        <time>2018-02-20T10:57:24Z</time>
      </trkpt>
      <trkpt lat="45.8996" lon="4.81733">
        <ele>176</ele>
        <time>2018-02-20T10:57:25Z</time>
      </trkpt>
      <trkpt lat="45.89963" lon="4.81728">
        <ele>176</ele>
        <time>2018-02-20T10:57:26Z</time>
      </trkpt>
      <trkpt lat="45.89968" lon="4.81724">
        <ele>176</ele>
        <time>2018-02-20T10:57:27Z</time>
      </trkpt>
      <trkpt lat="45.89972" lon="4.8172">
        <ele>176</ele>
        <time>2018-02-20T10:57:28Z</time>
      </trkpt>
      <trkpt lat="45.89976" lon="4.81716">
        <ele>176</ele>
        <time>2018-02-20T10:57:29Z</time>
      </trkpt>
      <trkpt lat="45.89981" lon="4.81713">
        <ele>176</ele>
        <time>2018-02-20T10:57:30Z</time>
      </trkpt>
      <trkpt lat="45.89985" lon="4.8171">
        <ele>176</ele>
        <time>2018-02-20T10:57:31Z</time>
      </trkpt>
      <trkpt lat="45.89989" lon="4.81707">
        <ele>176</ele>
        <time>2018-02-20T10:57:32Z</time>
      </trkpt>
      <trkpt lat="45.89993" lon="4.81704">
        <ele>176</ele>
        <time>2018-02-20T10:57:33Z</time>
      </trkpt>
      <trkpt lat="45.89998" lon="4.81702">
        <ele>176</ele>
        <time>2018-02-20T10:57:34Z</time>
      </trkpt>
      <trkpt lat="45.90002" lon="4.81699">
        <ele>177</ele>
        <time>2018-02-20T10:57:35Z</time>
      </trkpt>
      <trkpt lat="45.90006" lon="4.81696">
        <ele>177</ele>
        <time>2018-02-20T10:57:36Z</time>
      </trkpt>
      <trkpt lat="45.90012" lon="4.81696">
        <ele>177</ele>
        <time>2018-02-20T10:57:37Z</time>
      </trkpt>
      <trkpt lat="45.90018" lon="4.81691">
        <ele>177</ele>
        <time>2018-02-20T10:57:39Z</time>
      </trkpt>
      <trkpt lat="45.90023" lon="4.81689">
        <ele>177</ele>
        <time>2018-02-20T10:57:40Z</time>
      </trkpt>
      <trkpt lat="45.9003" lon="4.81685">
        <ele>178</ele>
        <time>2018-02-20T10:57:42Z</time>
      </trkpt>
      <trkpt lat="45.90034" lon="4.81682">
        <ele>178</ele>
        <time>2018-02-20T10:57:43Z</time>
      </trkpt>
      <trkpt lat="45.90038" lon="4.8168">
        <ele>178</ele>
        <time>2018-02-20T10:57:44Z</time>
      </trkpt>
      <trkpt lat="45.90043" lon="4.81679">
        <ele>178</ele>
        <time>2018-02-20T10:57:45Z</time>
      </trkpt>
      <trkpt lat="45.90047" lon="4.81677">
        <ele>178</ele>
        <time>2018-02-20T10:57:46Z</time>
      </trkpt>
      <trkpt lat="45.90052" lon="4.81674">
        <ele>178</ele>
        <time>2018-02-20T10:57:47Z</time>
      </trkpt>
      <trkpt lat="45.90057" lon="4.81672">
        <ele>178</ele>
        <time>2018-02-20T10:57:48Z</time>
      </trkpt>
      <trkpt lat="45.90063" lon="4.8167">
        <ele>178</ele>
        <time>2018-02-20T10:57:49Z</time>
      </trkpt>
      <trkpt lat="45.90068" lon="4.81668">
        <ele>178</ele>
        <time>2018-02-20T10:57:50Z</time>
      </trkpt>
      <trkpt lat="45.90072" lon="4.81666">
        <ele>178</ele>
        <time>2018-02-20T10:57:51Z</time>
      </trkpt>
      <trkpt lat="45.9008" lon="4.81662">
        <ele>179</ele>
        <time>2018-02-20T10:57:53Z</time>
      </trkpt>
      <trkpt lat="45.90085" lon="4.81661">
        <ele>179</ele>
        <time>2018-02-20T10:57:54Z</time>
      </trkpt>
      <trkpt lat="45.9009" lon="4.8166">
        <ele>179</ele>
        <time>2018-02-20T10:57:55Z</time>
      </trkpt>
      <trkpt lat="45.90096" lon="4.81658">
        <ele>179</ele>
        <time>2018-02-20T10:57:56Z</time>
      </trkpt>
      <trkpt lat="45.901" lon="4.81658">
        <ele>179</ele>
        <time>2018-02-20T10:57:57Z</time>
      </trkpt>
      <trkpt lat="45.90105" lon="4.81657">
        <ele>179</ele>
        <time>2018-02-20T10:57:58Z</time>
      </trkpt>
      <trkpt lat="45.90112" lon="4.81655">
        <ele>179</ele>
        <time>2018-02-20T10:58:00Z</time>
      </trkpt>
      <trkpt lat="45.90117" lon="4.81654">
        <ele>179</ele>
        <time>2018-02-20T10:58:01Z</time>
      </trkpt>
      <trkpt lat="45.90125" lon="4.81653">
        <ele>179</ele>
        <time>2018-02-20T10:58:03Z</time>
      </trkpt>
      <trkpt lat="45.90129" lon="4.81652">
        <ele>179</ele>
        <time>2018-02-20T10:58:04Z</time>
      </trkpt>
      <trkpt lat="45.90138" lon="4.8165">
        <ele>179</ele>
        <time>2018-02-20T10:58:06Z</time>
      </trkpt>
      <trkpt lat="45.90143" lon="4.81649">
        <ele>179</ele>
        <time>2018-02-20T10:58:07Z</time>
      </trkpt>
      <trkpt lat="45.90151" lon="4.81649">
        <ele>179</ele>
        <time>2018-02-20T10:58:09Z</time>
      </trkpt>
      <trkpt lat="45.90155" lon="4.81649">
        <ele>179</ele>
        <time>2018-02-20T10:58:10Z</time>
      </trkpt>
      <trkpt lat="45.9016" lon="4.8165">
        <ele>179</ele>
        <time>2018-02-20T10:58:11Z</time>
      </trkpt>
      <trkpt lat="45.90168" lon="4.8165">
        <ele>180</ele>
        <time>2018-02-20T10:58:12Z</time>
      </trkpt>
      <trkpt lat="45.90173" lon="4.8165">
        <ele>180</ele>
        <time>2018-02-20T10:58:13Z</time>
      </trkpt>
      <trkpt lat="45.90177" lon="4.81649">
        <ele>180</ele>
        <time>2018-02-20T10:58:14Z</time>
      </trkpt>
      <trkpt lat="45.90183" lon="4.81648">
        <ele>180</ele>
        <time>2018-02-20T10:58:15Z</time>
      </trkpt>
      <trkpt lat="45.90187" lon="4.81647">
        <ele>180</ele>
        <time>2018-02-20T10:58:16Z</time>
      </trkpt>
      <trkpt lat="45.9019" lon="4.81644">
        <ele>180</ele>
        <time>2018-02-20T10:58:21Z</time>
      </trkpt>
      <trkpt lat="45.902" lon="4.8164">
        <ele>180</ele>
        <time>2018-02-20T10:58:22Z</time>
      </trkpt>
      <trkpt lat="45.90208" lon="4.81643">
        <ele>180</ele>
        <time>2018-02-20T10:58:24Z</time>
      </trkpt>
      <trkpt lat="45.90216" lon="4.81642">
        <ele>180</ele>
        <time>2018-02-20T10:58:25Z</time>
      </trkpt>
      <trkpt lat="45.90223" lon="4.8164">
        <ele>180</ele>
        <time>2018-02-20T10:58:26Z</time>
      </trkpt>
      <trkpt lat="45.9023" lon="4.8164">
        <ele>181</ele>
        <time>2018-02-20T10:58:27Z</time>
      </trkpt>
      <trkpt lat="45.90235" lon="4.81639">
        <ele>181</ele>
        <time>2018-02-20T10:58:28Z</time>
      </trkpt>
      <trkpt lat="45.90241" lon="4.8164">
        <ele>181</ele>
        <time>2018-02-20T10:58:29Z</time>
      </trkpt>
      <trkpt lat="45.9025" lon="4.8164">
        <ele>181</ele>
        <time>2018-02-20T10:58:31Z</time>
      </trkpt>
      <trkpt lat="45.90254" lon="4.81641">
        <ele>182</ele>
        <time>2018-02-20T10:58:32Z</time>
      </trkpt>
      <trkpt lat="45.90259" lon="4.81643">
        <ele>182</ele>
        <time>2018-02-20T10:58:33Z</time>
      </trkpt>
      <trkpt lat="45.90264" lon="4.81646">
        <ele>182</ele>
        <time>2018-02-20T10:58:34Z</time>
      </trkpt>
      <trkpt lat="45.90267" lon="4.8165">
        <ele>182</ele>
        <time>2018-02-20T10:58:35Z</time>
      </trkpt>
      <trkpt lat="45.9027" lon="4.81654">
        <ele>182</ele>
        <time>2018-02-20T10:58:36Z</time>
      </trkpt>
      <trkpt lat="45.90275" lon="4.81659">
        <ele>182</ele>
        <time>2018-02-20T10:58:37Z</time>
      </trkpt>
      <trkpt lat="45.90279" lon="4.81661">
        <ele>182</ele>
        <time>2018-02-20T10:58:38Z</time>
      </trkpt>
      <trkpt lat="45.90288" lon="4.81661">
        <ele>182</ele>
        <time>2018-02-20T10:58:40Z</time>
      </trkpt>
      <trkpt lat="45.90292" lon="4.81658">
        <ele>182</ele>
        <time>2018-02-20T10:58:41Z</time>
      </trkpt>
      <trkpt lat="45.90296" lon="4.81654">
        <ele>182</ele>
        <time>2018-02-20T10:58:42Z</time>
      </trkpt>
      <trkpt lat="45.90301" lon="4.81649">
        <ele>182</ele>
        <time>2018-02-20T10:58:43Z</time>
      </trkpt>
      <trkpt lat="45.90304" lon="4.81644">
        <ele>182</ele>
        <time>2018-02-20T10:58:44Z</time>
      </trkpt>
      <trkpt lat="45.90307" lon="4.81639">
        <ele>182</ele>
        <time>2018-02-20T10:58:45Z</time>
      </trkpt>
      <trkpt lat="45.90314" lon="4.81632">
        <ele>182</ele>
        <time>2018-02-20T10:58:47Z</time>
      </trkpt>
      <trkpt lat="45.90318" lon="4.81629">
        <ele>182</ele>
        <time>2018-02-20T10:58:48Z</time>
      </trkpt>
      <trkpt lat="45.90327" lon="4.81627">
        <ele>182</ele>
        <time>2018-02-20T10:58:50Z</time>
      </trkpt>
      <trkpt lat="45.90331" lon="4.81627">
        <ele>182</ele>
        <time>2018-02-20T10:58:51Z</time>
      </trkpt>
      <trkpt lat="45.90336" lon="4.81626">
        <ele>183</ele>
        <time>2018-02-20T10:58:52Z</time>
      </trkpt>
      <trkpt lat="45.9034" lon="4.81625">
        <ele>182</ele>
        <time>2018-02-20T10:58:53Z</time>
      </trkpt>
      <trkpt lat="45.90349" lon="4.81622">
        <ele>182</ele>
        <time>2018-02-20T10:58:55Z</time>
      </trkpt>
      <trkpt lat="45.90352" lon="4.81622">
        <ele>182</ele>
        <time>2018-02-20T10:58:56Z</time>
      </trkpt>
      <trkpt lat="45.90361" lon="4.81619">
        <ele>182</ele>
        <time>2018-02-20T10:58:58Z</time>
      </trkpt>
      <trkpt lat="45.90365" lon="4.81618">
        <ele>182</ele>
        <time>2018-02-20T10:58:59Z</time>
      </trkpt>
      <trkpt lat="45.90369" lon="4.81617">
        <ele>182</ele>
        <time>2018-02-20T10:59:00Z</time>
      </trkpt>
      <trkpt lat="45.90374" lon="4.81616">
        <ele>182</ele>
        <time>2018-02-20T10:59:01Z</time>
      </trkpt>
      <trkpt lat="45.9038" lon="4.81613">
        <ele>182</ele>
        <time>2018-02-20T10:59:02Z</time>
      </trkpt>
      <trkpt lat="45.90384" lon="4.81612">
        <ele>182</ele>
        <time>2018-02-20T10:59:03Z</time>
      </trkpt>
      <trkpt lat="45.90388" lon="4.81609">
        <ele>182</ele>
        <time>2018-02-20T10:59:04Z</time>
      </trkpt>
      <trkpt lat="45.90393" lon="4.81608">
        <ele>182</ele>
        <time>2018-02-20T10:59:05Z</time>
      </trkpt>
      <trkpt lat="45.90402" lon="4.81605">
        <ele>182</ele>
        <time>2018-02-20T10:59:07Z</time>
      </trkpt>
      <trkpt lat="45.90406" lon="4.81604">
        <ele>182</ele>
        <time>2018-02-20T10:59:08Z</time>
      </trkpt>
      <trkpt lat="45.90415" lon="4.81603">
        <ele>182</ele>
        <time>2018-02-20T10:59:10Z</time>
      </trkpt>
      <trkpt lat="45.9042" lon="4.81604">
        <ele>182</ele>
        <time>2018-02-20T10:59:11Z</time>
      </trkpt>
      <trkpt lat="45.90428" lon="4.81604">
        <ele>182</ele>
        <time>2018-02-20T10:59:13Z</time>
      </trkpt>
      <trkpt lat="45.90432" lon="4.81603">
        <ele>182</ele>
        <time>2018-02-20T10:59:14Z</time>
      </trkpt>
      <trkpt lat="45.9044" lon="4.81603">
        <ele>182</ele>
        <time>2018-02-20T10:59:16Z</time>
      </trkpt>
      <trkpt lat="45.90444" lon="4.81603">
        <ele>182</ele>
        <time>2018-02-20T10:59:17Z</time>
      </trkpt>
      <trkpt lat="45.90452" lon="4.81603">
        <ele>182</ele>
        <time>2018-02-20T10:59:19Z</time>
      </trkpt>
      <trkpt lat="45.90456" lon="4.81602">
        <ele>182</ele>
        <time>2018-02-20T10:59:20Z</time>
      </trkpt>
      <trkpt lat="45.90463" lon="4.81602">
        <ele>182</ele>
        <time>2018-02-20T10:59:22Z</time>
      </trkpt>
      <trkpt lat="45.90467" lon="4.81602">
        <ele>182</ele>
        <time>2018-02-20T10:59:23Z</time>
      </trkpt>
      <trkpt lat="45.90474" lon="4.81601">
        <ele>182</ele>
        <time>2018-02-20T10:59:25Z</time>
      </trkpt>
      <trkpt lat="45.90477" lon="4.81601">
        <ele>182</ele>
        <time>2018-02-20T10:59:26Z</time>
      </trkpt>
      <trkpt lat="45.90485" lon="4.81601">
        <ele>182</ele>
        <time>2018-02-20T10:59:28Z</time>
      </trkpt>
      <trkpt lat="45.9049" lon="4.816">
        <ele>182</ele>
        <time>2018-02-20T10:59:29Z</time>
      </trkpt>
      <trkpt lat="45.90498" lon="4.81599">
        <ele>182</ele>
        <time>2018-02-20T10:59:31Z</time>
      </trkpt>
      <trkpt lat="45.90502" lon="4.81599">
        <ele>182</ele>
        <time>2018-02-20T10:59:32Z</time>
      </trkpt>
      <trkpt lat="45.90511" lon="4.81598">
        <ele>182</ele>
        <time>2018-02-20T10:59:34Z</time>
      </trkpt>
      <trkpt lat="45.90515" lon="4.81596">
        <ele>182</ele>
        <time>2018-02-20T10:59:35Z</time>
      </trkpt>
      <trkpt lat="45.9052" lon="4.81595">
        <ele>182</ele>
        <time>2018-02-20T10:59:36Z</time>
      </trkpt>
      <trkpt lat="45.90525" lon="4.81596">
        <ele>182</ele>
        <time>2018-02-20T10:59:37Z</time>
      </trkpt>
      <trkpt lat="45.9053" lon="4.81595">
        <ele>182</ele>
        <time>2018-02-20T10:59:38Z</time>
      </trkpt>
      <trkpt lat="45.90535" lon="4.81594">
        <ele>182</ele>
        <time>2018-02-20T10:59:39Z</time>
      </trkpt>
      <trkpt lat="45.9054" lon="4.81594">
        <ele>182</ele>
        <time>2018-02-20T10:59:40Z</time>
      </trkpt>
      <trkpt lat="45.90545" lon="4.81594">
        <ele>182</ele>
        <time>2018-02-20T10:59:41Z</time>
      </trkpt>
      <trkpt lat="45.90551" lon="4.81594">
        <ele>182</ele>
        <time>2018-02-20T10:59:42Z</time>
      </trkpt>
      <trkpt lat="45.90556" lon="4.81594">
        <ele>182</ele>
        <time>2018-02-20T10:59:43Z</time>
      </trkpt>
      <trkpt lat="45.9056" lon="4.81594">
        <ele>182</ele>
        <time>2018-02-20T10:59:44Z</time>
      </trkpt>
      <trkpt lat="45.90566" lon="4.81594">
        <ele>182</ele>
        <time>2018-02-20T10:59:45Z</time>
      </trkpt>
      <trkpt lat="45.90571" lon="4.81593">
        <ele>182</ele>
        <time>2018-02-20T10:59:46Z</time>
      </trkpt>
      <trkpt lat="45.90577" lon="4.81592">
        <ele>182</ele>
        <time>2018-02-20T10:59:47Z</time>
      </trkpt>
      <trkpt lat="45.90584" lon="4.81591">
        <ele>182</ele>
        <time>2018-02-20T10:59:48Z</time>
      </trkpt>
      <trkpt lat="45.90589" lon="4.8159">
        <ele>182</ele>
        <time>2018-02-20T10:59:49Z</time>
      </trkpt>
      <trkpt lat="45.90595" lon="4.8159">
        <ele>182</ele>
        <time>2018-02-20T10:59:50Z</time>
      </trkpt>
      <trkpt lat="45.90602" lon="4.8159">
        <ele>182</ele>
        <time>2018-02-20T10:59:51Z</time>
      </trkpt>
      <trkpt lat="45.90608" lon="4.8159">
        <ele>182</ele>
        <time>2018-02-20T10:59:52Z</time>
      </trkpt>
      <trkpt lat="45.90615" lon="4.81589">
        <ele>182</ele>
        <time>2018-02-20T10:59:53Z</time>
      </trkpt>
      <trkpt lat="45.90622" lon="4.81589">
        <ele>181</ele>
        <time>2018-02-20T10:59:54Z</time>
      </trkpt>
      <trkpt lat="45.90628" lon="4.81589">
        <ele>181</ele>
        <time>2018-02-20T10:59:55Z</time>
      </trkpt>
      <trkpt lat="45.90635" lon="4.81589">
        <ele>181</ele>
        <time>2018-02-20T10:59:56Z</time>
      </trkpt>
      <trkpt lat="45.90642" lon="4.81589">
        <ele>181</ele>
        <time>2018-02-20T10:59:57Z</time>
      </trkpt>
      <trkpt lat="45.90648" lon="4.81589">
        <ele>180</ele>
        <time>2018-02-20T10:59:58Z</time>
      </trkpt>
      <trkpt lat="45.90655" lon="4.81588">
        <ele>180</ele>
        <time>2018-02-20T10:59:59Z</time>
      </trkpt>
      <trkpt lat="45.90662" lon="4.81587">
        <ele>180</ele>
        <time>2018-02-20T11:00:00Z</time>
      </trkpt>
      <trkpt lat="45.90684" lon="4.81582">
        <ele>177</ele>
        <time>2018-02-20T11:00:03Z</time>
      </trkpt>
      <trkpt lat="45.9069" lon="4.81584">
        <ele>178</ele>
        <time>2018-02-20T11:00:04Z</time>
      </trkpt>
      <trkpt lat="45.90698" lon="4.81584">
        <ele>178</ele>
        <time>2018-02-20T11:00:05Z</time>
      </trkpt>
      <trkpt lat="45.90705" lon="4.81584">
        <ele>178</ele>
        <time>2018-02-20T11:00:06Z</time>
      </trkpt>
      <trkpt lat="45.90712" lon="4.81584">
        <ele>178</ele>
        <time>2018-02-20T11:00:07Z</time>
      </trkpt>
      <trkpt lat="45.9072" lon="4.81585">
        <ele>177</ele>
        <time>2018-02-20T11:00:08Z</time>
      </trkpt>
      <trkpt lat="45.90728" lon="4.81584">
        <ele>177</ele>
        <time>2018-02-20T11:00:09Z</time>
      </trkpt>
      <trkpt lat="45.90736" lon="4.81584">
        <ele>176</ele>
        <time>2018-02-20T11:00:10Z</time>
      </trkpt>
      <trkpt lat="45.90744" lon="4.81584">
        <ele>175</ele>
        <time>2018-02-20T11:00:11Z</time>
      </trkpt>
      <trkpt lat="45.90752" lon="4.81584">
        <ele>174</ele>
        <time>2018-02-20T11:00:12Z</time>
      </trkpt>
      <trkpt lat="45.9076" lon="4.81584">
        <ele>174</ele>
        <time>2018-02-20T11:00:13Z</time>
      </trkpt>
      <trkpt lat="45.90768" lon="4.81584">
        <ele>175</ele>
        <time>2018-02-20T11:00:14Z</time>
      </trkpt>
      <trkpt lat="45.90776" lon="4.81584">
        <ele>175</ele>
        <time>2018-02-20T11:00:15Z</time>
      </trkpt>
      <trkpt lat="45.90783" lon="4.81585">
        <ele>175</ele>
        <time>2018-02-20T11:00:16Z</time>
      </trkpt>
      <trkpt lat="45.90791" lon="4.81584">
        <ele>175</ele>
        <time>2018-02-20T11:00:17Z</time>
      </trkpt>
      <trkpt lat="45.90798" lon="4.81584">
        <ele>174</ele>
        <time>2018-02-20T11:00:18Z</time>
      </trkpt>
      <trkpt lat="45.90807" lon="4.81585">
        <ele>174</ele>
        <time>2018-02-20T11:00:19Z</time>
      </trkpt>
      <trkpt lat="45.90814" lon="4.81586">
        <ele>174</ele>
        <time>2018-02-20T11:00:20Z</time>
      </trkpt>
      <trkpt lat="45.90821" lon="4.81587">
        <ele>174</ele>
        <time>2018-02-20T11:00:21Z</time>
      </trkpt>
      <trkpt lat="45.90829" lon="4.81587">
        <ele>173</ele>
        <time>2018-02-20T11:00:22Z</time>
      </trkpt>
      <trkpt lat="45.90836" lon="4.81587">
        <ele>173</ele>
        <time>2018-02-20T11:00:23Z</time>
      </trkpt>
      <trkpt lat="45.90843" lon="4.81587">
        <ele>173</ele>
        <time>2018-02-20T11:00:24Z</time>
      </trkpt>
      <trkpt lat="45.9085" lon="4.81587">
        <ele>172</ele>
        <time>2018-02-20T11:00:25Z</time>
      </trkpt>
      <trkpt lat="45.90857" lon="4.81587">
        <ele>172</ele>
        <time>2018-02-20T11:00:26Z</time>
      </trkpt>
      <trkpt lat="45.90864" lon="4.81587">
        <ele>172</ele>
        <time>2018-02-20T11:00:27Z</time>
      </trkpt>
      <trkpt lat="45.90871" lon="4.81587">
        <ele>172</ele>
        <time>2018-02-20T11:00:28Z</time>
      </trkpt>
      <trkpt lat="45.90878" lon="4.81587">
        <ele>172</ele>
        <time>2018-02-20T11:00:29Z</time>
      </trkpt>
      <trkpt lat="45.90885" lon="4.81587">
        <ele>172</ele>
        <time>2018-02-20T11:00:30Z</time>
      </trkpt>
      <trkpt lat="45.90891" lon="4.81587">
        <ele>171</ele>
        <time>2018-02-20T11:00:31Z</time>
      </trkpt>
      <trkpt lat="45.90898" lon="4.81587">
        <ele>171</ele>
        <time>2018-02-20T11:00:32Z</time>
      </trkpt>
      <trkpt lat="45.90904" lon="4.81587">
        <ele>171</ele>
        <time>2018-02-20T11:00:33Z</time>
      </trkpt>
      <trkpt lat="45.9091" lon="4.81587">
        <ele>170</ele>
        <time>2018-02-20T11:00:34Z</time>
      </trkpt>
      <trkpt lat="45.90916" lon="4.81588">
        <ele>170</ele>
        <time>2018-02-20T11:00:35Z</time>
      </trkpt>
      <trkpt lat="45.90922" lon="4.81588">
        <ele>170</ele>
        <time>2018-02-20T11:00:36Z</time>
      </trkpt>
      <trkpt lat="45.90928" lon="4.8159">
        <ele>170</ele>
        <time>2018-02-20T11:00:37Z</time>
      </trkpt>
      <trkpt lat="45.90934" lon="4.8159">
        <ele>170</ele>
        <time>2018-02-20T11:00:38Z</time>
      </trkpt>
      <trkpt lat="45.9094" lon="4.81591">
        <ele>170</ele>
        <time>2018-02-20T11:00:39Z</time>
      </trkpt>
      <trkpt lat="45.90946" lon="4.81591">
        <ele>169</ele>
        <time>2018-02-20T11:00:40Z</time>
      </trkpt>
      <trkpt lat="45.90952" lon="4.81592">
        <ele>169</ele>
        <time>2018-02-20T11:00:41Z</time>
      </trkpt>
      <trkpt lat="45.90957" lon="4.81593">
        <ele>169</ele>
        <time>2018-02-20T11:00:42Z</time>
      </trkpt>
      <trkpt lat="45.90962" lon="4.81595">
        <ele>169</ele>
        <time>2018-02-20T11:00:43Z</time>
      </trkpt>
      <trkpt lat="45.90967" lon="4.81596">
        <ele>169</ele>
        <time>2018-02-20T11:00:44Z</time>
      </trkpt>
      <trkpt lat="45.90973" lon="4.81598">
        <ele>169</ele>
        <time>2018-02-20T11:00:45Z</time>
      </trkpt>
      <trkpt lat="45.90979" lon="4.81599">
        <ele>169</ele>
        <time>2018-02-20T11:00:46Z</time>
      </trkpt>
      <trkpt lat="45.90984" lon="4.816">
        <ele>169</ele>
        <time>2018-02-20T11:00:47Z</time>
      </trkpt>
      <trkpt lat="45.90989" lon="4.81601">
        <ele>169</ele>
        <time>2018-02-20T11:00:48Z</time>
      </trkpt>
      <trkpt lat="45.90995" lon="4.81602">
        <ele>169</ele>
        <time>2018-02-20T11:00:49Z</time>
      </trkpt>
      <trkpt lat="45.91" lon="4.81603">
        <ele>169</ele>
        <time>2018-02-20T11:00:50Z</time>
      </trkpt>
      <trkpt lat="45.91006" lon="4.81604">
        <ele>169</ele>
        <time>2018-02-20T11:00:51Z</time>
      </trkpt>
      <trkpt lat="45.91011" lon="4.81605">
        <ele>169</ele>
        <time>2018-02-20T11:00:52Z</time>
      </trkpt>
      <trkpt lat="45.91015" lon="4.81606">
        <ele>169</ele>
        <time>2018-02-20T11:00:53Z</time>
      </trkpt>
      <trkpt lat="45.91021" lon="4.81607">
        <ele>169</ele>
        <time>2018-02-20T11:00:54Z</time>
      </trkpt>
      <trkpt lat="45.91026" lon="4.81607">
        <ele>169</ele>
        <time>2018-02-20T11:00:55Z</time>
      </trkpt>
      <trkpt lat="45.91031" lon="4.81608">
        <ele>169</ele>
        <time>2018-02-20T11:00:56Z</time>
      </trkpt>
      <trkpt lat="45.91037" lon="4.81609">
        <ele>169</ele>
        <time>2018-02-20T11:00:57Z</time>
      </trkpt>
      <trkpt lat="45.91041" lon="4.8161">
        <ele>169</ele>
        <time>2018-02-20T11:00:58Z</time>
      </trkpt>
      <trkpt lat="45.91046" lon="4.81611">
        <ele>169</ele>
        <time>2018-02-20T11:00:59Z</time>
      </trkpt>
      <trkpt lat="45.91051" lon="4.81612">
        <ele>169</ele>
        <time>2018-02-20T11:01:00Z</time>
      </trkpt>
      <trkpt lat="45.91055" lon="4.81613">
        <ele>169</ele>
        <time>2018-02-20T11:01:01Z</time>
      </trkpt>
      <trkpt lat="45.9106" lon="4.81612">
        <ele>169</ele>
        <time>2018-02-20T11:01:02Z</time>
      </trkpt>
      <trkpt lat="45.91066" lon="4.81612">
        <ele>169</ele>
        <time>2018-02-20T11:01:03Z</time>
      </trkpt>
      <trkpt lat="45.91071" lon="4.81613">
        <ele>169</ele>
        <time>2018-02-20T11:01:04Z</time>
      </trkpt>
      <trkpt lat="45.91076" lon="4.81613">
        <ele>169</ele>
        <time>2018-02-20T11:01:05Z</time>
      </trkpt>
      <trkpt lat="45.91085" lon="4.81613">
        <ele>169</ele>
        <time>2018-02-20T11:01:07Z</time>
      </trkpt>
      <trkpt lat="45.91089" lon="4.81614">
        <ele>169</ele>
        <time>2018-02-20T11:01:08Z</time>
      </trkpt>
      <trkpt lat="45.91095" lon="4.81613">
        <ele>169</ele>
        <time>2018-02-20T11:01:09Z</time>
      </trkpt>
      <trkpt lat="45.911" lon="4.81613">
        <ele>170</ele>
        <time>2018-02-20T11:01:10Z</time>
      </trkpt>
      <trkpt lat="45.91106" lon="4.81613">
        <ele>170</ele>
        <time>2018-02-20T11:01:11Z</time>
      </trkpt>
      <trkpt lat="45.91112" lon="4.81613">
        <ele>170</ele>
        <time>2018-02-20T11:01:12Z</time>
      </trkpt>
      <trkpt lat="45.91117" lon="4.81614">
        <ele>170</ele>
        <time>2018-02-20T11:01:13Z</time>
      </trkpt>
      <trkpt lat="45.91122" lon="4.81614">
        <ele>170</ele>
        <time>2018-02-20T11:01:14Z</time>
      </trkpt>
      <trkpt lat="45.91127" lon="4.81614">
        <ele>170</ele>
        <time>2018-02-20T11:01:15Z</time>
      </trkpt>
      <trkpt lat="45.91132" lon="4.81614">
        <ele>170</ele>
        <time>2018-02-20T11:01:16Z</time>
      </trkpt>
      <trkpt lat="45.91137" lon="4.81614">
        <ele>170</ele>
        <time>2018-02-20T11:01:17Z</time>
      </trkpt>
      <trkpt lat="45.91142" lon="4.81614">
        <ele>170</ele>
        <time>2018-02-20T11:01:18Z</time>
      </trkpt>
      <trkpt lat="45.91147" lon="4.81614">
        <ele>170</ele>
        <time>2018-02-20T11:01:19Z</time>
      </trkpt>
      <trkpt lat="45.91151" lon="4.81614">
        <ele>170</ele>
        <time>2018-02-20T11:01:20Z</time>
      </trkpt>
      <trkpt lat="45.91156" lon="4.81614">
        <ele>170</ele>
        <time>2018-02-20T11:01:21Z</time>
      </trkpt>
      <trkpt lat="45.9116" lon="4.81617">
        <ele>170</ele>
        <time>2018-02-20T11:01:22Z</time>
      </trkpt>
      <trkpt lat="45.91169" lon="4.81617">
        <ele>170</ele>
        <time>2018-02-20T11:01:24Z</time>
      </trkpt>
      <trkpt lat="45.91175" lon="4.81618">
        <ele>170</ele>
        <time>2018-02-20T11:01:25Z</time>
      </trkpt>
      <trkpt lat="45.91183" lon="4.81618">
        <ele>170</ele>
        <time>2018-02-20T11:01:27Z</time>
      </trkpt>
      <trkpt lat="45.91188" lon="4.81618">
        <ele>170</ele>
        <time>2018-02-20T11:01:28Z</time>
      </trkpt>
      <trkpt lat="45.91197" lon="4.81619">
        <ele>170</ele>
        <time>2018-02-20T11:01:30Z</time>
      </trkpt>
      <trkpt lat="45.91202" lon="4.81618">
        <ele>170</ele>
        <time>2018-02-20T11:01:31Z</time>
      </trkpt>
      <trkpt lat="45.9121" lon="4.81618">
        <ele>170</ele>
        <time>2018-02-20T11:01:33Z</time>
      </trkpt>
      <trkpt lat="45.91214" lon="4.81617">
        <ele>170</ele>
        <time>2018-02-20T11:01:34Z</time>
      </trkpt>
      <trkpt lat="45.91223" lon="4.81617">
        <ele>170</ele>
        <time>2018-02-20T11:01:36Z</time>
      </trkpt>
      <trkpt lat="45.91227" lon="4.81617">
        <ele>170</ele>
        <time>2018-02-20T11:01:37Z</time>
      </trkpt>
      <trkpt lat="45.91236" lon="4.81616">
        <ele>170</ele>
        <time>2018-02-20T11:01:39Z</time>
      </trkpt>
      <trkpt lat="45.9124" lon="4.81616">
        <ele>170</ele>
        <time>2018-02-20T11:01:40Z</time>
      </trkpt>
      <trkpt lat="45.91249" lon="4.81616">
        <ele>170</ele>
        <time>2018-02-20T11:01:42Z</time>
      </trkpt>
      <trkpt lat="45.91253" lon="4.81616">
        <ele>170</ele>
        <time>2018-02-20T11:01:43Z</time>
      </trkpt>
      <trkpt lat="45.91261" lon="4.81615">
        <ele>170</ele>
        <time>2018-02-20T11:01:45Z</time>
      </trkpt>
      <trkpt lat="45.91265" lon="4.81615">
        <ele>170</ele>
        <time>2018-02-20T11:01:46Z</time>
      </trkpt>
      <trkpt lat="45.91273" lon="4.81616">
        <ele>170</ele>
        <time>2018-02-20T11:01:48Z</time>
      </trkpt>
      <trkpt lat="45.91277" lon="4.81616">
        <ele>170</ele>
        <time>2018-02-20T11:01:49Z</time>
      </trkpt>
      <trkpt lat="45.91281" lon="4.81616">
        <ele>170</ele>
        <time>2018-02-20T11:01:50Z</time>
      </trkpt>
      <trkpt lat="45.91286" lon="4.81615">
        <ele>170</ele>
        <time>2018-02-20T11:01:51Z</time>
      </trkpt>
      <trkpt lat="45.91295" lon="4.81616">
        <ele>170</ele>
        <time>2018-02-20T11:01:53Z</time>
      </trkpt>
      <trkpt lat="45.913" lon="4.81617">
        <ele>170</ele>
        <time>2018-02-20T11:01:54Z</time>
      </trkpt>
      <trkpt lat="45.91308" lon="4.81617">
        <ele>170</ele>
        <time>2018-02-20T11:01:56Z</time>
      </trkpt>
      <trkpt lat="45.91314" lon="4.81616">
        <ele>170</ele>
        <time>2018-02-20T11:01:57Z</time>
      </trkpt>
      <trkpt lat="45.91318" lon="4.81616">
        <ele>170</ele>
        <time>2018-02-20T11:01:58Z</time>
      </trkpt>
      <trkpt lat="45.91323" lon="4.81615">
        <ele>170</ele>
        <time>2018-02-20T11:01:59Z</time>
      </trkpt>
      <trkpt lat="45.91327" lon="4.81615">
        <ele>170</ele>
        <time>2018-02-20T11:02:00Z</time>
      </trkpt>
      <trkpt lat="45.91332" lon="4.81615">
        <ele>170</ele>
        <time>2018-02-20T11:02:01Z</time>
      </trkpt>
      <trkpt lat="45.91341" lon="4.81615">
        <ele>170</ele>
        <time>2018-02-20T11:02:03Z</time>
      </trkpt>
      <trkpt lat="45.91344" lon="4.81614">
        <ele>170</ele>
        <time>2018-02-20T11:02:04Z</time>
      </trkpt>
      <trkpt lat="45.91353" lon="4.81613">
        <ele>170</ele>
        <time>2018-02-20T11:02:06Z</time>
      </trkpt>
      <trkpt lat="45.91358" lon="4.81614">
        <ele>170</ele>
        <time>2018-02-20T11:02:07Z</time>
      </trkpt>
      <trkpt lat="45.91366" lon="4.81613">
        <ele>170</ele>
        <time>2018-02-20T11:02:09Z</time>
      </trkpt>
      <trkpt lat="45.9137" lon="4.81614">
        <ele>170</ele>
        <time>2018-02-20T11:02:10Z</time>
      </trkpt>
      <trkpt lat="45.91379" lon="4.81614">
        <ele>170</ele>
        <time>2018-02-20T11:02:12Z</time>
      </trkpt>
      <trkpt lat="45.91383" lon="4.81613">
        <ele>170</ele>
        <time>2018-02-20T11:02:13Z</time>
      </trkpt>
      <trkpt lat="45.91392" lon="4.81612">
        <ele>170</ele>
        <time>2018-02-20T11:02:15Z</time>
      </trkpt>
      <trkpt lat="45.91396" lon="4.81612">
        <ele>170</ele>
        <time>2018-02-20T11:02:16Z</time>
      </trkpt>
      <trkpt lat="45.91405" lon="4.81612">
        <ele>170</ele>
        <time>2018-02-20T11:02:18Z</time>
      </trkpt>
      <trkpt lat="45.91409" lon="4.81611">
        <ele>170</ele>
        <time>2018-02-20T11:02:19Z</time>
      </trkpt>
      <trkpt lat="45.91418" lon="4.8161">
        <ele>169</ele>
        <time>2018-02-20T11:02:21Z</time>
      </trkpt>
      <trkpt lat="45.91422" lon="4.8161">
        <ele>169</ele>
        <time>2018-02-20T11:02:22Z</time>
      </trkpt>
      <trkpt lat="45.9143" lon="4.81609">
        <ele>170</ele>
        <time>2018-02-20T11:02:24Z</time>
      </trkpt>
      <trkpt lat="45.91434" lon="4.81609">
        <ele>170</ele>
        <time>2018-02-20T11:02:25Z</time>
      </trkpt>
      <trkpt lat="45.91443" lon="4.81608">
        <ele>170</ele>
        <time>2018-02-20T11:02:27Z</time>
      </trkpt>
      <trkpt lat="45.91447" lon="4.81608">
        <ele>170</ele>
        <time>2018-02-20T11:02:28Z</time>
      </trkpt>
      <trkpt lat="45.91455" lon="4.81608">
        <ele>170</ele>
        <time>2018-02-20T11:02:30Z</time>
      </trkpt>
      <trkpt lat="45.9146" lon="4.81607">
        <ele>170</ele>
        <time>2018-02-20T11:02:31Z</time>
      </trkpt>
      <trkpt lat="45.91468" lon="4.81606">
        <ele>170</ele>
        <time>2018-02-20T11:02:33Z</time>
      </trkpt>
      <trkpt lat="45.91473" lon="4.81605">
        <ele>170</ele>
        <time>2018-02-20T11:02:34Z</time>
      </trkpt>
      <trkpt lat="45.91478" lon="4.81604">
        <ele>170</ele>
        <time>2018-02-20T11:02:35Z</time>
      </trkpt>
      <trkpt lat="45.91482" lon="4.81603">
        <ele>170</ele>
        <time>2018-02-20T11:02:36Z</time>
      </trkpt>
      <trkpt lat="45.9149" lon="4.81602">
        <ele>169</ele>
        <time>2018-02-20T11:02:38Z</time>
      </trkpt>
      <trkpt lat="45.91495" lon="4.81602">
        <ele>169</ele>
        <time>2018-02-20T11:02:39Z</time>
      </trkpt>
      <trkpt lat="45.91504" lon="4.81601">
        <ele>170</ele>
        <time>2018-02-20T11:02:41Z</time>
      </trkpt>
      <trkpt lat="45.91508" lon="4.816">
        <ele>170</ele>
        <time>2018-02-20T11:02:42Z</time>
      </trkpt>
      <trkpt lat="45.91513" lon="4.81599">
        <ele>170</ele>
        <time>2018-02-20T11:02:43Z</time>
      </trkpt>
      <trkpt lat="45.91518" lon="4.81599">
        <ele>170</ele>
        <time>2018-02-20T11:02:44Z</time>
      </trkpt>
      <trkpt lat="45.91523" lon="4.81599">
        <ele>170</ele>
        <time>2018-02-20T11:02:45Z</time>
      </trkpt>
      <trkpt lat="45.91527" lon="4.81598">
        <ele>170</ele>
        <time>2018-02-20T11:02:46Z</time>
      </trkpt>
      <trkpt lat="45.91532" lon="4.81598">
        <ele>170</ele>
        <time>2018-02-20T11:02:47Z</time>
      </trkpt>
      <trkpt lat="45.91537" lon="4.81597">
        <ele>170</ele>
        <time>2018-02-20T11:02:48Z</time>
      </trkpt>
      <trkpt lat="45.91542" lon="4.81596">
        <ele>170</ele>
        <time>2018-02-20T11:02:49Z</time>
      </trkpt>
      <trkpt lat="45.91546" lon="4.81595">
        <ele>170</ele>
        <time>2018-02-20T11:02:50Z</time>
      </trkpt>
      <trkpt lat="45.91551" lon="4.81594">
        <ele>170</ele>
        <time>2018-02-20T11:02:51Z</time>
      </trkpt>
      <trkpt lat="45.91556" lon="4.81593">
        <ele>170</ele>
        <time>2018-02-20T11:02:52Z</time>
      </trkpt>
      <trkpt lat="45.91564" lon="4.81592">
        <ele>170</ele>
        <time>2018-02-20T11:02:54Z</time>
      </trkpt>
      <trkpt lat="45.91567" lon="4.81591">
        <ele>170</ele>
        <time>2018-02-20T11:02:55Z</time>
      </trkpt>
      <trkpt lat="45.91571" lon="4.81591">
        <ele>170</ele>
        <time>2018-02-20T11:02:56Z</time>
      </trkpt>
      <trkpt lat="45.91576" lon="4.8159">
        <ele>170</ele>
        <time>2018-02-20T11:02:57Z</time>
      </trkpt>
      <trkpt lat="45.91585" lon="4.81589">
        <ele>170</ele>
        <time>2018-02-20T11:02:59Z</time>
      </trkpt>
      <trkpt lat="45.91589" lon="4.81589">
        <ele>170</ele>
        <time>2018-02-20T11:03:00Z</time>
      </trkpt>
      <trkpt lat="45.91593" lon="4.81589">
        <ele>170</ele>
        <time>2018-02-20T11:03:01Z</time>
      </trkpt>
      <trkpt lat="45.91599" lon="4.81587">
        <ele>170</ele>
        <time>2018-02-20T11:03:02Z</time>
      </trkpt>
      <trkpt lat="45.91604" lon="4.81587">
        <ele>170</ele>
        <time>2018-02-20T11:03:03Z</time>
      </trkpt>
      <trkpt lat="45.91609" lon="4.81586">
        <ele>170</ele>
        <time>2018-02-20T11:03:04Z</time>
      </trkpt>
      <trkpt lat="45.91617" lon="4.81583">
        <ele>170</ele>
        <time>2018-02-20T11:03:06Z</time>
      </trkpt>
      <trkpt lat="45.91622" lon="4.81582">
        <ele>170</ele>
        <time>2018-02-20T11:03:07Z</time>
      </trkpt>
      <trkpt lat="45.91626" lon="4.8158">
        <ele>170</ele>
        <time>2018-02-20T11:03:08Z</time>
      </trkpt>
      <trkpt lat="45.91631" lon="4.81579">
        <ele>170</ele>
        <time>2018-02-20T11:03:09Z</time>
      </trkpt>
      <trkpt lat="45.91636" lon="4.81578">
        <ele>170</ele>
        <time>2018-02-20T11:03:10Z</time>
      </trkpt>
      <trkpt lat="45.91641" lon="4.81577">
        <ele>170</ele>
        <time>2018-02-20T11:03:11Z</time>
      </trkpt>
      <trkpt lat="45.91646" lon="4.81576">
        <ele>170</ele>
        <time>2018-02-20T11:03:12Z</time>
      </trkpt>
      <trkpt lat="45.91651" lon="4.81575">
        <ele>170</ele>
        <time>2018-02-20T11:03:13Z</time>
      </trkpt>
      <trkpt lat="45.91657" lon="4.81572">
        <ele>170</ele>
        <time>2018-02-20T11:03:14Z</time>
      </trkpt>
      <trkpt lat="45.91662" lon="4.81572">
        <ele>170</ele>
        <time>2018-02-20T11:03:15Z</time>
      </trkpt>
      <trkpt lat="45.91666" lon="4.8157">
        <ele>170</ele>
        <time>2018-02-20T11:03:16Z</time>
      </trkpt>
      <trkpt lat="45.91671" lon="4.81569">
        <ele>170</ele>
        <time>2018-02-20T11:03:17Z</time>
      </trkpt>
      <trkpt lat="45.9168" lon="4.81568">
        <ele>170</ele>
        <time>2018-02-20T11:03:19Z</time>
      </trkpt>
      <trkpt lat="45.91686" lon="4.81567">
        <ele>169</ele>
        <time>2018-02-20T11:03:20Z</time>
      </trkpt>
      <trkpt lat="45.9169" lon="4.81566">
        <ele>169</ele>
        <time>2018-02-20T11:03:21Z</time>
      </trkpt>
      <trkpt lat="45.91695" lon="4.81565">
        <ele>169</ele>
        <time>2018-02-20T11:03:22Z</time>
      </trkpt>
      <trkpt lat="45.91701" lon="4.81563">
        <ele>169</ele>
        <time>2018-02-20T11:03:23Z</time>
      </trkpt>
      <trkpt lat="45.91706" lon="4.81562">
        <ele>169</ele>
        <time>2018-02-20T11:03:24Z</time>
      </trkpt>
      <trkpt lat="45.91713" lon="4.81559">
        <ele>169</ele>
        <time>2018-02-20T11:03:26Z</time>
      </trkpt>
      <trkpt lat="45.91717" lon="4.81558">
        <ele>169</ele>
        <time>2018-02-20T11:03:27Z</time>
      </trkpt>
      <trkpt lat="45.91721" lon="4.81557">
        <ele>169</ele>
        <time>2018-02-20T11:03:28Z</time>
      </trkpt>
      <trkpt lat="45.91727" lon="4.81556">
        <ele>169</ele>
        <time>2018-02-20T11:03:29Z</time>
      </trkpt>
      <trkpt lat="45.91731" lon="4.81555">
        <ele>169</ele>
        <time>2018-02-20T11:03:30Z</time>
      </trkpt>
      <trkpt lat="45.91736" lon="4.81553">
        <ele>169</ele>
        <time>2018-02-20T11:03:31Z</time>
      </trkpt>
      <trkpt lat="45.91741" lon="4.81553">
        <ele>169</ele>
        <time>2018-02-20T11:03:32Z</time>
      </trkpt>
      <trkpt lat="45.91745" lon="4.81552">
        <ele>169</ele>
        <time>2018-02-20T11:03:33Z</time>
      </trkpt>
      <trkpt lat="45.91751" lon="4.81549">
        <ele>168</ele>
        <time>2018-02-20T11:03:34Z</time>
      </trkpt>
      <trkpt lat="45.91755" lon="4.81547">
        <ele>168</ele>
        <time>2018-02-20T11:03:35Z</time>
      </trkpt>
      <trkpt lat="45.91759" lon="4.81546">
        <ele>168</ele>
        <time>2018-02-20T11:03:36Z</time>
      </trkpt>
      <trkpt lat="45.91763" lon="4.81543">
        <ele>168</ele>
        <time>2018-02-20T11:03:37Z</time>
      </trkpt>
      <trkpt lat="45.91768" lon="4.81541">
        <ele>169</ele>
        <time>2018-02-20T11:03:38Z</time>
      </trkpt>
      <trkpt lat="45.91772" lon="4.8154">
        <ele>169</ele>
        <time>2018-02-20T11:03:39Z</time>
      </trkpt>
      <trkpt lat="45.91777" lon="4.81537">
        <ele>169</ele>
        <time>2018-02-20T11:03:40Z</time>
      </trkpt>
      <trkpt lat="45.91781" lon="4.81536">
        <ele>169</ele>
        <time>2018-02-20T11:03:41Z</time>
      </trkpt>
      <trkpt lat="45.91785" lon="4.81535">
        <ele>169</ele>
        <time>2018-02-20T11:03:42Z</time>
      </trkpt>
      <trkpt lat="45.9179" lon="4.81533">
        <ele>169</ele>
        <time>2018-02-20T11:03:43Z</time>
      </trkpt>
      <trkpt lat="45.91795" lon="4.81532">
        <ele>168</ele>
        <time>2018-02-20T11:03:44Z</time>
      </trkpt>
      <trkpt lat="45.91799" lon="4.81529">
        <ele>168</ele>
        <time>2018-02-20T11:03:45Z</time>
      </trkpt>
      <trkpt lat="45.91808" lon="4.81527">
        <ele>168</ele>
        <time>2018-02-20T11:03:47Z</time>
      </trkpt>
      <trkpt lat="45.91813" lon="4.81524">
        <ele>168</ele>
        <time>2018-02-20T11:03:48Z</time>
      </trkpt>
      <trkpt lat="45.91817" lon="4.81523">
        <ele>168</ele>
        <time>2018-02-20T11:03:49Z</time>
      </trkpt>
      <trkpt lat="45.91823" lon="4.81521">
        <ele>168</ele>
        <time>2018-02-20T11:03:50Z</time>
      </trkpt>
      <trkpt lat="45.91828" lon="4.81519">
        <ele>168</ele>
        <time>2018-02-20T11:03:51Z</time>
      </trkpt>
      <trkpt lat="45.91832" lon="4.81518">
        <ele>168</ele>
        <time>2018-02-20T11:03:52Z</time>
      </trkpt>
      <trkpt lat="45.91841" lon="4.81515">
        <ele>169</ele>
        <time>2018-02-20T11:03:54Z</time>
      </trkpt>
      <trkpt lat="45.91845" lon="4.81513">
        <ele>169</ele>
        <time>2018-02-20T11:03:55Z</time>
      </trkpt>
      <trkpt lat="45.9185" lon="4.81511">
        <ele>169</ele>
        <time>2018-02-20T11:03:56Z</time>
      </trkpt>
      <trkpt lat="45.91855" lon="4.8151">
        <ele>169</ele>
        <time>2018-02-20T11:03:57Z</time>
      </trkpt>
      <trkpt lat="45.9186" lon="4.81509">
        <ele>169</ele>
        <time>2018-02-20T11:03:58Z</time>
      </trkpt>
      <trkpt lat="45.91864" lon="4.81507">
        <ele>169</ele>
        <time>2018-02-20T11:03:59Z</time>
      </trkpt>
      <trkpt lat="45.91868" lon="4.81504">
        <ele>169</ele>
        <time>2018-02-20T11:04:00Z</time>
      </trkpt>
      <trkpt lat="45.91873" lon="4.81504">
        <ele>169</ele>
        <time>2018-02-20T11:04:01Z</time>
      </trkpt>
      <trkpt lat="45.91881" lon="4.81501">
        <ele>169</ele>
        <time>2018-02-20T11:04:03Z</time>
      </trkpt>
      <trkpt lat="45.91884" lon="4.81498">
        <ele>169</ele>
        <time>2018-02-20T11:04:04Z</time>
      </trkpt>
      <trkpt lat="45.91888" lon="4.81497">
        <ele>169</ele>
        <time>2018-02-20T11:04:05Z</time>
      </trkpt>
      <trkpt lat="45.91893" lon="4.81495">
        <ele>169</ele>
        <time>2018-02-20T11:04:06Z</time>
      </trkpt>
      <trkpt lat="45.91901" lon="4.81492">
        <ele>169</ele>
        <time>2018-02-20T11:04:08Z</time>
      </trkpt>
      <trkpt lat="45.91906" lon="4.81491">
        <ele>169</ele>
        <time>2018-02-20T11:04:09Z</time>
      </trkpt>
      <trkpt lat="45.91914" lon="4.81486">
        <ele>169</ele>
        <time>2018-02-20T11:04:11Z</time>
      </trkpt>
      <trkpt lat="45.91917" lon="4.81486">
        <ele>169</ele>
        <time>2018-02-20T11:04:12Z</time>
      </trkpt>
      <trkpt lat="45.91921" lon="4.81485">
        <ele>170</ele>
        <time>2018-02-20T11:04:13Z</time>
      </trkpt>
      <trkpt lat="45.91926" lon="4.81483">
        <ele>170</ele>
        <time>2018-02-20T11:04:14Z</time>
      </trkpt>
      <trkpt lat="45.91931" lon="4.81481">
        <ele>170</ele>
        <time>2018-02-20T11:04:15Z</time>
      </trkpt>
      <trkpt lat="45.91936" lon="4.81481">
        <ele>170</ele>
        <time>2018-02-20T11:04:16Z</time>
      </trkpt>
      <trkpt lat="45.9194" lon="4.81479">
        <ele>170</ele>
        <time>2018-02-20T11:04:17Z</time>
      </trkpt>
      <trkpt lat="45.91945" lon="4.81478">
        <ele>170</ele>
        <time>2018-02-20T11:04:18Z</time>
      </trkpt>
      <trkpt lat="45.91949" lon="4.81476">
        <ele>170</ele>
        <time>2018-02-20T11:04:19Z</time>
      </trkpt>
      <trkpt lat="45.91954" lon="4.81475">
        <ele>170</ele>
        <time>2018-02-20T11:04:20Z</time>
      </trkpt>
      <trkpt lat="45.91962" lon="4.81471">
        <ele>170</ele>
        <time>2018-02-20T11:04:22Z</time>
      </trkpt>
      <trkpt lat="45.91966" lon="4.8147">
        <ele>170</ele>
        <time>2018-02-20T11:04:23Z</time>
      </trkpt>
      <trkpt lat="45.91969" lon="4.81469">
        <ele>170</ele>
        <time>2018-02-20T11:04:24Z</time>
      </trkpt>
      <trkpt lat="45.91975" lon="4.81466">
        <ele>170</ele>
        <time>2018-02-20T11:04:25Z</time>
      </trkpt>
      <trkpt lat="45.91983" lon="4.81466">
        <ele>170</ele>
        <time>2018-02-20T11:04:27Z</time>
      </trkpt>
      <trkpt lat="45.91989" lon="4.81462">
        <ele>170</ele>
        <time>2018-02-20T11:04:28Z</time>
      </trkpt>
      <trkpt lat="45.91993" lon="4.81459">
        <ele>170</ele>
        <time>2018-02-20T11:04:29Z</time>
      </trkpt>
      <trkpt lat="45.91999" lon="4.81457">
        <ele>170</ele>
        <time>2018-02-20T11:04:30Z</time>
      </trkpt>
      <trkpt lat="45.92004" lon="4.81454">
        <ele>170</ele>
        <time>2018-02-20T11:04:31Z</time>
      </trkpt>
      <trkpt lat="45.92008" lon="4.81452">
        <ele>170</ele>
        <time>2018-02-20T11:04:32Z</time>
      </trkpt>
      <trkpt lat="45.92012" lon="4.81449">
        <ele>170</ele>
        <time>2018-02-20T11:04:33Z</time>
      </trkpt>
      <trkpt lat="45.92017" lon="4.81447">
        <ele>170</ele>
        <time>2018-02-20T11:04:34Z</time>
      </trkpt>
      <trkpt lat="45.92022" lon="4.81445">
        <ele>170</ele>
        <time>2018-02-20T11:04:35Z</time>
      </trkpt>
      <trkpt lat="45.92027" lon="4.81442">
        <ele>170</ele>
        <time>2018-02-20T11:04:36Z</time>
      </trkpt>
      <trkpt lat="45.92032" lon="4.81439">
        <ele>170</ele>
        <time>2018-02-20T11:04:37Z</time>
      </trkpt>
      <trkpt lat="45.92037" lon="4.81437">
        <ele>170</ele>
        <time>2018-02-20T11:04:38Z</time>
      </trkpt>
      <trkpt lat="45.92042" lon="4.81434">
        <ele>170</ele>
        <time>2018-02-20T11:04:39Z</time>
      </trkpt>
      <trkpt lat="45.92046" lon="4.81431">
        <ele>170</ele>
        <time>2018-02-20T11:04:40Z</time>
      </trkpt>
      <trkpt lat="45.92051" lon="4.81429">
        <ele>170</ele>
        <time>2018-02-20T11:04:41Z</time>
      </trkpt>
      <trkpt lat="45.92055" lon="4.81426">
        <ele>170</ele>
        <time>2018-02-20T11:04:42Z</time>
      </trkpt>
      <trkpt lat="45.92059" lon="4.81423">
        <ele>170</ele>
        <time>2018-02-20T11:04:43Z</time>
      </trkpt>
      <trkpt lat="45.92064" lon="4.8142">
        <ele>170</ele>
        <time>2018-02-20T11:04:44Z</time>
      </trkpt>
      <trkpt lat="45.92071" lon="4.81417">
        <ele>170</ele>
        <time>2018-02-20T11:04:46Z</time>
      </trkpt>
      <trkpt lat="45.92076" lon="4.81414">
        <ele>170</ele>
        <time>2018-02-20T11:04:47Z</time>
      </trkpt>
      <trkpt lat="45.92081" lon="4.81411">
        <ele>170</ele>
        <time>2018-02-20T11:04:48Z</time>
      </trkpt>
      <trkpt lat="45.92087" lon="4.81406">
        <ele>170</ele>
        <time>2018-02-20T11:04:49Z</time>
      </trkpt>
      <trkpt lat="45.92092" lon="4.81402">
        <ele>170</ele>
        <time>2018-02-20T11:04:50Z</time>
      </trkpt>
      <trkpt lat="45.92097" lon="4.814">
        <ele>170</ele>
        <time>2018-02-20T11:04:51Z</time>
      </trkpt>
      <trkpt lat="45.92101" lon="4.81397">
        <ele>170</ele>
        <time>2018-02-20T11:04:52Z</time>
      </trkpt>
      <trkpt lat="45.92106" lon="4.81396">
        <ele>170</ele>
        <time>2018-02-20T11:04:53Z</time>
      </trkpt>
      <trkpt lat="45.92111" lon="4.81393">
        <ele>170</ele>
        <time>2018-02-20T11:04:54Z</time>
      </trkpt>
      <trkpt lat="45.92116" lon="4.81391">
        <ele>170</ele>
        <time>2018-02-20T11:04:55Z</time>
      </trkpt>
      <trkpt lat="45.92124" lon="4.81388">
        <ele>170</ele>
        <time>2018-02-20T11:04:57Z</time>
      </trkpt>
      <trkpt lat="45.92128" lon="4.81387">
        <ele>170</ele>
        <time>2018-02-20T11:04:58Z</time>
      </trkpt>
      <trkpt lat="45.92137" lon="4.81385">
        <ele>170</ele>
        <time>2018-02-20T11:05:00Z</time>
      </trkpt>
      <trkpt lat="45.92143" lon="4.81383">
        <ele>170</ele>
        <time>2018-02-20T11:05:01Z</time>
      </trkpt>
      <trkpt lat="45.92147" lon="4.81384">
        <ele>170</ele>
        <time>2018-02-20T11:05:02Z</time>
      </trkpt>
      <trkpt lat="45.92153" lon="4.81383">
        <ele>170</ele>
        <time>2018-02-20T11:05:03Z</time>
      </trkpt>
      <trkpt lat="45.92157" lon="4.81383">
        <ele>170</ele>
        <time>2018-02-20T11:05:04Z</time>
      </trkpt>
      <trkpt lat="45.92162" lon="4.81384">
        <ele>170</ele>
        <time>2018-02-20T11:05:05Z</time>
      </trkpt>
      <trkpt lat="45.92169" lon="4.81389">
        <ele>170</ele>
        <time>2018-02-20T11:05:07Z</time>
      </trkpt>
      <trkpt lat="45.92173" lon="4.81394">
        <ele>170</ele>
        <time>2018-02-20T11:05:08Z</time>
      </trkpt>
      <trkpt lat="45.92181" lon="4.81399">
        <ele>170</ele>
        <time>2018-02-20T11:05:10Z</time>
      </trkpt>
      <trkpt lat="45.92186" lon="4.81399">
        <ele>170</ele>
        <time>2018-02-20T11:05:11Z</time>
      </trkpt>
      <trkpt lat="45.92194" lon="4.81396">
        <ele>170</ele>
        <time>2018-02-20T11:05:13Z</time>
      </trkpt>
      <trkpt lat="45.92199" lon="4.81391">
        <ele>170</ele>
        <time>2018-02-20T11:05:14Z</time>
      </trkpt>
      <trkpt lat="45.92204" lon="4.8138">
        <ele>170</ele>
        <time>2018-02-20T11:05:16Z</time>
      </trkpt>
      <trkpt lat="45.92203" lon="4.81372">
        <ele>170</ele>
        <time>2018-02-20T11:05:17Z</time>
      </trkpt>
      <trkpt lat="45.92205" lon="4.8136">
        <ele>170</ele>
        <time>2018-02-20T11:05:19Z</time>
      </trkpt>
      <trkpt lat="45.92207" lon="4.81354">
        <ele>170</ele>
        <time>2018-02-20T11:05:20Z</time>
      </trkpt>
      <trkpt lat="45.92211" lon="4.81348">
        <ele>171</ele>
        <time>2018-02-20T11:05:21Z</time>
      </trkpt>
      <trkpt lat="45.92216" lon="4.81342">
        <ele>171</ele>
        <time>2018-02-20T11:05:22Z</time>
      </trkpt>
      <trkpt lat="45.9222" lon="4.81337">
        <ele>171</ele>
        <time>2018-02-20T11:05:23Z</time>
      </trkpt>
      <trkpt lat="45.92224" lon="4.81332">
        <ele>171</ele>
        <time>2018-02-20T11:05:24Z</time>
      </trkpt>
      <trkpt lat="45.92228" lon="4.81327">
        <ele>171</ele>
        <time>2018-02-20T11:05:25Z</time>
      </trkpt>
      <trkpt lat="45.92232" lon="4.81323">
        <ele>171</ele>
        <time>2018-02-20T11:05:26Z</time>
      </trkpt>
      <trkpt lat="45.92237" lon="4.81319">
        <ele>171</ele>
        <time>2018-02-20T11:05:27Z</time>
      </trkpt>
      <trkpt lat="45.92242" lon="4.81314">
        <ele>171</ele>
        <time>2018-02-20T11:05:28Z</time>
      </trkpt>
      <trkpt lat="45.92246" lon="4.81309">
        <ele>171</ele>
        <time>2018-02-20T11:05:29Z</time>
      </trkpt>
      <trkpt lat="45.92251" lon="4.81305">
        <ele>171</ele>
        <time>2018-02-20T11:05:30Z</time>
      </trkpt>
      <trkpt lat="45.92255" lon="4.81302">
        <ele>171</ele>
        <time>2018-02-20T11:05:31Z</time>
      </trkpt>
      <trkpt lat="45.9226" lon="4.81298">
        <ele>171</ele>
        <time>2018-02-20T11:05:32Z</time>
      </trkpt>
      <trkpt lat="45.92264" lon="4.81294">
        <ele>170</ele>
        <time>2018-02-20T11:05:33Z</time>
      </trkpt>
      <trkpt lat="45.92269" lon="4.81291">
        <ele>170</ele>
        <time>2018-02-20T11:05:34Z</time>
      </trkpt>
      <trkpt lat="45.92274" lon="4.81287">
        <ele>170</ele>
        <time>2018-02-20T11:05:35Z</time>
      </trkpt>
      <trkpt lat="45.92279" lon="4.81284">
        <ele>170</ele>
        <time>2018-02-20T11:05:36Z</time>
      </trkpt>
      <trkpt lat="45.92284" lon="4.81279">
        <ele>170</ele>
        <time>2018-02-20T11:05:37Z</time>
      </trkpt>
      <trkpt lat="45.92289" lon="4.81277">
        <ele>170</ele>
        <time>2018-02-20T11:05:38Z</time>
      </trkpt>
      <trkpt lat="45.92292" lon="4.81275">
        <ele>170</ele>
        <time>2018-02-20T11:05:39Z</time>
      </trkpt>
      <trkpt lat="45.92298" lon="4.81272">
        <ele>170</ele>
        <time>2018-02-20T11:05:40Z</time>
      </trkpt>
      <trkpt lat="45.92305" lon="4.81266">
        <ele>170</ele>
        <time>2018-02-20T11:05:42Z</time>
      </trkpt>
      <trkpt lat="45.9231" lon="4.81264">
        <ele>170</ele>
        <time>2018-02-20T11:05:43Z</time>
      </trkpt>
      <trkpt lat="45.92315" lon="4.81261">
        <ele>170</ele>
        <time>2018-02-20T11:05:44Z</time>
      </trkpt>
      <trkpt lat="45.9232" lon="4.81258">
        <ele>170</ele>
        <time>2018-02-20T11:05:45Z</time>
      </trkpt>
      <trkpt lat="45.92324" lon="4.81256">
        <ele>169</ele>
        <time>2018-02-20T11:05:46Z</time>
      </trkpt>
      <trkpt lat="45.92329" lon="4.81253">
        <ele>169</ele>
        <time>2018-02-20T11:05:47Z</time>
      </trkpt>
      <trkpt lat="45.92335" lon="4.8125">
        <ele>169</ele>
        <time>2018-02-20T11:05:48Z</time>
      </trkpt>
      <trkpt lat="45.92339" lon="4.81248">
        <ele>169</ele>
        <time>2018-02-20T11:05:49Z</time>
      </trkpt>
      <trkpt lat="45.92344" lon="4.81245">
        <ele>169</ele>
        <time>2018-02-20T11:05:50Z</time>
      </trkpt>
      <trkpt lat="45.92348" lon="4.81242">
        <ele>169</ele>
        <time>2018-02-20T11:05:51Z</time>
      </trkpt>
      <trkpt lat="45.92352" lon="4.81239">
        <ele>169</ele>
        <time>2018-02-20T11:05:52Z</time>
      </trkpt>
      <trkpt lat="45.92357" lon="4.81237">
        <ele>169</ele>
        <time>2018-02-20T11:05:53Z</time>
      </trkpt>
      <trkpt lat="45.92364" lon="4.81233">
        <ele>170</ele>
        <time>2018-02-20T11:05:55Z</time>
      </trkpt>
      <trkpt lat="45.92368" lon="4.8123">
        <ele>170</ele>
        <time>2018-02-20T11:05:56Z</time>
      </trkpt>
      <trkpt lat="45.92372" lon="4.81227">
        <ele>170</ele>
        <time>2018-02-20T11:05:57Z</time>
      </trkpt>
      <trkpt lat="45.92377" lon="4.81224">
        <ele>170</ele>
        <time>2018-02-20T11:05:58Z</time>
      </trkpt>
      <trkpt lat="45.92381" lon="4.81221">
        <ele>170</ele>
        <time>2018-02-20T11:05:59Z</time>
      </trkpt>
      <trkpt lat="45.92385" lon="4.81218">
        <ele>170</ele>
        <time>2018-02-20T11:06:00Z</time>
      </trkpt>
      <trkpt lat="45.9239" lon="4.81216">
        <ele>170</ele>
        <time>2018-02-20T11:06:01Z</time>
      </trkpt>
      <trkpt lat="45.92394" lon="4.81214">
        <ele>170</ele>
        <time>2018-02-20T11:06:02Z</time>
      </trkpt>
      <trkpt lat="45.92397" lon="4.81212">
        <ele>170</ele>
        <time>2018-02-20T11:06:03Z</time>
      </trkpt>
      <trkpt lat="45.92402" lon="4.81209">
        <ele>170</ele>
        <time>2018-02-20T11:06:04Z</time>
      </trkpt>
      <trkpt lat="45.92407" lon="4.81207">
        <ele>170</ele>
        <time>2018-02-20T11:06:05Z</time>
      </trkpt>
      <trkpt lat="45.92411" lon="4.81205">
        <ele>170</ele>
        <time>2018-02-20T11:06:06Z</time>
      </trkpt>
      <trkpt lat="45.92417" lon="4.81203">
        <ele>170</ele>
        <time>2018-02-20T11:06:07Z</time>
      </trkpt>
      <trkpt lat="45.92421" lon="4.81202">
        <ele>171</ele>
        <time>2018-02-20T11:06:08Z</time>
      </trkpt>
      <trkpt lat="45.92428" lon="4.81198">
        <ele>171</ele>
        <time>2018-02-20T11:06:10Z</time>
      </trkpt>
      <trkpt lat="45.92433" lon="4.81197">
        <ele>171</ele>
        <time>2018-02-20T11:06:11Z</time>
      </trkpt>
      <trkpt lat="45.92441" lon="4.81195">
        <ele>171</ele>
        <time>2018-02-20T11:06:13Z</time>
      </trkpt>
      <trkpt lat="45.92445" lon="4.81196">
        <ele>171</ele>
        <time>2018-02-20T11:06:14Z</time>
      </trkpt>
      <trkpt lat="45.92452" lon="4.81194">
        <ele>171</ele>
        <time>2018-02-20T11:06:16Z</time>
      </trkpt>
      <trkpt lat="45.92456" lon="4.81194">
        <ele>171</ele>
        <time>2018-02-20T11:06:17Z</time>
      </trkpt>
      <trkpt lat="45.9246" lon="4.81193">
        <ele>171</ele>
        <time>2018-02-20T11:06:18Z</time>
      </trkpt>
      <trkpt lat="45.92465" lon="4.81195">
        <ele>171</ele>
        <time>2018-02-20T11:06:19Z</time>
      </trkpt>
      <trkpt lat="45.92473" lon="4.81193">
        <ele>171</ele>
        <time>2018-02-20T11:06:21Z</time>
      </trkpt>
      <trkpt lat="45.92478" lon="4.81193">
        <ele>171</ele>
        <time>2018-02-20T11:06:22Z</time>
      </trkpt>
      <trkpt lat="45.92486" lon="4.81193">
        <ele>171</ele>
        <time>2018-02-20T11:06:24Z</time>
      </trkpt>
      <trkpt lat="45.92491" lon="4.81192">
        <ele>171</ele>
        <time>2018-02-20T11:06:25Z</time>
      </trkpt>
      <trkpt lat="45.92495" lon="4.81191">
        <ele>171</ele>
        <time>2018-02-20T11:06:26Z</time>
      </trkpt>
      <trkpt lat="45.925" lon="4.81192">
        <ele>171</ele>
        <time>2018-02-20T11:06:27Z</time>
      </trkpt>
      <trkpt lat="45.92506" lon="4.81192">
        <ele>171</ele>
        <time>2018-02-20T11:06:28Z</time>
      </trkpt>
      <trkpt lat="45.92511" lon="4.81192">
        <ele>171</ele>
        <time>2018-02-20T11:06:29Z</time>
      </trkpt>
      <trkpt lat="45.9252" lon="4.81191">
        <ele>171</ele>
        <time>2018-02-20T11:06:31Z</time>
      </trkpt>
      <trkpt lat="45.92525" lon="4.81191">
        <ele>171</ele>
        <time>2018-02-20T11:06:32Z</time>
      </trkpt>
      <trkpt lat="45.92531" lon="4.81188">
        <ele>171</ele>
        <time>2018-02-20T11:06:33Z</time>
      </trkpt>
      <trkpt lat="45.92536" lon="4.81188">
        <ele>171</ele>
        <time>2018-02-20T11:06:34Z</time>
      </trkpt>
      <trkpt lat="45.92542" lon="4.81188">
        <ele>170</ele>
        <time>2018-02-20T11:06:35Z</time>
      </trkpt>
      <trkpt lat="45.92547" lon="4.81188">
        <ele>170</ele>
        <time>2018-02-20T11:06:36Z</time>
      </trkpt>
      <trkpt lat="45.92552" lon="4.81188">
        <ele>170</ele>
        <time>2018-02-20T11:06:37Z</time>
      </trkpt>
      <trkpt lat="45.92557" lon="4.81188">
        <ele>170</ele>
        <time>2018-02-20T11:06:38Z</time>
      </trkpt>
      <trkpt lat="45.92561" lon="4.81187">
        <ele>170</ele>
        <time>2018-02-20T11:06:39Z</time>
      </trkpt>
      <trkpt lat="45.92566" lon="4.81186">
        <ele>170</ele>
        <time>2018-02-20T11:06:40Z</time>
      </trkpt>
      <trkpt lat="45.92573" lon="4.81187">
        <ele>170</ele>
        <time>2018-02-20T11:06:42Z</time>
      </trkpt>
      <trkpt lat="45.92577" lon="4.81187">
        <ele>170</ele>
        <time>2018-02-20T11:06:43Z</time>
      </trkpt>
      <trkpt lat="45.92582" lon="4.81186">
        <ele>170</ele>
        <time>2018-02-20T11:06:44Z</time>
      </trkpt>
      <trkpt lat="45.92587" lon="4.81186">
        <ele>170</ele>
        <time>2018-02-20T11:06:45Z</time>
      </trkpt>
      <trkpt lat="45.92591" lon="4.81185">
        <ele>170</ele>
        <time>2018-02-20T11:06:46Z</time>
      </trkpt>
      <trkpt lat="45.92596" lon="4.81186">
        <ele>170</ele>
        <time>2018-02-20T11:06:47Z</time>
      </trkpt>
      <trkpt lat="45.926" lon="4.81185">
        <ele>170</ele>
        <time>2018-02-20T11:06:48Z</time>
      </trkpt>
      <trkpt lat="45.92605" lon="4.81185">
        <ele>170</ele>
        <time>2018-02-20T11:06:49Z</time>
      </trkpt>
      <trkpt lat="45.92612" lon="4.81185">
        <ele>170</ele>
        <time>2018-02-20T11:06:51Z</time>
      </trkpt>
      <trkpt lat="45.92617" lon="4.81185">
        <ele>170</ele>
        <time>2018-02-20T11:06:52Z</time>
      </trkpt>
      <trkpt lat="45.92625" lon="4.81184">
        <ele>170</ele>
        <time>2018-02-20T11:06:54Z</time>
      </trkpt>
      <trkpt lat="45.92629" lon="4.81183">
        <ele>171</ele>
        <time>2018-02-20T11:06:55Z</time>
      </trkpt>
      <trkpt lat="45.92634" lon="4.81182">
        <ele>171</ele>
        <time>2018-02-20T11:06:56Z</time>
      </trkpt>
      <trkpt lat="45.92638" lon="4.81182">
        <ele>171</ele>
        <time>2018-02-20T11:06:57Z</time>
      </trkpt>
      <trkpt lat="45.92643" lon="4.81181">
        <ele>171</ele>
        <time>2018-02-20T11:06:58Z</time>
      </trkpt>
      <trkpt lat="45.92647" lon="4.8118">
        <ele>171</ele>
        <time>2018-02-20T11:06:59Z</time>
      </trkpt>
      <trkpt lat="45.92656" lon="4.8118">
        <ele>171</ele>
        <time>2018-02-20T11:07:01Z</time>
      </trkpt>
      <trkpt lat="45.92661" lon="4.81179">
        <ele>171</ele>
        <time>2018-02-20T11:07:02Z</time>
      </trkpt>
      <trkpt lat="45.92669" lon="4.8118">
        <ele>171</ele>
        <time>2018-02-20T11:07:04Z</time>
      </trkpt>
      <trkpt lat="45.92673" lon="4.8118">
        <ele>171</ele>
        <time>2018-02-20T11:07:05Z</time>
      </trkpt>
      <trkpt lat="45.92681" lon="4.81178">
        <ele>171</ele>
        <time>2018-02-20T11:07:07Z</time>
      </trkpt>
      <trkpt lat="45.92685" lon="4.81177">
        <ele>171</ele>
        <time>2018-02-20T11:07:08Z</time>
      </trkpt>
      <trkpt lat="45.92693" lon="4.81175">
        <ele>170</ele>
        <time>2018-02-20T11:07:10Z</time>
      </trkpt>
      <trkpt lat="45.92697" lon="4.81174">
        <ele>170</ele>
        <time>2018-02-20T11:07:11Z</time>
      </trkpt>
      <trkpt lat="45.92706" lon="4.81172">
        <ele>170</ele>
        <time>2018-02-20T11:07:13Z</time>
      </trkpt>
      <trkpt lat="45.9271" lon="4.81171">
        <ele>170</ele>
        <time>2018-02-20T11:07:14Z</time>
      </trkpt>
      <trkpt lat="45.92718" lon="4.81169">
        <ele>170</ele>
        <time>2018-02-20T11:07:16Z</time>
      </trkpt>
      <trkpt lat="45.92722" lon="4.81169">
        <ele>170</ele>
        <time>2018-02-20T11:07:17Z</time>
      </trkpt>
      <trkpt lat="45.9273" lon="4.81169">
        <ele>170</ele>
        <time>2018-02-20T11:07:19Z</time>
      </trkpt>
      <trkpt lat="45.92734" lon="4.81169">
        <ele>170</ele>
        <time>2018-02-20T11:07:20Z</time>
      </trkpt>
      <trkpt lat="45.92742" lon="4.81171">
        <ele>170</ele>
        <time>2018-02-20T11:07:22Z</time>
      </trkpt>
      <trkpt lat="45.92745" lon="4.81172">
        <ele>170</ele>
        <time>2018-02-20T11:07:23Z</time>
      </trkpt>
      <trkpt lat="45.92752" lon="4.81177">
        <ele>170</ele>
        <time>2018-02-20T11:07:25Z</time>
      </trkpt>
      <trkpt lat="45.92755" lon="4.81181">
        <ele>170</ele>
        <time>2018-02-20T11:07:26Z</time>
      </trkpt>
      <trkpt lat="45.92763" lon="4.81186">
        <ele>170</ele>
        <time>2018-02-20T11:07:28Z</time>
      </trkpt>
      <trkpt lat="45.92767" lon="4.81187">
        <ele>170</ele>
        <time>2018-02-20T11:07:29Z</time>
      </trkpt>
      <trkpt lat="45.92775" lon="4.81184">
        <ele>170</ele>
        <time>2018-02-20T11:07:31Z</time>
      </trkpt>
      <trkpt lat="45.92778" lon="4.81181">
        <ele>170</ele>
        <time>2018-02-20T11:07:32Z</time>
      </trkpt>
      <trkpt lat="45.92781" lon="4.81177">
        <ele>170</ele>
        <time>2018-02-20T11:07:33Z</time>
      </trkpt>
      <trkpt lat="45.92784" lon="4.81171">
        <ele>170</ele>
        <time>2018-02-20T11:07:34Z</time>
      </trkpt>
      <trkpt lat="45.92785" lon="4.81164">
        <ele>170</ele>
        <time>2018-02-20T11:07:35Z</time>
      </trkpt>
      <trkpt lat="45.92785" lon="4.81158">
        <ele>170</ele>
        <time>2018-02-20T11:07:36Z</time>
      </trkpt>
      <trkpt lat="45.92786" lon="4.81151">
        <ele>170</ele>
        <time>2018-02-20T11:07:37Z</time>
      </trkpt>
      <trkpt lat="45.92787" lon="4.8114">
        <ele>170</ele>
        <time>2018-02-20T11:07:38Z</time>
      </trkpt>
      <trkpt lat="45.92789" lon="4.81134">
        <ele>170</ele>
        <time>2018-02-20T11:07:39Z</time>
      </trkpt>
      <trkpt lat="45.92792" lon="4.81129">
        <ele>170</ele>
        <time>2018-02-20T11:07:40Z</time>
      </trkpt>
      <trkpt lat="45.92796" lon="4.81124">
        <ele>170</ele>
        <time>2018-02-20T11:07:41Z</time>
      </trkpt>
      <trkpt lat="45.92799" lon="4.81118">
        <ele>170</ele>
        <time>2018-02-20T11:07:42Z</time>
      </trkpt>
      <trkpt lat="45.92802" lon="4.81113">
        <ele>170</ele>
        <time>2018-02-20T11:07:43Z</time>
      </trkpt>
      <trkpt lat="45.92805" lon="4.81107">
        <ele>170</ele>
        <time>2018-02-20T11:07:44Z</time>
      </trkpt>
      <trkpt lat="45.92808" lon="4.81102">
        <ele>170</ele>
        <time>2018-02-20T11:07:45Z</time>
      </trkpt>
      <trkpt lat="45.92812" lon="4.81096">
        <ele>170</ele>
        <time>2018-02-20T11:07:46Z</time>
      </trkpt>
      <trkpt lat="45.92818" lon="4.81086">
        <ele>170</ele>
        <time>2018-02-20T11:07:48Z</time>
      </trkpt>
      <trkpt lat="45.92821" lon="4.81081">
        <ele>170</ele>
        <time>2018-02-20T11:07:49Z</time>
      </trkpt>
      <trkpt lat="45.92823" lon="4.81077">
        <ele>170</ele>
        <time>2018-02-20T11:07:50Z</time>
      </trkpt>
      <trkpt lat="45.92827" lon="4.81071">
        <ele>170</ele>
        <time>2018-02-20T11:07:51Z</time>
      </trkpt>
      <trkpt lat="45.9283" lon="4.81067">
        <ele>169</ele>
        <time>2018-02-20T11:07:52Z</time>
      </trkpt>
      <trkpt lat="45.92833" lon="4.81061">
        <ele>169</ele>
        <time>2018-02-20T11:07:53Z</time>
      </trkpt>
      <trkpt lat="45.92837" lon="4.81051">
        <ele>169</ele>
        <time>2018-02-20T11:07:55Z</time>
      </trkpt>
      <trkpt lat="45.9284" lon="4.81046">
        <ele>169</ele>
        <time>2018-02-20T11:07:56Z</time>
      </trkpt>
      <trkpt lat="45.92843" lon="4.81041">
        <ele>169</ele>
        <time>2018-02-20T11:07:57Z</time>
      </trkpt>
      <trkpt lat="45.92848" lon="4.81035">
        <ele>169</ele>
        <time>2018-02-20T11:07:58Z</time>
      </trkpt>
      <trkpt lat="45.92849" lon="4.81027">
        <ele>169</ele>
        <time>2018-02-20T11:07:59Z</time>
      </trkpt>
      <trkpt lat="45.92852" lon="4.81022">
        <ele>169</ele>
        <time>2018-02-20T11:08:00Z</time>
      </trkpt>
      <trkpt lat="45.92855" lon="4.81016">
        <ele>169</ele>
        <time>2018-02-20T11:08:01Z</time>
      </trkpt>
      <trkpt lat="45.92857" lon="4.8101">
        <ele>169</ele>
        <time>2018-02-20T11:08:02Z</time>
      </trkpt>
      <trkpt lat="45.92859" lon="4.81005">
        <ele>169</ele>
        <time>2018-02-20T11:08:03Z</time>
      </trkpt>
      <trkpt lat="45.92862" lon="4.80997">
        <ele>169</ele>
        <time>2018-02-20T11:08:04Z</time>
      </trkpt>
      <trkpt lat="45.92864" lon="4.80989">
        <ele>169</ele>
        <time>2018-02-20T11:08:05Z</time>
      </trkpt>
      <trkpt lat="45.92866" lon="4.80983">
        <ele>169</ele>
        <time>2018-02-20T11:08:06Z</time>
      </trkpt>
      <trkpt lat="45.92868" lon="4.80976">
        <ele>169</ele>
        <time>2018-02-20T11:08:07Z</time>
      </trkpt>
      <trkpt lat="45.92871" lon="4.80969">
        <ele>169</ele>
        <time>2018-02-20T11:08:08Z</time>
      </trkpt>
      <trkpt lat="45.92875" lon="4.80958">
        <ele>170</ele>
        <time>2018-02-20T11:08:10Z</time>
      </trkpt>
      <trkpt lat="45.92876" lon="4.80953">
        <ele>170</ele>
        <time>2018-02-20T11:08:11Z</time>
      </trkpt>
      <trkpt lat="45.9288" lon="4.80944">
        <ele>170</ele>
        <time>2018-02-20T11:08:13Z</time>
      </trkpt>
      <trkpt lat="45.92884" lon="4.80936">
        <ele>170</ele>
        <time>2018-02-20T11:08:14Z</time>
      </trkpt>
      <trkpt lat="45.92886" lon="4.8093">
        <ele>170</ele>
        <time>2018-02-20T11:08:15Z</time>
      </trkpt>
      <trkpt lat="45.92887" lon="4.80924">
        <ele>170</ele>
        <time>2018-02-20T11:08:16Z</time>
      </trkpt>
      <trkpt lat="45.92889" lon="4.80918">
        <ele>170</ele>
        <time>2018-02-20T11:08:17Z</time>
      </trkpt>
      <trkpt lat="45.92892" lon="4.80913">
        <ele>170</ele>
        <time>2018-02-20T11:08:18Z</time>
      </trkpt>
      <trkpt lat="45.92893" lon="4.80904">
        <ele>170</ele>
        <time>2018-02-20T11:08:19Z</time>
      </trkpt>
      <trkpt lat="45.92895" lon="4.80898">
        <ele>170</ele>
        <time>2018-02-20T11:08:20Z</time>
      </trkpt>
      <trkpt lat="45.92898" lon="4.8089">
        <ele>170</ele>
        <time>2018-02-20T11:08:21Z</time>
      </trkpt>
      <trkpt lat="45.929" lon="4.80885">
        <ele>171</ele>
        <time>2018-02-20T11:08:22Z</time>
      </trkpt>
      <trkpt lat="45.92904" lon="4.80873">
        <ele>171</ele>
        <time>2018-02-20T11:08:24Z</time>
      </trkpt>
      <trkpt lat="45.92907" lon="4.80867">
        <ele>171</ele>
        <time>2018-02-20T11:08:25Z</time>
      </trkpt>
      <trkpt lat="45.92911" lon="4.80856">
        <ele>171</ele>
        <time>2018-02-20T11:08:27Z</time>
      </trkpt>
      <trkpt lat="45.92913" lon="4.8085">
        <ele>171</ele>
        <time>2018-02-20T11:08:28Z</time>
      </trkpt>
      <trkpt lat="45.92915" lon="4.80843">
        <ele>171</ele>
        <time>2018-02-20T11:08:29Z</time>
      </trkpt>
      <trkpt lat="45.92917" lon="4.80837">
        <ele>172</ele>
        <time>2018-02-20T11:08:30Z</time>
      </trkpt>
      <trkpt lat="45.92919" lon="4.80829">
        <ele>172</ele>
        <time>2018-02-20T11:08:31Z</time>
      </trkpt>
      <trkpt lat="45.92921" lon="4.80822">
        <ele>172</ele>
        <time>2018-02-20T11:08:32Z</time>
      </trkpt>
      <trkpt lat="45.92924" lon="4.80814">
        <ele>172</ele>
        <time>2018-02-20T11:08:33Z</time>
      </trkpt>
      <trkpt lat="45.92927" lon="4.80807">
        <ele>172</ele>
        <time>2018-02-20T11:08:34Z</time>
      </trkpt>
      <trkpt lat="45.92929" lon="4.80799">
        <ele>172</ele>
        <time>2018-02-20T11:08:35Z</time>
      </trkpt>
      <trkpt lat="45.92933" lon="4.80793">
        <ele>172</ele>
        <time>2018-02-20T11:08:36Z</time>
      </trkpt>
      <trkpt lat="45.92935" lon="4.80786">
        <ele>172</ele>
        <time>2018-02-20T11:08:37Z</time>
      </trkpt>
      <trkpt lat="45.92939" lon="4.8078">
        <ele>172</ele>
        <time>2018-02-20T11:08:38Z</time>
      </trkpt>
      <trkpt lat="45.92941" lon="4.80773">
        <ele>172</ele>
        <time>2018-02-20T11:08:39Z</time>
      </trkpt>
      <trkpt lat="45.92943" lon="4.80766">
        <ele>172</ele>
        <time>2018-02-20T11:08:40Z</time>
      </trkpt>
      <trkpt lat="45.92945" lon="4.80759">
        <ele>172</ele>
        <time>2018-02-20T11:08:41Z</time>
      </trkpt>
      <trkpt lat="45.92947" lon="4.80751">
        <ele>172</ele>
        <time>2018-02-20T11:08:42Z</time>
      </trkpt>
      <trkpt lat="45.92949" lon="4.80744">
        <ele>172</ele>
        <time>2018-02-20T11:08:43Z</time>
      </trkpt>
      <trkpt lat="45.92952" lon="4.80736">
        <ele>172</ele>
        <time>2018-02-20T11:08:44Z</time>
      </trkpt>
      <trkpt lat="45.92954" lon="4.8073">
        <ele>172</ele>
        <time>2018-02-20T11:08:45Z</time>
      </trkpt>
      <trkpt lat="45.92955" lon="4.80722">
        <ele>172</ele>
        <time>2018-02-20T11:08:46Z</time>
      </trkpt>
      <trkpt lat="45.92959" lon="4.80713">
        <ele>172</ele>
        <time>2018-02-20T11:08:47Z</time>
      </trkpt>
      <trkpt lat="45.9296" lon="4.80708">
        <ele>172</ele>
        <time>2018-02-20T11:08:48Z</time>
      </trkpt>
      <trkpt lat="45.92962" lon="4.80701">
        <ele>172</ele>
        <time>2018-02-20T11:08:49Z</time>
      </trkpt>
      <trkpt lat="45.92964" lon="4.80693">
        <ele>172</ele>
        <time>2018-02-20T11:08:50Z</time>
      </trkpt>
      <trkpt lat="45.92966" lon="4.80687">
        <ele>172</ele>
        <time>2018-02-20T11:08:51Z</time>
      </trkpt>
      <trkpt lat="45.92966" lon="4.80679">
        <ele>172</ele>
        <time>2018-02-20T11:08:52Z</time>
      </trkpt>
      <trkpt lat="45.92969" lon="4.80672">
        <ele>172</ele>
        <time>2018-02-20T11:08:53Z</time>
      </trkpt>
      <trkpt lat="45.92971" lon="4.80665">
        <ele>172</ele>
        <time>2018-02-20T11:08:54Z</time>
      </trkpt>
      <trkpt lat="45.92973" lon="4.80658">
        <ele>172</ele>
        <time>2018-02-20T11:08:55Z</time>
      </trkpt>
      <trkpt lat="45.92977" lon="4.80652">
        <ele>172</ele>
        <time>2018-02-20T11:08:56Z</time>
      </trkpt>
      <trkpt lat="45.92979" lon="4.80644">
        <ele>172</ele>
        <time>2018-02-20T11:08:57Z</time>
      </trkpt>
      <trkpt lat="45.92982" lon="4.80637">
        <ele>172</ele>
        <time>2018-02-20T11:08:58Z</time>
      </trkpt>
      <trkpt lat="45.92984" lon="4.80629">
        <ele>172</ele>
        <time>2018-02-20T11:08:59Z</time>
      </trkpt>
      <trkpt lat="45.92987" lon="4.80621">
        <ele>172</ele>
        <time>2018-02-20T11:09:00Z</time>
      </trkpt>
      <trkpt lat="45.92989" lon="4.80615">
        <ele>172</ele>
        <time>2018-02-20T11:09:01Z</time>
      </trkpt>
      <trkpt lat="45.92992" lon="4.80609">
        <ele>172</ele>
        <time>2018-02-20T11:09:02Z</time>
      </trkpt>
      <trkpt lat="45.92994" lon="4.80603">
        <ele>172</ele>
        <time>2018-02-20T11:09:03Z</time>
      </trkpt>
      <trkpt lat="45.92997" lon="4.80598">
        <ele>172</ele>
        <time>2018-02-20T11:09:04Z</time>
      </trkpt>
      <trkpt lat="45.92999" lon="4.80592">
        <ele>172</ele>
        <time>2018-02-20T11:09:05Z</time>
      </trkpt>
      <trkpt lat="45.93001" lon="4.80585">
        <ele>172</ele>
        <time>2018-02-20T11:09:06Z</time>
      </trkpt>
      <trkpt lat="45.93004" lon="4.80579">
        <ele>172</ele>
        <time>2018-02-20T11:09:07Z</time>
      </trkpt>
      <trkpt lat="45.93006" lon="4.80571">
        <ele>172</ele>
        <time>2018-02-20T11:09:08Z</time>
      </trkpt>
      <trkpt lat="45.93007" lon="4.80564">
        <ele>172</ele>
        <time>2018-02-20T11:09:09Z</time>
      </trkpt>
      <trkpt lat="45.9301" lon="4.80558">
        <ele>172</ele>
        <time>2018-02-20T11:09:10Z</time>
      </trkpt>
      <trkpt lat="45.93013" lon="4.80551">
        <ele>172</ele>
        <time>2018-02-20T11:09:11Z</time>
      </trkpt>
      <trkpt lat="45.93016" lon="4.80543">
        <ele>172</ele>
        <time>2018-02-20T11:09:12Z</time>
      </trkpt>
      <trkpt lat="45.93018" lon="4.80537">
        <ele>172</ele>
        <time>2018-02-20T11:09:13Z</time>
      </trkpt>
      <trkpt lat="45.9302" lon="4.8053">
        <ele>172</ele>
        <time>2018-02-20T11:09:14Z</time>
      </trkpt>
      <trkpt lat="45.93023" lon="4.80523">
        <ele>172</ele>
        <time>2018-02-20T11:09:15Z</time>
      </trkpt>
      <trkpt lat="45.93025" lon="4.80515">
        <ele>172</ele>
        <time>2018-02-20T11:09:16Z</time>
      </trkpt>
      <trkpt lat="45.93027" lon="4.80508">
        <ele>172</ele>
        <time>2018-02-20T11:09:17Z</time>
      </trkpt>
      <trkpt lat="45.9303" lon="4.80501">
        <ele>172</ele>
        <time>2018-02-20T11:09:18Z</time>
      </trkpt>
      <trkpt lat="45.93032" lon="4.80494">
        <ele>171</ele>
        <time>2018-02-20T11:09:19Z</time>
      </trkpt>
      <trkpt lat="45.93035" lon="4.80488">
        <ele>171</ele>
        <time>2018-02-20T11:09:20Z</time>
      </trkpt>
      <trkpt lat="45.93038" lon="4.80482">
        <ele>171</ele>
        <time>2018-02-20T11:09:21Z</time>
      </trkpt>
      <trkpt lat="45.93039" lon="4.80476">
        <ele>171</ele>
        <time>2018-02-20T11:09:22Z</time>
      </trkpt>
      <trkpt lat="45.93042" lon="4.80465">
        <ele>171</ele>
        <time>2018-02-20T11:09:24Z</time>
      </trkpt>
      <trkpt lat="45.93044" lon="4.80459">
        <ele>171</ele>
        <time>2018-02-20T11:09:25Z</time>
      </trkpt>
      <trkpt lat="45.93046" lon="4.80452">
        <ele>171</ele>
        <time>2018-02-20T11:09:26Z</time>
      </trkpt>
      <trkpt lat="45.93049" lon="4.80446">
        <ele>171</ele>
        <time>2018-02-20T11:09:27Z</time>
      </trkpt>
      <trkpt lat="45.93051" lon="4.80439">
        <ele>171</ele>
        <time>2018-02-20T11:09:28Z</time>
      </trkpt>
      <trkpt lat="45.93052" lon="4.80431">
        <ele>171</ele>
        <time>2018-02-20T11:09:29Z</time>
      </trkpt>
      <trkpt lat="45.93054" lon="4.80424">
        <ele>171</ele>
        <time>2018-02-20T11:09:30Z</time>
      </trkpt>
      <trkpt lat="45.93056" lon="4.80417">
        <ele>170</ele>
        <time>2018-02-20T11:09:31Z</time>
      </trkpt>
      <trkpt lat="45.93059" lon="4.80409">
        <ele>170</ele>
        <time>2018-02-20T11:09:32Z</time>
      </trkpt>
      <trkpt lat="45.93062" lon="4.80402">
        <ele>170</ele>
        <time>2018-02-20T11:09:33Z</time>
      </trkpt>
      <trkpt lat="45.93065" lon="4.80394">
        <ele>170</ele>
        <time>2018-02-20T11:09:34Z</time>
      </trkpt>
      <trkpt lat="45.93066" lon="4.80388">
        <ele>170</ele>
        <time>2018-02-20T11:09:35Z</time>
      </trkpt>
      <trkpt lat="45.93068" lon="4.80379">
        <ele>170</ele>
        <time>2018-02-20T11:09:36Z</time>
      </trkpt>
      <trkpt lat="45.9307" lon="4.80373">
        <ele>170</ele>
        <time>2018-02-20T11:09:37Z</time>
      </trkpt>
      <trkpt lat="45.93072" lon="4.80365">
        <ele>170</ele>
        <time>2018-02-20T11:09:38Z</time>
      </trkpt>
      <trkpt lat="45.93075" lon="4.80359">
        <ele>170</ele>
        <time>2018-02-20T11:09:39Z</time>
      </trkpt>
      <trkpt lat="45.93077" lon="4.80352">
        <ele>169</ele>
        <time>2018-02-20T11:09:40Z</time>
      </trkpt>
      <trkpt lat="45.93079" lon="4.80346">
        <ele>169</ele>
        <time>2018-02-20T11:09:41Z</time>
      </trkpt>
      <trkpt lat="45.93082" lon="4.8034">
        <ele>169</ele>
        <time>2018-02-20T11:09:42Z</time>
      </trkpt>
      <trkpt lat="45.93084" lon="4.80334">
        <ele>169</ele>
        <time>2018-02-20T11:09:43Z</time>
      </trkpt>
      <trkpt lat="45.93087" lon="4.80327">
        <ele>169</ele>
        <time>2018-02-20T11:09:44Z</time>
      </trkpt>
      <trkpt lat="45.93089" lon="4.80319">
        <ele>169</ele>
        <time>2018-02-20T11:09:45Z</time>
      </trkpt>
      <trkpt lat="45.9309" lon="4.8031">
        <ele>169</ele>
        <time>2018-02-20T11:09:46Z</time>
      </trkpt>
      <trkpt lat="45.93093" lon="4.80304">
        <ele>169</ele>
        <time>2018-02-20T11:09:47Z</time>
      </trkpt>
      <trkpt lat="45.93095" lon="4.80298">
        <ele>169</ele>
        <time>2018-02-20T11:09:48Z</time>
      </trkpt>
      <trkpt lat="45.93098" lon="4.80291">
        <ele>169</ele>
        <time>2018-02-20T11:09:49Z</time>
      </trkpt>
      <trkpt lat="45.931" lon="4.80285">
        <ele>169</ele>
        <time>2018-02-20T11:09:50Z</time>
      </trkpt>
      <trkpt lat="45.93102" lon="4.80279">
        <ele>169</ele>
        <time>2018-02-20T11:09:51Z</time>
      </trkpt>
      <trkpt lat="45.93104" lon="4.80272">
        <ele>169</ele>
        <time>2018-02-20T11:09:52Z</time>
      </trkpt>
      <trkpt lat="45.93106" lon="4.80265">
        <ele>169</ele>
        <time>2018-02-20T11:09:53Z</time>
      </trkpt>
      <trkpt lat="45.93108" lon="4.80259">
        <ele>169</ele>
        <time>2018-02-20T11:09:54Z</time>
      </trkpt>
      <trkpt lat="45.93111" lon="4.80253">
        <ele>169</ele>
        <time>2018-02-20T11:09:55Z</time>
      </trkpt>
      <trkpt lat="45.93113" lon="4.80244">
        <ele>169</ele>
        <time>2018-02-20T11:09:56Z</time>
      </trkpt>
      <trkpt lat="45.93116" lon="4.80238">
        <ele>169</ele>
        <time>2018-02-20T11:09:57Z</time>
      </trkpt>
      <trkpt lat="45.93118" lon="4.80232">
        <ele>169</ele>
        <time>2018-02-20T11:09:58Z</time>
      </trkpt>
      <trkpt lat="45.93118" lon="4.80225">
        <ele>169</ele>
        <time>2018-02-20T11:09:59Z</time>
      </trkpt>
      <trkpt lat="45.93119" lon="4.80218">
        <ele>169</ele>
        <time>2018-02-20T11:10:00Z</time>
      </trkpt>
      <trkpt lat="45.93121" lon="4.80212">
        <ele>169</ele>
        <time>2018-02-20T11:10:01Z</time>
      </trkpt>
      <trkpt lat="45.93124" lon="4.80206">
        <ele>169</ele>
        <time>2018-02-20T11:10:02Z</time>
      </trkpt>
      <trkpt lat="45.93127" lon="4.80199">
        <ele>169</ele>
        <time>2018-02-20T11:10:03Z</time>
      </trkpt>
      <trkpt lat="45.9313" lon="4.80188">
        <ele>169</ele>
        <time>2018-02-20T11:10:05Z</time>
      </trkpt>
      <trkpt lat="45.93132" lon="4.80182">
        <ele>169</ele>
        <time>2018-02-20T11:10:06Z</time>
      </trkpt>
      <trkpt lat="45.93135" lon="4.80171">
        <ele>169</ele>
        <time>2018-02-20T11:10:08Z</time>
      </trkpt>
      <trkpt lat="45.93138" lon="4.80165">
        <ele>169</ele>
        <time>2018-02-20T11:10:09Z</time>
      </trkpt>
      <trkpt lat="45.93141" lon="4.80159">
        <ele>169</ele>
        <time>2018-02-20T11:10:10Z</time>
      </trkpt>
      <trkpt lat="45.93142" lon="4.80153">
        <ele>169</ele>
        <time>2018-02-20T11:10:11Z</time>
      </trkpt>
      <trkpt lat="45.93146" lon="4.80142">
        <ele>169</ele>
        <time>2018-02-20T11:10:13Z</time>
      </trkpt>
      <trkpt lat="45.93148" lon="4.80137">
        <ele>169</ele>
        <time>2018-02-20T11:10:14Z</time>
      </trkpt>
      <trkpt lat="45.93152" lon="4.80127">
        <ele>169</ele>
        <time>2018-02-20T11:10:16Z</time>
      </trkpt>
      <trkpt lat="45.93154" lon="4.80122">
        <ele>169</ele>
        <time>2018-02-20T11:10:17Z</time>
      </trkpt>
      <trkpt lat="45.93157" lon="4.80111">
        <ele>169</ele>
        <time>2018-02-20T11:10:19Z</time>
      </trkpt>
      <trkpt lat="45.93159" lon="4.80105">
        <ele>170</ele>
        <time>2018-02-20T11:10:20Z</time>
      </trkpt>
      <trkpt lat="45.93163" lon="4.80094">
        <ele>170</ele>
        <time>2018-02-20T11:10:22Z</time>
      </trkpt>
      <trkpt lat="45.93164" lon="4.80088">
        <ele>170</ele>
        <time>2018-02-20T11:10:23Z</time>
      </trkpt>
      <trkpt lat="45.93168" lon="4.80078">
        <ele>170</ele>
        <time>2018-02-20T11:10:25Z</time>
      </trkpt>
      <trkpt lat="45.93171" lon="4.80074">
        <ele>170</ele>
        <time>2018-02-20T11:10:26Z</time>
      </trkpt>
      <trkpt lat="45.93178" lon="4.8007">
        <ele>170</ele>
        <time>2018-02-20T11:10:28Z</time>
      </trkpt>
      <trkpt lat="45.93183" lon="4.80069">
        <ele>170</ele>
        <time>2018-02-20T11:10:29Z</time>
      </trkpt>
      <trkpt lat="45.93192" lon="4.80069">
        <ele>170</ele>
        <time>2018-02-20T11:10:31Z</time>
      </trkpt>
      <trkpt lat="45.93195" lon="4.80067">
        <ele>170</ele>
        <time>2018-02-20T11:10:32Z</time>
      </trkpt>
      <trkpt lat="45.93201" lon="4.80059">
        <ele>170</ele>
        <time>2018-02-20T11:10:34Z</time>
      </trkpt>
      <trkpt lat="45.93202" lon="4.80053">
        <ele>170</ele>
        <time>2018-02-20T11:10:35Z</time>
      </trkpt>
      <trkpt lat="45.93203" lon="4.8004">
        <ele>170</ele>
        <time>2018-02-20T11:10:37Z</time>
      </trkpt>
      <trkpt lat="45.93198" lon="4.80032">
        <ele>170</ele>
        <time>2018-02-20T11:10:38Z</time>
      </trkpt>
      <trkpt lat="45.93196" lon="4.80026">
        <ele>170</ele>
        <time>2018-02-20T11:10:39Z</time>
      </trkpt>
      <trkpt lat="45.93194" lon="4.80021">
        <ele>170</ele>
        <time>2018-02-20T11:10:40Z</time>
      </trkpt>
      <trkpt lat="45.93191" lon="4.80016">
        <ele>170</ele>
        <time>2018-02-20T11:10:41Z</time>
      </trkpt>
      <trkpt lat="45.93188" lon="4.8001">
        <ele>170</ele>
        <time>2018-02-20T11:10:42Z</time>
      </trkpt>
      <trkpt lat="45.93185" lon="4.80004">
        <ele>170</ele>
        <time>2018-02-20T11:10:43Z</time>
      </trkpt>
      <trkpt lat="45.93183" lon="4.79997">
        <ele>170</ele>
        <time>2018-02-20T11:10:44Z</time>
      </trkpt>
      <trkpt lat="45.93183" lon="4.79989">
        <ele>170</ele>
        <time>2018-02-20T11:10:45Z</time>
      </trkpt>
      <trkpt lat="45.93184" lon="4.79982">
        <ele>170</ele>
        <time>2018-02-20T11:10:46Z</time>
      </trkpt>
      <trkpt lat="45.93186" lon="4.79975">
        <ele>170</ele>
        <time>2018-02-20T11:10:47Z</time>
      </trkpt>
      <trkpt lat="45.93187" lon="4.79968">
        <ele>170</ele>
        <time>2018-02-20T11:10:48Z</time>
      </trkpt>
      <trkpt lat="45.93189" lon="4.79961">
        <ele>170</ele>
        <time>2018-02-20T11:10:49Z</time>
      </trkpt>
      <trkpt lat="45.93191" lon="4.79954">
        <ele>170</ele>
        <time>2018-02-20T11:10:50Z</time>
      </trkpt>
      <trkpt lat="45.93194" lon="4.79949">
        <ele>170</ele>
        <time>2018-02-20T11:10:51Z</time>
      </trkpt>
      <trkpt lat="45.93197" lon="4.79942">
        <ele>171</ele>
        <time>2018-02-20T11:10:52Z</time>
      </trkpt>
      <trkpt lat="45.932" lon="4.79936">
        <ele>171</ele>
        <time>2018-02-20T11:10:53Z</time>
      </trkpt>
      <trkpt lat="45.93204" lon="4.7993">
        <ele>171</ele>
        <time>2018-02-20T11:10:54Z</time>
      </trkpt>
      <trkpt lat="45.93206" lon="4.79924">
        <ele>171</ele>
        <time>2018-02-20T11:10:55Z</time>
      </trkpt>
      <trkpt lat="45.93209" lon="4.79918">
        <ele>171</ele>
        <time>2018-02-20T11:10:56Z</time>
      </trkpt>
      <trkpt lat="45.93211" lon="4.79912">
        <ele>172</ele>
        <time>2018-02-20T11:10:57Z</time>
      </trkpt>
      <trkpt lat="45.93215" lon="4.79907">
        <ele>172</ele>
        <time>2018-02-20T11:10:58Z</time>
      </trkpt>
      <trkpt lat="45.93218" lon="4.79901">
        <ele>172</ele>
        <time>2018-02-20T11:10:59Z</time>
      </trkpt>
      <trkpt lat="45.93222" lon="4.79895">
        <ele>172</ele>
        <time>2018-02-20T11:11:00Z</time>
      </trkpt>
      <trkpt lat="45.93225" lon="4.79888">
        <ele>172</ele>
        <time>2018-02-20T11:11:01Z</time>
      </trkpt>
      <trkpt lat="45.93229" lon="4.79882">
        <ele>172</ele>
        <time>2018-02-20T11:11:02Z</time>
      </trkpt>
      <trkpt lat="45.93232" lon="4.79877">
        <ele>172</ele>
        <time>2018-02-20T11:11:03Z</time>
      </trkpt>
      <trkpt lat="45.93234" lon="4.79871">
        <ele>172</ele>
        <time>2018-02-20T11:11:04Z</time>
      </trkpt>
      <trkpt lat="45.93236" lon="4.79864">
        <ele>172</ele>
        <time>2018-02-20T11:11:05Z</time>
      </trkpt>
      <trkpt lat="45.93239" lon="4.79857">
        <ele>173</ele>
        <time>2018-02-20T11:11:06Z</time>
      </trkpt>
      <trkpt lat="45.93244" lon="4.79849">
        <ele>173</ele>
        <time>2018-02-20T11:11:07Z</time>
      </trkpt>
      <trkpt lat="45.93246" lon="4.79842">
        <ele>173</ele>
        <time>2018-02-20T11:11:08Z</time>
      </trkpt>
      <trkpt lat="45.93248" lon="4.79836">
        <ele>174</ele>
        <time>2018-02-20T11:11:09Z</time>
      </trkpt>
      <trkpt lat="45.93249" lon="4.79828">
        <ele>174</ele>
        <time>2018-02-20T11:11:10Z</time>
      </trkpt>
      <trkpt lat="45.93252" lon="4.79821">
        <ele>174</ele>
        <time>2018-02-20T11:11:11Z</time>
      </trkpt>
      <trkpt lat="45.93254" lon="4.79814">
        <ele>174</ele>
        <time>2018-02-20T11:11:12Z</time>
      </trkpt>
      <trkpt lat="45.93254" lon="4.79808">
        <ele>174</ele>
        <time>2018-02-20T11:11:13Z</time>
      </trkpt>
      <trkpt lat="45.93256" lon="4.79801">
        <ele>175</ele>
        <time>2018-02-20T11:11:14Z</time>
      </trkpt>
      <trkpt lat="45.93259" lon="4.79794">
        <ele>175</ele>
        <time>2018-02-20T11:11:15Z</time>
      </trkpt>
      <trkpt lat="45.93261" lon="4.79786">
        <ele>175</ele>
        <time>2018-02-20T11:11:16Z</time>
      </trkpt>
      <trkpt lat="45.93263" lon="4.79779">
        <ele>175</ele>
        <time>2018-02-20T11:11:17Z</time>
      </trkpt>
      <trkpt lat="45.93265" lon="4.79772">
        <ele>175</ele>
        <time>2018-02-20T11:11:18Z</time>
      </trkpt>
      <trkpt lat="45.93266" lon="4.79766">
        <ele>176</ele>
        <time>2018-02-20T11:11:19Z</time>
      </trkpt>
      <trkpt lat="45.93268" lon="4.7976">
        <ele>176</ele>
        <time>2018-02-20T11:11:20Z</time>
      </trkpt>
      <trkpt lat="45.93273" lon="4.7975">
        <ele>177</ele>
        <time>2018-02-20T11:11:22Z</time>
      </trkpt>
      <trkpt lat="45.93275" lon="4.79744">
        <ele>177</ele>
        <time>2018-02-20T11:11:23Z</time>
      </trkpt>
      <trkpt lat="45.93278" lon="4.79736">
        <ele>177</ele>
        <time>2018-02-20T11:11:25Z</time>
      </trkpt>
      <trkpt lat="45.9328" lon="4.7973">
        <ele>177</ele>
        <time>2018-02-20T11:11:26Z</time>
      </trkpt>
      <trkpt lat="45.93281" lon="4.79724">
        <ele>177</ele>
        <time>2018-02-20T11:11:27Z</time>
      </trkpt>
      <trkpt lat="45.93284" lon="4.79718">
        <ele>177</ele>
        <time>2018-02-20T11:11:28Z</time>
      </trkpt>
      <trkpt lat="45.93289" lon="4.79709">
        <ele>177</ele>
        <time>2018-02-20T11:11:30Z</time>
      </trkpt>
      <trkpt lat="45.93292" lon="4.79703">
        <ele>177</ele>
        <time>2018-02-20T11:11:31Z</time>
      </trkpt>
      <trkpt lat="45.93294" lon="4.79697">
        <ele>177</ele>
        <time>2018-02-20T11:11:32Z</time>
      </trkpt>
      <trkpt lat="45.93295" lon="4.79691">
        <ele>177</ele>
        <time>2018-02-20T11:11:33Z</time>
      </trkpt>
      <trkpt lat="45.93298" lon="4.79685">
        <ele>177</ele>
        <time>2018-02-20T11:11:34Z</time>
      </trkpt>
      <trkpt lat="45.93298" lon="4.79678">
        <ele>177</ele>
        <time>2018-02-20T11:11:35Z</time>
      </trkpt>
      <trkpt lat="45.93301" lon="4.79671">
        <ele>177</ele>
        <time>2018-02-20T11:11:36Z</time>
      </trkpt>
      <trkpt lat="45.93303" lon="4.79664">
        <ele>177</ele>
        <time>2018-02-20T11:11:37Z</time>
      </trkpt>
      <trkpt lat="45.93306" lon="4.79658">
        <ele>177</ele>
        <time>2018-02-20T11:11:38Z</time>
      </trkpt>
      <trkpt lat="45.93308" lon="4.79652">
        <ele>177</ele>
        <time>2018-02-20T11:11:39Z</time>
      </trkpt>
      <trkpt lat="45.9331" lon="4.79644">
        <ele>177</ele>
        <time>2018-02-20T11:11:40Z</time>
      </trkpt>
      <trkpt lat="45.93312" lon="4.79638">
        <ele>177</ele>
        <time>2018-02-20T11:11:41Z</time>
      </trkpt>
      <trkpt lat="45.93316" lon="4.7963">
        <ele>177</ele>
        <time>2018-02-20T11:11:42Z</time>
      </trkpt>
      <trkpt lat="45.93318" lon="4.79625">
        <ele>177</ele>
        <time>2018-02-20T11:11:43Z</time>
      </trkpt>
      <trkpt lat="45.9332" lon="4.79618">
        <ele>177</ele>
        <time>2018-02-20T11:11:44Z</time>
      </trkpt>
      <trkpt lat="45.93323" lon="4.79613">
        <ele>177</ele>
        <time>2018-02-20T11:11:45Z</time>
      </trkpt>
      <trkpt lat="45.93325" lon="4.79606">
        <ele>177</ele>
        <time>2018-02-20T11:11:46Z</time>
      </trkpt>
      <trkpt lat="45.93327" lon="4.79599">
        <ele>177</ele>
        <time>2018-02-20T11:11:47Z</time>
      </trkpt>
      <trkpt lat="45.93328" lon="4.79593">
        <ele>177</ele>
        <time>2018-02-20T11:11:48Z</time>
      </trkpt>
      <trkpt lat="45.9333" lon="4.79586">
        <ele>177</ele>
        <time>2018-02-20T11:11:49Z</time>
      </trkpt>
      <trkpt lat="45.93332" lon="4.79579">
        <ele>177</ele>
        <time>2018-02-20T11:11:50Z</time>
      </trkpt>
      <trkpt lat="45.93334" lon="4.79572">
        <ele>177</ele>
        <time>2018-02-20T11:11:51Z</time>
      </trkpt>
      <trkpt lat="45.93336" lon="4.79566">
        <ele>177</ele>
        <time>2018-02-20T11:11:52Z</time>
      </trkpt>
      <trkpt lat="45.93338" lon="4.79559">
        <ele>177</ele>
        <time>2018-02-20T11:11:53Z</time>
      </trkpt>
      <trkpt lat="45.9334" lon="4.79552">
        <ele>177</ele>
        <time>2018-02-20T11:11:54Z</time>
      </trkpt>
      <trkpt lat="45.93343" lon="4.79544">
        <ele>177</ele>
        <time>2018-02-20T11:11:55Z</time>
      </trkpt>
      <trkpt lat="45.93346" lon="4.79537">
        <ele>177</ele>
        <time>2018-02-20T11:11:56Z</time>
      </trkpt>
      <trkpt lat="45.93349" lon="4.7953">
        <ele>177</ele>
        <time>2018-02-20T11:11:57Z</time>
      </trkpt>
      <trkpt lat="45.93351" lon="4.79523">
        <ele>177</ele>
        <time>2018-02-20T11:11:58Z</time>
      </trkpt>
      <trkpt lat="45.93354" lon="4.79515">
        <ele>177</ele>
        <time>2018-02-20T11:11:59Z</time>
      </trkpt>
      <trkpt lat="45.93357" lon="4.79509">
        <ele>177</ele>
        <time>2018-02-20T11:12:00Z</time>
      </trkpt>
      <trkpt lat="45.9336" lon="4.79503">
        <ele>177</ele>
        <time>2018-02-20T11:12:01Z</time>
      </trkpt>
      <trkpt lat="45.93361" lon="4.79495">
        <ele>176</ele>
        <time>2018-02-20T11:12:02Z</time>
      </trkpt>
      <trkpt lat="45.93363" lon="4.79488">
        <ele>175</ele>
        <time>2018-02-20T11:12:03Z</time>
      </trkpt>
      <trkpt lat="45.93367" lon="4.79481">
        <ele>175</ele>
        <time>2018-02-20T11:12:04Z</time>
      </trkpt>
      <trkpt lat="45.93369" lon="4.79474">
        <ele>175</ele>
        <time>2018-02-20T11:12:05Z</time>
      </trkpt>
      <trkpt lat="45.9337" lon="4.79467">
        <ele>175</ele>
        <time>2018-02-20T11:12:06Z</time>
      </trkpt>
      <trkpt lat="45.93375" lon="4.79458">
        <ele>175</ele>
        <time>2018-02-20T11:12:07Z</time>
      </trkpt>
      <trkpt lat="45.93376" lon="4.79451">
        <ele>175</ele>
        <time>2018-02-20T11:12:08Z</time>
      </trkpt>
      <trkpt lat="45.93379" lon="4.79443">
        <ele>175</ele>
        <time>2018-02-20T11:12:09Z</time>
      </trkpt>
      <trkpt lat="45.93382" lon="4.79434">
        <ele>175</ele>
        <time>2018-02-20T11:12:10Z</time>
      </trkpt>
      <trkpt lat="45.93385" lon="4.79426">
        <ele>174</ele>
        <time>2018-02-20T11:12:11Z</time>
      </trkpt>
      <trkpt lat="45.93387" lon="4.79418">
        <ele>174</ele>
        <time>2018-02-20T11:12:12Z</time>
      </trkpt>
      <trkpt lat="45.9339" lon="4.7941">
        <ele>173</ele>
        <time>2018-02-20T11:12:13Z</time>
      </trkpt>
      <trkpt lat="45.93393" lon="4.79402">
        <ele>173</ele>
        <time>2018-02-20T11:12:14Z</time>
      </trkpt>
      <trkpt lat="45.93397" lon="4.79394">
        <ele>172</ele>
        <time>2018-02-20T11:12:15Z</time>
      </trkpt>
      <trkpt lat="45.93399" lon="4.79386">
        <ele>172</ele>
        <time>2018-02-20T11:12:16Z</time>
      </trkpt>
      <trkpt lat="45.93401" lon="4.79378">
        <ele>172</ele>
        <time>2018-02-20T11:12:17Z</time>
      </trkpt>
      <trkpt lat="45.93404" lon="4.7937">
        <ele>172</ele>
        <time>2018-02-20T11:12:18Z</time>
      </trkpt>
      <trkpt lat="45.93406" lon="4.79362">
        <ele>172</ele>
        <time>2018-02-20T11:12:19Z</time>
      </trkpt>
      <trkpt lat="45.93409" lon="4.79354">
        <ele>172</ele>
        <time>2018-02-20T11:12:20Z</time>
      </trkpt>
      <trkpt lat="45.93411" lon="4.79347">
        <ele>172</ele>
        <time>2018-02-20T11:12:21Z</time>
      </trkpt>
      <trkpt lat="45.93413" lon="4.79339">
        <ele>172</ele>
        <time>2018-02-20T11:12:22Z</time>
      </trkpt>
      <trkpt lat="45.93415" lon="4.79331">
        <ele>172</ele>
        <time>2018-02-20T11:12:23Z</time>
      </trkpt>
      <trkpt lat="45.93417" lon="4.79323">
        <ele>172</ele>
        <time>2018-02-20T11:12:24Z</time>
      </trkpt>
      <trkpt lat="45.93419" lon="4.79316">
        <ele>172</ele>
        <time>2018-02-20T11:12:25Z</time>
      </trkpt>
      <trkpt lat="45.93421" lon="4.79308">
        <ele>172</ele>
        <time>2018-02-20T11:12:26Z</time>
      </trkpt>
      <trkpt lat="45.93424" lon="4.79302">
        <ele>172</ele>
        <time>2018-02-20T11:12:27Z</time>
      </trkpt>
      <trkpt lat="45.93427" lon="4.79296">
        <ele>173</ele>
        <time>2018-02-20T11:12:28Z</time>
      </trkpt>
      <trkpt lat="45.9343" lon="4.7929">
        <ele>173</ele>
        <time>2018-02-20T11:12:29Z</time>
      </trkpt>
      <trkpt lat="45.93434" lon="4.79279">
        <ele>172</ele>
        <time>2018-02-20T11:12:31Z</time>
      </trkpt>
      <trkpt lat="45.93435" lon="4.79273">
        <ele>172</ele>
        <time>2018-02-20T11:12:32Z</time>
      </trkpt>
      <trkpt lat="45.93437" lon="4.79266">
        <ele>172</ele>
        <time>2018-02-20T11:12:33Z</time>
      </trkpt>
      <trkpt lat="45.93441" lon="4.79259">
        <ele>172</ele>
        <time>2018-02-20T11:12:34Z</time>
      </trkpt>
      <trkpt lat="45.93443" lon="4.79253">
        <ele>172</ele>
        <time>2018-02-20T11:12:35Z</time>
      </trkpt>
      <trkpt lat="45.93445" lon="4.79244">
        <ele>172</ele>
        <time>2018-02-20T11:12:36Z</time>
      </trkpt>
      <trkpt lat="45.93447" lon="4.79237">
        <ele>172</ele>
        <time>2018-02-20T11:12:37Z</time>
      </trkpt>
      <trkpt lat="45.93448" lon="4.7923">
        <ele>172</ele>
        <time>2018-02-20T11:12:38Z</time>
      </trkpt>
      <trkpt lat="45.9345" lon="4.79224">
        <ele>172</ele>
        <time>2018-02-20T11:12:39Z</time>
      </trkpt>
      <trkpt lat="45.93452" lon="4.79217">
        <ele>172</ele>
        <time>2018-02-20T11:12:40Z</time>
      </trkpt>
      <trkpt lat="45.93456" lon="4.79212">
        <ele>172</ele>
        <time>2018-02-20T11:12:41Z</time>
      </trkpt>
      <trkpt lat="45.93457" lon="4.79205">
        <ele>172</ele>
        <time>2018-02-20T11:12:42Z</time>
      </trkpt>
      <trkpt lat="45.93459" lon="4.79198">
        <ele>172</ele>
        <time>2018-02-20T11:12:43Z</time>
      </trkpt>
      <trkpt lat="45.93461" lon="4.79192">
        <ele>172</ele>
        <time>2018-02-20T11:12:44Z</time>
      </trkpt>
      <trkpt lat="45.93464" lon="4.79187">
        <ele>172</ele>
        <time>2018-02-20T11:12:45Z</time>
      </trkpt>
      <trkpt lat="45.93467" lon="4.7918">
        <ele>172</ele>
        <time>2018-02-20T11:12:46Z</time>
      </trkpt>
      <trkpt lat="45.93469" lon="4.79174">
        <ele>172</ele>
        <time>2018-02-20T11:12:47Z</time>
      </trkpt>
      <trkpt lat="45.93472" lon="4.79169">
        <ele>172</ele>
        <time>2018-02-20T11:12:48Z</time>
      </trkpt>
      <trkpt lat="45.93474" lon="4.79161">
        <ele>172</ele>
        <time>2018-02-20T11:12:49Z</time>
      </trkpt>
      <trkpt lat="45.93477" lon="4.79156">
        <ele>172</ele>
        <time>2018-02-20T11:12:50Z</time>
      </trkpt>
      <trkpt lat="45.93479" lon="4.79149">
        <ele>172</ele>
        <time>2018-02-20T11:12:51Z</time>
      </trkpt>
      <trkpt lat="45.93481" lon="4.79142">
        <ele>172</ele>
        <time>2018-02-20T11:12:52Z</time>
      </trkpt>
      <trkpt lat="45.93486" lon="4.79134">
        <ele>172</ele>
        <time>2018-02-20T11:12:53Z</time>
      </trkpt>
      <trkpt lat="45.93489" lon="4.79128">
        <ele>172</ele>
        <time>2018-02-20T11:12:54Z</time>
      </trkpt>
      <trkpt lat="45.93492" lon="4.7912">
        <ele>172</ele>
        <time>2018-02-20T11:12:55Z</time>
      </trkpt>
      <trkpt lat="45.93495" lon="4.7911">
        <ele>172</ele>
        <time>2018-02-20T11:12:56Z</time>
      </trkpt>
      <trkpt lat="45.93497" lon="4.79103">
        <ele>173</ele>
        <time>2018-02-20T11:12:57Z</time>
      </trkpt>
      <trkpt lat="45.935" lon="4.79094">
        <ele>173</ele>
        <time>2018-02-20T11:12:58Z</time>
      </trkpt>
      <trkpt lat="45.93503" lon="4.79088">
        <ele>173</ele>
        <time>2018-02-20T11:12:59Z</time>
      </trkpt>
      <trkpt lat="45.93506" lon="4.79081">
        <ele>173</ele>
        <time>2018-02-20T11:13:00Z</time>
      </trkpt>
      <trkpt lat="45.93508" lon="4.79074">
        <ele>173</ele>
        <time>2018-02-20T11:13:01Z</time>
      </trkpt>
      <trkpt lat="45.93511" lon="4.79068">
        <ele>173</ele>
        <time>2018-02-20T11:13:02Z</time>
      </trkpt>
      <trkpt lat="45.93515" lon="4.79057">
        <ele>173</ele>
        <time>2018-02-20T11:13:04Z</time>
      </trkpt>
      <trkpt lat="45.93519" lon="4.7905">
        <ele>173</ele>
        <time>2018-02-20T11:13:05Z</time>
      </trkpt>
      <trkpt lat="45.93521" lon="4.79045">
        <ele>173</ele>
        <time>2018-02-20T11:13:06Z</time>
      </trkpt>
      <trkpt lat="45.93525" lon="4.79038">
        <ele>173</ele>
        <time>2018-02-20T11:13:07Z</time>
      </trkpt>
      <trkpt lat="45.93529" lon="4.79027">
        <ele>173</ele>
        <time>2018-02-20T11:13:09Z</time>
      </trkpt>
      <trkpt lat="45.93531" lon="4.79022">
        <ele>173</ele>
        <time>2018-02-20T11:13:10Z</time>
      </trkpt>
      <trkpt lat="45.93533" lon="4.79016">
        <ele>173</ele>
        <time>2018-02-20T11:13:11Z</time>
      </trkpt>
      <trkpt lat="45.93535" lon="4.79009">
        <ele>173</ele>
        <time>2018-02-20T11:13:12Z</time>
      </trkpt>
      <trkpt lat="45.93538" lon="4.79003">
        <ele>173</ele>
        <time>2018-02-20T11:13:13Z</time>
      </trkpt>
      <trkpt lat="45.93541" lon="4.78999">
        <ele>172</ele>
        <time>2018-02-20T11:13:14Z</time>
      </trkpt>
      <trkpt lat="45.93544" lon="4.78995">
        <ele>172</ele>
        <time>2018-02-20T11:13:15Z</time>
      </trkpt>
      <trkpt lat="45.93548" lon="4.78988">
        <ele>172</ele>
        <time>2018-02-20T11:13:16Z</time>
      </trkpt>
      <trkpt lat="45.93549" lon="4.78982">
        <ele>172</ele>
        <time>2018-02-20T11:13:17Z</time>
      </trkpt>
      <trkpt lat="45.9355" lon="4.78975">
        <ele>172</ele>
        <time>2018-02-20T11:13:18Z</time>
      </trkpt>
      <trkpt lat="45.93552" lon="4.78966">
        <ele>172</ele>
        <time>2018-02-20T11:13:19Z</time>
      </trkpt>
      <trkpt lat="45.93554" lon="4.78961">
        <ele>172</ele>
        <time>2018-02-20T11:13:20Z</time>
      </trkpt>
      <trkpt lat="45.93556" lon="4.78954">
        <ele>172</ele>
        <time>2018-02-20T11:13:21Z</time>
      </trkpt>
      <trkpt lat="45.93559" lon="4.78949">
        <ele>172</ele>
        <time>2018-02-20T11:13:22Z</time>
      </trkpt>
      <trkpt lat="45.93564" lon="4.78938">
        <ele>172</ele>
        <time>2018-02-20T11:13:24Z</time>
      </trkpt>
      <trkpt lat="45.93567" lon="4.7893">
        <ele>172</ele>
        <time>2018-02-20T11:13:25Z</time>
      </trkpt>
      <trkpt lat="45.93569" lon="4.78924">
        <ele>172</ele>
        <time>2018-02-20T11:13:26Z</time>
      </trkpt>
      <trkpt lat="45.9357" lon="4.78918">
        <ele>172</ele>
        <time>2018-02-20T11:13:27Z</time>
      </trkpt>
      <trkpt lat="45.93573" lon="4.78911">
        <ele>172</ele>
        <time>2018-02-20T11:13:28Z</time>
      </trkpt>
      <trkpt lat="45.93577" lon="4.78906">
        <ele>172</ele>
        <time>2018-02-20T11:13:29Z</time>
      </trkpt>
      <trkpt lat="45.9358" lon="4.78899">
        <ele>172</ele>
        <time>2018-02-20T11:13:30Z</time>
      </trkpt>
      <trkpt lat="45.93584" lon="4.78893">
        <ele>173</ele>
        <time>2018-02-20T11:13:31Z</time>
      </trkpt>
      <trkpt lat="45.93588" lon="4.78882">
        <ele>173</ele>
        <time>2018-02-20T11:13:33Z</time>
      </trkpt>
      <trkpt lat="45.9359" lon="4.78877">
        <ele>173</ele>
        <time>2018-02-20T11:13:34Z</time>
      </trkpt>
      <trkpt lat="45.93592" lon="4.78873">
        <ele>174</ele>
        <time>2018-02-20T11:13:35Z</time>
      </trkpt>
      <trkpt lat="45.93595" lon="4.78866">
        <ele>174</ele>
        <time>2018-02-20T11:13:36Z</time>
      </trkpt>
      <trkpt lat="45.93598" lon="4.7886">
        <ele>174</ele>
        <time>2018-02-20T11:13:37Z</time>
      </trkpt>
      <trkpt lat="45.93601" lon="4.78855">
        <ele>174</ele>
        <time>2018-02-20T11:13:38Z</time>
      </trkpt>
      <trkpt lat="45.93606" lon="4.78846">
        <ele>174</ele>
        <time>2018-02-20T11:13:41Z</time>
      </trkpt>
      <trkpt lat="45.9361" lon="4.78839">
        <ele>174</ele>
        <time>2018-02-20T11:13:42Z</time>
      </trkpt>
      <trkpt lat="45.93612" lon="4.78832">
        <ele>173</ele>
        <time>2018-02-20T11:13:43Z</time>
      </trkpt>
      <trkpt lat="45.93616" lon="4.78826">
        <ele>174</ele>
        <time>2018-02-20T11:13:44Z</time>
      </trkpt>
      <trkpt lat="45.93619" lon="4.7882">
        <ele>174</ele>
        <time>2018-02-20T11:13:45Z</time>
      </trkpt>
      <trkpt lat="45.93622" lon="4.78815">
        <ele>174</ele>
        <time>2018-02-20T11:13:46Z</time>
      </trkpt>
      <trkpt lat="45.93623" lon="4.78808">
        <ele>174</ele>
        <time>2018-02-20T11:13:47Z</time>
      </trkpt>
      <trkpt lat="45.93627" lon="4.78802">
        <ele>174</ele>
        <time>2018-02-20T11:13:48Z</time>
      </trkpt>
      <trkpt lat="45.93629" lon="4.78797">
        <ele>174</ele>
        <time>2018-02-20T11:13:49Z</time>
      </trkpt>
      <trkpt lat="45.93632" lon="4.7879">
        <ele>174</ele>
        <time>2018-02-20T11:13:50Z</time>
      </trkpt>
      <trkpt lat="45.93637" lon="4.78779">
        <ele>174</ele>
        <time>2018-02-20T11:13:52Z</time>
      </trkpt>
      <trkpt lat="45.9364" lon="4.78773">
        <ele>174</ele>
        <time>2018-02-20T11:13:53Z</time>
      </trkpt>
      <trkpt lat="45.93642" lon="4.78763">
        <ele>174</ele>
        <time>2018-02-20T11:13:55Z</time>
      </trkpt>
      <trkpt lat="45.93645" lon="4.78759">
        <ele>174</ele>
        <time>2018-02-20T11:13:56Z</time>
      </trkpt>
      <trkpt lat="45.93649" lon="4.78753">
        <ele>174</ele>
        <time>2018-02-20T11:13:57Z</time>
      </trkpt>
      <trkpt lat="45.93653" lon="4.78745">
        <ele>174</ele>
        <time>2018-02-20T11:13:58Z</time>
      </trkpt>
      <trkpt lat="45.93656" lon="4.7874">
        <ele>174</ele>
        <time>2018-02-20T11:13:59Z</time>
      </trkpt>
      <trkpt lat="45.93661" lon="4.78732">
        <ele>174</ele>
        <time>2018-02-20T11:14:00Z</time>
      </trkpt>
      <trkpt lat="45.93664" lon="4.78726">
        <ele>174</ele>
        <time>2018-02-20T11:14:01Z</time>
      </trkpt>
      <trkpt lat="45.93667" lon="4.7872">
        <ele>174</ele>
        <time>2018-02-20T11:14:02Z</time>
      </trkpt>
      <trkpt lat="45.93669" lon="4.78714">
        <ele>175</ele>
        <time>2018-02-20T11:14:03Z</time>
      </trkpt>
      <trkpt lat="45.93675" lon="4.78706">
        <ele>175</ele>
        <time>2018-02-20T11:14:04Z</time>
      </trkpt>
      <trkpt lat="45.93678" lon="4.787">
        <ele>175</ele>
        <time>2018-02-20T11:14:05Z</time>
      </trkpt>
      <trkpt lat="45.93679" lon="4.78694">
        <ele>175</ele>
        <time>2018-02-20T11:14:06Z</time>
      </trkpt>
      <trkpt lat="45.93682" lon="4.78687">
        <ele>175</ele>
        <time>2018-02-20T11:14:07Z</time>
      </trkpt>
      <trkpt lat="45.93685" lon="4.78681">
        <ele>175</ele>
        <time>2018-02-20T11:14:08Z</time>
      </trkpt>
      <trkpt lat="45.93688" lon="4.7867">
        <ele>175</ele>
        <time>2018-02-20T11:14:10Z</time>
      </trkpt>
      <trkpt lat="45.93689" lon="4.78667">
        <ele>175</ele>
        <time>2018-02-20T11:14:11Z</time>
      </trkpt>
      <trkpt lat="45.93692" lon="4.78655">
        <ele>176</ele>
        <time>2018-02-20T11:14:13Z</time>
      </trkpt>
      <trkpt lat="45.93696" lon="4.78649">
        <ele>176</ele>
        <time>2018-02-20T11:14:14Z</time>
      </trkpt>
      <trkpt lat="45.937" lon="4.78638">
        <ele>176</ele>
        <time>2018-02-20T11:14:16Z</time>
      </trkpt>
      <trkpt lat="45.93702" lon="4.78633">
        <ele>176</ele>
        <time>2018-02-20T11:14:17Z</time>
      </trkpt>
      <trkpt lat="45.93705" lon="4.78627">
        <ele>176</ele>
        <time>2018-02-20T11:14:18Z</time>
      </trkpt>
      <trkpt lat="45.93708" lon="4.7862">
        <ele>176</ele>
        <time>2018-02-20T11:14:19Z</time>
      </trkpt>
      <trkpt lat="45.93707" lon="4.78611">
        <ele>176</ele>
        <time>2018-02-20T11:14:21Z</time>
      </trkpt>
      <trkpt lat="45.93708" lon="4.78606">
        <ele>176</ele>
        <time>2018-02-20T11:14:22Z</time>
      </trkpt>
      <trkpt lat="45.93707" lon="4.78599">
        <ele>176</ele>
        <time>2018-02-20T11:14:23Z</time>
      </trkpt>
      <trkpt lat="45.93709" lon="4.78591">
        <ele>176</ele>
        <time>2018-02-20T11:14:24Z</time>
      </trkpt>
      <trkpt lat="45.9371" lon="4.78585">
        <ele>176</ele>
        <time>2018-02-20T11:14:25Z</time>
      </trkpt>
      <trkpt lat="45.93711" lon="4.78578">
        <ele>177</ele>
        <time>2018-02-20T11:14:26Z</time>
      </trkpt>
      <trkpt lat="45.93714" lon="4.78571">
        <ele>178</ele>
        <time>2018-02-20T11:14:27Z</time>
      </trkpt>
      <trkpt lat="45.93717" lon="4.78564">
        <ele>178</ele>
        <time>2018-02-20T11:14:28Z</time>
      </trkpt>
      <trkpt lat="45.93722" lon="4.78552">
        <ele>178</ele>
        <time>2018-02-20T11:14:30Z</time>
      </trkpt>
      <trkpt lat="45.93723" lon="4.78546">
        <ele>178</ele>
        <time>2018-02-20T11:14:31Z</time>
      </trkpt>
      <trkpt lat="45.93725" lon="4.7854">
        <ele>178</ele>
        <time>2018-02-20T11:14:32Z</time>
      </trkpt>
      <trkpt lat="45.93727" lon="4.78534">
        <ele>178</ele>
        <time>2018-02-20T11:14:33Z</time>
      </trkpt>
      <trkpt lat="45.93729" lon="4.78527">
        <ele>179</ele>
        <time>2018-02-20T11:14:34Z</time>
      </trkpt>
      <trkpt lat="45.9373" lon="4.78521">
        <ele>179</ele>
        <time>2018-02-20T11:14:35Z</time>
      </trkpt>
      <trkpt lat="45.93732" lon="4.7851">
        <ele>179</ele>
        <time>2018-02-20T11:14:37Z</time>
      </trkpt>
      <trkpt lat="45.93735" lon="4.78504">
        <ele>179</ele>
        <time>2018-02-20T11:14:38Z</time>
      </trkpt>
      <trkpt lat="45.93737" lon="4.78493">
        <ele>180</ele>
        <time>2018-02-20T11:14:40Z</time>
      </trkpt>
      <trkpt lat="45.93739" lon="4.78488">
        <ele>180</ele>
        <time>2018-02-20T11:14:41Z</time>
      </trkpt>
      <trkpt lat="45.9374" lon="4.78477">
        <ele>180</ele>
        <time>2018-02-20T11:14:43Z</time>
      </trkpt>
      <trkpt lat="45.93742" lon="4.7847">
        <ele>180</ele>
        <time>2018-02-20T11:14:44Z</time>
      </trkpt>
      <trkpt lat="45.93745" lon="4.78459">
        <ele>180</ele>
        <time>2018-02-20T11:14:46Z</time>
      </trkpt>
      <trkpt lat="45.93747" lon="4.78455">
        <ele>180</ele>
        <time>2018-02-20T11:14:47Z</time>
      </trkpt>
      <trkpt lat="45.93749" lon="4.78445">
        <ele>180</ele>
        <time>2018-02-20T11:14:49Z</time>
      </trkpt>
      <trkpt lat="45.93751" lon="4.78439">
        <ele>183</ele>
        <time>2018-02-20T11:14:50Z</time>
      </trkpt>
      <trkpt lat="45.93753" lon="4.78428">
        <ele>182</ele>
        <time>2018-02-20T11:14:52Z</time>
      </trkpt>
      <trkpt lat="45.93754" lon="4.78422">
        <ele>182</ele>
        <time>2018-02-20T11:14:53Z</time>
      </trkpt>
      <trkpt lat="45.93756" lon="4.78411">
        <ele>182</ele>
        <time>2018-02-20T11:14:55Z</time>
      </trkpt>
      <trkpt lat="45.93757" lon="4.78405">
        <ele>182</ele>
        <time>2018-02-20T11:14:56Z</time>
      </trkpt>
      <trkpt lat="45.93759" lon="4.78394">
        <ele>183</ele>
        <time>2018-02-20T11:14:58Z</time>
      </trkpt>
      <trkpt lat="45.93761" lon="4.78388">
        <ele>183</ele>
        <time>2018-02-20T11:14:59Z</time>
      </trkpt>
      <trkpt lat="45.93764" lon="4.78376">
        <ele>183</ele>
        <time>2018-02-20T11:15:01Z</time>
      </trkpt>
      <trkpt lat="45.93766" lon="4.7837">
        <ele>183</ele>
        <time>2018-02-20T11:15:02Z</time>
      </trkpt>
      <trkpt lat="45.93769" lon="4.78358">
        <ele>183</ele>
        <time>2018-02-20T11:15:04Z</time>
      </trkpt>
      <trkpt lat="45.9377" lon="4.7835">
        <ele>183</ele>
        <time>2018-02-20T11:15:05Z</time>
      </trkpt>
      <trkpt lat="45.93774" lon="4.78338">
        <ele>183</ele>
        <time>2018-02-20T11:15:07Z</time>
      </trkpt>
      <trkpt lat="45.93775" lon="4.78333">
        <ele>183</ele>
        <time>2018-02-20T11:15:08Z</time>
      </trkpt>
      <trkpt lat="45.93778" lon="4.78321">
        <ele>183</ele>
        <time>2018-02-20T11:15:10Z</time>
      </trkpt>
      <trkpt lat="45.93781" lon="4.78314">
        <ele>183</ele>
        <time>2018-02-20T11:15:11Z</time>
      </trkpt>
      <trkpt lat="45.93786" lon="4.78304">
        <ele>183</ele>
        <time>2018-02-20T11:15:13Z</time>
      </trkpt>
      <trkpt lat="45.93788" lon="4.78299">
        <ele>183</ele>
        <time>2018-02-20T11:15:14Z</time>
      </trkpt>
      <trkpt lat="45.93793" lon="4.78289">
        <ele>183</ele>
        <time>2018-02-20T11:15:16Z</time>
      </trkpt>
      <trkpt lat="45.93794" lon="4.78283">
        <ele>183</ele>
        <time>2018-02-20T11:15:17Z</time>
      </trkpt>
      <trkpt lat="45.93796" lon="4.78278">
        <ele>183</ele>
        <time>2018-02-20T11:15:18Z</time>
      </trkpt>
      <trkpt lat="45.938" lon="4.78273">
        <ele>183</ele>
        <time>2018-02-20T11:15:19Z</time>
      </trkpt>
      <trkpt lat="45.93805" lon="4.78264">
        <ele>183</ele>
        <time>2018-02-20T11:15:21Z</time>
      </trkpt>
      <trkpt lat="45.93808" lon="4.78258">
        <ele>183</ele>
        <time>2018-02-20T11:15:22Z</time>
      </trkpt>
      <trkpt lat="45.9381" lon="4.78252">
        <ele>183</ele>
        <time>2018-02-20T11:15:23Z</time>
      </trkpt>
      <trkpt lat="45.93812" lon="4.78246">
        <ele>183</ele>
        <time>2018-02-20T11:15:24Z</time>
      </trkpt>
      <trkpt lat="45.93814" lon="4.78239">
        <ele>183</ele>
        <time>2018-02-20T11:15:25Z</time>
      </trkpt>
      <trkpt lat="45.93815" lon="4.78231">
        <ele>182</ele>
        <time>2018-02-20T11:15:26Z</time>
      </trkpt>
      <trkpt lat="45.93816" lon="4.78224">
        <ele>182</ele>
        <time>2018-02-20T11:15:27Z</time>
      </trkpt>
      <trkpt lat="45.93819" lon="4.78218">
        <ele>182</ele>
        <time>2018-02-20T11:15:28Z</time>
      </trkpt>
      <trkpt lat="45.93821" lon="4.78211">
        <ele>182</ele>
        <time>2018-02-20T11:15:29Z</time>
      </trkpt>
      <trkpt lat="45.93822" lon="4.78203">
        <ele>182</ele>
        <time>2018-02-20T11:15:30Z</time>
      </trkpt>
      <trkpt lat="45.93824" lon="4.78196">
        <ele>182</ele>
        <time>2018-02-20T11:15:31Z</time>
      </trkpt>
      <trkpt lat="45.93826" lon="4.78189">
        <ele>182</ele>
        <time>2018-02-20T11:15:32Z</time>
      </trkpt>
      <trkpt lat="45.93827" lon="4.78183">
        <ele>182</ele>
        <time>2018-02-20T11:15:33Z</time>
      </trkpt>
      <trkpt lat="45.93829" lon="4.78175">
        <ele>182</ele>
        <time>2018-02-20T11:15:34Z</time>
      </trkpt>
      <trkpt lat="45.93832" lon="4.78167">
        <ele>182</ele>
        <time>2018-02-20T11:15:35Z</time>
      </trkpt>
      <trkpt lat="45.93835" lon="4.7816">
        <ele>183</ele>
        <time>2018-02-20T11:15:36Z</time>
      </trkpt>
      <trkpt lat="45.93838" lon="4.78153">
        <ele>184</ele>
        <time>2018-02-20T11:15:37Z</time>
      </trkpt>
      <trkpt lat="45.9384" lon="4.78145">
        <ele>184</ele>
        <time>2018-02-20T11:15:38Z</time>
      </trkpt>
      <trkpt lat="45.93842" lon="4.78137">
        <ele>185</ele>
        <time>2018-02-20T11:15:39Z</time>
      </trkpt>
      <trkpt lat="45.93845" lon="4.78131">
        <ele>185</ele>
        <time>2018-02-20T11:15:40Z</time>
      </trkpt>
      <trkpt lat="45.93846" lon="4.78123">
        <ele>185</ele>
        <time>2018-02-20T11:15:41Z</time>
      </trkpt>
      <trkpt lat="45.93849" lon="4.78115">
        <ele>184</ele>
        <time>2018-02-20T11:15:42Z</time>
      </trkpt>
      <trkpt lat="45.9385" lon="4.78108">
        <ele>184</ele>
        <time>2018-02-20T11:15:43Z</time>
      </trkpt>
      <trkpt lat="45.93853" lon="4.78101">
        <ele>184</ele>
        <time>2018-02-20T11:15:44Z</time>
      </trkpt>
      <trkpt lat="45.93855" lon="4.78094">
        <ele>184</ele>
        <time>2018-02-20T11:15:45Z</time>
      </trkpt>
      <trkpt lat="45.93856" lon="4.78087">
        <ele>184</ele>
        <time>2018-02-20T11:15:46Z</time>
      </trkpt>
      <trkpt lat="45.93857" lon="4.7808">
        <ele>183</ele>
        <time>2018-02-20T11:15:47Z</time>
      </trkpt>
      <trkpt lat="45.93857" lon="4.78073">
        <ele>183</ele>
        <time>2018-02-20T11:15:48Z</time>
      </trkpt>
      <trkpt lat="45.93858" lon="4.78066">
        <ele>183</ele>
        <time>2018-02-20T11:15:49Z</time>
      </trkpt>
      <trkpt lat="45.93859" lon="4.78059">
        <ele>183</ele>
        <time>2018-02-20T11:15:50Z</time>
      </trkpt>
      <trkpt lat="45.9386" lon="4.78053">
        <ele>183</ele>
        <time>2018-02-20T11:15:51Z</time>
      </trkpt>
      <trkpt lat="45.93863" lon="4.78045">
        <ele>183</ele>
        <time>2018-02-20T11:15:52Z</time>
      </trkpt>
      <trkpt lat="45.93863" lon="4.78032">
        <ele>183</ele>
        <time>2018-02-20T11:15:54Z</time>
      </trkpt>
      <trkpt lat="45.93864" lon="4.78025">
        <ele>183</ele>
        <time>2018-02-20T11:15:55Z</time>
      </trkpt>
      <trkpt lat="45.93865" lon="4.78017">
        <ele>183</ele>
        <time>2018-02-20T11:15:56Z</time>
      </trkpt>
      <trkpt lat="45.93868" lon="4.78009">
        <ele>183</ele>
        <time>2018-02-20T11:15:57Z</time>
      </trkpt>
      <trkpt lat="45.93868" lon="4.78002">
        <ele>183</ele>
        <time>2018-02-20T11:15:58Z</time>
      </trkpt>
      <trkpt lat="45.93869" lon="4.77994">
        <ele>180</ele>
        <time>2018-02-20T11:15:59Z</time>
      </trkpt>
      <trkpt lat="45.93871" lon="4.77988">
        <ele>180</ele>
        <time>2018-02-20T11:16:00Z</time>
      </trkpt>
      <trkpt lat="45.93872" lon="4.77979">
        <ele>179</ele>
        <time>2018-02-20T11:16:01Z</time>
      </trkpt>
      <trkpt lat="45.93876" lon="4.7797">
        <ele>179</ele>
        <time>2018-02-20T11:16:02Z</time>
      </trkpt>
      <trkpt lat="45.93878" lon="4.77962">
        <ele>179</ele>
        <time>2018-02-20T11:16:03Z</time>
      </trkpt>
      <trkpt lat="45.93881" lon="4.77953">
        <ele>179</ele>
        <time>2018-02-20T11:16:04Z</time>
      </trkpt>
      <trkpt lat="45.93883" lon="4.77942">
        <ele>179</ele>
        <time>2018-02-20T11:16:05Z</time>
      </trkpt>
      <trkpt lat="45.93886" lon="4.77934">
        <ele>179</ele>
        <time>2018-02-20T11:16:06Z</time>
      </trkpt>
      <trkpt lat="45.93889" lon="4.77925">
        <ele>179</ele>
        <time>2018-02-20T11:16:07Z</time>
      </trkpt>
      <trkpt lat="45.93889" lon="4.77915">
        <ele>176</ele>
        <time>2018-02-20T11:16:08Z</time>
      </trkpt>
      <trkpt lat="45.93891" lon="4.77905">
        <ele>176</ele>
        <time>2018-02-20T11:16:09Z</time>
      </trkpt>
      <trkpt lat="45.93893" lon="4.77894">
        <ele>176</ele>
        <time>2018-02-20T11:16:10Z</time>
      </trkpt>
      <trkpt lat="45.93896" lon="4.77885">
        <ele>176</ele>
        <time>2018-02-20T11:16:11Z</time>
      </trkpt>
      <trkpt lat="45.939" lon="4.77876">
        <ele>176</ele>
        <time>2018-02-20T11:16:12Z</time>
      </trkpt>
      <trkpt lat="45.93903" lon="4.77867">
        <ele>175</ele>
        <time>2018-02-20T11:16:13Z</time>
      </trkpt>
      <trkpt lat="45.93906" lon="4.77858">
        <ele>176</ele>
        <time>2018-02-20T11:16:14Z</time>
      </trkpt>
      <trkpt lat="45.93908" lon="4.77849">
        <ele>176</ele>
        <time>2018-02-20T11:16:15Z</time>
      </trkpt>
      <trkpt lat="45.93911" lon="4.77839">
        <ele>177</ele>
        <time>2018-02-20T11:16:16Z</time>
      </trkpt>
      <trkpt lat="45.93912" lon="4.7783">
        <ele>176</ele>
        <time>2018-02-20T11:16:17Z</time>
      </trkpt>
      <trkpt lat="45.93915" lon="4.77821">
        <ele>174</ele>
        <time>2018-02-20T11:16:18Z</time>
      </trkpt>
      <trkpt lat="45.93917" lon="4.77812">
        <ele>180</ele>
        <time>2018-02-20T11:16:19Z</time>
      </trkpt>
      <trkpt lat="45.93919" lon="4.77804">
        <ele>179</ele>
        <time>2018-02-20T11:16:20Z</time>
      </trkpt>
      <trkpt lat="45.93922" lon="4.77795">
        <ele>179</ele>
        <time>2018-02-20T11:16:21Z</time>
      </trkpt>
      <trkpt lat="45.93924" lon="4.77786">
        <ele>178</ele>
        <time>2018-02-20T11:16:22Z</time>
      </trkpt>
      <trkpt lat="45.93928" lon="4.77776">
        <ele>177</ele>
        <time>2018-02-20T11:16:23Z</time>
      </trkpt>
      <trkpt lat="45.93931" lon="4.77767">
        <ele>176</ele>
        <time>2018-02-20T11:16:24Z</time>
      </trkpt>
      <trkpt lat="45.93933" lon="4.77759">
        <ele>175</ele>
        <time>2018-02-20T11:16:25Z</time>
      </trkpt>
      <trkpt lat="45.93935" lon="4.77752">
        <ele>175</ele>
        <time>2018-02-20T11:16:26Z</time>
      </trkpt>
      <trkpt lat="45.93939" lon="4.77744">
        <ele>174</ele>
        <time>2018-02-20T11:16:27Z</time>
      </trkpt>
      <trkpt lat="45.93942" lon="4.77737">
        <ele>175</ele>
        <time>2018-02-20T11:16:28Z</time>
      </trkpt>
      <trkpt lat="45.93946" lon="4.7773">
        <ele>176</ele>
        <time>2018-02-20T11:16:29Z</time>
      </trkpt>
      <trkpt lat="45.9395" lon="4.77723">
        <ele>177</ele>
        <time>2018-02-20T11:16:30Z</time>
      </trkpt>
      <trkpt lat="45.93951" lon="4.77716">
        <ele>177</ele>
        <time>2018-02-20T11:16:31Z</time>
      </trkpt>
      <trkpt lat="45.93954" lon="4.77708">
        <ele>177</ele>
        <time>2018-02-20T11:16:32Z</time>
      </trkpt>
      <trkpt lat="45.93955" lon="4.77702">
        <ele>178</ele>
        <time>2018-02-20T11:16:33Z</time>
      </trkpt>
      <trkpt lat="45.93957" lon="4.77695">
        <ele>178</ele>
        <time>2018-02-20T11:16:34Z</time>
      </trkpt>
      <trkpt lat="45.9396" lon="4.77689">
        <ele>178</ele>
        <time>2018-02-20T11:16:35Z</time>
      </trkpt>
      <trkpt lat="45.93963" lon="4.77682">
        <ele>179</ele>
        <time>2018-02-20T11:16:36Z</time>
      </trkpt>
      <trkpt lat="45.93964" lon="4.77674">
        <ele>179</ele>
        <time>2018-02-20T11:16:37Z</time>
      </trkpt>
      <trkpt lat="45.93965" lon="4.77667">
        <ele>179</ele>
        <time>2018-02-20T11:16:38Z</time>
      </trkpt>
      <trkpt lat="45.93967" lon="4.7766">
        <ele>179</ele>
        <time>2018-02-20T11:16:39Z</time>
      </trkpt>
      <trkpt lat="45.93969" lon="4.77652">
        <ele>179</ele>
        <time>2018-02-20T11:16:40Z</time>
      </trkpt>
      <trkpt lat="45.93971" lon="4.77645">
        <ele>179</ele>
        <time>2018-02-20T11:16:41Z</time>
      </trkpt>
      <trkpt lat="45.93972" lon="4.77639">
        <ele>179</ele>
        <time>2018-02-20T11:16:42Z</time>
      </trkpt>
      <trkpt lat="45.93974" lon="4.77631">
        <ele>179</ele>
        <time>2018-02-20T11:16:43Z</time>
      </trkpt>
      <trkpt lat="45.93976" lon="4.77624">
        <ele>179</ele>
        <time>2018-02-20T11:16:44Z</time>
      </trkpt>
      <trkpt lat="45.93978" lon="4.77617">
        <ele>179</ele>
        <time>2018-02-20T11:16:45Z</time>
      </trkpt>
      <trkpt lat="45.93979" lon="4.77609">
        <ele>180</ele>
        <time>2018-02-20T11:16:46Z</time>
      </trkpt>
      <trkpt lat="45.9398" lon="4.77604">
        <ele>180</ele>
        <time>2018-02-20T11:16:47Z</time>
      </trkpt>
      <trkpt lat="45.93981" lon="4.77596">
        <ele>181</ele>
        <time>2018-02-20T11:16:48Z</time>
      </trkpt>
      <trkpt lat="45.93982" lon="4.77589">
        <ele>181</ele>
        <time>2018-02-20T11:16:49Z</time>
      </trkpt>
      <trkpt lat="45.93986" lon="4.77582">
        <ele>182</ele>
        <time>2018-02-20T11:16:50Z</time>
      </trkpt>
      <trkpt lat="45.93988" lon="4.77575">
        <ele>182</ele>
        <time>2018-02-20T11:16:51Z</time>
      </trkpt>
      <trkpt lat="45.9399" lon="4.77569">
        <ele>181</ele>
        <time>2018-02-20T11:16:52Z</time>
      </trkpt>
      <trkpt lat="45.93992" lon="4.77563">
        <ele>180</ele>
        <time>2018-02-20T11:16:53Z</time>
      </trkpt>
      <trkpt lat="45.93995" lon="4.7755">
        <ele>179</ele>
        <time>2018-02-20T11:17:44Z</time>
      </trkpt>
      <trkpt lat="45.93995" lon="4.7755">
        <ele>179</ele>
        <time>2018-02-20T11:17:45Z</time>
      </trkpt>
      <trkpt lat="45.93989" lon="4.77553">
        <ele>179</ele>
        <time>2018-02-20T11:22:02Z</time>
      </trkpt>
      <trkpt lat="45.93985" lon="4.77558">
        <ele>179</ele>
        <time>2018-02-20T11:24:02Z</time>
      </trkpt>
      <trkpt lat="45.93994" lon="4.77557">
        <ele>180</ele>
        <time>2018-02-20T11:24:30Z</time>
      </trkpt>
      <trkpt lat="45.93995" lon="4.77557">
        <ele>180</ele>
        <time>2018-02-20T11:24:31Z</time>
      </trkpt>
      <trkpt lat="45.93995" lon="4.77553">
        <ele>180</ele>
        <time>2018-02-20T11:30:38Z</time>
      </trkpt>
      <trkpt lat="45.93995" lon="4.77553">
        <ele>180</ele>
        <time>2018-02-20T11:30:39Z</time>
      </trkpt>
      <trkpt lat="45.93995" lon="4.77553">
        <ele>180</ele>
        <time>2018-02-20T11:30:40Z</time>
      </trkpt>
      <trkpt lat="45.93998" lon="4.77543">
        <ele>179</ele>
        <time>2018-02-20T11:31:10Z</time>
      </trkpt>
      <trkpt lat="45.93999" lon="4.77542">
        <ele>179</ele>
        <time>2018-02-20T11:31:11Z</time>
      </trkpt>
      <trkpt lat="45.93998" lon="4.7753">
        <ele>179</ele>
        <time>2018-02-20T11:31:23Z</time>
      </trkpt>
      <trkpt lat="45.93998" lon="4.77527">
        <ele>179</ele>
        <time>2018-02-20T11:31:24Z</time>
      </trkpt>
      <trkpt lat="45.93999" lon="4.77515">
        <ele>180</ele>
        <time>2018-02-20T11:31:28Z</time>
      </trkpt>
      <trkpt lat="45.94" lon="4.77511">
        <ele>181</ele>
        <time>2018-02-20T11:31:29Z</time>
      </trkpt>
      <trkpt lat="45.94001" lon="4.77499">
        <ele>183</ele>
        <time>2018-02-20T11:31:32Z</time>
      </trkpt>
      <trkpt lat="45.94002" lon="4.77495">
        <ele>184</ele>
        <time>2018-02-20T11:31:33Z</time>
      </trkpt>
      <trkpt lat="45.94003" lon="4.77485">
        <ele>185</ele>
        <time>2018-02-20T11:31:35Z</time>
      </trkpt>
      <trkpt lat="45.94004" lon="4.77479">
        <ele>185</ele>
        <time>2018-02-20T11:31:36Z</time>
      </trkpt>
      <trkpt lat="45.94005" lon="4.77468">
        <ele>185</ele>
        <time>2018-02-20T11:31:38Z</time>
      </trkpt>
      <trkpt lat="45.94005" lon="4.77463">
        <ele>185</ele>
        <time>2018-02-20T11:31:39Z</time>
      </trkpt>
      <trkpt lat="45.94006" lon="4.77453">
        <ele>184</ele>
        <time>2018-02-20T11:31:41Z</time>
      </trkpt>
      <trkpt lat="45.94007" lon="4.77449">
        <ele>184</ele>
        <time>2018-02-20T11:31:42Z</time>
      </trkpt>
      <trkpt lat="45.94008" lon="4.77437">
        <ele>183</ele>
        <time>2018-02-20T11:31:45Z</time>
      </trkpt>
      <trkpt lat="45.94009" lon="4.77432">
        <ele>182</ele>
        <time>2018-02-20T11:31:46Z</time>
      </trkpt>
      <trkpt lat="45.9401" lon="4.77422">
        <ele>180</ele>
        <time>2018-02-20T11:31:48Z</time>
      </trkpt>
      <trkpt lat="45.9401" lon="4.77417">
        <ele>180</ele>
        <time>2018-02-20T11:31:49Z</time>
      </trkpt>
      <trkpt lat="45.94012" lon="4.77406">
        <ele>179</ele>
        <time>2018-02-20T11:31:51Z</time>
      </trkpt>
      <trkpt lat="45.94012" lon="4.774">
        <ele>179</ele>
        <time>2018-02-20T11:31:52Z</time>
      </trkpt>
      <trkpt lat="45.94013" lon="4.77389">
        <ele>179</ele>
        <time>2018-02-20T11:31:54Z</time>
      </trkpt>
      <trkpt lat="45.94013" lon="4.77384">
        <ele>179</ele>
        <time>2018-02-20T11:31:55Z</time>
      </trkpt>
      <trkpt lat="45.94014" lon="4.77372">
        <ele>179</ele>
        <time>2018-02-20T11:31:57Z</time>
      </trkpt>
      <trkpt lat="45.94014" lon="4.77367">
        <ele>179</ele>
        <time>2018-02-20T11:31:58Z</time>
      </trkpt>
      <trkpt lat="45.94015" lon="4.77357">
        <ele>178</ele>
        <time>2018-02-20T11:32:00Z</time>
      </trkpt>
      <trkpt lat="45.94016" lon="4.77352">
        <ele>178</ele>
        <time>2018-02-20T11:32:01Z</time>
      </trkpt>
      <trkpt lat="45.94016" lon="4.7734">
        <ele>177</ele>
        <time>2018-02-20T11:32:03Z</time>
      </trkpt>
      <trkpt lat="45.94017" lon="4.77334">
        <ele>177</ele>
        <time>2018-02-20T11:32:04Z</time>
      </trkpt>
      <trkpt lat="45.94018" lon="4.77322">
        <ele>175</ele>
        <time>2018-02-20T11:32:06Z</time>
      </trkpt>
      <trkpt lat="45.94019" lon="4.77316">
        <ele>175</ele>
        <time>2018-02-20T11:32:07Z</time>
      </trkpt>
      <trkpt lat="45.94019" lon="4.77304">
        <ele>176</ele>
        <time>2018-02-20T11:32:09Z</time>
      </trkpt>
      <trkpt lat="45.9402" lon="4.77298">
        <ele>176</ele>
        <time>2018-02-20T11:32:10Z</time>
      </trkpt>
      <trkpt lat="45.9402" lon="4.77292">
        <ele>176</ele>
        <time>2018-02-20T11:32:11Z</time>
      </trkpt>
      <trkpt lat="45.94021" lon="4.77285">
        <ele>176</ele>
        <time>2018-02-20T11:32:12Z</time>
      </trkpt>
      <trkpt lat="45.94021" lon="4.77278">
        <ele>175</ele>
        <time>2018-02-20T11:32:13Z</time>
      </trkpt>
      <trkpt lat="45.94022" lon="4.77271">
        <ele>175</ele>
        <time>2018-02-20T11:32:14Z</time>
      </trkpt>
      <trkpt lat="45.94023" lon="4.77265">
        <ele>175</ele>
        <time>2018-02-20T11:32:15Z</time>
      </trkpt>
      <trkpt lat="45.94023" lon="4.77258">
        <ele>175</ele>
        <time>2018-02-20T11:32:16Z</time>
      </trkpt>
      <trkpt lat="45.94023" lon="4.77252">
        <ele>174</ele>
        <time>2018-02-20T11:32:17Z</time>
      </trkpt>
      <trkpt lat="45.94024" lon="4.77244">
        <ele>174</ele>
        <time>2018-02-20T11:32:18Z</time>
      </trkpt>
      <trkpt lat="45.94024" lon="4.77238">
        <ele>174</ele>
        <time>2018-02-20T11:32:19Z</time>
      </trkpt>
      <trkpt lat="45.94026" lon="4.77231">
        <ele>174</ele>
        <time>2018-02-20T11:32:20Z</time>
      </trkpt>
      <trkpt lat="45.94026" lon="4.77224">
        <ele>174</ele>
        <time>2018-02-20T11:32:21Z</time>
      </trkpt>
      <trkpt lat="45.94028" lon="4.77218">
        <ele>174</ele>
        <time>2018-02-20T11:32:22Z</time>
      </trkpt>
      <trkpt lat="45.94028" lon="4.77211">
        <ele>175</ele>
        <time>2018-02-20T11:32:23Z</time>
      </trkpt>
      <trkpt lat="45.94029" lon="4.77205">
        <ele>175</ele>
        <time>2018-02-20T11:32:24Z</time>
      </trkpt>
      <trkpt lat="45.94031" lon="4.77192">
        <ele>175</ele>
        <time>2018-02-20T11:32:26Z</time>
      </trkpt>
      <trkpt lat="45.94031" lon="4.77186">
        <ele>175</ele>
        <time>2018-02-20T11:32:27Z</time>
      </trkpt>
      <trkpt lat="45.94033" lon="4.77178">
        <ele>175</ele>
        <time>2018-02-20T11:32:28Z</time>
      </trkpt>
      <trkpt lat="45.94034" lon="4.77172">
        <ele>175</ele>
        <time>2018-02-20T11:32:29Z</time>
      </trkpt>
      <trkpt lat="45.94034" lon="4.77164">
        <ele>174</ele>
        <time>2018-02-20T11:32:30Z</time>
      </trkpt>
      <trkpt lat="45.94035" lon="4.77157">
        <ele>174</ele>
        <time>2018-02-20T11:32:31Z</time>
      </trkpt>
      <trkpt lat="45.94035" lon="4.77149">
        <ele>175</ele>
        <time>2018-02-20T11:32:32Z</time>
      </trkpt>
      <trkpt lat="45.94036" lon="4.77142">
        <ele>175</ele>
        <time>2018-02-20T11:32:33Z</time>
      </trkpt>
      <trkpt lat="45.94037" lon="4.77136">
        <ele>175</ele>
        <time>2018-02-20T11:32:34Z</time>
      </trkpt>
      <trkpt lat="45.94039" lon="4.77128">
        <ele>175</ele>
        <time>2018-02-20T11:32:35Z</time>
      </trkpt>
      <trkpt lat="45.9404" lon="4.77121">
        <ele>175</ele>
        <time>2018-02-20T11:32:36Z</time>
      </trkpt>
      <trkpt lat="45.9404" lon="4.77114">
        <ele>175</ele>
        <time>2018-02-20T11:32:37Z</time>
      </trkpt>
      <trkpt lat="45.94041" lon="4.77106">
        <ele>175</ele>
        <time>2018-02-20T11:32:38Z</time>
      </trkpt>
      <trkpt lat="45.94042" lon="4.771">
        <ele>175</ele>
        <time>2018-02-20T11:32:39Z</time>
      </trkpt>
      <trkpt lat="45.94043" lon="4.77093">
        <ele>175</ele>
        <time>2018-02-20T11:32:40Z</time>
      </trkpt>
      <trkpt lat="45.94043" lon="4.77086">
        <ele>175</ele>
        <time>2018-02-20T11:32:41Z</time>
      </trkpt>
      <trkpt lat="45.94044" lon="4.77078">
        <ele>174</ele>
        <time>2018-02-20T11:32:42Z</time>
      </trkpt>
      <trkpt lat="45.94045" lon="4.77071">
        <ele>174</ele>
        <time>2018-02-20T11:32:43Z</time>
      </trkpt>
      <trkpt lat="45.94046" lon="4.77064">
        <ele>174</ele>
        <time>2018-02-20T11:32:44Z</time>
      </trkpt>
      <trkpt lat="45.94047" lon="4.77057">
        <ele>174</ele>
        <time>2018-02-20T11:32:45Z</time>
      </trkpt>
      <trkpt lat="45.94047" lon="4.77049">
        <ele>174</ele>
        <time>2018-02-20T11:32:46Z</time>
      </trkpt>
      <trkpt lat="45.94047" lon="4.77042">
        <ele>174</ele>
        <time>2018-02-20T11:32:47Z</time>
      </trkpt>
      <trkpt lat="45.94048" lon="4.77035">
        <ele>174</ele>
        <time>2018-02-20T11:32:48Z</time>
      </trkpt>
      <trkpt lat="45.94049" lon="4.77027">
        <ele>174</ele>
        <time>2018-02-20T11:32:49Z</time>
      </trkpt>
      <trkpt lat="45.9405" lon="4.77019">
        <ele>175</ele>
        <time>2018-02-20T11:32:50Z</time>
      </trkpt>
      <trkpt lat="45.94051" lon="4.77012">
        <ele>175</ele>
        <time>2018-02-20T11:32:51Z</time>
      </trkpt>
      <trkpt lat="45.94052" lon="4.77004">
        <ele>175</ele>
        <time>2018-02-20T11:32:52Z</time>
      </trkpt>
      <trkpt lat="45.94053" lon="4.76998">
        <ele>174</ele>
        <time>2018-02-20T11:32:53Z</time>
      </trkpt>
      <trkpt lat="45.94055" lon="4.76991">
        <ele>175</ele>
        <time>2018-02-20T11:32:54Z</time>
      </trkpt>
      <trkpt lat="45.94058" lon="4.76985">
        <ele>175</ele>
        <time>2018-02-20T11:32:55Z</time>
      </trkpt>
      <trkpt lat="45.9406" lon="4.76978">
        <ele>175</ele>
        <time>2018-02-20T11:32:56Z</time>
      </trkpt>
      <trkpt lat="45.94062" lon="4.76972">
        <ele>174</ele>
        <time>2018-02-20T11:32:57Z</time>
      </trkpt>
      <trkpt lat="45.94059" lon="4.7696">
        <ele>174</ele>
        <time>2018-02-20T11:32:59Z</time>
      </trkpt>
      <trkpt lat="45.94055" lon="4.76956">
        <ele>174</ele>
        <time>2018-02-20T11:33:00Z</time>
      </trkpt>
      <trkpt lat="45.94051" lon="4.76952">
        <ele>174</ele>
        <time>2018-02-20T11:33:01Z</time>
      </trkpt>
      <trkpt lat="45.94046" lon="4.76949">
        <ele>174</ele>
        <time>2018-02-20T11:33:02Z</time>
      </trkpt>
      <trkpt lat="45.94041" lon="4.76944">
        <ele>174</ele>
        <time>2018-02-20T11:33:03Z</time>
      </trkpt>
      <trkpt lat="45.94038" lon="4.76938">
        <ele>174</ele>
        <time>2018-02-20T11:33:04Z</time>
      </trkpt>
      <trkpt lat="45.94037" lon="4.7693">
        <ele>174</ele>
        <time>2018-02-20T11:33:05Z</time>
      </trkpt>
      <trkpt lat="45.94035" lon="4.76923">
        <ele>173</ele>
        <time>2018-02-20T11:33:06Z</time>
      </trkpt>
      <trkpt lat="45.94033" lon="4.76915">
        <ele>173</ele>
        <time>2018-02-20T11:33:07Z</time>
      </trkpt>
      <trkpt lat="45.94031" lon="4.76908">
        <ele>173</ele>
        <time>2018-02-20T11:33:08Z</time>
      </trkpt>
      <trkpt lat="45.94029" lon="4.769">
        <ele>173</ele>
        <time>2018-02-20T11:33:09Z</time>
      </trkpt>
      <trkpt lat="45.94027" lon="4.76892">
        <ele>173</ele>
        <time>2018-02-20T11:33:10Z</time>
      </trkpt>
      <trkpt lat="45.94025" lon="4.76884">
        <ele>173</ele>
        <time>2018-02-20T11:33:11Z</time>
      </trkpt>
      <trkpt lat="45.94022" lon="4.76878">
        <ele>173</ele>
        <time>2018-02-20T11:33:12Z</time>
      </trkpt>
      <trkpt lat="45.94018" lon="4.76871">
        <ele>173</ele>
        <time>2018-02-20T11:33:13Z</time>
      </trkpt>
      <trkpt lat="45.94015" lon="4.76864">
        <ele>172</ele>
        <time>2018-02-20T11:33:14Z</time>
      </trkpt>
      <trkpt lat="45.94012" lon="4.76857">
        <ele>172</ele>
        <time>2018-02-20T11:33:15Z</time>
      </trkpt>
      <trkpt lat="45.94009" lon="4.7685">
        <ele>172</ele>
        <time>2018-02-20T11:33:16Z</time>
      </trkpt>
      <trkpt lat="45.94005" lon="4.76844">
        <ele>172</ele>
        <time>2018-02-20T11:33:17Z</time>
      </trkpt>
      <trkpt lat="45.94004" lon="4.76838">
        <ele>171</ele>
        <time>2018-02-20T11:33:18Z</time>
      </trkpt>
      <trkpt lat="45.94001" lon="4.7683">
        <ele>171</ele>
        <time>2018-02-20T11:33:19Z</time>
      </trkpt>
      <trkpt lat="45.94" lon="4.76823">
        <ele>171</ele>
        <time>2018-02-20T11:33:20Z</time>
      </trkpt>
      <trkpt lat="45.93998" lon="4.76815">
        <ele>172</ele>
        <time>2018-02-20T11:33:21Z</time>
      </trkpt>
      <trkpt lat="45.93997" lon="4.76808">
        <ele>172</ele>
        <time>2018-02-20T11:33:22Z</time>
      </trkpt>
      <trkpt lat="45.93996" lon="4.768">
        <ele>172</ele>
        <time>2018-02-20T11:33:23Z</time>
      </trkpt>
      <trkpt lat="45.93996" lon="4.76792">
        <ele>172</ele>
        <time>2018-02-20T11:33:24Z</time>
      </trkpt>
      <trkpt lat="45.93995" lon="4.76785">
        <ele>172</ele>
        <time>2018-02-20T11:33:25Z</time>
      </trkpt>
      <trkpt lat="45.93996" lon="4.76778">
        <ele>172</ele>
        <time>2018-02-20T11:33:26Z</time>
      </trkpt>
      <trkpt lat="45.93997" lon="4.76771">
        <ele>172</ele>
        <time>2018-02-20T11:33:27Z</time>
      </trkpt>
      <trkpt lat="45.93998" lon="4.76764">
        <ele>173</ele>
        <time>2018-02-20T11:33:28Z</time>
      </trkpt>
      <trkpt lat="45.93999" lon="4.76758">
        <ele>173</ele>
        <time>2018-02-20T11:33:29Z</time>
      </trkpt>
      <trkpt lat="45.94002" lon="4.76751">
        <ele>173</ele>
        <time>2018-02-20T11:33:30Z</time>
      </trkpt>
      <trkpt lat="45.94003" lon="4.76744">
        <ele>173</ele>
        <time>2018-02-20T11:33:31Z</time>
      </trkpt>
      <trkpt lat="45.94006" lon="4.76737">
        <ele>173</ele>
        <time>2018-02-20T11:33:32Z</time>
      </trkpt>
      <trkpt lat="45.94008" lon="4.7673">
        <ele>173</ele>
        <time>2018-02-20T11:33:33Z</time>
      </trkpt>
      <trkpt lat="45.94009" lon="4.76722">
        <ele>173</ele>
        <time>2018-02-20T11:33:34Z</time>
      </trkpt>
      <trkpt lat="45.94012" lon="4.76713">
        <ele>173</ele>
        <time>2018-02-20T11:33:35Z</time>
      </trkpt>
      <trkpt lat="45.94015" lon="4.76705">
        <ele>173</ele>
        <time>2018-02-20T11:33:36Z</time>
      </trkpt>
      <trkpt lat="45.94017" lon="4.76696">
        <ele>173</ele>
        <time>2018-02-20T11:33:37Z</time>
      </trkpt>
      <trkpt lat="45.94019" lon="4.76688">
        <ele>173</ele>
        <time>2018-02-20T11:33:38Z</time>
      </trkpt>
      <trkpt lat="45.94021" lon="4.76681">
        <ele>173</ele>
        <time>2018-02-20T11:33:39Z</time>
      </trkpt>
      <trkpt lat="45.94022" lon="4.76674">
        <ele>173</ele>
        <time>2018-02-20T11:33:40Z</time>
      </trkpt>
      <trkpt lat="45.94022" lon="4.76661">
        <ele>172</ele>
        <time>2018-02-20T11:33:42Z</time>
      </trkpt>
      <trkpt lat="45.94019" lon="4.76653">
        <ele>172</ele>
        <time>2018-02-20T11:33:43Z</time>
      </trkpt>
      <trkpt lat="45.94019" lon="4.76646">
        <ele>172</ele>
        <time>2018-02-20T11:33:44Z</time>
      </trkpt>
      <trkpt lat="45.94018" lon="4.76639">
        <ele>172</ele>
        <time>2018-02-20T11:33:45Z</time>
      </trkpt>
      <trkpt lat="45.94016" lon="4.76632">
        <ele>172</ele>
        <time>2018-02-20T11:33:46Z</time>
      </trkpt>
      <trkpt lat="45.94012" lon="4.76626">
        <ele>172</ele>
        <time>2018-02-20T11:33:47Z</time>
      </trkpt>
      <trkpt lat="45.9401" lon="4.7662">
        <ele>172</ele>
        <time>2018-02-20T11:33:48Z</time>
      </trkpt>
      <trkpt lat="45.94007" lon="4.76613">
        <ele>172</ele>
        <time>2018-02-20T11:33:49Z</time>
      </trkpt>
      <trkpt lat="45.94004" lon="4.76605">
        <ele>172</ele>
        <time>2018-02-20T11:33:50Z</time>
      </trkpt>
      <trkpt lat="45.94001" lon="4.76597">
        <ele>172</ele>
        <time>2018-02-20T11:33:51Z</time>
      </trkpt>
      <trkpt lat="45.93998" lon="4.7659">
        <ele>172</ele>
        <time>2018-02-20T11:33:52Z</time>
      </trkpt>
      <trkpt lat="45.93996" lon="4.76581">
        <ele>172</ele>
        <time>2018-02-20T11:33:53Z</time>
      </trkpt>
      <trkpt lat="45.93994" lon="4.76573">
        <ele>172</ele>
        <time>2018-02-20T11:33:54Z</time>
      </trkpt>
      <trkpt lat="45.93993" lon="4.76563">
        <ele>172</ele>
        <time>2018-02-20T11:33:55Z</time>
      </trkpt>
      <trkpt lat="45.93992" lon="4.76554">
        <ele>172</ele>
        <time>2018-02-20T11:33:56Z</time>
      </trkpt>
      <trkpt lat="45.93992" lon="4.76545">
        <ele>172</ele>
        <time>2018-02-20T11:33:57Z</time>
      </trkpt>
      <trkpt lat="45.93991" lon="4.76536">
        <ele>171</ele>
        <time>2018-02-20T11:33:58Z</time>
      </trkpt>
      <trkpt lat="45.93991" lon="4.76527">
        <ele>171</ele>
        <time>2018-02-20T11:33:59Z</time>
      </trkpt>
      <trkpt lat="45.93992" lon="4.76517">
        <ele>171</ele>
        <time>2018-02-20T11:34:00Z</time>
      </trkpt>
      <trkpt lat="45.93992" lon="4.76509">
        <ele>171</ele>
        <time>2018-02-20T11:34:01Z</time>
      </trkpt>
      <trkpt lat="45.93991" lon="4.765">
        <ele>171</ele>
        <time>2018-02-20T11:34:02Z</time>
      </trkpt>
      <trkpt lat="45.93991" lon="4.76492">
        <ele>171</ele>
        <time>2018-02-20T11:34:03Z</time>
      </trkpt>
      <trkpt lat="45.93991" lon="4.76484">
        <ele>170</ele>
        <time>2018-02-20T11:34:04Z</time>
      </trkpt>
      <trkpt lat="45.93991" lon="4.76476">
        <ele>170</ele>
        <time>2018-02-20T11:34:05Z</time>
      </trkpt>
      <trkpt lat="45.9399" lon="4.76468">
        <ele>170</ele>
        <time>2018-02-20T11:34:06Z</time>
      </trkpt>
      <trkpt lat="45.93991" lon="4.76461">
        <ele>170</ele>
        <time>2018-02-20T11:34:07Z</time>
      </trkpt>
      <trkpt lat="45.93992" lon="4.76453">
        <ele>170</ele>
        <time>2018-02-20T11:34:08Z</time>
      </trkpt>
      <trkpt lat="45.93992" lon="4.76446">
        <ele>169</ele>
        <time>2018-02-20T11:34:09Z</time>
      </trkpt>
      <trkpt lat="45.93992" lon="4.7644">
        <ele>169</ele>
        <time>2018-02-20T11:34:10Z</time>
      </trkpt>
      <trkpt lat="45.93993" lon="4.76432">
        <ele>169</ele>
        <time>2018-02-20T11:34:11Z</time>
      </trkpt>
      <trkpt lat="45.93994" lon="4.76426">
        <ele>169</ele>
        <time>2018-02-20T11:34:12Z</time>
      </trkpt>
      <trkpt lat="45.93996" lon="4.76419">
        <ele>168</ele>
        <time>2018-02-20T11:34:13Z</time>
      </trkpt>
      <trkpt lat="45.93999" lon="4.76412">
        <ele>168</ele>
        <time>2018-02-20T11:34:14Z</time>
      </trkpt>
      <trkpt lat="45.94001" lon="4.76405">
        <ele>169</ele>
        <time>2018-02-20T11:34:15Z</time>
      </trkpt>
      <trkpt lat="45.94005" lon="4.764">
        <ele>169</ele>
        <time>2018-02-20T11:34:16Z</time>
      </trkpt>
      <trkpt lat="45.9401" lon="4.76394">
        <ele>169</ele>
        <time>2018-02-20T11:34:17Z</time>
      </trkpt>
      <trkpt lat="45.94014" lon="4.76389">
        <ele>169</ele>
        <time>2018-02-20T11:34:18Z</time>
      </trkpt>
      <trkpt lat="45.94018" lon="4.76385">
        <ele>169</ele>
        <time>2018-02-20T11:34:19Z</time>
      </trkpt>
      <trkpt lat="45.94023" lon="4.76375">
        <ele>170</ele>
        <time>2018-02-20T11:34:22Z</time>
      </trkpt>
      <trkpt lat="45.94028" lon="4.76369">
        <ele>170</ele>
        <time>2018-02-20T11:34:23Z</time>
      </trkpt>
      <trkpt lat="45.9403" lon="4.76366">
        <ele>170</ele>
        <time>2018-02-20T11:34:24Z</time>
      </trkpt>
      <trkpt lat="45.94035" lon="4.76358">
        <ele>170</ele>
        <time>2018-02-20T11:34:25Z</time>
      </trkpt>
      <trkpt lat="45.94037" lon="4.76352">
        <ele>170</ele>
        <time>2018-02-20T11:34:26Z</time>
      </trkpt>
      <trkpt lat="45.94039" lon="4.76345">
        <ele>170</ele>
        <time>2018-02-20T11:34:27Z</time>
      </trkpt>
      <trkpt lat="45.94041" lon="4.76338">
        <ele>170</ele>
        <time>2018-02-20T11:34:28Z</time>
      </trkpt>
      <trkpt lat="45.94044" lon="4.76331">
        <ele>170</ele>
        <time>2018-02-20T11:34:29Z</time>
      </trkpt>
      <trkpt lat="45.94047" lon="4.7632">
        <ele>171</ele>
        <time>2018-02-20T11:34:31Z</time>
      </trkpt>
      <trkpt lat="45.94049" lon="4.76314">
        <ele>171</ele>
        <time>2018-02-20T11:34:32Z</time>
      </trkpt>
      <trkpt lat="45.94053" lon="4.76304">
        <ele>171</ele>
        <time>2018-02-20T11:34:34Z</time>
      </trkpt>
      <trkpt lat="45.94055" lon="4.76301">
        <ele>171</ele>
        <time>2018-02-20T11:34:35Z</time>
      </trkpt>
      <trkpt lat="45.9406" lon="4.76296">
        <ele>171</ele>
        <time>2018-02-20T11:34:37Z</time>
      </trkpt>
      <trkpt lat="45.94063" lon="4.76294">
        <ele>171</ele>
        <time>2018-02-20T11:34:38Z</time>
      </trkpt>
      <trkpt lat="45.94068" lon="4.76288">
        <ele>171</ele>
        <time>2018-02-20T11:34:39Z</time>
      </trkpt>
      <trkpt lat="45.94071" lon="4.76284">
        <ele>172</ele>
        <time>2018-02-20T11:34:40Z</time>
      </trkpt>
      <trkpt lat="45.94077" lon="4.76277">
        <ele>172</ele>
        <time>2018-02-20T11:34:42Z</time>
      </trkpt>
      <trkpt lat="45.9408" lon="4.76273">
        <ele>172</ele>
        <time>2018-02-20T11:34:43Z</time>
      </trkpt>
      <trkpt lat="45.94087" lon="4.76266">
        <ele>176</ele>
        <time>2018-02-20T11:34:45Z</time>
      </trkpt>
      <trkpt lat="45.9409" lon="4.76263">
        <ele>176</ele>
        <time>2018-02-20T11:34:46Z</time>
      </trkpt>
      <trkpt lat="45.94097" lon="4.76259">
        <ele>176</ele>
        <time>2018-02-20T11:34:48Z</time>
      </trkpt>
      <trkpt lat="45.94101" lon="4.76259">
        <ele>176</ele>
        <time>2018-02-20T11:34:49Z</time>
      </trkpt>
      <trkpt lat="45.94109" lon="4.76258">
        <ele>176</ele>
        <time>2018-02-20T11:34:51Z</time>
      </trkpt>
      <trkpt lat="45.94112" lon="4.76258">
        <ele>177</ele>
        <time>2018-02-20T11:34:52Z</time>
      </trkpt>
      <trkpt lat="45.9412" lon="4.76258">
        <ele>177</ele>
        <time>2018-02-20T11:34:54Z</time>
      </trkpt>
      <trkpt lat="45.94124" lon="4.76257">
        <ele>177</ele>
        <time>2018-02-20T11:34:55Z</time>
      </trkpt>
      <trkpt lat="45.94131" lon="4.76257">
        <ele>178</ele>
        <time>2018-02-20T11:34:57Z</time>
      </trkpt>
      <trkpt lat="45.94135" lon="4.76257">
        <ele>178</ele>
        <time>2018-02-20T11:34:58Z</time>
      </trkpt>
      <trkpt lat="45.94143" lon="4.76256">
        <ele>178</ele>
        <time>2018-02-20T11:35:00Z</time>
      </trkpt>
      <trkpt lat="45.94147" lon="4.76256">
        <ele>179</ele>
        <time>2018-02-20T11:35:01Z</time>
      </trkpt>
      <trkpt lat="45.94155" lon="4.76255">
        <ele>179</ele>
        <time>2018-02-20T11:35:03Z</time>
      </trkpt>
      <trkpt lat="45.94159" lon="4.76255">
        <ele>180</ele>
        <time>2018-02-20T11:35:04Z</time>
      </trkpt>
      <trkpt lat="45.94166" lon="4.76256">
        <ele>180</ele>
        <time>2018-02-20T11:35:06Z</time>
      </trkpt>
      <trkpt lat="45.9417" lon="4.76253">
        <ele>182</ele>
        <time>2018-02-20T11:35:07Z</time>
      </trkpt>
      <trkpt lat="45.94172" lon="4.76249">
        <ele>181</ele>
        <time>2018-02-20T11:35:08Z</time>
      </trkpt>
      <trkpt lat="45.94171" lon="4.76238">
        <ele>182</ele>
        <time>2018-02-20T11:35:09Z</time>
      </trkpt>
      <trkpt lat="45.94172" lon="4.76232">
        <ele>182</ele>
        <time>2018-02-20T11:35:10Z</time>
      </trkpt>
      <trkpt lat="45.94173" lon="4.76224">
        <ele>182</ele>
        <time>2018-02-20T11:35:11Z</time>
      </trkpt>
      <trkpt lat="45.94174" lon="4.76217">
        <ele>182</ele>
        <time>2018-02-20T11:35:12Z</time>
      </trkpt>
      <trkpt lat="45.94175" lon="4.7621">
        <ele>182</ele>
        <time>2018-02-20T11:35:13Z</time>
      </trkpt>
      <trkpt lat="45.94176" lon="4.76203">
        <ele>182</ele>
        <time>2018-02-20T11:35:14Z</time>
      </trkpt>
      <trkpt lat="45.94176" lon="4.76196">
        <ele>182</ele>
        <time>2018-02-20T11:35:15Z</time>
      </trkpt>
      <trkpt lat="45.94178" lon="4.76188">
        <ele>182</ele>
        <time>2018-02-20T11:35:16Z</time>
      </trkpt>
      <trkpt lat="45.94178" lon="4.76181">
        <ele>182</ele>
        <time>2018-02-20T11:35:17Z</time>
      </trkpt>
      <trkpt lat="45.94179" lon="4.76174">
        <ele>181</ele>
        <time>2018-02-20T11:35:18Z</time>
      </trkpt>
      <trkpt lat="45.9418" lon="4.76167">
        <ele>181</ele>
        <time>2018-02-20T11:35:19Z</time>
      </trkpt>
      <trkpt lat="45.9418" lon="4.76155">
        <ele>181</ele>
        <time>2018-02-20T11:35:21Z</time>
      </trkpt>
      <trkpt lat="45.9418" lon="4.76149">
        <ele>181</ele>
        <time>2018-02-20T11:35:22Z</time>
      </trkpt>
      <trkpt lat="45.9418" lon="4.76142">
        <ele>181</ele>
        <time>2018-02-20T11:35:23Z</time>
      </trkpt>
      <trkpt lat="45.9418" lon="4.76134">
        <ele>181</ele>
        <time>2018-02-20T11:35:24Z</time>
      </trkpt>
      <trkpt lat="45.94181" lon="4.76127">
        <ele>180</ele>
        <time>2018-02-20T11:35:25Z</time>
      </trkpt>
      <trkpt lat="45.94179" lon="4.7612">
        <ele>180</ele>
        <time>2018-02-20T11:35:26Z</time>
      </trkpt>
      <trkpt lat="45.9418" lon="4.76113">
        <ele>180</ele>
        <time>2018-02-20T11:35:27Z</time>
      </trkpt>
      <trkpt lat="45.94179" lon="4.76106">
        <ele>180</ele>
        <time>2018-02-20T11:35:28Z</time>
      </trkpt>
      <trkpt lat="45.94179" lon="4.76097">
        <ele>180</ele>
        <time>2018-02-20T11:35:29Z</time>
      </trkpt>
      <trkpt lat="45.94179" lon="4.76089">
        <ele>179</ele>
        <time>2018-02-20T11:35:30Z</time>
      </trkpt>
      <trkpt lat="45.94177" lon="4.76081">
        <ele>179</ele>
        <time>2018-02-20T11:35:31Z</time>
      </trkpt>
      <trkpt lat="45.94177" lon="4.76071">
        <ele>179</ele>
        <time>2018-02-20T11:35:32Z</time>
      </trkpt>
      <trkpt lat="45.94176" lon="4.76065">
        <ele>179</ele>
        <time>2018-02-20T11:35:33Z</time>
      </trkpt>
      <trkpt lat="45.94175" lon="4.76056">
        <ele>179</ele>
        <time>2018-02-20T11:35:34Z</time>
      </trkpt>
      <trkpt lat="45.94176" lon="4.76048">
        <ele>179</ele>
        <time>2018-02-20T11:35:35Z</time>
      </trkpt>
      <trkpt lat="45.94176" lon="4.76039">
        <ele>179</ele>
        <time>2018-02-20T11:35:36Z</time>
      </trkpt>
      <trkpt lat="45.94177" lon="4.7603">
        <ele>179</ele>
        <time>2018-02-20T11:35:37Z</time>
      </trkpt>
      <trkpt lat="45.94176" lon="4.76022">
        <ele>179</ele>
        <time>2018-02-20T11:35:38Z</time>
      </trkpt>
      <trkpt lat="45.94176" lon="4.76013">
        <ele>179</ele>
        <time>2018-02-20T11:35:39Z</time>
      </trkpt>
      <trkpt lat="45.94175" lon="4.76003">
        <ele>178</ele>
        <time>2018-02-20T11:35:40Z</time>
      </trkpt>
      <trkpt lat="45.94176" lon="4.75994">
        <ele>178</ele>
        <time>2018-02-20T11:35:41Z</time>
      </trkpt>
      <trkpt lat="45.94176" lon="4.75985">
        <ele>178</ele>
        <time>2018-02-20T11:35:42Z</time>
      </trkpt>
      <trkpt lat="45.94176" lon="4.75975">
        <ele>177</ele>
        <time>2018-02-20T11:35:43Z</time>
      </trkpt>
      <trkpt lat="45.94176" lon="4.75967">
        <ele>177</ele>
        <time>2018-02-20T11:35:44Z</time>
      </trkpt>
      <trkpt lat="45.94175" lon="4.75958">
        <ele>177</ele>
        <time>2018-02-20T11:35:45Z</time>
      </trkpt>
      <trkpt lat="45.94175" lon="4.75951">
        <ele>177</ele>
        <time>2018-02-20T11:35:46Z</time>
      </trkpt>
      <trkpt lat="45.94175" lon="4.75943">
        <ele>177</ele>
        <time>2018-02-20T11:35:47Z</time>
      </trkpt>
      <trkpt lat="45.94173" lon="4.75933">
        <ele>176</ele>
        <time>2018-02-20T11:35:48Z</time>
      </trkpt>
      <trkpt lat="45.94172" lon="4.75927">
        <ele>176</ele>
        <time>2018-02-20T11:35:49Z</time>
      </trkpt>
      <trkpt lat="45.94172" lon="4.75919">
        <ele>175</ele>
        <time>2018-02-20T11:35:50Z</time>
      </trkpt>
      <trkpt lat="45.94172" lon="4.75912">
        <ele>175</ele>
        <time>2018-02-20T11:35:51Z</time>
      </trkpt>
      <trkpt lat="45.94172" lon="4.75904">
        <ele>175</ele>
        <time>2018-02-20T11:35:52Z</time>
      </trkpt>
      <trkpt lat="45.94171" lon="4.75897">
        <ele>175</ele>
        <time>2018-02-20T11:35:53Z</time>
      </trkpt>
      <trkpt lat="45.9417" lon="4.7589">
        <ele>175</ele>
        <time>2018-02-20T11:35:54Z</time>
      </trkpt>
      <trkpt lat="45.9417" lon="4.75882">
        <ele>175</ele>
        <time>2018-02-20T11:35:55Z</time>
      </trkpt>
      <trkpt lat="45.94169" lon="4.75873">
        <ele>175</ele>
        <time>2018-02-20T11:35:56Z</time>
      </trkpt>
      <trkpt lat="45.94169" lon="4.75866">
        <ele>175</ele>
        <time>2018-02-20T11:35:57Z</time>
      </trkpt>
      <trkpt lat="45.94169" lon="4.75857">
        <ele>174</ele>
        <time>2018-02-20T11:35:58Z</time>
      </trkpt>
      <trkpt lat="45.94169" lon="4.7585">
        <ele>174</ele>
        <time>2018-02-20T11:35:59Z</time>
      </trkpt>
      <trkpt lat="45.9417" lon="4.75842">
        <ele>174</ele>
        <time>2018-02-20T11:36:00Z</time>
      </trkpt>
      <trkpt lat="45.94169" lon="4.75835">
        <ele>174</ele>
        <time>2018-02-20T11:36:01Z</time>
      </trkpt>
      <trkpt lat="45.94169" lon="4.75825">
        <ele>174</ele>
        <time>2018-02-20T11:36:02Z</time>
      </trkpt>
      <trkpt lat="45.9417" lon="4.75817">
        <ele>174</ele>
        <time>2018-02-20T11:36:03Z</time>
      </trkpt>
      <trkpt lat="45.94168" lon="4.75808">
        <ele>174</ele>
        <time>2018-02-20T11:36:04Z</time>
      </trkpt>
      <trkpt lat="45.94168" lon="4.75801">
        <ele>174</ele>
        <time>2018-02-20T11:36:05Z</time>
      </trkpt>
      <trkpt lat="45.94167" lon="4.75792">
        <ele>174</ele>
        <time>2018-02-20T11:36:06Z</time>
      </trkpt>
      <trkpt lat="45.94168" lon="4.75782">
        <ele>174</ele>
        <time>2018-02-20T11:36:07Z</time>
      </trkpt>
      <trkpt lat="45.94167" lon="4.75775">
        <ele>174</ele>
        <time>2018-02-20T11:36:08Z</time>
      </trkpt>
      <trkpt lat="45.94167" lon="4.75766">
        <ele>174</ele>
        <time>2018-02-20T11:36:09Z</time>
      </trkpt>
      <trkpt lat="45.94167" lon="4.75758">
        <ele>174</ele>
        <time>2018-02-20T11:36:10Z</time>
      </trkpt>
      <trkpt lat="45.94167" lon="4.75748">
        <ele>174</ele>
        <time>2018-02-20T11:36:11Z</time>
      </trkpt>
      <trkpt lat="45.94167" lon="4.75739">
        <ele>173</ele>
        <time>2018-02-20T11:36:12Z</time>
      </trkpt>
      <trkpt lat="45.94166" lon="4.75731">
        <ele>173</ele>
        <time>2018-02-20T11:36:13Z</time>
      </trkpt>
      <trkpt lat="45.94165" lon="4.75723">
        <ele>173</ele>
        <time>2018-02-20T11:36:14Z</time>
      </trkpt>
      <trkpt lat="45.94167" lon="4.75714">
        <ele>173</ele>
        <time>2018-02-20T11:36:15Z</time>
      </trkpt>
      <trkpt lat="45.94168" lon="4.75707">
        <ele>173</ele>
        <time>2018-02-20T11:36:16Z</time>
      </trkpt>
      <trkpt lat="45.94168" lon="4.75698">
        <ele>173</ele>
        <time>2018-02-20T11:36:17Z</time>
      </trkpt>
      <trkpt lat="45.94168" lon="4.7569">
        <ele>173</ele>
        <time>2018-02-20T11:36:18Z</time>
      </trkpt>
      <trkpt lat="45.94168" lon="4.75682">
        <ele>173</ele>
        <time>2018-02-20T11:36:19Z</time>
      </trkpt>
      <trkpt lat="45.94168" lon="4.75674">
        <ele>173</ele>
        <time>2018-02-20T11:36:20Z</time>
      </trkpt>
      <trkpt lat="45.94168" lon="4.75666">
        <ele>173</ele>
        <time>2018-02-20T11:36:21Z</time>
      </trkpt>
      <trkpt lat="45.94168" lon="4.75657">
        <ele>173</ele>
        <time>2018-02-20T11:36:22Z</time>
      </trkpt>
      <trkpt lat="45.94168" lon="4.75648">
        <ele>173</ele>
        <time>2018-02-20T11:36:23Z</time>
      </trkpt>
      <trkpt lat="45.94168" lon="4.7564">
        <ele>173</ele>
        <time>2018-02-20T11:36:24Z</time>
      </trkpt>
      <trkpt lat="45.94167" lon="4.75631">
        <ele>173</ele>
        <time>2018-02-20T11:36:25Z</time>
      </trkpt>
      <trkpt lat="45.94167" lon="4.75623">
        <ele>173</ele>
        <time>2018-02-20T11:36:26Z</time>
      </trkpt>
      <trkpt lat="45.94168" lon="4.75614">
        <ele>173</ele>
        <time>2018-02-20T11:36:27Z</time>
      </trkpt>
      <trkpt lat="45.94169" lon="4.75606">
        <ele>173</ele>
        <time>2018-02-20T11:36:28Z</time>
      </trkpt>
      <trkpt lat="45.9417" lon="4.75598">
        <ele>173</ele>
        <time>2018-02-20T11:36:29Z</time>
      </trkpt>
      <trkpt lat="45.94171" lon="4.75589">
        <ele>173</ele>
        <time>2018-02-20T11:36:30Z</time>
      </trkpt>
      <trkpt lat="45.94172" lon="4.75581">
        <ele>173</ele>
        <time>2018-02-20T11:36:31Z</time>
      </trkpt>
      <trkpt lat="45.94172" lon="4.75573">
        <ele>173</ele>
        <time>2018-02-20T11:36:32Z</time>
      </trkpt>
      <trkpt lat="45.94171" lon="4.75566">
        <ele>173</ele>
        <time>2018-02-20T11:36:33Z</time>
      </trkpt>
      <trkpt lat="45.94173" lon="4.75557">
        <ele>173</ele>
        <time>2018-02-20T11:36:34Z</time>
      </trkpt>
      <trkpt lat="45.94174" lon="4.75547">
        <ele>173</ele>
        <time>2018-02-20T11:36:35Z</time>
      </trkpt>
      <trkpt lat="45.94175" lon="4.7554">
        <ele>173</ele>
        <time>2018-02-20T11:36:36Z</time>
      </trkpt>
      <trkpt lat="45.94176" lon="4.75531">
        <ele>173</ele>
        <time>2018-02-20T11:36:37Z</time>
      </trkpt>
      <trkpt lat="45.94175" lon="4.75523">
        <ele>173</ele>
        <time>2018-02-20T11:36:38Z</time>
      </trkpt>
      <trkpt lat="45.94176" lon="4.75515">
        <ele>173</ele>
        <time>2018-02-20T11:36:39Z</time>
      </trkpt>
      <trkpt lat="45.94177" lon="4.75506">
        <ele>173</ele>
        <time>2018-02-20T11:36:40Z</time>
      </trkpt>
      <trkpt lat="45.94179" lon="4.75497">
        <ele>173</ele>
        <time>2018-02-20T11:36:41Z</time>
      </trkpt>
      <trkpt lat="45.9418" lon="4.75489">
        <ele>172</ele>
        <time>2018-02-20T11:36:42Z</time>
      </trkpt>
      <trkpt lat="45.94182" lon="4.75481">
        <ele>172</ele>
        <time>2018-02-20T11:36:43Z</time>
      </trkpt>
      <trkpt lat="45.94183" lon="4.75472">
        <ele>172</ele>
        <time>2018-02-20T11:36:44Z</time>
      </trkpt>
      <trkpt lat="45.94185" lon="4.75464">
        <ele>172</ele>
        <time>2018-02-20T11:36:45Z</time>
      </trkpt>
      <trkpt lat="45.94187" lon="4.75457">
        <ele>172</ele>
        <time>2018-02-20T11:36:46Z</time>
      </trkpt>
      <trkpt lat="45.94189" lon="4.7545">
        <ele>172</ele>
        <time>2018-02-20T11:36:47Z</time>
      </trkpt>
      <trkpt lat="45.9419" lon="4.75442">
        <ele>171</ele>
        <time>2018-02-20T11:36:48Z</time>
      </trkpt>
      <trkpt lat="45.94191" lon="4.75432">
        <ele>171</ele>
        <time>2018-02-20T11:36:49Z</time>
      </trkpt>
      <trkpt lat="45.94189" lon="4.75423">
        <ele>171</ele>
        <time>2018-02-20T11:36:50Z</time>
      </trkpt>
      <trkpt lat="45.94188" lon="4.75416">
        <ele>171</ele>
        <time>2018-02-20T11:36:51Z</time>
      </trkpt>
      <trkpt lat="45.94188" lon="4.75407">
        <ele>171</ele>
        <time>2018-02-20T11:36:52Z</time>
      </trkpt>
      <trkpt lat="45.94189" lon="4.75399">
        <ele>171</ele>
        <time>2018-02-20T11:36:53Z</time>
      </trkpt>
      <trkpt lat="45.94189" lon="4.75391">
        <ele>171</ele>
        <time>2018-02-20T11:36:54Z</time>
      </trkpt>
      <trkpt lat="45.94191" lon="4.75382">
        <ele>171</ele>
        <time>2018-02-20T11:36:55Z</time>
      </trkpt>
      <trkpt lat="45.94192" lon="4.75375">
        <ele>171</ele>
        <time>2018-02-20T11:36:56Z</time>
      </trkpt>
      <trkpt lat="45.94192" lon="4.75367">
        <ele>171</ele>
        <time>2018-02-20T11:36:57Z</time>
      </trkpt>
      <trkpt lat="45.94193" lon="4.75358">
        <ele>171</ele>
        <time>2018-02-20T11:36:58Z</time>
      </trkpt>
      <trkpt lat="45.94193" lon="4.75349">
        <ele>171</ele>
        <time>2018-02-20T11:36:59Z</time>
      </trkpt>
      <trkpt lat="45.94194" lon="4.75341">
        <ele>171</ele>
        <time>2018-02-20T11:37:00Z</time>
      </trkpt>
      <trkpt lat="45.94195" lon="4.75332">
        <ele>171</ele>
        <time>2018-02-20T11:37:01Z</time>
      </trkpt>
      <trkpt lat="45.94197" lon="4.75326">
        <ele>171</ele>
        <time>2018-02-20T11:37:02Z</time>
      </trkpt>
      <trkpt lat="45.94198" lon="4.75318">
        <ele>171</ele>
        <time>2018-02-20T11:37:03Z</time>
      </trkpt>
      <trkpt lat="45.94199" lon="4.75309">
        <ele>171</ele>
        <time>2018-02-20T11:37:04Z</time>
      </trkpt>
      <trkpt lat="45.942" lon="4.75302">
        <ele>171</ele>
        <time>2018-02-20T11:37:05Z</time>
      </trkpt>
      <trkpt lat="45.94202" lon="4.75295">
        <ele>171</ele>
        <time>2018-02-20T11:37:06Z</time>
      </trkpt>
      <trkpt lat="45.94203" lon="4.75287">
        <ele>171</ele>
        <time>2018-02-20T11:37:07Z</time>
      </trkpt>
      <trkpt lat="45.94204" lon="4.75278">
        <ele>171</ele>
        <time>2018-02-20T11:37:08Z</time>
      </trkpt>
      <trkpt lat="45.94206" lon="4.7527">
        <ele>171</ele>
        <time>2018-02-20T11:37:09Z</time>
      </trkpt>
      <trkpt lat="45.94208" lon="4.75261">
        <ele>171</ele>
        <time>2018-02-20T11:37:10Z</time>
      </trkpt>
      <trkpt lat="45.94211" lon="4.75253">
        <ele>172</ele>
        <time>2018-02-20T11:37:11Z</time>
      </trkpt>
      <trkpt lat="45.94212" lon="4.75245">
        <ele>171</ele>
        <time>2018-02-20T11:37:12Z</time>
      </trkpt>
      <trkpt lat="45.94213" lon="4.75237">
        <ele>171</ele>
        <time>2018-02-20T11:37:13Z</time>
      </trkpt>
      <trkpt lat="45.94214" lon="4.75229">
        <ele>171</ele>
        <time>2018-02-20T11:37:14Z</time>
      </trkpt>
      <trkpt lat="45.94215" lon="4.75222">
        <ele>171</ele>
        <time>2018-02-20T11:37:15Z</time>
      </trkpt>
      <trkpt lat="45.94216" lon="4.75213">
        <ele>171</ele>
        <time>2018-02-20T11:37:16Z</time>
      </trkpt>
      <trkpt lat="45.94218" lon="4.75205">
        <ele>171</ele>
        <time>2018-02-20T11:37:17Z</time>
      </trkpt>
      <trkpt lat="45.94219" lon="4.75197">
        <ele>171</ele>
        <time>2018-02-20T11:37:18Z</time>
      </trkpt>
      <trkpt lat="45.94221" lon="4.75189">
        <ele>171</ele>
        <time>2018-02-20T11:37:19Z</time>
      </trkpt>
      <trkpt lat="45.94222" lon="4.75181">
        <ele>171</ele>
        <time>2018-02-20T11:37:20Z</time>
      </trkpt>
      <trkpt lat="45.94225" lon="4.75172">
        <ele>171</ele>
        <time>2018-02-20T11:37:21Z</time>
      </trkpt>
      <trkpt lat="45.94226" lon="4.75165">
        <ele>171</ele>
        <time>2018-02-20T11:37:22Z</time>
      </trkpt>
      <trkpt lat="45.94228" lon="4.75156">
        <ele>171</ele>
        <time>2018-02-20T11:37:23Z</time>
      </trkpt>
      <trkpt lat="45.94231" lon="4.75147">
        <ele>171</ele>
        <time>2018-02-20T11:37:24Z</time>
      </trkpt>
      <trkpt lat="45.94233" lon="4.75139">
        <ele>171</ele>
        <time>2018-02-20T11:37:25Z</time>
      </trkpt>
      <trkpt lat="45.94235" lon="4.75131">
        <ele>171</ele>
        <time>2018-02-20T11:37:26Z</time>
      </trkpt>
      <trkpt lat="45.94237" lon="4.75121">
        <ele>171</ele>
        <time>2018-02-20T11:37:27Z</time>
      </trkpt>
      <trkpt lat="45.94239" lon="4.75113">
        <ele>172</ele>
        <time>2018-02-20T11:37:28Z</time>
      </trkpt>
      <trkpt lat="45.94242" lon="4.75106">
        <ele>172</ele>
        <time>2018-02-20T11:37:29Z</time>
      </trkpt>
      <trkpt lat="45.94245" lon="4.75099">
        <ele>172</ele>
        <time>2018-02-20T11:37:30Z</time>
      </trkpt>
      <trkpt lat="45.94246" lon="4.75091">
        <ele>172</ele>
        <time>2018-02-20T11:37:31Z</time>
      </trkpt>
      <trkpt lat="45.94249" lon="4.75082">
        <ele>173</ele>
        <time>2018-02-20T11:37:32Z</time>
      </trkpt>
      <trkpt lat="45.94251" lon="4.75075">
        <ele>173</ele>
        <time>2018-02-20T11:37:33Z</time>
      </trkpt>
      <trkpt lat="45.94253" lon="4.75067">
        <ele>174</ele>
        <time>2018-02-20T11:37:34Z</time>
      </trkpt>
      <trkpt lat="45.94255" lon="4.75058">
        <ele>174</ele>
        <time>2018-02-20T11:37:35Z</time>
      </trkpt>
      <trkpt lat="45.94258" lon="4.7505">
        <ele>174</ele>
        <time>2018-02-20T11:37:36Z</time>
      </trkpt>
      <trkpt lat="45.9426" lon="4.75042">
        <ele>174</ele>
        <time>2018-02-20T11:37:37Z</time>
      </trkpt>
      <trkpt lat="45.94262" lon="4.75034">
        <ele>174</ele>
        <time>2018-02-20T11:37:38Z</time>
      </trkpt>
      <trkpt lat="45.94264" lon="4.75026">
        <ele>174</ele>
        <time>2018-02-20T11:37:39Z</time>
      </trkpt>
      <trkpt lat="45.94266" lon="4.75018">
        <ele>174</ele>
        <time>2018-02-20T11:37:40Z</time>
      </trkpt>
      <trkpt lat="45.94268" lon="4.75009">
        <ele>174</ele>
        <time>2018-02-20T11:37:41Z</time>
      </trkpt>
      <trkpt lat="45.9427" lon="4.75001">
        <ele>174</ele>
        <time>2018-02-20T11:37:42Z</time>
      </trkpt>
      <trkpt lat="45.94272" lon="4.74991">
        <ele>175</ele>
        <time>2018-02-20T11:37:43Z</time>
      </trkpt>
      <trkpt lat="45.94274" lon="4.74984">
        <ele>175</ele>
        <time>2018-02-20T11:37:44Z</time>
      </trkpt>
      <trkpt lat="45.94276" lon="4.74976">
        <ele>175</ele>
        <time>2018-02-20T11:37:45Z</time>
      </trkpt>
      <trkpt lat="45.94278" lon="4.74968">
        <ele>175</ele>
        <time>2018-02-20T11:37:46Z</time>
      </trkpt>
      <trkpt lat="45.9428" lon="4.7496">
        <ele>175</ele>
        <time>2018-02-20T11:37:47Z</time>
      </trkpt>
      <trkpt lat="45.94281" lon="4.74951">
        <ele>175</ele>
        <time>2018-02-20T11:37:48Z</time>
      </trkpt>
      <trkpt lat="45.94284" lon="4.74943">
        <ele>175</ele>
        <time>2018-02-20T11:37:49Z</time>
      </trkpt>
      <trkpt lat="45.94288" lon="4.74935">
        <ele>175</ele>
        <time>2018-02-20T11:37:50Z</time>
      </trkpt>
      <trkpt lat="45.9429" lon="4.74927">
        <ele>175</ele>
        <time>2018-02-20T11:37:51Z</time>
      </trkpt>
      <trkpt lat="45.9429" lon="4.74916">
        <ele>174</ele>
        <time>2018-02-20T11:37:52Z</time>
      </trkpt>
      <trkpt lat="45.94293" lon="4.74908">
        <ele>174</ele>
        <time>2018-02-20T11:37:53Z</time>
      </trkpt>
      <trkpt lat="45.94295" lon="4.749">
        <ele>174</ele>
        <time>2018-02-20T11:37:54Z</time>
      </trkpt>
      <trkpt lat="45.94297" lon="4.74892">
        <ele>174</ele>
        <time>2018-02-20T11:37:55Z</time>
      </trkpt>
      <trkpt lat="45.94299" lon="4.74885">
        <ele>174</ele>
        <time>2018-02-20T11:37:56Z</time>
      </trkpt>
      <trkpt lat="45.943" lon="4.74877">
        <ele>174</ele>
        <time>2018-02-20T11:37:57Z</time>
      </trkpt>
      <trkpt lat="45.94302" lon="4.74871">
        <ele>174</ele>
        <time>2018-02-20T11:37:58Z</time>
      </trkpt>
      <trkpt lat="45.94306" lon="4.74861">
        <ele>174</ele>
        <time>2018-02-20T11:37:59Z</time>
      </trkpt>
      <trkpt lat="45.94308" lon="4.74853">
        <ele>174</ele>
        <time>2018-02-20T11:38:00Z</time>
      </trkpt>
      <trkpt lat="45.94311" lon="4.74845">
        <ele>174</ele>
        <time>2018-02-20T11:38:01Z</time>
      </trkpt>
      <trkpt lat="45.94313" lon="4.74838">
        <ele>174</ele>
        <time>2018-02-20T11:38:02Z</time>
      </trkpt>
      <trkpt lat="45.94315" lon="4.74831">
        <ele>173</ele>
        <time>2018-02-20T11:38:03Z</time>
      </trkpt>
      <trkpt lat="45.94317" lon="4.74823">
        <ele>172</ele>
        <time>2018-02-20T11:38:04Z</time>
      </trkpt>
      <trkpt lat="45.94319" lon="4.74816">
        <ele>172</ele>
        <time>2018-02-20T11:38:05Z</time>
      </trkpt>
      <trkpt lat="45.94321" lon="4.74809">
        <ele>172</ele>
        <time>2018-02-20T11:38:06Z</time>
      </trkpt>
      <trkpt lat="45.94323" lon="4.74801">
        <ele>172</ele>
        <time>2018-02-20T11:38:07Z</time>
      </trkpt>
      <trkpt lat="45.94325" lon="4.74793">
        <ele>172</ele>
        <time>2018-02-20T11:38:08Z</time>
      </trkpt>
      <trkpt lat="45.94328" lon="4.74785">
        <ele>172</ele>
        <time>2018-02-20T11:38:09Z</time>
      </trkpt>
      <trkpt lat="45.9433" lon="4.74778">
        <ele>171</ele>
        <time>2018-02-20T11:38:10Z</time>
      </trkpt>
      <trkpt lat="45.94331" lon="4.74772">
        <ele>171</ele>
        <time>2018-02-20T11:38:11Z</time>
      </trkpt>
      <trkpt lat="45.94334" lon="4.74762">
        <ele>172</ele>
        <time>2018-02-20T11:38:12Z</time>
      </trkpt>
      <trkpt lat="45.94335" lon="4.74755">
        <ele>172</ele>
        <time>2018-02-20T11:38:13Z</time>
      </trkpt>
      <trkpt lat="45.94337" lon="4.74748">
        <ele>171</ele>
        <time>2018-02-20T11:38:14Z</time>
      </trkpt>
      <trkpt lat="45.94338" lon="4.7474">
        <ele>171</ele>
        <time>2018-02-20T11:38:15Z</time>
      </trkpt>
      <trkpt lat="45.94339" lon="4.74733">
        <ele>171</ele>
        <time>2018-02-20T11:38:16Z</time>
      </trkpt>
      <trkpt lat="45.9434" lon="4.74727">
        <ele>171</ele>
        <time>2018-02-20T11:38:17Z</time>
      </trkpt>
      <trkpt lat="45.9434" lon="4.7472">
        <ele>171</ele>
        <time>2018-02-20T11:38:18Z</time>
      </trkpt>
      <trkpt lat="45.94341" lon="4.74712">
        <ele>171</ele>
        <time>2018-02-20T11:38:19Z</time>
      </trkpt>
      <trkpt lat="45.94343" lon="4.74703">
        <ele>172</ele>
        <time>2018-02-20T11:38:20Z</time>
      </trkpt>
      <trkpt lat="45.94344" lon="4.74694">
        <ele>172</ele>
        <time>2018-02-20T11:38:21Z</time>
      </trkpt>
      <trkpt lat="45.94345" lon="4.74687">
        <ele>172</ele>
        <time>2018-02-20T11:38:22Z</time>
      </trkpt>
      <trkpt lat="45.94345" lon="4.74678">
        <ele>172</ele>
        <time>2018-02-20T11:38:23Z</time>
      </trkpt>
      <trkpt lat="45.94347" lon="4.74669">
        <ele>172</ele>
        <time>2018-02-20T11:38:24Z</time>
      </trkpt>
      <trkpt lat="45.94347" lon="4.74662">
        <ele>172</ele>
        <time>2018-02-20T11:38:25Z</time>
      </trkpt>
      <trkpt lat="45.94348" lon="4.74653">
        <ele>172</ele>
        <time>2018-02-20T11:38:26Z</time>
      </trkpt>
      <trkpt lat="45.94348" lon="4.74645">
        <ele>171</ele>
        <time>2018-02-20T11:38:27Z</time>
      </trkpt>
      <trkpt lat="45.94349" lon="4.74635">
        <ele>171</ele>
        <time>2018-02-20T11:38:28Z</time>
      </trkpt>
      <trkpt lat="45.9435" lon="4.74626">
        <ele>171</ele>
        <time>2018-02-20T11:38:29Z</time>
      </trkpt>
      <trkpt lat="45.94352" lon="4.74618">
        <ele>171</ele>
        <time>2018-02-20T11:38:30Z</time>
      </trkpt>
      <trkpt lat="45.94351" lon="4.7461">
        <ele>171</ele>
        <time>2018-02-20T11:38:31Z</time>
      </trkpt>
      <trkpt lat="45.94352" lon="4.74604">
        <ele>171</ele>
        <time>2018-02-20T11:38:32Z</time>
      </trkpt>
      <trkpt lat="45.94353" lon="4.74597">
        <ele>171</ele>
        <time>2018-02-20T11:38:33Z</time>
      </trkpt>
      <trkpt lat="45.94352" lon="4.74589">
        <ele>171</ele>
        <time>2018-02-20T11:38:34Z</time>
      </trkpt>
      <trkpt lat="45.94353" lon="4.74582">
        <ele>171</ele>
        <time>2018-02-20T11:38:35Z</time>
      </trkpt>
      <trkpt lat="45.94355" lon="4.74574">
        <ele>171</ele>
        <time>2018-02-20T11:38:36Z</time>
      </trkpt>
      <trkpt lat="45.94355" lon="4.74567">
        <ele>171</ele>
        <time>2018-02-20T11:38:37Z</time>
      </trkpt>
      <trkpt lat="45.94357" lon="4.7456">
        <ele>171</ele>
        <time>2018-02-20T11:38:38Z</time>
      </trkpt>
      <trkpt lat="45.94358" lon="4.74552">
        <ele>171</ele>
        <time>2018-02-20T11:38:39Z</time>
      </trkpt>
      <trkpt lat="45.94358" lon="4.74545">
        <ele>171</ele>
        <time>2018-02-20T11:38:40Z</time>
      </trkpt>
      <trkpt lat="45.94359" lon="4.74536">
        <ele>171</ele>
        <time>2018-02-20T11:38:41Z</time>
      </trkpt>
      <trkpt lat="45.9436" lon="4.74528">
        <ele>171</ele>
        <time>2018-02-20T11:38:42Z</time>
      </trkpt>
      <trkpt lat="45.94361" lon="4.7452">
        <ele>171</ele>
        <time>2018-02-20T11:38:43Z</time>
      </trkpt>
      <trkpt lat="45.94361" lon="4.74511">
        <ele>171</ele>
        <time>2018-02-20T11:38:44Z</time>
      </trkpt>
      <trkpt lat="45.94362" lon="4.74502">
        <ele>171</ele>
        <time>2018-02-20T11:38:45Z</time>
      </trkpt>
      <trkpt lat="45.94363" lon="4.74495">
        <ele>170</ele>
        <time>2018-02-20T11:38:46Z</time>
      </trkpt>
      <trkpt lat="45.94364" lon="4.74488">
        <ele>170</ele>
        <time>2018-02-20T11:38:47Z</time>
      </trkpt>
      <trkpt lat="45.94365" lon="4.74479">
        <ele>171</ele>
        <time>2018-02-20T11:38:48Z</time>
      </trkpt>
      <trkpt lat="45.94366" lon="4.74471">
        <ele>171</ele>
        <time>2018-02-20T11:38:49Z</time>
      </trkpt>
      <trkpt lat="45.94367" lon="4.74463">
        <ele>171</ele>
        <time>2018-02-20T11:38:50Z</time>
      </trkpt>
      <trkpt lat="45.94368" lon="4.74457">
        <ele>171</ele>
        <time>2018-02-20T11:38:51Z</time>
      </trkpt>
      <trkpt lat="45.94369" lon="4.74448">
        <ele>171</ele>
        <time>2018-02-20T11:38:52Z</time>
      </trkpt>
      <trkpt lat="45.94369" lon="4.74439">
        <ele>171</ele>
        <time>2018-02-20T11:38:53Z</time>
      </trkpt>
      <trkpt lat="45.94369" lon="4.74431">
        <ele>171</ele>
        <time>2018-02-20T11:38:54Z</time>
      </trkpt>
      <trkpt lat="45.9437" lon="4.74423">
        <ele>171</ele>
        <time>2018-02-20T11:38:55Z</time>
      </trkpt>
      <trkpt lat="45.94371" lon="4.74415">
        <ele>170</ele>
        <time>2018-02-20T11:38:56Z</time>
      </trkpt>
      <trkpt lat="45.94371" lon="4.74406">
        <ele>170</ele>
        <time>2018-02-20T11:38:57Z</time>
      </trkpt>
      <trkpt lat="45.94372" lon="4.74397">
        <ele>170</ele>
        <time>2018-02-20T11:38:58Z</time>
      </trkpt>
      <trkpt lat="45.94373" lon="4.74388">
        <ele>170</ele>
        <time>2018-02-20T11:38:59Z</time>
      </trkpt>
      <trkpt lat="45.94374" lon="4.74379">
        <ele>170</ele>
        <time>2018-02-20T11:39:00Z</time>
      </trkpt>
      <trkpt lat="45.94375" lon="4.7437">
        <ele>170</ele>
        <time>2018-02-20T11:39:01Z</time>
      </trkpt>
      <trkpt lat="45.94376" lon="4.74363">
        <ele>171</ele>
        <time>2018-02-20T11:39:02Z</time>
      </trkpt>
      <trkpt lat="45.94376" lon="4.74355">
        <ele>171</ele>
        <time>2018-02-20T11:39:03Z</time>
      </trkpt>
      <trkpt lat="45.94378" lon="4.74348">
        <ele>171</ele>
        <time>2018-02-20T11:39:04Z</time>
      </trkpt>
      <trkpt lat="45.94379" lon="4.74339">
        <ele>171</ele>
        <time>2018-02-20T11:39:05Z</time>
      </trkpt>
      <trkpt lat="45.94379" lon="4.7433">
        <ele>170</ele>
        <time>2018-02-20T11:39:06Z</time>
      </trkpt>
      <trkpt lat="45.94381" lon="4.74323">
        <ele>170</ele>
        <time>2018-02-20T11:39:07Z</time>
      </trkpt>
      <trkpt lat="45.94382" lon="4.74315">
        <ele>170</ele>
        <time>2018-02-20T11:39:08Z</time>
      </trkpt>
      <trkpt lat="45.94383" lon="4.74307">
        <ele>170</ele>
        <time>2018-02-20T11:39:09Z</time>
      </trkpt>
      <trkpt lat="45.94384" lon="4.74298">
        <ele>170</ele>
        <time>2018-02-20T11:39:10Z</time>
      </trkpt>
      <trkpt lat="45.94385" lon="4.74289">
        <ele>170</ele>
        <time>2018-02-20T11:39:11Z</time>
      </trkpt>
      <trkpt lat="45.94386" lon="4.74281">
        <ele>170</ele>
        <time>2018-02-20T11:39:12Z</time>
      </trkpt>
      <trkpt lat="45.94388" lon="4.74273">
        <ele>170</ele>
        <time>2018-02-20T11:39:13Z</time>
      </trkpt>
      <trkpt lat="45.9439" lon="4.74265">
        <ele>170</ele>
        <time>2018-02-20T11:39:14Z</time>
      </trkpt>
      <trkpt lat="45.94392" lon="4.7426">
        <ele>170</ele>
        <time>2018-02-20T11:39:15Z</time>
      </trkpt>
      <trkpt lat="45.94394" lon="4.74253">
        <ele>170</ele>
        <time>2018-02-20T11:39:16Z</time>
      </trkpt>
      <trkpt lat="45.94396" lon="4.74246">
        <ele>171</ele>
        <time>2018-02-20T11:39:17Z</time>
      </trkpt>
      <trkpt lat="45.94397" lon="4.74238">
        <ele>171</ele>
        <time>2018-02-20T11:39:18Z</time>
      </trkpt>
      <trkpt lat="45.94398" lon="4.7423">
        <ele>171</ele>
        <time>2018-02-20T11:39:19Z</time>
      </trkpt>
      <trkpt lat="45.944" lon="4.74226">
        <ele>171</ele>
        <time>2018-02-20T11:39:20Z</time>
      </trkpt>
      <trkpt lat="45.94401" lon="4.74216">
        <ele>171</ele>
        <time>2018-02-20T11:39:21Z</time>
      </trkpt>
      <trkpt lat="45.94402" lon="4.74209">
        <ele>171</ele>
        <time>2018-02-20T11:39:22Z</time>
      </trkpt>
      <trkpt lat="45.94403" lon="4.74199">
        <ele>171</ele>
        <time>2018-02-20T11:39:23Z</time>
      </trkpt>
      <trkpt lat="45.94404" lon="4.74192">
        <ele>172</ele>
        <time>2018-02-20T11:39:24Z</time>
      </trkpt>
      <trkpt lat="45.94403" lon="4.74185">
        <ele>172</ele>
        <time>2018-02-20T11:39:25Z</time>
      </trkpt>
      <trkpt lat="45.94404" lon="4.74177">
        <ele>172</ele>
        <time>2018-02-20T11:39:26Z</time>
      </trkpt>
      <trkpt lat="45.94404" lon="4.7417">
        <ele>173</ele>
        <time>2018-02-20T11:39:27Z</time>
      </trkpt>
      <trkpt lat="45.94405" lon="4.74163">
        <ele>174</ele>
        <time>2018-02-20T11:39:28Z</time>
      </trkpt>
      <trkpt lat="45.94406" lon="4.7415">
        <ele>174</ele>
        <time>2018-02-20T11:39:30Z</time>
      </trkpt>
      <trkpt lat="45.94407" lon="4.74144">
        <ele>174</ele>
        <time>2018-02-20T11:39:31Z</time>
      </trkpt>
      <trkpt lat="45.94408" lon="4.74137">
        <ele>174</ele>
        <time>2018-02-20T11:39:32Z</time>
      </trkpt>
      <trkpt lat="45.94408" lon="4.74131">
        <ele>174</ele>
        <time>2018-02-20T11:39:33Z</time>
      </trkpt>
      <trkpt lat="45.9441" lon="4.74122">
        <ele>174</ele>
        <time>2018-02-20T11:39:35Z</time>
      </trkpt>
      <trkpt lat="45.94411" lon="4.74117">
        <ele>174</ele>
        <time>2018-02-20T11:39:36Z</time>
      </trkpt>
      <trkpt lat="45.94412" lon="4.74106">
        <ele>175</ele>
        <time>2018-02-20T11:39:38Z</time>
      </trkpt>
      <trkpt lat="45.94413" lon="4.74103">
        <ele>175</ele>
        <time>2018-02-20T11:39:39Z</time>
      </trkpt>
      <trkpt lat="45.94415" lon="4.74093">
        <ele>176</ele>
        <time>2018-02-20T11:39:41Z</time>
      </trkpt>
      <trkpt lat="45.94415" lon="4.74088">
        <ele>176</ele>
        <time>2018-02-20T11:39:42Z</time>
      </trkpt>
      <trkpt lat="45.94417" lon="4.74078">
        <ele>177</ele>
        <time>2018-02-20T11:39:44Z</time>
      </trkpt>
      <trkpt lat="45.94418" lon="4.74073">
        <ele>178</ele>
        <time>2018-02-20T11:39:45Z</time>
      </trkpt>
      <trkpt lat="45.94419" lon="4.74062">
        <ele>178</ele>
        <time>2018-02-20T11:39:47Z</time>
      </trkpt>
      <trkpt lat="45.9442" lon="4.74057">
        <ele>178</ele>
        <time>2018-02-20T11:39:48Z</time>
      </trkpt>
      <trkpt lat="45.94423" lon="4.74047">
        <ele>179</ele>
        <time>2018-02-20T11:39:50Z</time>
      </trkpt>
      <trkpt lat="45.94424" lon="4.74042">
        <ele>179</ele>
        <time>2018-02-20T11:39:51Z</time>
      </trkpt>
      <trkpt lat="45.94426" lon="4.74031">
        <ele>179</ele>
        <time>2018-02-20T11:39:53Z</time>
      </trkpt>
      <trkpt lat="45.94427" lon="4.74026">
        <ele>179</ele>
        <time>2018-02-20T11:39:54Z</time>
      </trkpt>
      <trkpt lat="45.9443" lon="4.74016">
        <ele>179</ele>
        <time>2018-02-20T11:39:56Z</time>
      </trkpt>
      <trkpt lat="45.9443" lon="4.74012">
        <ele>179</ele>
        <time>2018-02-20T11:39:57Z</time>
      </trkpt>
      <trkpt lat="45.94432" lon="4.74002">
        <ele>179</ele>
        <time>2018-02-20T11:39:59Z</time>
      </trkpt>
      <trkpt lat="45.94434" lon="4.73997">
        <ele>180</ele>
        <time>2018-02-20T11:40:00Z</time>
      </trkpt>
      <trkpt lat="45.94435" lon="4.73988">
        <ele>180</ele>
        <time>2018-02-20T11:40:02Z</time>
      </trkpt>
      <trkpt lat="45.94436" lon="4.73983">
        <ele>180</ele>
        <time>2018-02-20T11:40:03Z</time>
      </trkpt>
      <trkpt lat="45.94437" lon="4.73972">
        <ele>180</ele>
        <time>2018-02-20T11:40:05Z</time>
      </trkpt>
      <trkpt lat="45.94438" lon="4.73967">
        <ele>180</ele>
        <time>2018-02-20T11:40:06Z</time>
      </trkpt>
      <trkpt lat="45.9444" lon="4.73957">
        <ele>181</ele>
        <time>2018-02-20T11:40:08Z</time>
      </trkpt>
      <trkpt lat="45.94441" lon="4.73952">
        <ele>181</ele>
        <time>2018-02-20T11:40:09Z</time>
      </trkpt>
      <trkpt lat="45.94443" lon="4.73941">
        <ele>181</ele>
        <time>2018-02-20T11:40:11Z</time>
      </trkpt>
      <trkpt lat="45.94444" lon="4.73936">
        <ele>181</ele>
        <time>2018-02-20T11:40:12Z</time>
      </trkpt>
      <trkpt lat="45.94446" lon="4.73926">
        <ele>181</ele>
        <time>2018-02-20T11:40:14Z</time>
      </trkpt>
      <trkpt lat="45.94447" lon="4.73921">
        <ele>181</ele>
        <time>2018-02-20T11:40:15Z</time>
      </trkpt>
      <trkpt lat="45.94449" lon="4.73911">
        <ele>183</ele>
        <time>2018-02-20T11:40:17Z</time>
      </trkpt>
      <trkpt lat="45.94449" lon="4.73907">
        <ele>183</ele>
        <time>2018-02-20T11:40:18Z</time>
      </trkpt>
      <trkpt lat="45.94451" lon="4.73898">
        <ele>183</ele>
        <time>2018-02-20T11:40:20Z</time>
      </trkpt>
      <trkpt lat="45.94452" lon="4.73893">
        <ele>183</ele>
        <time>2018-02-20T11:40:21Z</time>
      </trkpt>
      <trkpt lat="45.94454" lon="4.73884">
        <ele>183</ele>
        <time>2018-02-20T11:40:23Z</time>
      </trkpt>
      <trkpt lat="45.94455" lon="4.73879">
        <ele>183</ele>
        <time>2018-02-20T11:40:24Z</time>
      </trkpt>
      <trkpt lat="45.94456" lon="4.7387">
        <ele>184</ele>
        <time>2018-02-20T11:40:26Z</time>
      </trkpt>
      <trkpt lat="45.94457" lon="4.73865">
        <ele>184</ele>
        <time>2018-02-20T11:40:27Z</time>
      </trkpt>
      <trkpt lat="45.94459" lon="4.73856">
        <ele>184</ele>
        <time>2018-02-20T11:40:29Z</time>
      </trkpt>
      <trkpt lat="45.9446" lon="4.73851">
        <ele>184</ele>
        <time>2018-02-20T11:40:30Z</time>
      </trkpt>
      <trkpt lat="45.94462" lon="4.73841">
        <ele>184</ele>
        <time>2018-02-20T11:40:32Z</time>
      </trkpt>
      <trkpt lat="45.94463" lon="4.73836">
        <ele>184</ele>
        <time>2018-02-20T11:40:33Z</time>
      </trkpt>
      <trkpt lat="45.94465" lon="4.73826">
        <ele>185</ele>
        <time>2018-02-20T11:40:35Z</time>
      </trkpt>
      <trkpt lat="45.94466" lon="4.73821">
        <ele>185</ele>
        <time>2018-02-20T11:40:36Z</time>
      </trkpt>
      <trkpt lat="45.94468" lon="4.73812">
        <ele>185</ele>
        <time>2018-02-20T11:40:38Z</time>
      </trkpt>
      <trkpt lat="45.94469" lon="4.73807">
        <ele>185</ele>
        <time>2018-02-20T11:40:39Z</time>
      </trkpt>
      <trkpt lat="45.9447" lon="4.73795">
        <ele>185</ele>
        <time>2018-02-20T11:40:42Z</time>
      </trkpt>
      <trkpt lat="45.9447" lon="4.73792">
        <ele>185</ele>
        <time>2018-02-20T11:40:43Z</time>
      </trkpt>
      <trkpt lat="45.94468" lon="4.7378">
        <ele>186</ele>
        <time>2018-02-20T11:40:47Z</time>
      </trkpt>
      <trkpt lat="45.94469" lon="4.73777">
        <ele>186</ele>
        <time>2018-02-20T11:40:48Z</time>
      </trkpt>
      <trkpt lat="45.94475" lon="4.73773">
        <ele>186</ele>
        <time>2018-02-20T11:40:50Z</time>
      </trkpt>
      <trkpt lat="45.94479" lon="4.73771">
        <ele>186</ele>
        <time>2018-02-20T11:40:51Z</time>
      </trkpt>
      <trkpt lat="45.94482" lon="4.73769">
        <ele>186</ele>
        <time>2018-02-20T11:40:52Z</time>
      </trkpt>
      <trkpt lat="45.94485" lon="4.73761">
        <ele>186</ele>
        <time>2018-02-20T11:40:53Z</time>
      </trkpt>
      <trkpt lat="45.94485" lon="4.73756">
        <ele>186</ele>
        <time>2018-02-20T11:40:54Z</time>
      </trkpt>
      <trkpt lat="45.94486" lon="4.73748">
        <ele>186</ele>
        <time>2018-02-20T11:40:55Z</time>
      </trkpt>
      <trkpt lat="45.94485" lon="4.7374">
        <ele>186</ele>
        <time>2018-02-20T11:40:56Z</time>
      </trkpt>
      <trkpt lat="45.94486" lon="4.73732">
        <ele>186</ele>
        <time>2018-02-20T11:40:57Z</time>
      </trkpt>
      <trkpt lat="45.94487" lon="4.73724">
        <ele>186</ele>
        <time>2018-02-20T11:40:58Z</time>
      </trkpt>
      <trkpt lat="45.94488" lon="4.73717">
        <ele>186</ele>
        <time>2018-02-20T11:40:59Z</time>
      </trkpt>
      <trkpt lat="45.94489" lon="4.73708">
        <ele>186</ele>
        <time>2018-02-20T11:41:00Z</time>
      </trkpt>
      <trkpt lat="45.94489" lon="4.737">
        <ele>186</ele>
        <time>2018-02-20T11:41:01Z</time>
      </trkpt>
      <trkpt lat="45.94492" lon="4.73693">
        <ele>186</ele>
        <time>2018-02-20T11:41:02Z</time>
      </trkpt>
      <trkpt lat="45.94493" lon="4.73685">
        <ele>186</ele>
        <time>2018-02-20T11:41:03Z</time>
      </trkpt>
      <trkpt lat="45.94494" lon="4.73679">
        <ele>185</ele>
        <time>2018-02-20T11:41:04Z</time>
      </trkpt>
      <trkpt lat="45.94496" lon="4.7367">
        <ele>185</ele>
        <time>2018-02-20T11:41:05Z</time>
      </trkpt>
      <trkpt lat="45.94495" lon="4.73662">
        <ele>185</ele>
        <time>2018-02-20T11:41:06Z</time>
      </trkpt>
      <trkpt lat="45.94495" lon="4.73655">
        <ele>185</ele>
        <time>2018-02-20T11:41:07Z</time>
      </trkpt>
      <trkpt lat="45.94495" lon="4.73647">
        <ele>186</ele>
        <time>2018-02-20T11:41:08Z</time>
      </trkpt>
      <trkpt lat="45.94497" lon="4.73639">
        <ele>186</ele>
        <time>2018-02-20T11:41:09Z</time>
      </trkpt>
      <trkpt lat="45.94498" lon="4.73631">
        <ele>186</ele>
        <time>2018-02-20T11:41:10Z</time>
      </trkpt>
      <trkpt lat="45.94499" lon="4.73625">
        <ele>186</ele>
        <time>2018-02-20T11:41:11Z</time>
      </trkpt>
      <trkpt lat="45.945" lon="4.73617">
        <ele>186</ele>
        <time>2018-02-20T11:41:12Z</time>
      </trkpt>
      <trkpt lat="45.94501" lon="4.73609">
        <ele>184</ele>
        <time>2018-02-20T11:41:13Z</time>
      </trkpt>
      <trkpt lat="45.94502" lon="4.736">
        <ele>184</ele>
        <time>2018-02-20T11:41:14Z</time>
      </trkpt>
      <trkpt lat="45.94502" lon="4.73591">
        <ele>185</ele>
        <time>2018-02-20T11:41:15Z</time>
      </trkpt>
      <trkpt lat="45.94504" lon="4.73583">
        <ele>185</ele>
        <time>2018-02-20T11:41:16Z</time>
      </trkpt>
      <trkpt lat="45.94504" lon="4.73574">
        <ele>184</ele>
        <time>2018-02-20T11:41:17Z</time>
      </trkpt>
      <trkpt lat="45.94504" lon="4.73566">
        <ele>184</ele>
        <time>2018-02-20T11:41:18Z</time>
      </trkpt>
      <trkpt lat="45.94504" lon="4.73557">
        <ele>184</ele>
        <time>2018-02-20T11:41:19Z</time>
      </trkpt>
      <trkpt lat="45.94504" lon="4.73547">
        <ele>183</ele>
        <time>2018-02-20T11:41:20Z</time>
      </trkpt>
      <trkpt lat="45.94505" lon="4.73539">
        <ele>183</ele>
        <time>2018-02-20T11:41:21Z</time>
      </trkpt>
      <trkpt lat="45.94505" lon="4.7353">
        <ele>183</ele>
        <time>2018-02-20T11:41:22Z</time>
      </trkpt>
      <trkpt lat="45.94505" lon="4.73522">
        <ele>183</ele>
        <time>2018-02-20T11:41:23Z</time>
      </trkpt>
      <trkpt lat="45.94506" lon="4.73512">
        <ele>183</ele>
        <time>2018-02-20T11:41:24Z</time>
      </trkpt>
      <trkpt lat="45.94505" lon="4.73501">
        <ele>183</ele>
        <time>2018-02-20T11:41:25Z</time>
      </trkpt>
      <trkpt lat="45.94504" lon="4.73492">
        <ele>182</ele>
        <time>2018-02-20T11:41:26Z</time>
      </trkpt>
      <trkpt lat="45.94503" lon="4.73481">
        <ele>182</ele>
        <time>2018-02-20T11:41:27Z</time>
      </trkpt>
      <trkpt lat="45.94503" lon="4.73472">
        <ele>182</ele>
        <time>2018-02-20T11:41:28Z</time>
      </trkpt>
      <trkpt lat="45.94503" lon="4.73464">
        <ele>181</ele>
        <time>2018-02-20T11:41:29Z</time>
      </trkpt>
      <trkpt lat="45.94503" lon="4.73454">
        <ele>181</ele>
        <time>2018-02-20T11:41:30Z</time>
      </trkpt>
      <trkpt lat="45.94503" lon="4.73442">
        <ele>181</ele>
        <time>2018-02-20T11:41:31Z</time>
      </trkpt>
      <trkpt lat="45.94503" lon="4.73433">
        <ele>181</ele>
        <time>2018-02-20T11:41:32Z</time>
      </trkpt>
      <trkpt lat="45.94502" lon="4.73423">
        <ele>180</ele>
        <time>2018-02-20T11:41:33Z</time>
      </trkpt>
      <trkpt lat="45.94502" lon="4.73413">
        <ele>180</ele>
        <time>2018-02-20T11:41:34Z</time>
      </trkpt>
      <trkpt lat="45.94501" lon="4.73403">
        <ele>179</ele>
        <time>2018-02-20T11:41:35Z</time>
      </trkpt>
      <trkpt lat="45.94501" lon="4.73392">
        <ele>179</ele>
        <time>2018-02-20T11:41:36Z</time>
      </trkpt>
      <trkpt lat="45.94499" lon="4.73382">
        <ele>179</ele>
        <time>2018-02-20T11:41:37Z</time>
      </trkpt>
      <trkpt lat="45.94498" lon="4.73371">
        <ele>179</ele>
        <time>2018-02-20T11:41:38Z</time>
      </trkpt>
      <trkpt lat="45.94498" lon="4.73361">
        <ele>179</ele>
        <time>2018-02-20T11:41:39Z</time>
      </trkpt>
      <trkpt lat="45.94498" lon="4.7335">
        <ele>178</ele>
        <time>2018-02-20T11:41:40Z</time>
      </trkpt>
      <trkpt lat="45.94496" lon="4.73339">
        <ele>178</ele>
        <time>2018-02-20T11:41:41Z</time>
      </trkpt>
      <trkpt lat="45.94494" lon="4.73328">
        <ele>177</ele>
        <time>2018-02-20T11:41:42Z</time>
      </trkpt>
      <trkpt lat="45.94493" lon="4.73318">
        <ele>177</ele>
        <time>2018-02-20T11:41:43Z</time>
      </trkpt>
      <trkpt lat="45.94492" lon="4.73306">
        <ele>177</ele>
        <time>2018-02-20T11:41:44Z</time>
      </trkpt>
      <trkpt lat="45.9449" lon="4.73295">
        <ele>177</ele>
        <time>2018-02-20T11:41:45Z</time>
      </trkpt>
      <trkpt lat="45.94489" lon="4.73285">
        <ele>177</ele>
        <time>2018-02-20T11:41:46Z</time>
      </trkpt>
      <trkpt lat="45.94487" lon="4.73276">
        <ele>177</ele>
        <time>2018-02-20T11:41:47Z</time>
      </trkpt>
      <trkpt lat="45.94486" lon="4.73267">
        <ele>177</ele>
        <time>2018-02-20T11:41:48Z</time>
      </trkpt>
      <trkpt lat="45.94485" lon="4.73256">
        <ele>176</ele>
        <time>2018-02-20T11:41:49Z</time>
      </trkpt>
      <trkpt lat="45.94484" lon="4.73246">
        <ele>175</ele>
        <time>2018-02-20T11:41:50Z</time>
      </trkpt>
      <trkpt lat="45.94483" lon="4.73236">
        <ele>175</ele>
        <time>2018-02-20T11:41:51Z</time>
      </trkpt>
      <trkpt lat="45.94481" lon="4.73228">
        <ele>175</ele>
        <time>2018-02-20T11:41:52Z</time>
      </trkpt>
      <trkpt lat="45.9448" lon="4.73221">
        <ele>175</ele>
        <time>2018-02-20T11:41:53Z</time>
      </trkpt>
      <trkpt lat="45.9448" lon="4.73212">
        <ele>175</ele>
        <time>2018-02-20T11:41:54Z</time>
      </trkpt>
      <trkpt lat="45.94479" lon="4.73205">
        <ele>175</ele>
        <time>2018-02-20T11:41:55Z</time>
      </trkpt>
      <trkpt lat="45.9448" lon="4.73197">
        <ele>174</ele>
        <time>2018-02-20T11:41:56Z</time>
      </trkpt>
      <trkpt lat="45.94478" lon="4.7319">
        <ele>174</ele>
        <time>2018-02-20T11:41:57Z</time>
      </trkpt>
      <trkpt lat="45.94477" lon="4.73181">
        <ele>174</ele>
        <time>2018-02-20T11:41:59Z</time>
      </trkpt>
      <trkpt lat="45.94476" lon="4.73176">
        <ele>174</ele>
        <time>2018-02-20T11:42:00Z</time>
      </trkpt>
      <trkpt lat="45.94475" lon="4.73164">
        <ele>173</ele>
        <time>2018-02-20T11:42:03Z</time>
      </trkpt>
      <trkpt lat="45.94475" lon="4.73162">
        <ele>173</ele>
        <time>2018-02-20T11:42:04Z</time>
      </trkpt>
      <trkpt lat="45.94473" lon="4.73151">
        <ele>172</ele>
        <time>2018-02-20T11:42:11Z</time>
      </trkpt>
      <trkpt lat="45.94472" lon="4.73149">
        <ele>172</ele>
        <time>2018-02-20T11:42:12Z</time>
      </trkpt>
      <trkpt lat="45.94469" lon="4.73139">
        <ele>172</ele>
        <time>2018-02-20T11:42:17Z</time>
      </trkpt>
      <trkpt lat="45.94469" lon="4.73136">
        <ele>172</ele>
        <time>2018-02-20T11:42:18Z</time>
      </trkpt>
      <trkpt lat="45.94467" lon="4.73124">
        <ele>172</ele>
        <time>2018-02-20T11:42:24Z</time>
      </trkpt>
      <trkpt lat="45.94466" lon="4.73122">
        <ele>172</ele>
        <time>2018-02-20T11:42:25Z</time>
      </trkpt>
      <trkpt lat="45.94463" lon="4.73111">
        <ele>172</ele>
        <time>2018-02-20T11:42:29Z</time>
      </trkpt>
      <trkpt lat="45.94462" lon="4.73107">
        <ele>172</ele>
        <time>2018-02-20T11:42:30Z</time>
      </trkpt>
      <trkpt lat="45.94461" lon="4.73097">
        <ele>171</ele>
        <time>2018-02-20T11:42:33Z</time>
      </trkpt>
      <trkpt lat="45.94462" lon="4.73092">
        <ele>171</ele>
        <time>2018-02-20T11:42:34Z</time>
      </trkpt>
      <trkpt lat="45.94461" lon="4.73082">
        <ele>170</ele>
        <time>2018-02-20T11:42:36Z</time>
      </trkpt>
      <trkpt lat="45.9446" lon="4.73077">
        <ele>170</ele>
        <time>2018-02-20T11:42:37Z</time>
      </trkpt>
      <trkpt lat="45.94458" lon="4.73066">
        <ele>170</ele>
        <time>2018-02-20T11:42:39Z</time>
      </trkpt>
      <trkpt lat="45.94457" lon="4.7306">
        <ele>170</ele>
        <time>2018-02-20T11:42:40Z</time>
      </trkpt>
      <trkpt lat="45.94455" lon="4.73048">
        <ele>169</ele>
        <time>2018-02-20T11:42:42Z</time>
      </trkpt>
      <trkpt lat="45.94454" lon="4.73042">
        <ele>169</ele>
        <time>2018-02-20T11:42:43Z</time>
      </trkpt>
      <trkpt lat="45.94452" lon="4.73029">
        <ele>169</ele>
        <time>2018-02-20T11:42:45Z</time>
      </trkpt>
      <trkpt lat="45.94451" lon="4.73023">
        <ele>169</ele>
        <time>2018-02-20T11:42:46Z</time>
      </trkpt>
      <trkpt lat="45.94451" lon="4.73011">
        <ele>169</ele>
        <time>2018-02-20T11:42:48Z</time>
      </trkpt>
      <trkpt lat="45.94451" lon="4.73002">
        <ele>169</ele>
        <time>2018-02-20T11:42:49Z</time>
      </trkpt>
      <trkpt lat="45.94449" lon="4.7299">
        <ele>167</ele>
        <time>2018-02-20T11:42:51Z</time>
      </trkpt>
      <trkpt lat="45.94448" lon="4.72984">
        <ele>167</ele>
        <time>2018-02-20T11:42:52Z</time>
      </trkpt>
      <trkpt lat="45.94446" lon="4.72972">
        <ele>167</ele>
        <time>2018-02-20T11:42:54Z</time>
      </trkpt>
      <trkpt lat="45.94445" lon="4.72965">
        <ele>167</ele>
        <time>2018-02-20T11:42:55Z</time>
      </trkpt>
      <trkpt lat="45.94445" lon="4.72958">
        <ele>167</ele>
        <time>2018-02-20T11:42:56Z</time>
      </trkpt>
      <trkpt lat="45.94443" lon="4.72951">
        <ele>167</ele>
        <time>2018-02-20T11:42:57Z</time>
      </trkpt>
      <trkpt lat="45.94442" lon="4.72945">
        <ele>167</ele>
        <time>2018-02-20T11:42:58Z</time>
      </trkpt>
      <trkpt lat="45.94441" lon="4.72939">
        <ele>167</ele>
        <time>2018-02-20T11:42:59Z</time>
      </trkpt>
      <trkpt lat="45.94438" lon="4.72927">
        <ele>167</ele>
        <time>2018-02-20T11:43:01Z</time>
      </trkpt>
      <trkpt lat="45.94437" lon="4.72921">
        <ele>167</ele>
        <time>2018-02-20T11:43:02Z</time>
      </trkpt>
      <trkpt lat="45.94436" lon="4.72908">
        <ele>166</ele>
        <time>2018-02-20T11:43:04Z</time>
      </trkpt>
      <trkpt lat="45.94435" lon="4.72901">
        <ele>166</ele>
        <time>2018-02-20T11:43:05Z</time>
      </trkpt>
      <trkpt lat="45.94434" lon="4.72894">
        <ele>166</ele>
        <time>2018-02-20T11:43:06Z</time>
      </trkpt>
      <trkpt lat="45.94433" lon="4.72886">
        <ele>166</ele>
        <time>2018-02-20T11:43:07Z</time>
      </trkpt>
      <trkpt lat="45.94432" lon="4.72878">
        <ele>166</ele>
        <time>2018-02-20T11:43:08Z</time>
      </trkpt>
      <trkpt lat="45.94431" lon="4.72869">
        <ele>166</ele>
        <time>2018-02-20T11:43:09Z</time>
      </trkpt>
      <trkpt lat="45.94431" lon="4.72861">
        <ele>166</ele>
        <time>2018-02-20T11:43:10Z</time>
      </trkpt>
      <trkpt lat="45.94431" lon="4.72852">
        <ele>166</ele>
        <time>2018-02-20T11:43:11Z</time>
      </trkpt>
      <trkpt lat="45.9443" lon="4.72842">
        <ele>166</ele>
        <time>2018-02-20T11:43:12Z</time>
      </trkpt>
      <trkpt lat="45.94429" lon="4.72834">
        <ele>166</ele>
        <time>2018-02-20T11:43:13Z</time>
      </trkpt>
      <trkpt lat="45.94428" lon="4.72825">
        <ele>167</ele>
        <time>2018-02-20T11:43:14Z</time>
      </trkpt>
      <trkpt lat="45.94427" lon="4.72815">
        <ele>167</ele>
        <time>2018-02-20T11:43:15Z</time>
      </trkpt>
      <trkpt lat="45.94426" lon="4.72805">
        <ele>167</ele>
        <time>2018-02-20T11:43:16Z</time>
      </trkpt>
      <trkpt lat="45.94425" lon="4.72796">
        <ele>168</ele>
        <time>2018-02-20T11:43:17Z</time>
      </trkpt>
      <trkpt lat="45.94423" lon="4.72785">
        <ele>168</ele>
        <time>2018-02-20T11:43:18Z</time>
      </trkpt>
      <trkpt lat="45.94422" lon="4.72775">
        <ele>168</ele>
        <time>2018-02-20T11:43:19Z</time>
      </trkpt>
      <trkpt lat="45.9442" lon="4.72765">
        <ele>169</ele>
        <time>2018-02-20T11:43:20Z</time>
      </trkpt>
      <trkpt lat="45.94419" lon="4.72755">
        <ele>170</ele>
        <time>2018-02-20T11:43:21Z</time>
      </trkpt>
      <trkpt lat="45.94418" lon="4.72744">
        <ele>171</ele>
        <time>2018-02-20T11:43:22Z</time>
      </trkpt>
      <trkpt lat="45.94417" lon="4.72735">
        <ele>171</ele>
        <time>2018-02-20T11:43:23Z</time>
      </trkpt>
      <trkpt lat="45.94416" lon="4.72725">
        <ele>172</ele>
        <time>2018-02-20T11:43:24Z</time>
      </trkpt>
      <trkpt lat="45.94416" lon="4.72715">
        <ele>172</ele>
        <time>2018-02-20T11:43:25Z</time>
      </trkpt>
      <trkpt lat="45.94415" lon="4.72705">
        <ele>172</ele>
        <time>2018-02-20T11:43:26Z</time>
      </trkpt>
      <trkpt lat="45.94414" lon="4.72696">
        <ele>173</ele>
        <time>2018-02-20T11:43:27Z</time>
      </trkpt>
      <trkpt lat="45.94413" lon="4.72686">
        <ele>173</ele>
        <time>2018-02-20T11:43:28Z</time>
      </trkpt>
      <trkpt lat="45.94413" lon="4.72677">
        <ele>173</ele>
        <time>2018-02-20T11:43:29Z</time>
      </trkpt>
      <trkpt lat="45.94412" lon="4.72667">
        <ele>174</ele>
        <time>2018-02-20T11:43:30Z</time>
      </trkpt>
      <trkpt lat="45.9441" lon="4.72658">
        <ele>174</ele>
        <time>2018-02-20T11:43:31Z</time>
      </trkpt>
      <trkpt lat="45.94409" lon="4.72648">
        <ele>174</ele>
        <time>2018-02-20T11:43:32Z</time>
      </trkpt>
      <trkpt lat="45.94407" lon="4.72639">
        <ele>174</ele>
        <time>2018-02-20T11:43:33Z</time>
      </trkpt>
      <trkpt lat="45.94406" lon="4.7263">
        <ele>174</ele>
        <time>2018-02-20T11:43:34Z</time>
      </trkpt>
      <trkpt lat="45.94404" lon="4.72621">
        <ele>173</ele>
        <time>2018-02-20T11:43:35Z</time>
      </trkpt>
      <trkpt lat="45.94404" lon="4.72611">
        <ele>173</ele>
        <time>2018-02-20T11:43:36Z</time>
      </trkpt>
      <trkpt lat="45.94402" lon="4.72603">
        <ele>173</ele>
        <time>2018-02-20T11:43:37Z</time>
      </trkpt>
      <trkpt lat="45.94402" lon="4.72595">
        <ele>173</ele>
        <time>2018-02-20T11:43:38Z</time>
      </trkpt>
      <trkpt lat="45.944" lon="4.72586">
        <ele>173</ele>
        <time>2018-02-20T11:43:39Z</time>
      </trkpt>
      <trkpt lat="45.94399" lon="4.72577">
        <ele>173</ele>
        <time>2018-02-20T11:43:40Z</time>
      </trkpt>
      <trkpt lat="45.94397" lon="4.72568">
        <ele>173</ele>
        <time>2018-02-20T11:43:41Z</time>
      </trkpt>
      <trkpt lat="45.94396" lon="4.72559">
        <ele>173</ele>
        <time>2018-02-20T11:43:42Z</time>
      </trkpt>
      <trkpt lat="45.94394" lon="4.7255">
        <ele>173</ele>
        <time>2018-02-20T11:43:43Z</time>
      </trkpt>
      <trkpt lat="45.94391" lon="4.72541">
        <ele>174</ele>
        <time>2018-02-20T11:43:44Z</time>
      </trkpt>
      <trkpt lat="45.9439" lon="4.72533">
        <ele>174</ele>
        <time>2018-02-20T11:43:45Z</time>
      </trkpt>
      <trkpt lat="45.94387" lon="4.72524">
        <ele>174</ele>
        <time>2018-02-20T11:43:46Z</time>
      </trkpt>
      <trkpt lat="45.94385" lon="4.72516">
        <ele>174</ele>
        <time>2018-02-20T11:43:47Z</time>
      </trkpt>
      <trkpt lat="45.94383" lon="4.72507">
        <ele>174</ele>
        <time>2018-02-20T11:43:48Z</time>
      </trkpt>
      <trkpt lat="45.9438" lon="4.72499">
        <ele>173</ele>
        <time>2018-02-20T11:43:49Z</time>
      </trkpt>
      <trkpt lat="45.94377" lon="4.72492">
        <ele>173</ele>
        <time>2018-02-20T11:43:50Z</time>
      </trkpt>
      <trkpt lat="45.94373" lon="4.72484">
        <ele>173</ele>
        <time>2018-02-20T11:43:51Z</time>
      </trkpt>
      <trkpt lat="45.9437" lon="4.72476">
        <ele>173</ele>
        <time>2018-02-20T11:43:52Z</time>
      </trkpt>
      <trkpt lat="45.94368" lon="4.72468">
        <ele>173</ele>
        <time>2018-02-20T11:43:53Z</time>
      </trkpt>
      <trkpt lat="45.94365" lon="4.72461">
        <ele>173</ele>
        <time>2018-02-20T11:43:54Z</time>
      </trkpt>
      <trkpt lat="45.94362" lon="4.72454">
        <ele>173</ele>
        <time>2018-02-20T11:43:55Z</time>
      </trkpt>
      <trkpt lat="45.94359" lon="4.72446">
        <ele>173</ele>
        <time>2018-02-20T11:43:56Z</time>
      </trkpt>
      <trkpt lat="45.94355" lon="4.7244">
        <ele>173</ele>
        <time>2018-02-20T11:43:57Z</time>
      </trkpt>
      <trkpt lat="45.94352" lon="4.72432">
        <ele>173</ele>
        <time>2018-02-20T11:43:58Z</time>
      </trkpt>
      <trkpt lat="45.94349" lon="4.72424">
        <ele>173</ele>
        <time>2018-02-20T11:43:59Z</time>
      </trkpt>
      <trkpt lat="45.94347" lon="4.72417">
        <ele>173</ele>
        <time>2018-02-20T11:44:00Z</time>
      </trkpt>
      <trkpt lat="45.94344" lon="4.72409">
        <ele>173</ele>
        <time>2018-02-20T11:44:01Z</time>
      </trkpt>
      <trkpt lat="45.9434" lon="4.72401">
        <ele>173</ele>
        <time>2018-02-20T11:44:02Z</time>
      </trkpt>
      <trkpt lat="45.94338" lon="4.72394">
        <ele>172</ele>
        <time>2018-02-20T11:44:03Z</time>
      </trkpt>
      <trkpt lat="45.94334" lon="4.72386">
        <ele>172</ele>
        <time>2018-02-20T11:44:04Z</time>
      </trkpt>
      <trkpt lat="45.9433" lon="4.7238">
        <ele>172</ele>
        <time>2018-02-20T11:44:05Z</time>
      </trkpt>
      <trkpt lat="45.94327" lon="4.72373">
        <ele>172</ele>
        <time>2018-02-20T11:44:06Z</time>
      </trkpt>
      <trkpt lat="45.94323" lon="4.72366">
        <ele>172</ele>
        <time>2018-02-20T11:44:07Z</time>
      </trkpt>
      <trkpt lat="45.9432" lon="4.72359">
        <ele>172</ele>
        <time>2018-02-20T11:44:08Z</time>
      </trkpt>
      <trkpt lat="45.94313" lon="4.7235">
        <ele>172</ele>
        <time>2018-02-20T11:44:09Z</time>
      </trkpt>
      <trkpt lat="45.9431" lon="4.72341">
        <ele>172</ele>
        <time>2018-02-20T11:44:10Z</time>
      </trkpt>
      <trkpt lat="45.94307" lon="4.72334">
        <ele>172</ele>
        <time>2018-02-20T11:44:11Z</time>
      </trkpt>
      <trkpt lat="45.94302" lon="4.72326">
        <ele>171</ele>
        <time>2018-02-20T11:44:12Z</time>
      </trkpt>
      <trkpt lat="45.94297" lon="4.72317">
        <ele>171</ele>
        <time>2018-02-20T11:44:13Z</time>
      </trkpt>
      <trkpt lat="45.94294" lon="4.7231">
        <ele>171</ele>
        <time>2018-02-20T11:44:14Z</time>
      </trkpt>
      <trkpt lat="45.94287" lon="4.723">
        <ele>171</ele>
        <time>2018-02-20T11:44:15Z</time>
      </trkpt>
      <trkpt lat="45.94284" lon="4.72292">
        <ele>171</ele>
        <time>2018-02-20T11:44:16Z</time>
      </trkpt>
      <trkpt lat="45.9428" lon="4.72285">
        <ele>171</ele>
        <time>2018-02-20T11:44:17Z</time>
      </trkpt>
      <trkpt lat="45.94277" lon="4.72279">
        <ele>171</ele>
        <time>2018-02-20T11:44:18Z</time>
      </trkpt>
      <trkpt lat="45.94273" lon="4.72273">
        <ele>171</ele>
        <time>2018-02-20T11:44:19Z</time>
      </trkpt>
      <trkpt lat="45.94267" lon="4.72271">
        <ele>171</ele>
        <time>2018-02-20T11:44:20Z</time>
      </trkpt>
      <trkpt lat="45.94261" lon="4.7227">
        <ele>171</ele>
        <time>2018-02-20T11:44:21Z</time>
      </trkpt>
      <trkpt lat="45.94256" lon="4.7227">
        <ele>171</ele>
        <time>2018-02-20T11:44:22Z</time>
      </trkpt>
      <trkpt lat="45.9425" lon="4.72273">
        <ele>171</ele>
        <time>2018-02-20T11:44:23Z</time>
      </trkpt>
      <trkpt lat="45.94244" lon="4.72275">
        <ele>171</ele>
        <time>2018-02-20T11:44:24Z</time>
      </trkpt>
      <trkpt lat="45.9424" lon="4.72276">
        <ele>171</ele>
        <time>2018-02-20T11:44:25Z</time>
      </trkpt>
      <trkpt lat="45.94234" lon="4.72278">
        <ele>171</ele>
        <time>2018-02-20T11:44:26Z</time>
      </trkpt>
      <trkpt lat="45.94228" lon="4.7228">
        <ele>171</ele>
        <time>2018-02-20T11:44:27Z</time>
      </trkpt>
      <trkpt lat="45.94222" lon="4.72282">
        <ele>171</ele>
        <time>2018-02-20T11:44:28Z</time>
      </trkpt>
      <trkpt lat="45.94217" lon="4.72282">
        <ele>171</ele>
        <time>2018-02-20T11:44:29Z</time>
      </trkpt>
      <trkpt lat="45.94211" lon="4.72284">
        <ele>171</ele>
        <time>2018-02-20T11:44:30Z</time>
      </trkpt>
      <trkpt lat="45.94207" lon="4.72283">
        <ele>171</ele>
        <time>2018-02-20T11:44:31Z</time>
      </trkpt>
      <trkpt lat="45.942" lon="4.72283">
        <ele>171</ele>
        <time>2018-02-20T11:44:32Z</time>
      </trkpt>
      <trkpt lat="45.94194" lon="4.72283">
        <ele>171</ele>
        <time>2018-02-20T11:44:33Z</time>
      </trkpt>
      <trkpt lat="45.94187" lon="4.72284">
        <ele>171</ele>
        <time>2018-02-20T11:44:34Z</time>
      </trkpt>
      <trkpt lat="45.94182" lon="4.72284">
        <ele>171</ele>
        <time>2018-02-20T11:44:35Z</time>
      </trkpt>
      <trkpt lat="45.94176" lon="4.72284">
        <ele>171</ele>
        <time>2018-02-20T11:44:36Z</time>
      </trkpt>
      <trkpt lat="45.94171" lon="4.72283">
        <ele>171</ele>
        <time>2018-02-20T11:44:37Z</time>
      </trkpt>
      <trkpt lat="45.94165" lon="4.72283">
        <ele>171</ele>
        <time>2018-02-20T11:44:38Z</time>
      </trkpt>
      <trkpt lat="45.94159" lon="4.72282">
        <ele>171</ele>
        <time>2018-02-20T11:44:39Z</time>
      </trkpt>
      <trkpt lat="45.94153" lon="4.7228">
        <ele>171</ele>
        <time>2018-02-20T11:44:40Z</time>
      </trkpt>
      <trkpt lat="45.94148" lon="4.7228">
        <ele>171</ele>
        <time>2018-02-20T11:44:41Z</time>
      </trkpt>
      <trkpt lat="45.94142" lon="4.72278">
        <ele>171</ele>
        <time>2018-02-20T11:44:42Z</time>
      </trkpt>
      <trkpt lat="45.94137" lon="4.72276">
        <ele>171</ele>
        <time>2018-02-20T11:44:43Z</time>
      </trkpt>
      <trkpt lat="45.94132" lon="4.72273">
        <ele>171</ele>
        <time>2018-02-20T11:44:44Z</time>
      </trkpt>
      <trkpt lat="45.94127" lon="4.7227">
        <ele>171</ele>
        <time>2018-02-20T11:44:45Z</time>
      </trkpt>
      <trkpt lat="45.9412" lon="4.72266">
        <ele>171</ele>
        <time>2018-02-20T11:44:46Z</time>
      </trkpt>
      <trkpt lat="45.94116" lon="4.72263">
        <ele>171</ele>
        <time>2018-02-20T11:44:47Z</time>
      </trkpt>
      <trkpt lat="45.9411" lon="4.72262">
        <ele>171</ele>
        <time>2018-02-20T11:44:48Z</time>
      </trkpt>
      <trkpt lat="45.94104" lon="4.72262">
        <ele>171</ele>
        <time>2018-02-20T11:44:49Z</time>
      </trkpt>
      <trkpt lat="45.94097" lon="4.72262">
        <ele>171</ele>
        <time>2018-02-20T11:44:50Z</time>
      </trkpt>
      <trkpt lat="45.94092" lon="4.72262">
        <ele>171</ele>
        <time>2018-02-20T11:44:51Z</time>
      </trkpt>
      <trkpt lat="45.94086" lon="4.72263">
        <ele>171</ele>
        <time>2018-02-20T11:44:52Z</time>
      </trkpt>
      <trkpt lat="45.94082" lon="4.72265">
        <ele>171</ele>
        <time>2018-02-20T11:44:53Z</time>
      </trkpt>
      <trkpt lat="45.94076" lon="4.72268">
        <ele>171</ele>
        <time>2018-02-20T11:44:54Z</time>
      </trkpt>
      <trkpt lat="45.94071" lon="4.72272">
        <ele>171</ele>
        <time>2018-02-20T11:44:55Z</time>
      </trkpt>
      <trkpt lat="45.94066" lon="4.72277">
        <ele>171</ele>
        <time>2018-02-20T11:44:56Z</time>
      </trkpt>
      <trkpt lat="45.94062" lon="4.72284">
        <ele>171</ele>
        <time>2018-02-20T11:44:57Z</time>
      </trkpt>
      <trkpt lat="45.94056" lon="4.7229">
        <ele>171</ele>
        <time>2018-02-20T11:44:58Z</time>
      </trkpt>
      <trkpt lat="45.94052" lon="4.72297">
        <ele>171</ele>
        <time>2018-02-20T11:44:59Z</time>
      </trkpt>
      <trkpt lat="45.94046" lon="4.72302">
        <ele>171</ele>
        <time>2018-02-20T11:45:00Z</time>
      </trkpt>
      <trkpt lat="45.9404" lon="4.72309">
        <ele>171</ele>
        <time>2018-02-20T11:45:01Z</time>
      </trkpt>
      <trkpt lat="45.94035" lon="4.72315">
        <ele>171</ele>
        <time>2018-02-20T11:45:02Z</time>
      </trkpt>
      <trkpt lat="45.94029" lon="4.72321">
        <ele>171</ele>
        <time>2018-02-20T11:45:03Z</time>
      </trkpt>
      <trkpt lat="45.94024" lon="4.72328">
        <ele>171</ele>
        <time>2018-02-20T11:45:04Z</time>
      </trkpt>
      <trkpt lat="45.94018" lon="4.72336">
        <ele>171</ele>
        <time>2018-02-20T11:45:05Z</time>
      </trkpt>
      <trkpt lat="45.94013" lon="4.72343">
        <ele>171</ele>
        <time>2018-02-20T11:45:06Z</time>
      </trkpt>
      <trkpt lat="45.94008" lon="4.7235">
        <ele>171</ele>
        <time>2018-02-20T11:45:07Z</time>
      </trkpt>
      <trkpt lat="45.94002" lon="4.72358">
        <ele>171</ele>
        <time>2018-02-20T11:45:08Z</time>
      </trkpt>
      <trkpt lat="45.93997" lon="4.72365">
        <ele>171</ele>
        <time>2018-02-20T11:45:09Z</time>
      </trkpt>
      <trkpt lat="45.93992" lon="4.72373">
        <ele>171</ele>
        <time>2018-02-20T11:45:10Z</time>
      </trkpt>
      <trkpt lat="45.93987" lon="4.72381">
        <ele>171</ele>
        <time>2018-02-20T11:45:11Z</time>
      </trkpt>
      <trkpt lat="45.93981" lon="4.72389">
        <ele>171</ele>
        <time>2018-02-20T11:45:12Z</time>
      </trkpt>
      <trkpt lat="45.93975" lon="4.72395">
        <ele>171</ele>
        <time>2018-02-20T11:45:13Z</time>
      </trkpt>
      <trkpt lat="45.9397" lon="4.72402">
        <ele>171</ele>
        <time>2018-02-20T11:45:14Z</time>
      </trkpt>
      <trkpt lat="45.93964" lon="4.72409">
        <ele>171</ele>
        <time>2018-02-20T11:45:15Z</time>
      </trkpt>
      <trkpt lat="45.93958" lon="4.72415">
        <ele>171</ele>
        <time>2018-02-20T11:45:16Z</time>
      </trkpt>
      <trkpt lat="45.93953" lon="4.7242">
        <ele>171</ele>
        <time>2018-02-20T11:45:17Z</time>
      </trkpt>
      <trkpt lat="45.93947" lon="4.72427">
        <ele>171</ele>
        <time>2018-02-20T11:45:18Z</time>
      </trkpt>
      <trkpt lat="45.93942" lon="4.72433">
        <ele>171</ele>
        <time>2018-02-20T11:45:19Z</time>
      </trkpt>
      <trkpt lat="45.93936" lon="4.7244">
        <ele>171</ele>
        <time>2018-02-20T11:45:20Z</time>
      </trkpt>
      <trkpt lat="45.9393" lon="4.72446">
        <ele>171</ele>
        <time>2018-02-20T11:45:21Z</time>
      </trkpt>
      <trkpt lat="45.93925" lon="4.72453">
        <ele>171</ele>
        <time>2018-02-20T11:45:22Z</time>
      </trkpt>
      <trkpt lat="45.93921" lon="4.72459">
        <ele>171</ele>
        <time>2018-02-20T11:45:23Z</time>
      </trkpt>
      <trkpt lat="45.93916" lon="4.72465">
        <ele>172</ele>
        <time>2018-02-20T11:45:24Z</time>
      </trkpt>
      <trkpt lat="45.9391" lon="4.72471">
        <ele>172</ele>
        <time>2018-02-20T11:45:25Z</time>
      </trkpt>
      <trkpt lat="45.93906" lon="4.72475">
        <ele>172</ele>
        <time>2018-02-20T11:45:26Z</time>
      </trkpt>
      <trkpt lat="45.93901" lon="4.72481">
        <ele>172</ele>
        <time>2018-02-20T11:45:27Z</time>
      </trkpt>
      <trkpt lat="45.93896" lon="4.72486">
        <ele>172</ele>
        <time>2018-02-20T11:45:28Z</time>
      </trkpt>
      <trkpt lat="45.93891" lon="4.72492">
        <ele>172</ele>
        <time>2018-02-20T11:45:29Z</time>
      </trkpt>
      <trkpt lat="45.93887" lon="4.72498">
        <ele>172</ele>
        <time>2018-02-20T11:45:30Z</time>
      </trkpt>
      <trkpt lat="45.93882" lon="4.72504">
        <ele>173</ele>
        <time>2018-02-20T11:45:31Z</time>
      </trkpt>
      <trkpt lat="45.93877" lon="4.72509">
        <ele>173</ele>
        <time>2018-02-20T11:45:32Z</time>
      </trkpt>
      <trkpt lat="45.93873" lon="4.72512">
        <ele>173</ele>
        <time>2018-02-20T11:45:33Z</time>
      </trkpt>
      <trkpt lat="45.93867" lon="4.72515">
        <ele>173</ele>
        <time>2018-02-20T11:45:34Z</time>
      </trkpt>
      <trkpt lat="45.93861" lon="4.72514">
        <ele>173</ele>
        <time>2018-02-20T11:45:35Z</time>
      </trkpt>
      <trkpt lat="45.93856" lon="4.72512">
        <ele>173</ele>
        <time>2018-02-20T11:45:36Z</time>
      </trkpt>
      <trkpt lat="45.93851" lon="4.72511">
        <ele>173</ele>
        <time>2018-02-20T11:45:37Z</time>
      </trkpt>
      <trkpt lat="45.93844" lon="4.72503">
        <ele>174</ele>
        <time>2018-02-20T11:45:39Z</time>
      </trkpt>
      <trkpt lat="45.93841" lon="4.725">
        <ele>174</ele>
        <time>2018-02-20T11:45:40Z</time>
      </trkpt>
      <trkpt lat="45.93838" lon="4.72496">
        <ele>174</ele>
        <time>2018-02-20T11:45:42Z</time>
      </trkpt>
      <trkpt lat="45.93822" lon="4.72477">
        <ele>173</ele>
        <time>2018-02-20T11:45:43Z</time>
      </trkpt>
      <trkpt lat="45.93816" lon="4.72474">
        <ele>172</ele>
        <time>2018-02-20T11:45:44Z</time>
      </trkpt>
      <trkpt lat="45.93811" lon="4.72469">
        <ele>172</ele>
        <time>2018-02-20T11:45:45Z</time>
      </trkpt>
      <trkpt lat="45.93806" lon="4.72464">
        <ele>172</ele>
        <time>2018-02-20T11:45:46Z</time>
      </trkpt>
      <trkpt lat="45.938" lon="4.7246">
        <ele>172</ele>
        <time>2018-02-20T11:45:47Z</time>
      </trkpt>
      <trkpt lat="45.93795" lon="4.72453">
        <ele>172</ele>
        <time>2018-02-20T11:45:49Z</time>
      </trkpt>
      <trkpt lat="45.9379" lon="4.72447">
        <ele>172</ele>
        <time>2018-02-20T11:45:50Z</time>
      </trkpt>
      <trkpt lat="45.93786" lon="4.72443">
        <ele>172</ele>
        <time>2018-02-20T11:45:51Z</time>
      </trkpt>
      <trkpt lat="45.93782" lon="4.72439">
        <ele>172</ele>
        <time>2018-02-20T11:45:52Z</time>
      </trkpt>
      <trkpt lat="45.93774" lon="4.72434">
        <ele>171</ele>
        <time>2018-02-20T11:45:53Z</time>
      </trkpt>
      <trkpt lat="45.93769" lon="4.72429">
        <ele>171</ele>
        <time>2018-02-20T11:45:54Z</time>
      </trkpt>
      <trkpt lat="45.93764" lon="4.72426">
        <ele>171</ele>
        <time>2018-02-20T11:45:55Z</time>
      </trkpt>
      <trkpt lat="45.93761" lon="4.72423">
        <ele>171</ele>
        <time>2018-02-20T11:45:56Z</time>
      </trkpt>
      <trkpt lat="45.93756" lon="4.72419">
        <ele>171</ele>
        <time>2018-02-20T11:45:57Z</time>
      </trkpt>
      <trkpt lat="45.93752" lon="4.72412">
        <ele>171</ele>
        <time>2018-02-20T11:45:58Z</time>
      </trkpt>
      <trkpt lat="45.93748" lon="4.72408">
        <ele>171</ele>
        <time>2018-02-20T11:45:59Z</time>
      </trkpt>
      <trkpt lat="45.93745" lon="4.72404">
        <ele>171</ele>
        <time>2018-02-20T11:46:00Z</time>
      </trkpt>
      <trkpt lat="45.93742" lon="4.72398">
        <ele>171</ele>
        <time>2018-02-20T11:46:01Z</time>
      </trkpt>
      <trkpt lat="45.93739" lon="4.72392">
        <ele>171</ele>
        <time>2018-02-20T11:46:02Z</time>
      </trkpt>
      <trkpt lat="45.93733" lon="4.72388">
        <ele>171</ele>
        <time>2018-02-20T11:46:03Z</time>
      </trkpt>
      <trkpt lat="45.93729" lon="4.72384">
        <ele>171</ele>
        <time>2018-02-20T11:46:04Z</time>
      </trkpt>
      <trkpt lat="45.93724" lon="4.72381">
        <ele>171</ele>
        <time>2018-02-20T11:46:05Z</time>
      </trkpt>
      <trkpt lat="45.93719" lon="4.72376">
        <ele>171</ele>
        <time>2018-02-20T11:46:06Z</time>
      </trkpt>
      <trkpt lat="45.93714" lon="4.72372">
        <ele>172</ele>
        <time>2018-02-20T11:46:07Z</time>
      </trkpt>
      <trkpt lat="45.9371" lon="4.72367">
        <ele>172</ele>
        <time>2018-02-20T11:46:08Z</time>
      </trkpt>
      <trkpt lat="45.93706" lon="4.72363">
        <ele>171</ele>
        <time>2018-02-20T11:46:09Z</time>
      </trkpt>
      <trkpt lat="45.93702" lon="4.72359">
        <ele>171</ele>
        <time>2018-02-20T11:46:10Z</time>
      </trkpt>
      <trkpt lat="45.93698" lon="4.72356">
        <ele>171</ele>
        <time>2018-02-20T11:46:11Z</time>
      </trkpt>
      <trkpt lat="45.93694" lon="4.72357">
        <ele>171</ele>
        <time>2018-02-20T11:46:12Z</time>
      </trkpt>
      <trkpt lat="45.93688" lon="4.72351">
        <ele>171</ele>
        <time>2018-02-20T11:46:13Z</time>
      </trkpt>
      <trkpt lat="45.93681" lon="4.72344">
        <ele>171</ele>
        <time>2018-02-20T11:46:15Z</time>
      </trkpt>
      <trkpt lat="45.93677" lon="4.7234">
        <ele>171</ele>
        <time>2018-02-20T11:46:16Z</time>
      </trkpt>
      <trkpt lat="45.93673" lon="4.72335">
        <ele>171</ele>
        <time>2018-02-20T11:46:17Z</time>
      </trkpt>
      <trkpt lat="45.93667" lon="4.72331">
        <ele>171</ele>
        <time>2018-02-20T11:46:18Z</time>
      </trkpt>
      <trkpt lat="45.93664" lon="4.72325">
        <ele>171</ele>
        <time>2018-02-20T11:46:19Z</time>
      </trkpt>
      <trkpt lat="45.93659" lon="4.72321">
        <ele>172</ele>
        <time>2018-02-20T11:46:20Z</time>
      </trkpt>
      <trkpt lat="45.93655" lon="4.72315">
        <ele>172</ele>
        <time>2018-02-20T11:46:21Z</time>
      </trkpt>
      <trkpt lat="45.93651" lon="4.72311">
        <ele>172</ele>
        <time>2018-02-20T11:46:22Z</time>
      </trkpt>
      <trkpt lat="45.93646" lon="4.72306">
        <ele>172</ele>
        <time>2018-02-20T11:46:23Z</time>
      </trkpt>
      <trkpt lat="45.9364" lon="4.723">
        <ele>172</ele>
        <time>2018-02-20T11:46:24Z</time>
      </trkpt>
      <trkpt lat="45.93636" lon="4.72296">
        <ele>172</ele>
        <time>2018-02-20T11:46:25Z</time>
      </trkpt>
      <trkpt lat="45.93631" lon="4.72293">
        <ele>172</ele>
        <time>2018-02-20T11:46:26Z</time>
      </trkpt>
      <trkpt lat="45.93627" lon="4.72289">
        <ele>172</ele>
        <time>2018-02-20T11:46:27Z</time>
      </trkpt>
      <trkpt lat="45.93621" lon="4.72283">
        <ele>172</ele>
        <time>2018-02-20T11:46:28Z</time>
      </trkpt>
      <trkpt lat="45.93616" lon="4.72278">
        <ele>172</ele>
        <time>2018-02-20T11:46:29Z</time>
      </trkpt>
      <trkpt lat="45.93612" lon="4.72275">
        <ele>172</ele>
        <time>2018-02-20T11:46:30Z</time>
      </trkpt>
      <trkpt lat="45.93607" lon="4.72272">
        <ele>172</ele>
        <time>2018-02-20T11:46:31Z</time>
      </trkpt>
      <trkpt lat="45.93603" lon="4.72269">
        <ele>173</ele>
        <time>2018-02-20T11:46:32Z</time>
      </trkpt>
      <trkpt lat="45.93599" lon="4.72264">
        <ele>173</ele>
        <time>2018-02-20T11:46:33Z</time>
      </trkpt>
      <trkpt lat="45.93595" lon="4.72259">
        <ele>173</ele>
        <time>2018-02-20T11:46:34Z</time>
      </trkpt>
      <trkpt lat="45.93589" lon="4.72255">
        <ele>173</ele>
        <time>2018-02-20T11:46:35Z</time>
      </trkpt>
      <trkpt lat="45.93586" lon="4.72251">
        <ele>173</ele>
        <time>2018-02-20T11:46:36Z</time>
      </trkpt>
      <trkpt lat="45.93584" lon="4.72241">
        <ele>173</ele>
        <time>2018-02-20T11:46:38Z</time>
      </trkpt>
      <trkpt lat="45.93578" lon="4.72237">
        <ele>173</ele>
        <time>2018-02-20T11:46:39Z</time>
      </trkpt>
      <trkpt lat="45.93575" lon="4.72232">
        <ele>173</ele>
        <time>2018-02-20T11:46:40Z</time>
      </trkpt>
      <trkpt lat="45.93571" lon="4.72228">
        <ele>173</ele>
        <time>2018-02-20T11:46:41Z</time>
      </trkpt>
      <trkpt lat="45.93563" lon="4.72223">
        <ele>173</ele>
        <time>2018-02-20T11:46:43Z</time>
      </trkpt>
      <trkpt lat="45.93558" lon="4.72221">
        <ele>173</ele>
        <time>2018-02-20T11:46:44Z</time>
      </trkpt>
      <trkpt lat="45.9355" lon="4.72222">
        <ele>172</ele>
        <time>2018-02-20T11:46:46Z</time>
      </trkpt>
      <trkpt lat="45.93547" lon="4.72225">
        <ele>172</ele>
        <time>2018-02-20T11:46:47Z</time>
      </trkpt>
      <trkpt lat="45.93542" lon="4.72235">
        <ele>172</ele>
        <time>2018-02-20T11:46:49Z</time>
      </trkpt>
      <trkpt lat="45.9354" lon="4.7224">
        <ele>172</ele>
        <time>2018-02-20T11:46:50Z</time>
      </trkpt>
      <trkpt lat="45.93535" lon="4.72251">
        <ele>172</ele>
        <time>2018-02-20T11:46:52Z</time>
      </trkpt>
      <trkpt lat="45.93533" lon="4.72257">
        <ele>172</ele>
        <time>2018-02-20T11:46:53Z</time>
      </trkpt>
      <trkpt lat="45.9353" lon="4.72264">
        <ele>172</ele>
        <time>2018-02-20T11:46:54Z</time>
      </trkpt>
      <trkpt lat="45.93528" lon="4.72271">
        <ele>172</ele>
        <time>2018-02-20T11:46:55Z</time>
      </trkpt>
      <trkpt lat="45.93526" lon="4.72277">
        <ele>172</ele>
        <time>2018-02-20T11:46:56Z</time>
      </trkpt>
      <trkpt lat="45.93523" lon="4.72284">
        <ele>172</ele>
        <time>2018-02-20T11:46:57Z</time>
      </trkpt>
      <trkpt lat="45.93519" lon="4.72291">
        <ele>172</ele>
        <time>2018-02-20T11:46:58Z</time>
      </trkpt>
      <trkpt lat="45.93515" lon="4.72298">
        <ele>172</ele>
        <time>2018-02-20T11:46:59Z</time>
      </trkpt>
      <trkpt lat="45.93511" lon="4.72305">
        <ele>173</ele>
        <time>2018-02-20T11:47:00Z</time>
      </trkpt>
      <trkpt lat="45.93508" lon="4.72312">
        <ele>173</ele>
        <time>2018-02-20T11:47:01Z</time>
      </trkpt>
      <trkpt lat="45.93501" lon="4.72318">
        <ele>173</ele>
        <time>2018-02-20T11:47:02Z</time>
      </trkpt>
      <trkpt lat="45.93497" lon="4.72325">
        <ele>173</ele>
        <time>2018-02-20T11:47:03Z</time>
      </trkpt>
      <trkpt lat="45.93492" lon="4.72331">
        <ele>173</ele>
        <time>2018-02-20T11:47:04Z</time>
      </trkpt>
      <trkpt lat="45.93488" lon="4.72339">
        <ele>173</ele>
        <time>2018-02-20T11:47:05Z</time>
      </trkpt>
      <trkpt lat="45.93484" lon="4.72345">
        <ele>173</ele>
        <time>2018-02-20T11:47:06Z</time>
      </trkpt>
      <trkpt lat="45.9348" lon="4.72352">
        <ele>173</ele>
        <time>2018-02-20T11:47:07Z</time>
      </trkpt>
      <trkpt lat="45.93475" lon="4.72358">
        <ele>173</ele>
        <time>2018-02-20T11:47:08Z</time>
      </trkpt>
      <trkpt lat="45.93471" lon="4.72364">
        <ele>173</ele>
        <time>2018-02-20T11:47:09Z</time>
      </trkpt>
      <trkpt lat="45.93467" lon="4.7237">
        <ele>173</ele>
        <time>2018-02-20T11:47:10Z</time>
      </trkpt>
      <trkpt lat="45.93462" lon="4.72375">
        <ele>173</ele>
        <time>2018-02-20T11:47:11Z</time>
      </trkpt>
      <trkpt lat="45.93456" lon="4.72382">
        <ele>173</ele>
        <time>2018-02-20T11:47:12Z</time>
      </trkpt>
      <trkpt lat="45.93451" lon="4.72387">
        <ele>173</ele>
        <time>2018-02-20T11:47:13Z</time>
      </trkpt>
      <trkpt lat="45.93445" lon="4.72392">
        <ele>173</ele>
        <time>2018-02-20T11:47:14Z</time>
      </trkpt>
      <trkpt lat="45.9344" lon="4.72396">
        <ele>173</ele>
        <time>2018-02-20T11:47:15Z</time>
      </trkpt>
      <trkpt lat="45.93434" lon="4.724">
        <ele>174</ele>
        <time>2018-02-20T11:47:16Z</time>
      </trkpt>
      <trkpt lat="45.93428" lon="4.72403">
        <ele>174</ele>
        <time>2018-02-20T11:47:17Z</time>
      </trkpt>
      <trkpt lat="45.93422" lon="4.72406">
        <ele>174</ele>
        <time>2018-02-20T11:47:18Z</time>
      </trkpt>
      <trkpt lat="45.93416" lon="4.72408">
        <ele>174</ele>
        <time>2018-02-20T11:47:19Z</time>
      </trkpt>
      <trkpt lat="45.9341" lon="4.7241">
        <ele>174</ele>
        <time>2018-02-20T11:47:20Z</time>
      </trkpt>
      <trkpt lat="45.93404" lon="4.7241">
        <ele>174</ele>
        <time>2018-02-20T11:47:21Z</time>
      </trkpt>
      <trkpt lat="45.93398" lon="4.7241">
        <ele>174</ele>
        <time>2018-02-20T11:47:22Z</time>
      </trkpt>
      <trkpt lat="45.93392" lon="4.72409">
        <ele>174</ele>
        <time>2018-02-20T11:47:23Z</time>
      </trkpt>
      <trkpt lat="45.93384" lon="4.7241">
        <ele>174</ele>
        <time>2018-02-20T11:47:24Z</time>
      </trkpt>
      <trkpt lat="45.93379" lon="4.72414">
        <ele>174</ele>
        <time>2018-02-20T11:47:25Z</time>
      </trkpt>
      <trkpt lat="45.93378" lon="4.72419">
        <ele>173</ele>
        <time>2018-02-20T11:47:26Z</time>
      </trkpt>
      <trkpt lat="45.93377" lon="4.72427">
        <ele>173</ele>
        <time>2018-02-20T11:47:27Z</time>
      </trkpt>
      <trkpt lat="45.93381" lon="4.72436">
        <ele>173</ele>
        <time>2018-02-20T11:47:28Z</time>
      </trkpt>
      <trkpt lat="45.93383" lon="4.72443">
        <ele>173</ele>
        <time>2018-02-20T11:47:29Z</time>
      </trkpt>
      <trkpt lat="45.93385" lon="4.7245">
        <ele>173</ele>
        <time>2018-02-20T11:47:30Z</time>
      </trkpt>
      <trkpt lat="45.93386" lon="4.72458">
        <ele>173</ele>
        <time>2018-02-20T11:47:31Z</time>
      </trkpt>
      <trkpt lat="45.93382" lon="4.7247">
        <ele>173</ele>
        <time>2018-02-20T11:47:33Z</time>
      </trkpt>
      <trkpt lat="45.93377" lon="4.72476">
        <ele>173</ele>
        <time>2018-02-20T11:47:34Z</time>
      </trkpt>
      <trkpt lat="45.93373" lon="4.7248">
        <ele>173</ele>
        <time>2018-02-20T11:47:35Z</time>
      </trkpt>
      <trkpt lat="45.93368" lon="4.72484">
        <ele>173</ele>
        <time>2018-02-20T11:47:36Z</time>
      </trkpt>
      <trkpt lat="45.93364" lon="4.72488">
        <ele>173</ele>
        <time>2018-02-20T11:47:37Z</time>
      </trkpt>
      <trkpt lat="45.9336" lon="4.72494">
        <ele>173</ele>
        <time>2018-02-20T11:47:38Z</time>
      </trkpt>
      <trkpt lat="45.93355" lon="4.72498">
        <ele>173</ele>
        <time>2018-02-20T11:47:39Z</time>
      </trkpt>
      <trkpt lat="45.93351" lon="4.72504">
        <ele>172</ele>
        <time>2018-02-20T11:47:40Z</time>
      </trkpt>
      <trkpt lat="45.93347" lon="4.7251">
        <ele>172</ele>
        <time>2018-02-20T11:47:41Z</time>
      </trkpt>
      <trkpt lat="45.93342" lon="4.72515">
        <ele>172</ele>
        <time>2018-02-20T11:47:42Z</time>
      </trkpt>
      <trkpt lat="45.93338" lon="4.72521">
        <ele>172</ele>
        <time>2018-02-20T11:47:43Z</time>
      </trkpt>
      <trkpt lat="45.93333" lon="4.72527">
        <ele>172</ele>
        <time>2018-02-20T11:47:44Z</time>
      </trkpt>
      <trkpt lat="45.93328" lon="4.72532">
        <ele>172</ele>
        <time>2018-02-20T11:47:45Z</time>
      </trkpt>
      <trkpt lat="45.93323" lon="4.72539">
        <ele>172</ele>
        <time>2018-02-20T11:47:46Z</time>
      </trkpt>
      <trkpt lat="45.93319" lon="4.72544">
        <ele>172</ele>
        <time>2018-02-20T11:47:47Z</time>
      </trkpt>
      <trkpt lat="45.93314" lon="4.72549">
        <ele>172</ele>
        <time>2018-02-20T11:47:48Z</time>
      </trkpt>
      <trkpt lat="45.9331" lon="4.72554">
        <ele>172</ele>
        <time>2018-02-20T11:47:49Z</time>
      </trkpt>
      <trkpt lat="45.93305" lon="4.7256">
        <ele>172</ele>
        <time>2018-02-20T11:47:50Z</time>
      </trkpt>
      <trkpt lat="45.93301" lon="4.72565">
        <ele>172</ele>
        <time>2018-02-20T11:47:51Z</time>
      </trkpt>
      <trkpt lat="45.93296" lon="4.72569">
        <ele>172</ele>
        <time>2018-02-20T11:47:52Z</time>
      </trkpt>
      <trkpt lat="45.93292" lon="4.72575">
        <ele>171</ele>
        <time>2018-02-20T11:47:53Z</time>
      </trkpt>
      <trkpt lat="45.93287" lon="4.72579">
        <ele>171</ele>
        <time>2018-02-20T11:47:54Z</time>
      </trkpt>
      <trkpt lat="45.93283" lon="4.72583">
        <ele>171</ele>
        <time>2018-02-20T11:47:55Z</time>
      </trkpt>
      <trkpt lat="45.93278" lon="4.72588">
        <ele>170</ele>
        <time>2018-02-20T11:47:56Z</time>
      </trkpt>
      <trkpt lat="45.93274" lon="4.72593">
        <ele>170</ele>
        <time>2018-02-20T11:47:57Z</time>
      </trkpt>
      <trkpt lat="45.93269" lon="4.72597">
        <ele>170</ele>
        <time>2018-02-20T11:47:58Z</time>
      </trkpt>
      <trkpt lat="45.93266" lon="4.72601">
        <ele>170</ele>
        <time>2018-02-20T11:47:59Z</time>
      </trkpt>
      <trkpt lat="45.93262" lon="4.72606">
        <ele>170</ele>
        <time>2018-02-20T11:48:00Z</time>
      </trkpt>
      <trkpt lat="45.93257" lon="4.72611">
        <ele>170</ele>
        <time>2018-02-20T11:48:01Z</time>
      </trkpt>
      <trkpt lat="45.93253" lon="4.72617">
        <ele>170</ele>
        <time>2018-02-20T11:48:02Z</time>
      </trkpt>
      <trkpt lat="45.93248" lon="4.72623">
        <ele>170</ele>
        <time>2018-02-20T11:48:03Z</time>
      </trkpt>
      <trkpt lat="45.93244" lon="4.72627">
        <ele>170</ele>
        <time>2018-02-20T11:48:04Z</time>
      </trkpt>
      <trkpt lat="45.93239" lon="4.72633">
        <ele>170</ele>
        <time>2018-02-20T11:48:05Z</time>
      </trkpt>
      <trkpt lat="45.93234" lon="4.72639">
        <ele>170</ele>
        <time>2018-02-20T11:48:06Z</time>
      </trkpt>
      <trkpt lat="45.93229" lon="4.72645">
        <ele>170</ele>
        <time>2018-02-20T11:48:07Z</time>
      </trkpt>
      <trkpt lat="45.93224" lon="4.7265">
        <ele>170</ele>
        <time>2018-02-20T11:48:08Z</time>
      </trkpt>
      <trkpt lat="45.93219" lon="4.72655">
        <ele>170</ele>
        <time>2018-02-20T11:48:09Z</time>
      </trkpt>
      <trkpt lat="45.93215" lon="4.72661">
        <ele>170</ele>
        <time>2018-02-20T11:48:10Z</time>
      </trkpt>
      <trkpt lat="45.9321" lon="4.72665">
        <ele>170</ele>
        <time>2018-02-20T11:48:11Z</time>
      </trkpt>
      <trkpt lat="45.93205" lon="4.72672">
        <ele>169</ele>
        <time>2018-02-20T11:48:12Z</time>
      </trkpt>
      <trkpt lat="45.93201" lon="4.72678">
        <ele>169</ele>
        <time>2018-02-20T11:48:13Z</time>
      </trkpt>
      <trkpt lat="45.93195" lon="4.72682">
        <ele>169</ele>
        <time>2018-02-20T11:48:14Z</time>
      </trkpt>
      <trkpt lat="45.93191" lon="4.72688">
        <ele>169</ele>
        <time>2018-02-20T11:48:15Z</time>
      </trkpt>
      <trkpt lat="45.93186" lon="4.72694">
        <ele>169</ele>
        <time>2018-02-20T11:48:16Z</time>
      </trkpt>
      <trkpt lat="45.93181" lon="4.72699">
        <ele>169</ele>
        <time>2018-02-20T11:48:17Z</time>
      </trkpt>
      <trkpt lat="45.93177" lon="4.72706">
        <ele>169</ele>
        <time>2018-02-20T11:48:18Z</time>
      </trkpt>
      <trkpt lat="45.93172" lon="4.72713">
        <ele>170</ele>
        <time>2018-02-20T11:48:19Z</time>
      </trkpt>
      <trkpt lat="45.93167" lon="4.72717">
        <ele>170</ele>
        <time>2018-02-20T11:48:20Z</time>
      </trkpt>
      <trkpt lat="45.93163" lon="4.72723">
        <ele>170</ele>
        <time>2018-02-20T11:48:21Z</time>
      </trkpt>
      <trkpt lat="45.93159" lon="4.72728">
        <ele>170</ele>
        <time>2018-02-20T11:48:22Z</time>
      </trkpt>
      <trkpt lat="45.93154" lon="4.72733">
        <ele>170</ele>
        <time>2018-02-20T11:48:23Z</time>
      </trkpt>
      <trkpt lat="45.93149" lon="4.72739">
        <ele>170</ele>
        <time>2018-02-20T11:48:24Z</time>
      </trkpt>
      <trkpt lat="45.93145" lon="4.72744">
        <ele>170</ele>
        <time>2018-02-20T11:48:25Z</time>
      </trkpt>
      <trkpt lat="45.93141" lon="4.7275">
        <ele>170</ele>
        <time>2018-02-20T11:48:26Z</time>
      </trkpt>
      <trkpt lat="45.93137" lon="4.72755">
        <ele>171</ele>
        <time>2018-02-20T11:48:27Z</time>
      </trkpt>
      <trkpt lat="45.93134" lon="4.72759">
        <ele>171</ele>
        <time>2018-02-20T11:48:28Z</time>
      </trkpt>
      <trkpt lat="45.93129" lon="4.72765">
        <ele>171</ele>
        <time>2018-02-20T11:48:29Z</time>
      </trkpt>
      <trkpt lat="45.93124" lon="4.72771">
        <ele>171</ele>
        <time>2018-02-20T11:48:30Z</time>
      </trkpt>
      <trkpt lat="45.9312" lon="4.72776">
        <ele>171</ele>
        <time>2018-02-20T11:48:31Z</time>
      </trkpt>
      <trkpt lat="45.93116" lon="4.72782">
        <ele>171</ele>
        <time>2018-02-20T11:48:32Z</time>
      </trkpt>
      <trkpt lat="45.93111" lon="4.72788">
        <ele>171</ele>
        <time>2018-02-20T11:48:33Z</time>
      </trkpt>
      <trkpt lat="45.93107" lon="4.72793">
        <ele>171</ele>
        <time>2018-02-20T11:48:34Z</time>
      </trkpt>
      <trkpt lat="45.93103" lon="4.72799">
        <ele>171</ele>
        <time>2018-02-20T11:48:35Z</time>
      </trkpt>
      <trkpt lat="45.93098" lon="4.72805">
        <ele>171</ele>
        <time>2018-02-20T11:48:36Z</time>
      </trkpt>
      <trkpt lat="45.93093" lon="4.7281">
        <ele>172</ele>
        <time>2018-02-20T11:48:37Z</time>
      </trkpt>
      <trkpt lat="45.93088" lon="4.72815">
        <ele>172</ele>
        <time>2018-02-20T11:48:38Z</time>
      </trkpt>
      <trkpt lat="45.93082" lon="4.72821">
        <ele>173</ele>
        <time>2018-02-20T11:48:39Z</time>
      </trkpt>
      <trkpt lat="45.93078" lon="4.72825">
        <ele>173</ele>
        <time>2018-02-20T11:48:40Z</time>
      </trkpt>
      <trkpt lat="45.93074" lon="4.7283">
        <ele>173</ele>
        <time>2018-02-20T11:48:41Z</time>
      </trkpt>
      <trkpt lat="45.9307" lon="4.72835">
        <ele>173</ele>
        <time>2018-02-20T11:48:42Z</time>
      </trkpt>
      <trkpt lat="45.93066" lon="4.72841">
        <ele>173</ele>
        <time>2018-02-20T11:48:43Z</time>
      </trkpt>
      <trkpt lat="45.93061" lon="4.72848">
        <ele>172</ele>
        <time>2018-02-20T11:48:44Z</time>
      </trkpt>
      <trkpt lat="45.93056" lon="4.72857">
        <ele>172</ele>
        <time>2018-02-20T11:48:45Z</time>
      </trkpt>
      <trkpt lat="45.9305" lon="4.72863">
        <ele>172</ele>
        <time>2018-02-20T11:48:46Z</time>
      </trkpt>
      <trkpt lat="45.93044" lon="4.72866">
        <ele>172</ele>
        <time>2018-02-20T11:48:47Z</time>
      </trkpt>
      <trkpt lat="45.93039" lon="4.7287">
        <ele>172</ele>
        <time>2018-02-20T11:48:48Z</time>
      </trkpt>
      <trkpt lat="45.93033" lon="4.72876">
        <ele>172</ele>
        <time>2018-02-20T11:48:49Z</time>
      </trkpt>
      <trkpt lat="45.93028" lon="4.72883">
        <ele>172</ele>
        <time>2018-02-20T11:48:50Z</time>
      </trkpt>
      <trkpt lat="45.93023" lon="4.72888">
        <ele>172</ele>
        <time>2018-02-20T11:48:51Z</time>
      </trkpt>
      <trkpt lat="45.93019" lon="4.72894">
        <ele>172</ele>
        <time>2018-02-20T11:48:52Z</time>
      </trkpt>
      <trkpt lat="45.93015" lon="4.72899">
        <ele>172</ele>
        <time>2018-02-20T11:48:53Z</time>
      </trkpt>
      <trkpt lat="45.9301" lon="4.72905">
        <ele>171</ele>
        <time>2018-02-20T11:48:54Z</time>
      </trkpt>
      <trkpt lat="45.93005" lon="4.7291">
        <ele>171</ele>
        <time>2018-02-20T11:48:55Z</time>
      </trkpt>
      <trkpt lat="45.93" lon="4.72916">
        <ele>171</ele>
        <time>2018-02-20T11:48:56Z</time>
      </trkpt>
      <trkpt lat="45.92994" lon="4.72922">
        <ele>171</ele>
        <time>2018-02-20T11:48:57Z</time>
      </trkpt>
      <trkpt lat="45.9299" lon="4.72928">
        <ele>171</ele>
        <time>2018-02-20T11:48:58Z</time>
      </trkpt>
      <trkpt lat="45.92985" lon="4.72934">
        <ele>171</ele>
        <time>2018-02-20T11:48:59Z</time>
      </trkpt>
      <trkpt lat="45.9298" lon="4.7294">
        <ele>171</ele>
        <time>2018-02-20T11:49:00Z</time>
      </trkpt>
      <trkpt lat="45.92975" lon="4.72947">
        <ele>171</ele>
        <time>2018-02-20T11:49:01Z</time>
      </trkpt>
      <trkpt lat="45.92971" lon="4.72952">
        <ele>171</ele>
        <time>2018-02-20T11:49:02Z</time>
      </trkpt>
      <trkpt lat="45.92966" lon="4.72958">
        <ele>171</ele>
        <time>2018-02-20T11:49:03Z</time>
      </trkpt>
      <trkpt lat="45.92961" lon="4.72964">
        <ele>171</ele>
        <time>2018-02-20T11:49:04Z</time>
      </trkpt>
      <trkpt lat="45.92956" lon="4.7297">
        <ele>171</ele>
        <time>2018-02-20T11:49:05Z</time>
      </trkpt>
      <trkpt lat="45.92951" lon="4.72975">
        <ele>171</ele>
        <time>2018-02-20T11:49:06Z</time>
      </trkpt>
      <trkpt lat="45.92946" lon="4.72982">
        <ele>171</ele>
        <time>2018-02-20T11:49:07Z</time>
      </trkpt>
      <trkpt lat="45.92941" lon="4.72987">
        <ele>171</ele>
        <time>2018-02-20T11:49:08Z</time>
      </trkpt>
      <trkpt lat="45.92936" lon="4.72994">
        <ele>172</ele>
        <time>2018-02-20T11:49:09Z</time>
      </trkpt>
      <trkpt lat="45.92931" lon="4.72999">
        <ele>172</ele>
        <time>2018-02-20T11:49:10Z</time>
      </trkpt>
      <trkpt lat="45.92926" lon="4.73005">
        <ele>172</ele>
        <time>2018-02-20T11:49:11Z</time>
      </trkpt>
      <trkpt lat="45.92921" lon="4.7301">
        <ele>172</ele>
        <time>2018-02-20T11:49:12Z</time>
      </trkpt>
      <trkpt lat="45.92916" lon="4.73016">
        <ele>172</ele>
        <time>2018-02-20T11:49:13Z</time>
      </trkpt>
      <trkpt lat="45.92912" lon="4.73022">
        <ele>172</ele>
        <time>2018-02-20T11:49:14Z</time>
      </trkpt>
      <trkpt lat="45.92907" lon="4.73028">
        <ele>172</ele>
        <time>2018-02-20T11:49:15Z</time>
      </trkpt>
      <trkpt lat="45.92903" lon="4.73034">
        <ele>172</ele>
        <time>2018-02-20T11:49:16Z</time>
      </trkpt>
      <trkpt lat="45.929" lon="4.73039">
        <ele>172</ele>
        <time>2018-02-20T11:49:17Z</time>
      </trkpt>
      <trkpt lat="45.92896" lon="4.73045">
        <ele>172</ele>
        <time>2018-02-20T11:49:18Z</time>
      </trkpt>
      <trkpt lat="45.92893" lon="4.73051">
        <ele>172</ele>
        <time>2018-02-20T11:49:19Z</time>
      </trkpt>
      <trkpt lat="45.92889" lon="4.73058">
        <ele>172</ele>
        <time>2018-02-20T11:49:20Z</time>
      </trkpt>
      <trkpt lat="45.92885" lon="4.73063">
        <ele>172</ele>
        <time>2018-02-20T11:49:21Z</time>
      </trkpt>
      <trkpt lat="45.9288" lon="4.73069">
        <ele>172</ele>
        <time>2018-02-20T11:49:22Z</time>
      </trkpt>
      <trkpt lat="45.92876" lon="4.73075">
        <ele>172</ele>
        <time>2018-02-20T11:49:23Z</time>
      </trkpt>
      <trkpt lat="45.92872" lon="4.7308">
        <ele>172</ele>
        <time>2018-02-20T11:49:24Z</time>
      </trkpt>
      <trkpt lat="45.92869" lon="4.73087">
        <ele>172</ele>
        <time>2018-02-20T11:49:25Z</time>
      </trkpt>
      <trkpt lat="45.92864" lon="4.73093">
        <ele>171</ele>
        <time>2018-02-20T11:49:26Z</time>
      </trkpt>
      <trkpt lat="45.9286" lon="4.73097">
        <ele>171</ele>
        <time>2018-02-20T11:49:27Z</time>
      </trkpt>
      <trkpt lat="45.92856" lon="4.73099">
        <ele>171</ele>
        <time>2018-02-20T11:49:28Z</time>
      </trkpt>
      <trkpt lat="45.92848" lon="4.73095">
        <ele>171</ele>
        <time>2018-02-20T11:49:30Z</time>
      </trkpt>
      <trkpt lat="45.92846" lon="4.73088">
        <ele>171</ele>
        <time>2018-02-20T11:49:31Z</time>
      </trkpt>
      <trkpt lat="45.92844" lon="4.73081">
        <ele>171</ele>
        <time>2018-02-20T11:49:32Z</time>
      </trkpt>
      <trkpt lat="45.92843" lon="4.73074">
        <ele>171</ele>
        <time>2018-02-20T11:49:33Z</time>
      </trkpt>
      <trkpt lat="45.92843" lon="4.73066">
        <ele>171</ele>
        <time>2018-02-20T11:49:34Z</time>
      </trkpt>
      <trkpt lat="45.92841" lon="4.73059">
        <ele>171</ele>
        <time>2018-02-20T11:49:35Z</time>
      </trkpt>
      <trkpt lat="45.9284" lon="4.73051">
        <ele>171</ele>
        <time>2018-02-20T11:49:36Z</time>
      </trkpt>
      <trkpt lat="45.92839" lon="4.73043">
        <ele>171</ele>
        <time>2018-02-20T11:49:37Z</time>
      </trkpt>
      <trkpt lat="45.92838" lon="4.73036">
        <ele>171</ele>
        <time>2018-02-20T11:49:38Z</time>
      </trkpt>
      <trkpt lat="45.92836" lon="4.73028">
        <ele>171</ele>
        <time>2018-02-20T11:49:39Z</time>
      </trkpt>
      <trkpt lat="45.92835" lon="4.73021">
        <ele>171</ele>
        <time>2018-02-20T11:49:40Z</time>
      </trkpt>
      <trkpt lat="45.92834" lon="4.73013">
        <ele>171</ele>
        <time>2018-02-20T11:49:41Z</time>
      </trkpt>
      <trkpt lat="45.92833" lon="4.73005">
        <ele>170</ele>
        <time>2018-02-20T11:49:42Z</time>
      </trkpt>
      <trkpt lat="45.92831" lon="4.72996">
        <ele>170</ele>
        <time>2018-02-20T11:49:43Z</time>
      </trkpt>
      <trkpt lat="45.9283" lon="4.72988">
        <ele>170</ele>
        <time>2018-02-20T11:49:44Z</time>
      </trkpt>
      <trkpt lat="45.92829" lon="4.7298">
        <ele>170</ele>
        <time>2018-02-20T11:49:45Z</time>
      </trkpt>
      <trkpt lat="45.92827" lon="4.72972">
        <ele>170</ele>
        <time>2018-02-20T11:49:46Z</time>
      </trkpt>
      <trkpt lat="45.92827" lon="4.72965">
        <ele>170</ele>
        <time>2018-02-20T11:49:47Z</time>
      </trkpt>
      <trkpt lat="45.92826" lon="4.72956">
        <ele>170</ele>
        <time>2018-02-20T11:49:48Z</time>
      </trkpt>
      <trkpt lat="45.92826" lon="4.72949">
        <ele>170</ele>
        <time>2018-02-20T11:49:49Z</time>
      </trkpt>
      <trkpt lat="45.92825" lon="4.72941">
        <ele>170</ele>
        <time>2018-02-20T11:49:50Z</time>
      </trkpt>
      <trkpt lat="45.92825" lon="4.72934">
        <ele>170</ele>
        <time>2018-02-20T11:49:51Z</time>
      </trkpt>
      <trkpt lat="45.92825" lon="4.72927">
        <ele>170</ele>
        <time>2018-02-20T11:49:52Z</time>
      </trkpt>
      <trkpt lat="45.92824" lon="4.72919">
        <ele>170</ele>
        <time>2018-02-20T11:49:53Z</time>
      </trkpt>
      <trkpt lat="45.92824" lon="4.72911">
        <ele>170</ele>
        <time>2018-02-20T11:49:54Z</time>
      </trkpt>
      <trkpt lat="45.92822" lon="4.72903">
        <ele>170</ele>
        <time>2018-02-20T11:49:55Z</time>
      </trkpt>
      <trkpt lat="45.92821" lon="4.72895">
        <ele>170</ele>
        <time>2018-02-20T11:49:56Z</time>
      </trkpt>
      <trkpt lat="45.9282" lon="4.72887">
        <ele>170</ele>
        <time>2018-02-20T11:49:57Z</time>
      </trkpt>
      <trkpt lat="45.92818" lon="4.72879">
        <ele>170</ele>
        <time>2018-02-20T11:49:58Z</time>
      </trkpt>
      <trkpt lat="45.92817" lon="4.72872">
        <ele>170</ele>
        <time>2018-02-20T11:49:59Z</time>
      </trkpt>
      <trkpt lat="45.92815" lon="4.72863">
        <ele>170</ele>
        <time>2018-02-20T11:50:00Z</time>
      </trkpt>
      <trkpt lat="45.92814" lon="4.72855">
        <ele>170</ele>
        <time>2018-02-20T11:50:01Z</time>
      </trkpt>
      <trkpt lat="45.92813" lon="4.72848">
        <ele>170</ele>
        <time>2018-02-20T11:50:02Z</time>
      </trkpt>
      <trkpt lat="45.92811" lon="4.7284">
        <ele>170</ele>
        <time>2018-02-20T11:50:03Z</time>
      </trkpt>
      <trkpt lat="45.9281" lon="4.72833">
        <ele>171</ele>
        <time>2018-02-20T11:50:04Z</time>
      </trkpt>
      <trkpt lat="45.92809" lon="4.72825">
        <ele>171</ele>
        <time>2018-02-20T11:50:05Z</time>
      </trkpt>
      <trkpt lat="45.92808" lon="4.72819">
        <ele>171</ele>
        <time>2018-02-20T11:50:06Z</time>
      </trkpt>
      <trkpt lat="45.92806" lon="4.72811">
        <ele>171</ele>
        <time>2018-02-20T11:50:07Z</time>
      </trkpt>
      <trkpt lat="45.92805" lon="4.72804">
        <ele>171</ele>
        <time>2018-02-20T11:50:08Z</time>
      </trkpt>
      <trkpt lat="45.92805" lon="4.72797">
        <ele>171</ele>
        <time>2018-02-20T11:50:09Z</time>
      </trkpt>
      <trkpt lat="45.92802" lon="4.72791">
        <ele>171</ele>
        <time>2018-02-20T11:50:10Z</time>
      </trkpt>
      <trkpt lat="45.92799" lon="4.72784">
        <ele>171</ele>
        <time>2018-02-20T11:50:11Z</time>
      </trkpt>
      <trkpt lat="45.92795" lon="4.72782">
        <ele>171</ele>
        <time>2018-02-20T11:50:12Z</time>
      </trkpt>
      <trkpt lat="45.9279" lon="4.72783">
        <ele>171</ele>
        <time>2018-02-20T11:50:13Z</time>
      </trkpt>
      <trkpt lat="45.92786" lon="4.72786">
        <ele>171</ele>
        <time>2018-02-20T11:50:14Z</time>
      </trkpt>
      <trkpt lat="45.92782" lon="4.72791">
        <ele>170</ele>
        <time>2018-02-20T11:50:15Z</time>
      </trkpt>
      <trkpt lat="45.92777" lon="4.72796">
        <ele>170</ele>
        <time>2018-02-20T11:50:16Z</time>
      </trkpt>
      <trkpt lat="45.92773" lon="4.72799">
        <ele>170</ele>
        <time>2018-02-20T11:50:17Z</time>
      </trkpt>
      <trkpt lat="45.92768" lon="4.72803">
        <ele>170</ele>
        <time>2018-02-20T11:50:18Z</time>
      </trkpt>
      <trkpt lat="45.92763" lon="4.72807">
        <ele>170</ele>
        <time>2018-02-20T11:50:19Z</time>
      </trkpt>
      <trkpt lat="45.92759" lon="4.72811">
        <ele>170</ele>
        <time>2018-02-20T11:50:20Z</time>
      </trkpt>
      <trkpt lat="45.92754" lon="4.72815">
        <ele>170</ele>
        <time>2018-02-20T11:50:21Z</time>
      </trkpt>
      <trkpt lat="45.92748" lon="4.72819">
        <ele>169</ele>
        <time>2018-02-20T11:50:22Z</time>
      </trkpt>
      <trkpt lat="45.92743" lon="4.72823">
        <ele>169</ele>
        <time>2018-02-20T11:50:23Z</time>
      </trkpt>
      <trkpt lat="45.92738" lon="4.72827">
        <ele>169</ele>
        <time>2018-02-20T11:50:24Z</time>
      </trkpt>
      <trkpt lat="45.92733" lon="4.72831">
        <ele>169</ele>
        <time>2018-02-20T11:50:25Z</time>
      </trkpt>
      <trkpt lat="45.92729" lon="4.72835">
        <ele>169</ele>
        <time>2018-02-20T11:50:26Z</time>
      </trkpt>
      <trkpt lat="45.92724" lon="4.72838">
        <ele>169</ele>
        <time>2018-02-20T11:50:27Z</time>
      </trkpt>
      <trkpt lat="45.92719" lon="4.72843">
        <ele>169</ele>
        <time>2018-02-20T11:50:28Z</time>
      </trkpt>
      <trkpt lat="45.92713" lon="4.72846">
        <ele>169</ele>
        <time>2018-02-20T11:50:29Z</time>
      </trkpt>
      <trkpt lat="45.92708" lon="4.72849">
        <ele>169</ele>
        <time>2018-02-20T11:50:30Z</time>
      </trkpt>
      <trkpt lat="45.92703" lon="4.72854">
        <ele>169</ele>
        <time>2018-02-20T11:50:31Z</time>
      </trkpt>
      <trkpt lat="45.92697" lon="4.72858">
        <ele>169</ele>
        <time>2018-02-20T11:50:32Z</time>
      </trkpt>
      <trkpt lat="45.92692" lon="4.72862">
        <ele>169</ele>
        <time>2018-02-20T11:50:33Z</time>
      </trkpt>
      <trkpt lat="45.92687" lon="4.72866">
        <ele>169</ele>
        <time>2018-02-20T11:50:34Z</time>
      </trkpt>
      <trkpt lat="45.92682" lon="4.7287">
        <ele>169</ele>
        <time>2018-02-20T11:50:35Z</time>
      </trkpt>
      <trkpt lat="45.92676" lon="4.72874">
        <ele>169</ele>
        <time>2018-02-20T11:50:36Z</time>
      </trkpt>
      <trkpt lat="45.9267" lon="4.72878">
        <ele>170</ele>
        <time>2018-02-20T11:50:37Z</time>
      </trkpt>
      <trkpt lat="45.92664" lon="4.72882">
        <ele>169</ele>
        <time>2018-02-20T11:50:38Z</time>
      </trkpt>
      <trkpt lat="45.92659" lon="4.72886">
        <ele>169</ele>
        <time>2018-02-20T11:50:39Z</time>
      </trkpt>
      <trkpt lat="45.92653" lon="4.7289">
        <ele>169</ele>
        <time>2018-02-20T11:50:40Z</time>
      </trkpt>
      <trkpt lat="45.92647" lon="4.72895">
        <ele>169</ele>
        <time>2018-02-20T11:50:41Z</time>
      </trkpt>
      <trkpt lat="45.9264" lon="4.72901">
        <ele>169</ele>
        <time>2018-02-20T11:50:42Z</time>
      </trkpt>
      <trkpt lat="45.92635" lon="4.72905">
        <ele>169</ele>
        <time>2018-02-20T11:50:43Z</time>
      </trkpt>
      <trkpt lat="45.92629" lon="4.7291">
        <ele>169</ele>
        <time>2018-02-20T11:50:44Z</time>
      </trkpt>
      <trkpt lat="45.92624" lon="4.72914">
        <ele>169</ele>
        <time>2018-02-20T11:50:45Z</time>
      </trkpt>
      <trkpt lat="45.92617" lon="4.72918">
        <ele>169</ele>
        <time>2018-02-20T11:50:46Z</time>
      </trkpt>
      <trkpt lat="45.92612" lon="4.72923">
        <ele>169</ele>
        <time>2018-02-20T11:50:47Z</time>
      </trkpt>
      <trkpt lat="45.92606" lon="4.72929">
        <ele>169</ele>
        <time>2018-02-20T11:50:48Z</time>
      </trkpt>
      <trkpt lat="45.926" lon="4.72934">
        <ele>169</ele>
        <time>2018-02-20T11:50:49Z</time>
      </trkpt>
      <trkpt lat="45.92594" lon="4.7294">
        <ele>169</ele>
        <time>2018-02-20T11:50:50Z</time>
      </trkpt>
      <trkpt lat="45.92589" lon="4.72947">
        <ele>169</ele>
        <time>2018-02-20T11:50:51Z</time>
      </trkpt>
      <trkpt lat="45.92584" lon="4.72953">
        <ele>169</ele>
        <time>2018-02-20T11:50:52Z</time>
      </trkpt>
      <trkpt lat="45.92578" lon="4.72959">
        <ele>169</ele>
        <time>2018-02-20T11:50:53Z</time>
      </trkpt>
      <trkpt lat="45.92574" lon="4.72965">
        <ele>169</ele>
        <time>2018-02-20T11:50:54Z</time>
      </trkpt>
      <trkpt lat="45.92568" lon="4.72969">
        <ele>169</ele>
        <time>2018-02-20T11:50:55Z</time>
      </trkpt>
      <trkpt lat="45.92563" lon="4.72975">
        <ele>169</ele>
        <time>2018-02-20T11:50:56Z</time>
      </trkpt>
      <trkpt lat="45.92558" lon="4.72981">
        <ele>169</ele>
        <time>2018-02-20T11:50:57Z</time>
      </trkpt>
      <trkpt lat="45.92554" lon="4.72986">
        <ele>169</ele>
        <time>2018-02-20T11:50:58Z</time>
      </trkpt>
      <trkpt lat="45.92549" lon="4.72992">
        <ele>169</ele>
        <time>2018-02-20T11:50:59Z</time>
      </trkpt>
      <trkpt lat="45.92544" lon="4.72997">
        <ele>169</ele>
        <time>2018-02-20T11:51:00Z</time>
      </trkpt>
      <trkpt lat="45.92539" lon="4.73003">
        <ele>169</ele>
        <time>2018-02-20T11:51:01Z</time>
      </trkpt>
      <trkpt lat="45.92533" lon="4.73007">
        <ele>169</ele>
        <time>2018-02-20T11:51:02Z</time>
      </trkpt>
      <trkpt lat="45.92529" lon="4.73012">
        <ele>169</ele>
        <time>2018-02-20T11:51:03Z</time>
      </trkpt>
      <trkpt lat="45.92523" lon="4.73018">
        <ele>169</ele>
        <time>2018-02-20T11:51:04Z</time>
      </trkpt>
      <trkpt lat="45.92517" lon="4.73023">
        <ele>169</ele>
        <time>2018-02-20T11:51:05Z</time>
      </trkpt>
      <trkpt lat="45.92512" lon="4.73028">
        <ele>169</ele>
        <time>2018-02-20T11:51:06Z</time>
      </trkpt>
      <trkpt lat="45.92506" lon="4.73033">
        <ele>169</ele>
        <time>2018-02-20T11:51:07Z</time>
      </trkpt>
      <trkpt lat="45.92501" lon="4.73037">
        <ele>169</ele>
        <time>2018-02-20T11:51:08Z</time>
      </trkpt>
      <trkpt lat="45.92495" lon="4.73042">
        <ele>170</ele>
        <time>2018-02-20T11:51:09Z</time>
      </trkpt>
      <trkpt lat="45.9249" lon="4.73046">
        <ele>170</ele>
        <time>2018-02-20T11:51:10Z</time>
      </trkpt>
      <trkpt lat="45.92485" lon="4.73051">
        <ele>170</ele>
        <time>2018-02-20T11:51:11Z</time>
      </trkpt>
      <trkpt lat="45.92481" lon="4.73055">
        <ele>170</ele>
        <time>2018-02-20T11:51:12Z</time>
      </trkpt>
      <trkpt lat="45.92476" lon="4.73058">
        <ele>170</ele>
        <time>2018-02-20T11:51:13Z</time>
      </trkpt>
      <trkpt lat="45.92471" lon="4.73063">
        <ele>170</ele>
        <time>2018-02-20T11:51:14Z</time>
      </trkpt>
      <trkpt lat="45.92466" lon="4.73068">
        <ele>170</ele>
        <time>2018-02-20T11:51:15Z</time>
      </trkpt>
      <trkpt lat="45.9246" lon="4.73073">
        <ele>170</ele>
        <time>2018-02-20T11:51:16Z</time>
      </trkpt>
      <trkpt lat="45.92455" lon="4.73078">
        <ele>170</ele>
        <time>2018-02-20T11:51:17Z</time>
      </trkpt>
      <trkpt lat="45.9245" lon="4.73082">
        <ele>170</ele>
        <time>2018-02-20T11:51:18Z</time>
      </trkpt>
      <trkpt lat="45.92445" lon="4.73087">
        <ele>170</ele>
        <time>2018-02-20T11:51:19Z</time>
      </trkpt>
      <trkpt lat="45.92439" lon="4.73092">
        <ele>171</ele>
        <time>2018-02-20T11:51:20Z</time>
      </trkpt>
      <trkpt lat="45.92435" lon="4.73096">
        <ele>171</ele>
        <time>2018-02-20T11:51:21Z</time>
      </trkpt>
      <trkpt lat="45.92429" lon="4.731">
        <ele>171</ele>
        <time>2018-02-20T11:51:22Z</time>
      </trkpt>
      <trkpt lat="45.92424" lon="4.73103">
        <ele>171</ele>
        <time>2018-02-20T11:51:23Z</time>
      </trkpt>
      <trkpt lat="45.92419" lon="4.73107">
        <ele>171</ele>
        <time>2018-02-20T11:51:24Z</time>
      </trkpt>
      <trkpt lat="45.92414" lon="4.73111">
        <ele>171</ele>
        <time>2018-02-20T11:51:25Z</time>
      </trkpt>
      <trkpt lat="45.9241" lon="4.73115">
        <ele>171</ele>
        <time>2018-02-20T11:51:26Z</time>
      </trkpt>
      <trkpt lat="45.92407" lon="4.73122">
        <ele>171</ele>
        <time>2018-02-20T11:51:27Z</time>
      </trkpt>
      <trkpt lat="45.92406" lon="4.73128">
        <ele>171</ele>
        <time>2018-02-20T11:51:28Z</time>
      </trkpt>
      <trkpt lat="45.92406" lon="4.73136">
        <ele>171</ele>
        <time>2018-02-20T11:51:29Z</time>
      </trkpt>
      <trkpt lat="45.92405" lon="4.73145">
        <ele>171</ele>
        <time>2018-02-20T11:51:30Z</time>
      </trkpt>
      <trkpt lat="45.92405" lon="4.73153">
        <ele>171</ele>
        <time>2018-02-20T11:51:31Z</time>
      </trkpt>
      <trkpt lat="45.92405" lon="4.7316">
        <ele>170</ele>
        <time>2018-02-20T11:51:32Z</time>
      </trkpt>
      <trkpt lat="45.92405" lon="4.73168">
        <ele>170</ele>
        <time>2018-02-20T11:51:33Z</time>
      </trkpt>
      <trkpt lat="45.92405" lon="4.73176">
        <ele>171</ele>
        <time>2018-02-20T11:51:34Z</time>
      </trkpt>
      <trkpt lat="45.92406" lon="4.73184">
        <ele>171</ele>
        <time>2018-02-20T11:51:35Z</time>
      </trkpt>
      <trkpt lat="45.92406" lon="4.73192">
        <ele>171</ele>
        <time>2018-02-20T11:51:36Z</time>
      </trkpt>
      <trkpt lat="45.92406" lon="4.73201">
        <ele>171</ele>
        <time>2018-02-20T11:51:37Z</time>
      </trkpt>
      <trkpt lat="45.92407" lon="4.73209">
        <ele>171</ele>
        <time>2018-02-20T11:51:38Z</time>
      </trkpt>
      <trkpt lat="45.92407" lon="4.73218">
        <ele>171</ele>
        <time>2018-02-20T11:51:39Z</time>
      </trkpt>
      <trkpt lat="45.92407" lon="4.73225">
        <ele>171</ele>
        <time>2018-02-20T11:51:40Z</time>
      </trkpt>
      <trkpt lat="45.92408" lon="4.73233">
        <ele>171</ele>
        <time>2018-02-20T11:51:41Z</time>
      </trkpt>
      <trkpt lat="45.92408" lon="4.7324">
        <ele>171</ele>
        <time>2018-02-20T11:51:42Z</time>
      </trkpt>
      <trkpt lat="45.92409" lon="4.73248">
        <ele>171</ele>
        <time>2018-02-20T11:51:43Z</time>
      </trkpt>
      <trkpt lat="45.92409" lon="4.73256">
        <ele>171</ele>
        <time>2018-02-20T11:51:44Z</time>
      </trkpt>
      <trkpt lat="45.9241" lon="4.73263">
        <ele>171</ele>
        <time>2018-02-20T11:51:45Z</time>
      </trkpt>
      <trkpt lat="45.9241" lon="4.7327">
        <ele>171</ele>
        <time>2018-02-20T11:51:46Z</time>
      </trkpt>
      <trkpt lat="45.92411" lon="4.73277">
        <ele>171</ele>
        <time>2018-02-20T11:51:47Z</time>
      </trkpt>
      <trkpt lat="45.92411" lon="4.73285">
        <ele>171</ele>
        <time>2018-02-20T11:51:48Z</time>
      </trkpt>
      <trkpt lat="45.92411" lon="4.73293">
        <ele>171</ele>
        <time>2018-02-20T11:51:49Z</time>
      </trkpt>
      <trkpt lat="45.92411" lon="4.733">
        <ele>171</ele>
        <time>2018-02-20T11:51:50Z</time>
      </trkpt>
      <trkpt lat="45.92412" lon="4.73308">
        <ele>171</ele>
        <time>2018-02-20T11:51:51Z</time>
      </trkpt>
      <trkpt lat="45.92412" lon="4.73316">
        <ele>171</ele>
        <time>2018-02-20T11:51:52Z</time>
      </trkpt>
      <trkpt lat="45.92412" lon="4.73324">
        <ele>171</ele>
        <time>2018-02-20T11:51:53Z</time>
      </trkpt>
      <trkpt lat="45.92413" lon="4.73332">
        <ele>171</ele>
        <time>2018-02-20T11:51:54Z</time>
      </trkpt>
      <trkpt lat="45.92414" lon="4.7334">
        <ele>171</ele>
        <time>2018-02-20T11:51:55Z</time>
      </trkpt>
      <trkpt lat="45.92415" lon="4.73348">
        <ele>171</ele>
        <time>2018-02-20T11:51:56Z</time>
      </trkpt>
      <trkpt lat="45.92417" lon="4.73356">
        <ele>171</ele>
        <time>2018-02-20T11:51:57Z</time>
      </trkpt>
      <trkpt lat="45.92418" lon="4.73364">
        <ele>172</ele>
        <time>2018-02-20T11:51:58Z</time>
      </trkpt>
      <trkpt lat="45.9242" lon="4.73372">
        <ele>172</ele>
        <time>2018-02-20T11:51:59Z</time>
      </trkpt>
      <trkpt lat="45.9242" lon="4.73381">
        <ele>172</ele>
        <time>2018-02-20T11:52:00Z</time>
      </trkpt>
      <trkpt lat="45.92422" lon="4.7339">
        <ele>172</ele>
        <time>2018-02-20T11:52:01Z</time>
      </trkpt>
      <trkpt lat="45.92424" lon="4.73399">
        <ele>172</ele>
        <time>2018-02-20T11:52:02Z</time>
      </trkpt>
      <trkpt lat="45.92428" lon="4.73405">
        <ele>172</ele>
        <time>2018-02-20T11:52:03Z</time>
      </trkpt>
      <trkpt lat="45.92433" lon="4.73411">
        <ele>172</ele>
        <time>2018-02-20T11:52:04Z</time>
      </trkpt>
      <trkpt lat="45.92437" lon="4.73413">
        <ele>172</ele>
        <time>2018-02-20T11:52:05Z</time>
      </trkpt>
      <trkpt lat="45.92442" lon="4.73416">
        <ele>172</ele>
        <time>2018-02-20T11:52:06Z</time>
      </trkpt>
      <trkpt lat="45.92448" lon="4.73419">
        <ele>173</ele>
        <time>2018-02-20T11:52:07Z</time>
      </trkpt>
      <trkpt lat="45.92452" lon="4.73423">
        <ele>173</ele>
        <time>2018-02-20T11:52:08Z</time>
      </trkpt>
      <trkpt lat="45.92456" lon="4.73427">
        <ele>173</ele>
        <time>2018-02-20T11:52:09Z</time>
      </trkpt>
      <trkpt lat="45.9246" lon="4.73432">
        <ele>173</ele>
        <time>2018-02-20T11:52:10Z</time>
      </trkpt>
      <trkpt lat="45.92463" lon="4.73438">
        <ele>173</ele>
        <time>2018-02-20T11:52:11Z</time>
      </trkpt>
      <trkpt lat="45.92466" lon="4.73446">
        <ele>173</ele>
        <time>2018-02-20T11:52:12Z</time>
      </trkpt>
      <trkpt lat="45.92468" lon="4.73454">
        <ele>173</ele>
        <time>2018-02-20T11:52:13Z</time>
      </trkpt>
      <trkpt lat="45.92468" lon="4.73462">
        <ele>173</ele>
        <time>2018-02-20T11:52:14Z</time>
      </trkpt>
      <trkpt lat="45.92468" lon="4.7347">
        <ele>173</ele>
        <time>2018-02-20T11:52:15Z</time>
      </trkpt>
      <trkpt lat="45.92468" lon="4.7348">
        <ele>173</ele>
        <time>2018-02-20T11:52:16Z</time>
      </trkpt>
      <trkpt lat="45.92468" lon="4.73488">
        <ele>173</ele>
        <time>2018-02-20T11:52:17Z</time>
      </trkpt>
      <trkpt lat="45.92468" lon="4.73495">
        <ele>173</ele>
        <time>2018-02-20T11:52:18Z</time>
      </trkpt>
      <trkpt lat="45.92467" lon="4.73502">
        <ele>174</ele>
        <time>2018-02-20T11:52:19Z</time>
      </trkpt>
      <trkpt lat="45.92467" lon="4.73511">
        <ele>174</ele>
        <time>2018-02-20T11:52:20Z</time>
      </trkpt>
      <trkpt lat="45.92468" lon="4.7352">
        <ele>174</ele>
        <time>2018-02-20T11:52:21Z</time>
      </trkpt>
      <trkpt lat="45.92468" lon="4.73527">
        <ele>174</ele>
        <time>2018-02-20T11:52:22Z</time>
      </trkpt>
      <trkpt lat="45.92468" lon="4.73534">
        <ele>174</ele>
        <time>2018-02-20T11:52:23Z</time>
      </trkpt>
      <trkpt lat="45.92467" lon="4.73546">
        <ele>173</ele>
        <time>2018-02-20T11:52:25Z</time>
      </trkpt>
      <trkpt lat="45.92467" lon="4.73554">
        <ele>173</ele>
        <time>2018-02-20T11:52:26Z</time>
      </trkpt>
      <trkpt lat="45.92467" lon="4.7356">
        <ele>173</ele>
        <time>2018-02-20T11:52:27Z</time>
      </trkpt>
      <trkpt lat="45.92467" lon="4.73567">
        <ele>173</ele>
        <time>2018-02-20T11:52:28Z</time>
      </trkpt>
      <trkpt lat="45.92468" lon="4.73574">
        <ele>173</ele>
        <time>2018-02-20T11:52:29Z</time>
      </trkpt>
      <trkpt lat="45.92468" lon="4.73582">
        <ele>173</ele>
        <time>2018-02-20T11:52:30Z</time>
      </trkpt>
      <trkpt lat="45.92469" lon="4.7359">
        <ele>174</ele>
        <time>2018-02-20T11:52:31Z</time>
      </trkpt>
      <trkpt lat="45.92469" lon="4.73597">
        <ele>174</ele>
        <time>2018-02-20T11:52:32Z</time>
      </trkpt>
      <trkpt lat="45.92469" lon="4.73605">
        <ele>174</ele>
        <time>2018-02-20T11:52:33Z</time>
      </trkpt>
      <trkpt lat="45.92469" lon="4.73612">
        <ele>174</ele>
        <time>2018-02-20T11:52:34Z</time>
      </trkpt>
      <trkpt lat="45.9247" lon="4.7362">
        <ele>174</ele>
        <time>2018-02-20T11:52:35Z</time>
      </trkpt>
      <trkpt lat="45.92471" lon="4.73627">
        <ele>174</ele>
        <time>2018-02-20T11:52:36Z</time>
      </trkpt>
      <trkpt lat="45.92471" lon="4.73635">
        <ele>174</ele>
        <time>2018-02-20T11:52:37Z</time>
      </trkpt>
      <trkpt lat="45.9247" lon="4.73641">
        <ele>174</ele>
        <time>2018-02-20T11:52:38Z</time>
      </trkpt>
      <trkpt lat="45.9247" lon="4.73654">
        <ele>174</ele>
        <time>2018-02-20T11:52:40Z</time>
      </trkpt>
      <trkpt lat="45.92469" lon="4.73661">
        <ele>174</ele>
        <time>2018-02-20T11:52:41Z</time>
      </trkpt>
      <trkpt lat="45.92468" lon="4.73674">
        <ele>174</ele>
        <time>2018-02-20T11:52:43Z</time>
      </trkpt>
      <trkpt lat="45.92468" lon="4.7368">
        <ele>174</ele>
        <time>2018-02-20T11:52:44Z</time>
      </trkpt>
      <trkpt lat="45.92468" lon="4.73692">
        <ele>174</ele>
        <time>2018-02-20T11:52:46Z</time>
      </trkpt>
      <trkpt lat="45.92467" lon="4.73699">
        <ele>174</ele>
        <time>2018-02-20T11:52:47Z</time>
      </trkpt>
      <trkpt lat="45.92465" lon="4.7371">
        <ele>174</ele>
        <time>2018-02-20T11:53:00Z</time>
      </trkpt>
      <trkpt lat="45.92463" lon="4.73712">
        <ele>174</ele>
        <time>2018-02-20T11:53:01Z</time>
      </trkpt>
      <trkpt lat="45.9246" lon="4.73711">
        <ele>174</ele>
        <time>2018-02-20T11:53:31.34Z</time>
      </trkpt>
    </trkseg>
  </trk>
</gpx>